GFSWCAN_850_dewp_000.txt.gz
Dewpoint
6 6 6 5 6 4 3 1 2 3 3 4 5 5 6 6 7 7 7 6 6 5 2 3 2 0 1 1 3 -0 1 0 1 3 4 3 4 2 2 2 3 3 3 3 3 4 4 0 1 3 1 1 -0 -0
6 6 6 5 6 5 2 1 0 1 2 3 4 5 6 6 7 7 7 6 6 6 5 4 3 2 3 3 2 -1 3 1 1 3 2 2 3 1 2 4 0 3 3 4 3 2 0 0 0 0 0 0 1 0
6 6 6 5 5 5 2 -0 -1 -1 0 1 3 4 4 6 7 7 7 7 6 6 6 6 5 5 3 4 3 2 2 2 2 3 2 2 3 1 3 3 2 1 1 3 2 1 1 0 0 0 1 1 1 1
6 5 6 4 5 5 1 0 -0 -1 -2 -2 0 3 4 5 6 7 7 7 6 6 5 6 6 6 6 4 4 4 3 2 3 3 4 4 5 2 3 3 3 1 2 2 3 1 0 1 1 1 1 1 1 1
6 5 6 4 5 5 1 1 1 -1 -2 -2 -1 2 4 4 6 6 7 6 6 5 6 6 5 4 4 5 4 4 3 3 2 3 3 4 4 4 3 2 3 2 2 3 3 1 1 1 -0 -0 1 1 1 1
6 5 6 4 5 5 2 2 1 -0 -1 -2 -1 2 4 4 5 4 4 4 6 4 4 3 5 4 5 5 5 5 4 3 3 3 3 3 3 2 3 3 1 1 2 1 1 1 0 -0 0 0 0 0 -0 0
5 6 6 5 6 5 2 2 2 1 -0 -0 -1 2 3 4 3 3 4 4 4 4 3 3 4 4 5 5 5 5 4 4 4 3 3 3 3 2 3 3 1 1 1 1 0 -0 0 0 -0 -0 0 0 0 0
3 4 5 6 6 4 2 2 2 1 0 1 1 3 3 3 4 4 4 5 5 4 3 2 3 3 4 4 4 4 5 4 4 4 3 3 3 3 4 2 1 1 1 0 0 0 0 0 0 -0 -2 -2 0 0
0 2 2 3 4 4 3 2 3 2 1 1 2 2 2 3 2 3 4 4 5 3 3 3 3 4 3 3 3 3 3 4 4 4 3 3 3 4 2 1 1 1 0 -1 0 0 0 -1 -5 -7 -6 -5 -2 -1
-0 1 2 3 3 3 3 3 3 2 2 2 2 3 3 1 2 3 4 4 4 4 3 3 2 3 2 3 2 1 1 2 3 3 3 3 3 2 1 1 1 1 -0 -0 0 -0 -3 -9 -9 -7 -4 -2 -2 -2
-2 -1 0 1 2 2 2 2 2 2 2 2 2 1 2 2 1 1 1 1 2 2 2 2 2 2 2 2 3 0 1 1 1 -1 2 1 -0 -1 -2 -2 -1 -1 -1 -3 -7 -11 -10 -9 -7 -4 -3 -2 -2 -2
-3 -2 -1 -0 0 1 2 2 2 2 2 2 1 2 2 1 1 -1 0 -0 1 -1 1 1 2 1 2 2 0 0 0 0 0 -0 0 0 -1 -3 -2 -4 -5 -7 -9 -11 -10 -9 -9 -9 -6 -4 -3 -2 -2 -2
-3 -2 -2 -1 -0 0 1 1 2 2 2 0 0 1 0 0 -0 -1 -1 -1 -0 -1 1 1 1 1 1 1 0 1 1 1 -1 0 -1 -2 -4 -3 -3 -4 -7 -11 -11 -10 -7 -7 -9 -9 -7 -4 -2 -3 -3 -12
-4 -3 -2 -2 -1 -0 -0 1 2 1 1 1 0 0 -1 -1 -2 -3 -4 -4 -2 0 1 1 0 0 1 0 0 1 0 -1 0 0 -1 -3 -4 -4 -4 -5 -9 -10 -10 -8 -6 -7 -10 -9 -7 -5 -5 -9 -18 -21
-4 -3 -3 -3 -2 -1 -0 -0 1 0 0 0 -0 -1 -1 -5 -3 -3 -2 -1 -0 0 -0 -1 -1 -1 -1 -1 -1 -0 -0 0 -1 -2 -2 -4 -6 -7 -7 -7 -8 -8 -9 -8 -5 -5 -8 -9 -7 -6 -7 -14 -22 -21
-4 -4 -4 -3 -3 -2 -1 -1 -0 -0 -0 -0 -1 -3 -2 -3 -2 -2 -2 -2 -0 -1 -2 -2 -2 -2 -1 -2 -1 -1 -1 -1 -2 -3 -5 -5 -6 -6 -5 -5 -5 -7 -10 -9 -5 -4 -6 -8 -7 -7 -8 -15 -19 -20
-4 -4 -5 -3 -3 -2 -2 -1 -1 -0 -1 -1 -2 -2 -2 -3 -2 -2 -2 -1 -1 -1 -5 -3 -5 -6 -3 -2 -2 -3 -2 -2 -4 -5 -5 -5 -5 -5 -4 -4 -4 -5 -8 -7 -5 -4 -7 -8 -6 -7 -8 -10 -14 -16
-4 -4 -4 -4 -4 -3 -2 -2 -1 -1 -1 -1 -3 -2 -2 -2 -2 -2 -2 -1 -1 -2 -2 -4 -4 -4 -5 -4 -4 -4 -3 -4 -4 -5 -5 -6 -5 -5 -5 -4 -5 -5 -6 -6 -3 -5 -9 -9 -6 -5 -7 -9 -11 -13
-5 -5 -5 -4 -3 -3 -2 -2 -2 -2 -2 -1 -2 -1 -1 -2 -3 -3 -2 -1 -2 -2 -2 -2 -2 -5 -4 -5 -5 -7 -7 -7 -7 -6 -5 -5 -5 -4 -4 -4 -5 -6 -5 -4 -5 -9 -9 -7 -5 -6 -7 -7 -10 -11
-6 -5 -4 -3 -3 -3 -2 -2 -2 -2 -3 -2 -1 -1 -1 -2 -2 -3 -2 -2 -2 -2 -3 -4 -4 -4 -4 -9 -7 -6 -5 -5 -5 -5 -5 -5 -4 -4 -5 -5 -6 -6 -5 -4 -7 -10 -9 -7 -7 -7 -7 -9 -10 -12
-5 -5 -4 -4 -3 -3 -3 -3 -3 -2 -2 -3 -3 -3 -3 -1 -2 -2 -2 -2 -2 -3 -2 -3 -5 -9 -7 -6 -6 -6 -5 -5 -5 -4 -4 -5 -5 -5 -5 -6 -6 -5 -4 -6 -7 -8 -9 -9 -9 -9 -10 -12 -13 -16
-6 -4 -4 -4 -4 -3 -3 -3 -2 -3 -4 -3 -2 -3 -4 -4 -4 -2 -2 -2 -2 -4 -4 -5 -6 -6 -6 -6 -6 -6 -6 -6 -6 -6 -6 -5 -5 -5 -6 -6 -5 -4 -5 -5 -7 -8 -7 -8 -10 -12 -13 -16 -16 -16
-6 -6 -5 -4 -4 -4 -4 -4 -4 -5 -5 -5 -4 -4 -4 -4 -4 -3 -3 -3 -3 -4 -5 -5 -5 -6 -6 -7 -7 -7 -7 -7 -7 -7 -6 -6 -6 -7 -6 -5 -5 -5 -6 -7 -7 -8 -9 -11 -13 -16 -16 -16 -17 -18
-6 -7 -6 -6 -5 -5 -5 -5 -5 -5 -6 -5 -5 -6 -6 -6 -4 -5 -4 -6 -5 -7 -8 -9 -10 -9 -9 -8 -7 -7 -8 -8 -7 -7 -7 -7 -7 -6 -6 -6 -6 -7 -7 -8 -10 -12 -14 -15 -16 -16 -16 -18 -19 -19
-7 -6 -7 -8 -7 -7 -7 -6 -6 -6 -6 -7 -9 -8 -8 -7 -7 -7 -8 -9 -9 -10 -10 -9 -8 -8 -8 -9 -9 -8 -8 -8 -8 -7 -7 -6 -7 -7 -7 -8 -8 -9 -12 -13 -14 -15 -15 -16 -16 -17 -18 -19 -19 -19
-6 -6 -7 -12 -8 -10 -8 -7 -6 -6 -9 -11 -10 -9 -9 -9 -8 -8 -10 -9 -8 -8 -8 -9 -9 -10 -10 -9 -9 -9 -8 -8 -8 -8 -7 -8 -8 -8 -8 -8 -12 -14 -14 -15 -15 -16 -16 -17 -18 -19 -20 -19 -19 -19
-9 -9 -6 -7 -7 -8 -9 -9 -8 -10 -11 -10 -9 -9 -11 -9 -8 -10 -10 -9 -10 -10 -10 -10 -10 -10 -10 -10 -10 -10 -9 -9 -8 -8 -9 -9 -9 -9 -12 -13 -14 -15 -15 -15 -16 -16 -17 -19 -19 -19 -19 -19 -19 -19
-8 -7 -9 -6 -7 -8 -12 -12 -13 -11 -11 -10 -10 -11 -10 -10 -10 -10 -10 -10 -10 -10 -10 -9 -9 -9 -9 -10 -10 -10 -9 -9 -9 -10 -10 -10 -11 -12 -14 -15 -15 -15 -15 -16 -17 -18 -19 -19 -19 -19 -19 -19 -19 -18
-7 -8 -7 -8 -8 -9 -11 -11 -11 -9 -9 -9 -11 -11 -12 -10 -10 -10 -11 -11 -10 -10 -9 -9 -10 -10 -10 -10 -10 -10 -10 -10 -11 -11 -11 -11 -12 -14 -15 -15 -15 -16 -17 -18 -19 -19 -19 -19 -19 -19 -18 -18 -18 -18
-7 -7 -9 -12 -11 -9 -9 -8 -9 -9 -9 -9 -9 -10 -11 -11 -11 -11 -11 -10 -10 -10 -10 -10 -11 -11 -11 -11 -11 -11 -11 -11 -11 -11 -11 -12 -13 -14 -15 -15 -16 -18 -19 -19 -19 -19 -19 -19 -18 -18 -18 -17 -17 -18
-7 -6 -9 -9 -12 -10 -9 -8 -8 -8 -8 -8 -9 -9 -10 -11 -11 -11 -11 -11 -11 -11 -12 -12 -12 -12 -12 -12 -12 -12 -12 -12 -11 -11 -12 -12 -13 -15 -16 -17 -18 -18 -18 -19 -19 -19 -19 -19 -19 -19 -18 -18 -17 -17
-7 -8 -11 -13 -13 -10 -10 -9 -9 -9 -10 -10 -11 -11 -12 -12 -13 -13 -14 -13 -13 -13 -13 -13 -13 -13 -13 -13 -12 -12 -12 -12 -12 -12 -13 -14 -15 -16 -17 -17 -17 -18 -18 -18 -18 -18 -18 -18 -18 -18 -19 -19 -18 -18
-10 -10 -11 -12 -12 -12 -11 -11 -11 -13 -13 -13 -14 -13 -13 -12 -13 -15 -15 -15 -14 -14 -14 -14 -14 -13 -13 -13 -13 -13 -13 -13 -13 -14 -14 -14 -14 -15 -16 -17 -18 -18 -18 -18 -17 -17 -17 -18 -18 -18 -19 -20 -19 -18

GFSWCAN_850_dewp_003.txt.gz
Dewpoint
0 2 5 6 6 6 5 6 4 3 5 4 5 6 6 6 6 7 6 6 6 2 3 2 1 -0 0 0 2 -1 1 0 0 4 4 4 4 2 3 2 1 2 3 3 3 4 5 0 1 3 1 1 -0 -0
0 1 3 6 6 5 5 6 4 3 4 3 4 5 6 6 6 7 6 6 6 5 3 3 2 2 2 3 0 -1 2 0 1 3 2 2 3 1 2 4 1 4 2 3 2 2 1 0 0 0 -0 -0 0 -0
0 0 2 5 6 5 5 6 3 2 3 3 3 4 5 6 6 7 7 6 6 5 5 4 4 3 3 3 1 2 2 2 3 1 1 2 3 1 3 2 2 1 0 2 2 2 1 0 0 0 0 1 1 1
-0 1 1 4 6 5 5 6 2 1 1 2 0 2 4 5 6 7 7 6 6 5 5 5 5 6 5 3 4 3 2 2 3 3 3 3 4 1 2 2 2 1 2 2 2 2 1 0 0 0 1 1 1 1
-0 1 1 5 6 6 5 5 1 1 -0 0 -1 -0 2 4 6 6 7 7 6 5 6 5 5 4 5 5 3 3 2 2 3 3 3 4 4 4 3 2 4 2 2 3 3 1 0 0 0 0 1 1 1 0
-0 -1 1 5 5 5 5 5 1 1 -1 -1 -0 0 2 4 5 6 5 6 6 4 4 4 4 5 5 5 3 3 3 4 3 3 3 3 3 2 3 3 1 1 2 1 1 1 0 -0 0 -0 -1 -1 -1 -2
-1 2 2 6 5 5 5 4 2 1 -0 -1 1 3 4 5 5 2 3 4 6 4 2 4 3 4 5 5 5 4 4 4 3 3 3 3 3 2 2 3 0 1 1 1 0 -0 0 1 -0 -0 -1 -1 -4 -5
-1 2 4 5 5 6 5 4 3 1 1 1 3 3 4 4 2 2 3 4 5 3 1 2 3 3 4 4 4 5 4 4 4 3 3 3 3 2 2 1 1 1 0 0 0 0 -0 0 -1 -1 -4 -8 -9 -8
-2 -1 2 4 5 6 6 4 3 2 2 3 3 3 3 3 2 2 4 5 4 2 3 2 3 3 3 3 3 3 3 4 4 4 3 2 2 3 1 1 1 1 0 -0 0 1 -0 -0 -3 -9 -9 -8 -7 -6
-3 -1 0 2 2 3 5 4 3 3 3 3 3 2 2 2 3 3 4 5 2 3 2 1 2 3 2 3 2 1 1 3 3 3 3 3 3 2 1 1 1 0 0 -1 -1 -0 -1 -6 -9 -8 -8 -6 -4 -3
-3 -3 -1 1 2 3 3 3 3 3 3 3 2 2 2 3 2 1 1 2 2 -0 2 2 2 2 2 2 2 0 1 0 1 1 3 1 -2 -2 -2 -2 -1 0 1 -0 -4 -8 -9 -8 -7 -8 -8 -5 -3 -3
-3 -3 -2 -0 1 3 3 3 2 3 3 2 1 2 2 1 0 -1 1 -0 0 -1 0 2 2 1 2 0 1 -1 0 -0 -1 -0 1 -1 -3 -3 -3 -2 -2 -3 -6 -10 -8 -6 -6 -6 -8 -9 -8 -5 -3 -2
-3 -3 -2 -1 -0 1 3 2 2 2 3 2 1 2 1 0 0 -1 -1 -1 -1 -1 1 1 1 1 1 0 -0 -0 0 0 -1 -0 -1 -4 -4 -3 -3 -6 -9 -11 -10 -9 -7 -6 -5 -6 -8 -9 -9 -5 -3 -3
-4 -3 -3 -2 -1 0 1 2 1 2 1 1 -0 0 1 -0 -2 -3 -4 -3 -3 0 1 1 1 0 1 0 1 1 -0 -1 -1 -2 -3 -5 -4 -4 -4 -7 -9 -10 -10 -9 -8 -6 -5 -4 -4 -7 -9 -7 -5 -6
-5 -3 -3 -3 -2 -1 -0 0 1 0 0 0 0 1 -0 -4 -3 -4 -3 -1 -0 1 1 -1 -1 -1 -1 -0 -1 -0 0 -0 -2 -4 -5 -5 -4 -6 -7 -7 -8 -8 -8 -8 -9 -9 -6 -4 -4 -5 -7 -7 -7 -11
-5 -4 -3 -3 -2 -2 -1 -1 -1 -0 -0 -0 -1 -3 -3 -4 -3 -3 -3 -1 0 0 -1 -3 -2 -2 -1 -1 0 -0 -1 -3 -4 -6 -5 -5 -6 -6 -7 -7 -7 -6 -6 -6 -7 -9 -7 -4 -4 -6 -7 -7 -7 -11
-4 -4 -4 -4 -3 -3 -2 -2 -1 -1 -0 -1 -1 -2 -3 -3 -3 -2 -2 -0 -0 -1 -3 -3 -4 -4 -3 -2 -2 -3 -3 -4 -3 -4 -5 -7 -6 -7 -6 -6 -6 -5 -5 -5 -5 -6 -6 -4 -4 -7 -8 -7 -8 -11
-4 -4 -4 -5 -3 -3 -2 -2 -1 -1 -1 -1 -2 -2 -2 -2 -2 -1 -1 -0 -1 -2 -3 -5 -5 -3 -3 -3 -4 -4 -3 -4 -6 -6 -5 -5 -5 -5 -5 -5 -4 -4 -5 -5 -5 -6 -5 -4 -7 -9 -6 -5 -8 -10
-5 -4 -4 -4 -3 -3 -2 -2 -2 -2 -2 -2 -2 -1 -1 -2 -2 -1 -1 -1 -2 -2 -3 -3 -6 -5 -4 -6 -7 -5 -5 -5 -5 -5 -5 -5 -5 -5 -5 -5 -5 -5 -5 -6 -6 -5 -5 -6 -8 -7 -5 -6 -7 -8
-5 -4 -4 -4 -3 -3 -3 -2 -2 -2 -2 -2 -1 -1 -2 -2 -2 -2 -1 -1 -1 -3 -5 -5 -5 -5 -5 -5 -6 -5 -5 -5 -5 -6 -7 -7 -6 -6 -6 -6 -5 -5 -6 -6 -6 -5 -6 -9 -8 -7 -7 -7 -8 -9
-6 -5 -5 -4 -4 -3 -3 -3 -3 -3 -2 -3 -3 -2 -2 -2 -2 -2 -1 -1 -2 -3 -5 -4 -6 -6 -6 -6 -6 -5 -5 -5 -6 -5 -6 -7 -7 -7 -6 -5 -5 -6 -7 -5 -5 -5 -6 -7 -7 -8 -9 -9 -10 -12
-6 -5 -4 -4 -4 -3 -4 -3 -3 -3 -3 -3 -3 -3 -4 -4 -3 -2 -2 -2 -2 -4 -5 -5 -6 -6 -5 -5 -5 -5 -6 -7 -7 -7 -7 -7 -7 -6 -5 -6 -6 -7 -5 -5 -5 -6 -8 -8 -8 -9 -10 -13 -15 -16
-6 -6 -5 -5 -4 -4 -4 -4 -4 -4 -4 -5 -4 -4 -5 -5 -4 -2 -3 -3 -3 -3 -4 -4 -4 -4 -4 -6 -7 -8 -8 -8 -8 -8 -8 -7 -7 -6 -6 -7 -6 -5 -5 -6 -7 -7 -7 -8 -10 -12 -15 -16 -16 -16
-6 -7 -7 -6 -5 -5 -5 -5 -5 -5 -5 -5 -5 -6 -6 -6 -4 -4 -5 -6 -5 -5 -5 -5 -5 -7 -8 -8 -7 -8 -9 -9 -8 -8 -7 -7 -7 -7 -7 -6 -6 -6 -7 -7 -8 -8 -10 -12 -15 -15 -16 -16 -17 -19
-8 -8 -7 -8 -7 -8 -7 -7 -7 -7 -6 -7 -7 -7 -7 -6 -5 -6 -8 -8 -8 -7 -8 -8 -9 -9 -8 -9 -9 -9 -9 -8 -8 -8 -7 -7 -7 -7 -7 -7 -7 -8 -8 -10 -12 -13 -15 -15 -16 -16 -17 -19 -20 -20
-8 -7 -11 -13 -10 -10 -8 -8 -7 -7 -7 -7 -8 -9 -9 -8 -8 -8 -9 -9 -9 -8 -8 -8 -9 -10 -10 -9 -9 -9 -9 -9 -9 -8 -8 -8 -8 -8 -8 -8 -8 -10 -13 -14 -15 -15 -15 -16 -16 -18 -20 -20 -19 -19
-12 -10 -7 -8 -8 -8 -9 -8 -8 -8 -8 -8 -10 -9 -9 -8 -9 -10 -10 -10 -10 -10 -10 -10 -10 -9 -9 -9 -9 -10 -9 -9 -9 -9 -9 -9 -9 -9 -9 -11 -13 -14 -15 -15 -15 -16 -16 -18 -20 -20 -20 -20 -19 -18
-9 -8 -10 -7 -8 -9 -12 -12 -12 -10 -11 -10 -10 -10 -10 -10 -10 -11 -10 -10 -10 -10 -10 -9 -9 -9 -9 -9 -10 -10 -10 -10 -9 -10 -10 -10 -10 -10 -12 -14 -15 -15 -15 -15 -16 -17 -19 -20 -20 -20 -20 -19 -18 -18
-8 -8 -8 -8 -9 -9 -11 -12 -11 -9 -9 -9 -11 -12 -12 -11 -10 -10 -10 -10 -10 -10 -9 -9 -9 -10 -10 -10 -10 -10 -10 -10 -10 -11 -11 -11 -11 -12 -12 -15 -15 -15 -16 -17 -19 -19 -19 -20 -20 -19 -19 -18 -18 -18
-8 -8 -9 -10 -11 -9 -9 -9 -9 -9 -9 -9 -9 -10 -11 -11 -11 -11 -11 -11 -10 -9 -9 -10 -10 -10 -11 -11 -11 -11 -11 -11 -11 -11 -11 -11 -11 -12 -14 -15 -15 -16 -18 -19 -19 -19 -19 -19 -19 -19 -19 -19 -19 -19
-7 -7 -9 -10 -13 -10 -9 -9 -8 -8 -8 -9 -9 -10 -10 -11 -11 -11 -11 -11 -10 -10 -11 -11 -11 -11 -12 -12 -12 -12 -12 -12 -11 -11 -11 -11 -12 -13 -15 -16 -17 -18 -19 -19 -19 -18 -18 -18 -18 -18 -18 -18 -19 -20
-8 -7 -9 -12 -12 -10 -10 -9 -9 -9 -10 -10 -10 -10 -11 -11 -12 -12 -13 -12 -12 -12 -12 -12 -12 -13 -13 -13 -13 -12 -12 -12 -12 -12 -12 -13 -13 -14 -16 -17 -17 -18 -18 -18 -18 -18 -18 -17 -17 -18 -18 -19 -20 -21
-10 -10 -11 -12 -13 -13 -11 -11 -11 -13 -13 -13 -14 -13 -13 -12 -13 -14 -14 -14 -14 -14 -14 -14 -14 -13 -13 -13 -13 -13 -13 -13 -13 -14 -14 -14 -14 -14 -15 -17 -18 -18 -18 -17 -17 -17 -17 -17 -18 -18 -18 -19 -19 -20

GFSWCAN_850_dewp_006.txt.gz
Dewpoint
-2 -1 -0 0 1 4 6 6 6 5 5 5 5 5 6 6 7 6 5 6 6 1 3 2 1 -1 -0 -1 -1 -3 -1 -1 1 3 4 4 4 2 3 2 1 0 2 3 3 4 4 -0 1 2 1 1 -0 -0
-2 -2 -1 -0 1 2 6 5 6 5 5 5 5 5 6 6 6 7 7 6 5 2 3 2 2 2 2 2 -1 -1 1 -0 0 3 2 2 3 1 2 4 1 3 1 2 2 3 1 1 0 0 -0 -0 -0 -0
-2 -2 -1 -1 1 2 6 6 5 6 4 4 5 5 6 6 6 6 7 6 5 3 5 4 4 3 3 2 -1 2 2 1 2 1 1 2 3 1 4 3 2 1 0 2 2 2 1 0 0 -0 -0 0 0 0
-3 -2 -1 0 1 2 5 6 5 6 3 4 4 5 5 6 6 6 7 6 6 5 5 5 5 5 4 3 3 3 2 2 2 2 3 3 4 1 2 1 1 0 1 2 2 1 1 0 0 0 1 1 1 1
-3 -2 -1 1 -1 1 5 6 5 6 2 3 4 4 5 6 6 6 7 6 6 5 6 5 5 5 5 4 4 3 2 2 3 3 3 4 3 3 2 2 3 1 2 2 2 1 1 1 0 -0 0 0 0 0
-3 -2 -2 1 0 2 5 6 6 5 2 2 2 3 5 5 5 6 7 6 6 5 5 5 4 5 5 3 3 3 3 3 3 3 3 3 4 2 1 3 0 2 2 1 1 1 0 0 -0 0 -0 -0 -1 -3
-3 -3 -2 2 1 3 6 6 6 3 2 1 1 3 4 4 5 4 3 5 5 3 2 3 4 4 5 4 4 4 4 4 3 3 3 3 3 2 2 2 -0 1 1 1 1 0 0 0 0 -0 -1 -2 -6 -9
-3 -3 -2 1 3 5 5 6 5 2 1 0 3 4 4 4 5 3 3 6 4 2 1 2 3 3 4 4 4 4 4 4 3 3 3 3 3 2 2 0 1 1 2 1 0 0 0 0 -1 -1 -4 -9 -9 -8
-4 -3 -2 0 2 5 6 6 4 2 1 3 3 4 4 4 3 3 4 5 3 2 2 2 2 3 3 3 3 2 3 4 3 3 3 2 3 2 -0 0 1 1 0 0 0 0 -0 -0 -4 -9 -9 -8 -7 -7
-4 -3 -3 -0 2 4 5 5 3 2 3 3 3 2 2 2 2 4 4 4 3 3 1 1 2 3 2 2 2 1 1 3 4 3 3 2 1 1 1 0 0 0 0 0 0 0 -1 -8 -8 -8 -7 -7 -7 -6
-4 -3 -3 -2 1 3 4 4 3 3 3 3 2 2 3 4 2 1 2 1 1 0 2 1 1 2 2 2 2 0 -1 -1 -0 -0 2 0 -0 -2 -1 0 0 0 -0 -0 -2 -8 -7 -8 -7 -7 -8 -8 -8 -6
-4 -3 -3 -2 -1 1 3 3 3 3 3 2 1 3 2 1 0 -1 1 -2 -0 -1 0 1 1 1 1 0 -0 -1 -2 -3 1 0 2 -1 -3 -3 -2 -1 -1 1 1 -3 -7 -7 -8 -7 -6 -6 -7 -9 -9 -7
-4 -3 -3 -3 -2 0 2 2 3 3 2 2 2 2 1 0 0 0 1 -0 -4 -3 1 1 1 1 0 -1 -1 -2 -1 -2 -1 0 -1 -3 -5 -3 -5 -3 -1 -1 -6 -7 -7 -7 -6 -5 -4 -4 -5 -7 -9 -8
-5 -4 -3 -3 -2 -0 2 2 2 2 1 1 -0 0 1 0 -0 -3 -4 -4 -3 -1 1 1 0 0 1 -0 0 -1 -1 -1 0 -0 -2 -6 -4 -3 -7 -9 -10 -9 -9 -8 -8 -7 -7 -6 -5 -4 -4 -5 -7 -8
-6 -4 -4 -3 -2 -2 -1 1 1 0 0 -0 0 1 -0 -5 -4 -4 -3 -2 -0 1 0 -1 -1 -0 -1 -0 -2 -2 0 0 -2 -3 -5 -5 -4 -4 -7 -8 -9 -9 -9 -9 -8 -8 -8 -9 -7 -5 -4 -5 -6 -7
-6 -4 -4 -3 -3 -2 -2 -0 -0 0 -0 -0 -1 -3 -3 -5 -4 -4 -2 -1 1 1 -1 -2 -2 -3 -1 -1 -0 -2 -3 -2 -4 -7 -5 -4 -4 -7 -8 -8 -8 -7 -7 -6 -6 -6 -7 -7 -7 -6 -5 -5 -7 -7
-6 -4 -4 -3 -3 -3 -2 -1 -0 -0 -0 -1 -2 -3 -3 -4 -4 -3 -1 0 1 -1 -2 -3 -2 -1 -3 -1 -2 -4 -4 -6 -6 -4 -4 -7 -7 -7 -7 -6 -6 -5 -5 -5 -5 -5 -6 -6 -6 -5 -5 -7 -7 -7
-5 -4 -4 -4 -3 -3 -2 -2 -1 -1 -1 -2 -2 -3 -3 -3 -2 -2 -1 0 -0 -2 -4 -4 -4 -2 -2 -3 -4 -5 -4 -4 -4 -5 -6 -6 -6 -6 -5 -6 -6 -6 -6 -6 -6 -5 -5 -6 -5 -5 -6 -7 -6 -6
-6 -5 -4 -4 -4 -3 -3 -2 -2 -2 -2 -2 -2 -2 -2 -2 -2 -2 -0 -0 -1 -2 -4 -4 -4 -4 -4 -6 -8 -4 -4 -5 -5 -4 -5 -4 -4 -5 -6 -6 -6 -6 -6 -6 -5 -6 -6 -5 -5 -6 -8 -7 -7 -8
-5 -4 -4 -5 -4 -3 -3 -3 -2 -2 -3 -2 -2 -2 -2 -2 -2 -1 -1 -2 -2 -3 -4 -4 -5 -5 -5 -6 -6 -6 -6 -6 -6 -6 -6 -7 -7 -7 -7 -7 -7 -6 -5 -5 -6 -6 -6 -5 -7 -7 -7 -7 -7 -8
-7 -6 -6 -5 -4 -3 -3 -3 -3 -3 -3 -3 -3 -3 -3 -2 -2 -1 -1 -2 -2 -3 -4 -5 -5 -5 -5 -5 -5 -5 -6 -6 -7 -7 -7 -7 -7 -8 -7 -6 -5 -5 -6 -6 -7 -5 -5 -6 -7 -7 -7 -8 -8 -9
-7 -6 -5 -5 -4 -4 -4 -3 -3 -3 -3 -4 -3 -3 -3 -3 -3 -2 -1 -2 -2 -3 -3 -3 -4 -4 -4 -5 -5 -6 -7 -8 -8 -8 -8 -8 -8 -7 -6 -6 -6 -6 -7 -6 -5 -5 -6 -7 -8 -8 -8 -10 -14 -15
-8 -7 -6 -5 -5 -5 -5 -4 -4 -5 -4 -4 -4 -4 -4 -4 -4 -2 -3 -3 -3 -3 -3 -3 -4 -4 -4 -5 -6 -8 -9 -9 -8 -8 -8 -8 -8 -7 -7 -6 -6 -6 -5 -5 -6 -7 -7 -8 -8 -10 -14 -15 -16 -16
-7 -7 -7 -6 -6 -6 -5 -5 -5 -5 -5 -5 -5 -5 -6 -5 -4 -4 -4 -6 -4 -3 -3 -4 -4 -5 -7 -8 -8 -8 -9 -9 -8 -8 -8 -8 -7 -7 -7 -7 -6 -6 -6 -7 -7 -8 -8 -10 -13 -15 -16 -16 -16 -18
-9 -9 -8 -11 -7 -7 -6 -6 -6 -7 -6 -6 -6 -6 -7 -6 -5 -6 -6 -8 -6 -5 -6 -7 -8 -9 -8 -9 -9 -9 -9 -9 -8 -8 -8 -8 -7 -7 -7 -7 -7 -7 -8 -8 -9 -11 -13 -15 -15 -16 -16 -18 -20 -21
-10 -8 -11 -14 -11 -11 -8 -7 -6 -7 -7 -7 -8 -9 -8 -6 -6 -6 -9 -9 -9 -8 -8 -8 -9 -9 -9 -9 -9 -9 -9 -9 -9 -8 -8 -8 -8 -8 -8 -8 -8 -9 -10 -12 -14 -15 -15 -15 -16 -18 -20 -20 -20 -20
-12 -9 -7 -8 -8 -9 -9 -8 -8 -7 -7 -7 -8 -8 -8 -7 -8 -10 -10 -10 -9 -9 -10 -10 -10 -9 -9 -9 -9 -9 -9 -9 -9 -9 -9 -9 -9 -9 -9 -9 -10 -12 -14 -15 -15 -15 -16 -17 -19 -20 -20 -20 -19 -19
-9 -8 -11 -8 -8 -9 -12 -12 -12 -10 -10 -10 -10 -9 -8 -9 -9 -11 -10 -10 -10 -10 -10 -10 -9 -9 -9 -9 -10 -10 -10 -10 -10 -9 -9 -10 -10 -10 -10 -11 -14 -15 -15 -15 -16 -16 -18 -20 -20 -20 -20 -20 -20 -19
-8 -8 -8 -8 -9 -10 -12 -12 -12 -10 -10 -9 -11 -11 -12 -11 -11 -10 -11 -11 -10 -10 -10 -9 -9 -10 -10 -10 -10 -10 -10 -10 -10 -10 -10 -11 -11 -12 -12 -13 -15 -15 -15 -16 -18 -19 -20 -20 -20 -20 -19 -19 -19 -19
-8 -8 -10 -10 -10 -9 -9 -9 -9 -9 -9 -9 -10 -11 -11 -11 -11 -11 -11 -11 -11 -10 -9 -9 -10 -10 -10 -11 -11 -11 -11 -11 -11 -11 -11 -11 -11 -11 -13 -14 -14 -15 -17 -19 -19 -19 -19 -19 -18 -18 -18 -18 -18 -19
-8 -8 -10 -10 -13 -10 -9 -9 -9 -9 -9 -9 -9 -10 -11 -11 -11 -11 -11 -11 -11 -10 -10 -11 -11 -11 -11 -11 -11 -11 -12 -11 -11 -11 -11 -11 -11 -12 -13 -15 -16 -17 -19 -19 -19 -19 -18 -18 -18 -18 -18 -18 -18 -19
-8 -8 -10 -11 -12 -11 -11 -10 -9 -9 -10 -9 -10 -10 -11 -11 -11 -11 -12 -11 -11 -11 -11 -11 -11 -12 -12 -12 -12 -12 -12 -12 -12 -12 -12 -12 -12 -13 -14 -16 -17 -18 -19 -19 -18 -18 -18 -18 -18 -18 -19 -19 -19 -19
-10 -10 -11 -12 -13 -12 -11 -11 -12 -13 -13 -13 -14 -14 -13 -12 -13 -13 -14 -13 -13 -13 -13 -13 -13 -13 -13 -13 -13 -13 -13 -13 -13 -13 -13 -13 -13 -14 -14 -16 -18 -18 -18 -18 -18 -17 -18 -17 -18 -20 -21 -22 -22 -22

GFSWCAN_850_dewp_009.txt.gz
Dewpoint
-3 -3 -2 -2 -1 -0 0 1 5 6 6 5 5 5 5 5 6 6 6 5 6 2 3 2 0 -1 -1 -3 -1 -3 -1 -2 2 5 6 4 4 2 2 0 0 1 2 2 3 3 2 -0 0 2 1 1 1 -0
-4 -3 -2 -2 -2 -1 -0 1 4 6 5 5 5 5 5 5 6 6 6 6 6 2 3 2 2 1 1 1 -3 -2 -0 -1 -1 3 2 2 3 2 2 4 1 2 -0 2 1 2 1 1 0 0 1 -0 -0 -1
-4 -3 -3 -2 -2 -1 0 1 4 5 5 5 5 4 5 5 6 6 7 6 4 3 4 4 3 3 2 -0 -3 1 1 0 1 1 1 2 3 1 4 3 2 1 1 2 1 2 0 0 0 -0 -0 -0 -0 -1
-4 -3 -3 -2 -2 -1 -0 1 2 5 5 5 4 4 5 5 6 6 7 6 6 4 4 4 5 4 3 3 1 2 2 2 1 2 2 2 3 0 2 1 1 0 1 2 2 1 1 0 0 -0 0 0 0 0
-5 -3 -3 -2 -2 -0 -0 1 3 5 5 5 4 4 4 5 6 6 7 6 6 5 5 5 5 5 4 3 4 2 2 2 3 3 2 4 2 3 2 1 2 1 1 2 2 1 1 0 0 1 0 0 0 -0
-5 -3 -3 -3 -2 -0 1 1 4 5 5 5 4 4 4 5 5 6 6 7 6 5 5 5 4 5 3 3 3 3 3 3 3 3 2 3 3 2 1 3 0 1 1 0 0 1 0 0 0 0 0 -0 -1 -2
-6 -3 -3 -3 -2 -0 2 2 5 5 5 4 4 4 4 5 5 6 5 6 6 4 3 3 4 5 4 4 4 4 4 3 3 3 2 2 3 1 1 2 -1 1 2 1 1 0 1 0 0 0 -1 -2 -3 -8
-5 -3 -3 -3 -2 0 3 3 5 5 5 4 4 4 4 5 5 4 4 5 4 2 2 2 3 4 4 4 4 4 4 3 3 3 3 2 3 1 2 -0 0 1 1 1 0 0 0 0 -0 -1 -2 -6 -9 -7
-5 -3 -3 -3 -2 -0 2 4 5 5 3 3 3 3 4 5 4 3 5 5 3 2 2 1 3 4 4 3 3 2 3 4 3 3 3 2 1 1 0 -0 1 1 1 0 0 0 0 -1 -1 -5 -9 -8 -7 -7
-5 -3 -3 -3 -2 -0 2 4 5 4 3 3 4 4 3 3 3 3 3 3 3 2 1 1 1 3 3 2 2 2 2 3 4 3 3 2 0 -0 -0 -0 -0 1 0 0 0 -0 -0 -4 -9 -8 -8 -8 -8 -8
-5 -4 -3 -3 -2 -1 1 4 4 3 3 4 2 1 3 4 2 1 2 1 1 1 1 1 1 2 2 2 2 0 1 -0 2 0 3 1 0 -1 1 0 1 1 0 0 -0 -1 -5 -8 -8 -9 -8 -8 -9 -9
-6 -4 -4 -3 -3 -2 0 2 3 3 4 3 2 3 3 1 -0 -1 -2 -2 0 0 1 1 1 1 1 -0 -0 -1 -2 -4 -2 -1 2 -0 -2 -3 -1 1 1 0 -0 -1 -6 -8 -9 -9 -8 -7 -7 -7 -8 -8
-11 -5 -4 -3 -3 -2 1 3 2 3 3 2 3 2 1 1 0 0 1 -0 -4 -3 1 1 1 0 -1 -1 -3 -4 -5 -3 -2 1 -0 -2 -4 -3 -2 -2 1 0 -2 -7 -7 -9 -8 -7 -6 -5 -5 -5 -6 -6
-12 -5 -4 -3 -3 -2 0 3 2 2 2 1 0 1 1 1 0 -3 -3 -3 -3 -1 1 1 -0 -0 -0 -3 -2 -1 -3 -2 -1 -2 -3 -5 -4 -3 -2 -1 0 1 -4 -7 -7 -7 -7 -6 -6 -5 -5 -5 -5 -6
-12 -6 -4 -3 -3 -2 -1 2 2 1 1 0 0 1 0 -4 -4 -5 -3 -2 -0 1 0 -1 -1 -1 -1 -0 -1 -1 -0 -1 -2 -4 -6 -6 -4 -6 -6 -3 -2 -6 -8 -8 -8 -9 -9 -8 -9 -7 -6 -5 -5 -6
-9 -5 -3 -3 -3 -3 -1 -0 0 0 -0 -0 -1 -2 -4 -4 -4 -3 -2 -1 1 0 -2 -2 -5 -4 -1 -2 -0 -3 -2 -3 -4 -6 -6 -5 -3 -8 -9 -9 -9 -9 -9 -8 -7 -6 -7 -7 -7 -6 -6 -5 -6 -7
-8 -4 -4 -4 -4 -3 -2 -1 -0 -0 -0 -1 -3 -3 -4 -4 -3 -3 -1 -0 1 -1 -4 -5 -3 -4 -3 -1 -1 -6 -5 -6 -7 -5 -5 -4 -7 -8 -8 -8 -7 -6 -6 -6 -6 -6 -6 -6 -6 -6 -5 -6 -7 -7
-7 -6 -4 -5 -4 -3 -2 -2 -1 -1 -1 -3 -2 -3 -3 -3 -2 -1 -0 1 -0 -3 -4 -5 -4 -3 -4 -3 -4 -6 -5 -4 -4 -5 -4 -6 -7 -6 -6 -5 -5 -5 -5 -5 -5 -5 -5 -5 -6 -5 -5 -7 -7 -7
-6 -5 -5 -6 -4 -3 -3 -2 -2 -2 -2 -3 -3 -2 -2 -2 -2 -1 0 0 -1 -5 -5 -4 -5 -6 -5 -7 -8 -5 -4 -4 -4 -5 -5 -6 -5 -5 -5 -5 -6 -7 -6 -6 -5 -5 -6 -6 -6 -6 -6 -7 -7 -8
-7 -7 -7 -6 -4 -3 -3 -3 -2 -2 -3 -3 -2 -2 -3 -3 -2 -1 -0 -1 -2 -2 -2 -4 -6 -6 -6 -6 -4 -5 -5 -5 -5 -5 -5 -5 -5 -6 -8 -9 -10 -10 -8 -7 -6 -6 -6 -6 -6 -6 -7 -7 -7 -8
-10 -10 -7 -5 -4 -3 -3 -3 -3 -3 -3 -4 -3 -3 -3 -2 -2 -1 -1 -2 -1 -2 -4 -5 -5 -5 -5 -5 -6 -6 -6 -7 -7 -7 -8 -9 -10 -11 -12 -12 -10 -8 -6 -6 -6 -6 -6 -5 -6 -7 -7 -7 -8 -8
-9 -8 -6 -5 -4 -4 -4 -4 -4 -4 -4 -4 -3 -3 -3 -3 -2 -2 -1 -2 -2 -3 -4 -4 -4 -4 -5 -6 -6 -7 -9 -10 -11 -11 -11 -11 -11 -10 -8 -7 -6 -6 -6 -7 -6 -5 -5 -6 -7 -8 -8 -9 -13 -15
-9 -8 -7 -6 -6 -6 -5 -4 -4 -5 -4 -4 -4 -4 -4 -4 -3 -2 -3 -3 -4 -3 -4 -4 -4 -4 -5 -5 -6 -7 -9 -10 -11 -10 -10 -9 -8 -8 -7 -7 -6 -6 -6 -6 -5 -6 -7 -7 -8 -9 -12 -15 -16 -16
-9 -8 -7 -6 -6 -7 -6 -6 -5 -5 -5 -5 -5 -6 -6 -5 -4 -3 -4 -6 -5 -4 -3 -4 -4 -4 -5 -6 -8 -9 -9 -9 -9 -9 -8 -8 -8 -7 -7 -7 -7 -6 -6 -6 -7 -8 -8 -9 -12 -15 -15 -15 -16 -18
-10 -10 -9 -14 -9 -9 -7 -6 -7 -7 -6 -6 -6 -6 -7 -7 -5 -5 -5 -7 -7 -6 -4 -4 -5 -6 -7 -8 -9 -9 -8 -8 -8 -8 -8 -8 -7 -7 -7 -7 -7 -7 -8 -8 -8 -9 -11 -14 -15 -16 -16 -17 -20 -21
-11 -8 -11 -15 -11 -10 -9 -6 -6 -7 -6 -7 -7 -8 -8 -6 -4 -5 -8 -9 -9 -8 -6 -6 -6 -8 -9 -9 -9 -9 -9 -9 -9 -9 -8 -8 -8 -8 -8 -8 -8 -9 -9 -10 -12 -14 -15 -15 -16 -17 -19 -21 -21 -21
-12 -10 -8 -8 -8 -9 -10 -9 -8 -8 -7 -6 -7 -7 -7 -5 -6 -9 -10 -10 -9 -9 -9 -9 -9 -9 -9 -9 -9 -9 -9 -9 -9 -9 -9 -9 -8 -8 -9 -9 -9 -10 -12 -14 -15 -15 -16 -16 -18 -20 -21 -21 -21 -20
-9 -8 -12 -9 -9 -10 -13 -12 -11 -11 -11 -10 -9 -8 -8 -9 -9 -11 -11 -10 -10 -10 -10 -10 -9 -9 -9 -9 -9 -10 -10 -10 -10 -9 -9 -9 -9 -9 -10 -11 -12 -14 -15 -15 -15 -16 -17 -20 -20 -20 -20 -20 -19 -19
-8 -8 -8 -11 -10 -10 -13 -13 -13 -10 -9 -9 -11 -10 -11 -12 -11 -11 -11 -11 -10 -10 -10 -9 -9 -9 -9 -10 -10 -10 -10 -10 -10 -10 -10 -11 -11 -12 -12 -13 -14 -14 -15 -16 -17 -19 -20 -20 -20 -19 -19 -18 -18 -18
-8 -8 -10 -10 -10 -10 -10 -9 -10 -9 -9 -10 -11 -12 -12 -12 -12 -11 -11 -10 -10 -10 -9 -9 -10 -10 -10 -10 -10 -11 -11 -11 -11 -11 -11 -11 -11 -12 -13 -14 -14 -14 -16 -18 -19 -19 -19 -19 -18 -18 -18 -19 -19 -18
-8 -8 -10 -11 -14 -11 -10 -10 -9 -9 -9 -9 -10 -10 -12 -12 -11 -11 -11 -11 -11 -11 -10 -10 -10 -10 -11 -11 -11 -11 -11 -11 -11 -11 -11 -11 -11 -12 -13 -13 -15 -17 -19 -19 -19 -19 -18 -18 -18 -18 -19 -20 -21 -21
-9 -9 -10 -10 -13 -12 -11 -10 -10 -10 -10 -10 -11 -10 -11 -11 -12 -12 -12 -12 -12 -12 -11 -11 -11 -11 -12 -12 -12 -12 -12 -12 -11 -11 -11 -11 -12 -13 -14 -15 -16 -18 -19 -19 -18 -18 -18 -18 -18 -18 -19 -22 -23 -23
-10 -10 -11 -12 -13 -13 -12 -11 -12 -14 -13 -14 -14 -14 -12 -12 -13 -14 -14 -14 -13 -14 -13 -13 -13 -13 -13 -13 -13 -12 -12 -12 -12 -12 -12 -13 -13 -14 -14 -16 -18 -18 -18 -18 -18 -18 -18 -18 -19 -21 -23 -23 -23 -22

GFSWCAN_850_dewp_012.txt.gz
Dewpoint
-5 -5 -5 -3 -2 -2 -2 -1 -0 1 2 6 5 5 5 5 5 6 6 4 5 2 2 1 0 -1 -0 2 4 -1 3 3 5 7 7 6 5 5 1 1 1 3 4 4 5 8 6 -0 -0 1 2 1 1 1
-5 -5 -5 -3 -2 -2 -2 -2 -0 1 3 5 5 5 4 5 5 6 6 5 6 5 3 3 2 0 -0 -2 1 1 3 2 5 6 5 3 3 2 2 2 0 2 2 1 1 1 1 1 1 0 1 1 0 0
-5 -5 -5 -3 -2 -2 -2 -1 -0 1 2 5 5 5 4 4 5 6 6 6 5 3 4 4 4 3 2 -0 -2 1 1 -1 1 2 3 4 5 2 3 3 2 1 1 1 1 2 1 1 1 1 0 -0 -1 -1
-5 -5 -5 -3 -2 -3 -2 -1 -0 1 2 5 5 5 5 5 5 5 6 6 4 3 5 4 4 4 3 1 -2 1 1 -0 1 1 3 4 4 1 3 2 2 1 1 2 2 1 1 0 0 -0 -0 -1 -1 -1
-4 -5 -6 -4 -3 -3 -2 -1 0 1 2 5 5 5 4 4 5 5 6 6 6 5 5 5 5 4 3 3 3 2 1 1 3 4 5 5 2 3 2 2 2 0 1 2 2 1 1 0 0 0 -0 -0 -0 -1
-4 -5 -5 -3 -2 -3 -2 -1 1 1 3 5 5 4 4 5 5 6 6 6 6 5 4 6 4 4 3 3 3 3 2 2 3 4 4 4 3 3 6 5 1 1 0 -0 -0 1 1 1 0 0 -0 0 -0 -1
-5 -5 -5 -4 -3 -3 -2 -1 2 2 5 5 5 4 4 5 5 6 5 6 6 5 4 4 5 4 4 4 4 4 3 3 3 4 4 4 3 2 3 5 -0 1 1 1 0 1 1 1 1 1 0 -0 -1 -4
-5 -5 -5 -4 -3 -3 -2 -0 2 2 4 5 4 4 4 5 5 5 4 6 6 4 3 3 4 4 4 5 5 4 4 4 4 4 3 3 3 2 4 1 -0 1 1 1 1 0 1 0 0 0 -1 -2 -4 -9
-5 -5 -5 -4 -3 -3 -2 0 2 3 5 4 4 4 4 5 5 4 5 5 3 3 2 2 4 5 4 3 3 3 3 5 3 4 3 3 3 5 4 1 0 1 1 1 0 0 0 0 -0 -1 -2 -7 -8 -8
-5 -5 -9 -4 -3 -3 -2 0 3 4 4 3 3 3 3 3 4 4 4 4 4 3 1 2 2 4 3 3 2 2 2 4 5 4 3 3 4 1 0 -0 0 0 1 0 0 -0 0 -1 -1 -4 -8 -8 -8 -8
-5 -6 -12 -3 -4 -3 -2 1 4 4 3 3 3 2 3 3 3 1 2 3 2 3 1 2 2 3 2 3 2 1 2 2 5 3 4 3 2 1 0 -1 0 0 1 0 0 -0 -1 -2 -7 -8 -8 -9 -9 -8
-8 -8 -10 -4 -4 -3 -2 0 2 3 3 3 2 3 4 1 -0 1 2 0 2 3 1 2 1 1 1 -1 1 -0 1 -0 3 -0 2 3 0 -3 -0 0 0 1 0 0 -0 -1 -5 -8 -9 -9 -8 -8 -8 -8
-8 -11 -7 -5 -3 -3 -2 -0 3 2 4 3 3 2 2 1 2 2 2 2 1 -0 1 1 1 0 -1 -2 -1 -1 0 1 -1 1 1 0 -3 -3 0 1 0 0 0 -0 -4 -8 -9 -9 -7 -7 -6 -6 -7 -7
-9 -16 -5 -3 -4 -3 -2 0 3 3 2 2 0 2 2 2 2 1 0 0 -2 1 1 1 0 1 -1 0 -1 -0 -2 -2 0 0 -0 -3 -4 -3 -2 0 0 -0 -5 -7 -8 -8 -7 -6 -6 -6 -6 -6 -6 -6
-12 -14 -5 -4 -4 -3 -2 -1 1 2 0 0 1 3 2 -2 -4 -5 -4 -2 -0 1 0 0 -0 -1 -1 -0 -2 -1 -0 -0 -2 -2 -3 -4 -4 -3 -2 0 -0 -6 -7 -7 -7 -7 -7 -8 -8 -7 -7 -6 -5 -6
-17 -9 -5 -4 -5 -3 -2 -0 1 1 -0 -0 -1 -2 -3 -2 -3 -3 -2 -0 1 0 -2 -2 -1 -0 -0 -0 -1 -1 -1 -1 -1 -1 -5 -4 -4 -1 -1 0 0 -6 -6 -7 -8 -9 -8 -8 -8 -7 -6 -6 -6 -6
-14 -6 -5 -5 -5 -3 -2 -1 -0 -0 -1 -1 -2 -3 -4 -3 -3 -2 -1 0 1 -1 -0 -1 0 -0 -2 -1 -0 -3 -1 -2 -4 -5 -5 -5 -6 -4 -1 -1 -6 -8 -9 -8 -7 -7 -7 -7 -6 -6 -5 -5 -6 -7
-9 -6 -6 -6 -5 -3 -2 -2 -1 -1 -2 -3 -1 -2 -2 -3 -3 -2 -0 1 -0 -3 -4 -2 -3 -1 -0 0 -1 -2 -4 -4 -5 -5 -4 -8 -8 -9 -8 -8 -7 -7 -7 -7 -7 -6 -6 -6 -6 -6 -5 -6 -7 -7
-9 -8 -8 -6 -4 -3 -3 -2 -2 -2 -3 -3 -3 -3 -3 -2 -1 -1 0 0 -1 -5 -5 -4 -3 -2 -3 -4 -4 -5 -4 -5 -4 -4 -5 -7 -6 -6 -6 -6 -7 -6 -6 -5 -6 -6 -6 -6 -6 -6 -6 -7 -7 -8
-14 -12 -8 -6 -4 -3 -3 -3 -3 -3 -2 -3 -3 -3 -3 -2 -1 -0 -0 -1 -3 -2 -1 -3 -6 -6 -6 -6 -5 -4 -5 -4 -5 -5 -5 -5 -5 -5 -6 -6 -7 -7 -7 -7 -6 -6 -6 -6 -6 -6 -7 -7 -8 -8
-14 -11 -9 -6 -4 -4 -4 -4 -4 -4 -3 -4 -3 -3 -3 -2 -2 -1 -1 -0 0 -1 -2 -5 -5 -5 -5 -5 -4 -4 -5 -5 -5 -5 -5 -5 -5 -7 -8 -8 -8 -8 -7 -7 -6 -6 -6 -6 -6 -7 -7 -7 -8 -8
-11 -10 -8 -6 -4 -4 -4 -4 -4 -4 -4 -4 -3 -3 -2 -2 -2 -1 -1 -2 -2 -3 -5 -5 -5 -5 -5 -5 -5 -5 -6 -6 -6 -6 -7 -8 -9 -9 -9 -8 -7 -7 -7 -7 -7 -6 -6 -6 -6 -7 -8 -8 -11 -14
-11 -10 -8 -7 -6 -6 -5 -5 -4 -5 -3 -4 -4 -4 -4 -4 -3 -2 -3 -4 -5 -4 -4 -4 -5 -5 -6 -6 -7 -8 -9 -11 -12 -12 -12 -12 -11 -10 -9 -8 -8 -7 -7 -7 -6 -6 -6 -7 -8 -8 -10 -14 -15 -15
-9 -10 -9 -8 -7 -7 -6 -6 -6 -5 -5 -5 -5 -6 -6 -5 -4 -3 -4 -6 -6 -4 -4 -4 -5 -6 -6 -7 -9 -10 -11 -11 -13 -12 -11 -10 -10 -9 -8 -7 -7 -7 -7 -6 -6 -7 -7 -8 -9 -12 -15 -15 -15 -16
-11 -10 -10 -13 -9 -9 -7 -6 -6 -6 -5 -6 -5 -6 -6 -7 -4 -4 -5 -7 -8 -6 -5 -5 -5 -6 -7 -9 -10 -11 -11 -10 -10 -10 -9 -8 -8 -8 -7 -7 -7 -7 -7 -7 -7 -8 -9 -11 -14 -15 -15 -16 -18 -21
-11 -9 -10 -12 -10 -10 -9 -6 -6 -6 -6 -6 -7 -7 -7 -5 -4 -6 -8 -10 -10 -8 -7 -5 -6 -7 -9 -10 -10 -9 -9 -9 -9 -9 -9 -8 -8 -7 -7 -7 -8 -8 -8 -8 -9 -10 -13 -15 -15 -16 -17 -20 -21 -21
-12 -11 -8 -8 -8 -9 -10 -9 -9 -7 -6 -6 -6 -6 -5 -5 -6 -10 -11 -11 -10 -9 -8 -7 -6 -6 -9 -9 -9 -9 -9 -9 -9 -9 -9 -9 -8 -8 -8 -8 -9 -9 -9 -12 -14 -15 -15 -16 -17 -19 -21 -21 -21 -20
-10 -9 -12 -9 -9 -10 -12 -12 -10 -9 -9 -9 -7 -6 -6 -8 -9 -13 -12 -11 -10 -9 -8 -7 -8 -9 -9 -9 -9 -10 -10 -10 -10 -9 -9 -9 -9 -9 -9 -10 -10 -12 -13 -15 -15 -15 -16 -18 -20 -21 -20 -20 -19 -19
-8 -9 -9 -13 -11 -11 -13 -12 -12 -10 -10 -10 -9 -9 -11 -13 -13 -12 -11 -11 -10 -10 -9 -9 -9 -9 -9 -10 -10 -10 -10 -10 -10 -10 -10 -10 -10 -11 -11 -12 -13 -14 -15 -15 -16 -17 -19 -20 -20 -20 -19 -19 -20 -21
-9 -8 -10 -10 -10 -10 -11 -11 -10 -10 -10 -12 -12 -12 -12 -13 -13 -12 -11 -11 -10 -10 -9 -9 -10 -10 -10 -10 -10 -10 -10 -10 -10 -11 -11 -11 -11 -12 -13 -14 -14 -15 -15 -16 -18 -19 -20 -19 -19 -19 -19 -19 -20 -21
-9 -9 -11 -12 -12 -12 -11 -11 -10 -10 -10 -10 -11 -11 -12 -12 -12 -12 -11 -11 -11 -10 -10 -10 -10 -10 -10 -10 -11 -11 -11 -11 -11 -11 -11 -11 -12 -12 -13 -13 -14 -15 -17 -19 -19 -19 -19 -18 -18 -18 -18 -18 -20 -23
-9 -9 -10 -10 -13 -12 -12 -11 -10 -10 -10 -10 -11 -11 -11 -12 -12 -12 -12 -12 -11 -11 -10 -10 -10 -10 -11 -11 -11 -11 -11 -11 -11 -11 -11 -11 -12 -12 -13 -14 -15 -16 -18 -19 -19 -18 -18 -18 -18 -18 -19 -22 -23 -23
-10 -10 -11 -13 -13 -13 -12 -11 -13 -14 -13 -14 -14 -14 -13 -12 -14 -13 -13 -12 -12 -12 -11 -11 -11 -11 -11 -12 -12 -12 -12 -12 -11 -12 -12 -12 -12 -13 -13 -14 -16 -18 -18 -18 -18 -18 -18 -18 -19 -22 -22 -22 -22 -23

GFSWCAN_850_dewp_015.txt.gz
Dewpoint
-4 -4 -4 -5 -4 -3 -2 -1 -2 -1 -0 1 2 5 5 5 5 5 5 6 5 4 4 1 2 0 4 5 5 1 6 5 7 8 7 7 6 4 5 5 7 6 7 8 8 9 9 -1 -0 1 2 1 -0 -0
-3 -4 -4 -4 -4 -3 -2 -1 -2 -1 -0 1 2 5 5 5 5 5 5 6 3 5 5 3 2 0 2 5 4 1 4 4 6 7 6 5 6 4 3 4 0 6 4 4 3 5 1 0 1 1 1 1 1 1
-3 -4 -4 -4 -4 -3 -2 -2 -2 -2 -0 1 2 5 5 5 5 5 5 6 5 5 5 4 4 3 1 3 5 4 4 4 5 6 5 5 6 4 5 4 1 -0 -1 1 -0 1 1 0 1 1 1 1 1 1
-3 -4 -4 -4 -5 -3 -3 -2 -2 -1 -0 1 2 5 5 5 5 5 5 5 6 5 5 5 4 4 3 2 3 5 5 3 3 4 6 6 5 2 4 2 2 0 -0 1 1 1 1 1 1 1 1 0 -0 -0
-3 -4 -4 -4 -5 -4 -2 -2 -2 -1 -0 2 2 5 5 5 5 5 5 6 5 6 5 4 5 4 3 3 -1 1 2 2 3 4 6 6 3 3 2 2 2 0 1 2 1 0 0 0 1 1 0 0 -1 -1
-3 -3 -4 -4 -5 -4 -3 -3 -2 -1 1 1 3 5 5 5 5 5 5 5 6 6 5 5 5 4 3 3 4 3 4 4 4 5 5 4 3 4 7 5 2 -0 0 0 -0 0 1 1 1 1 1 0 -0 -1
-3 -3 -4 -4 -5 -4 -2 -3 -2 -1 1 2 4 5 5 4 5 5 5 6 6 6 5 5 4 4 4 4 4 4 4 4 5 5 5 5 4 4 4 6 2 0 1 1 1 1 1 1 1 1 0 -0 -1 -3
-4 -3 -4 -4 -5 -4 -2 -3 -2 -1 1 2 4 5 4 4 5 5 5 5 6 5 4 5 5 5 4 5 5 4 5 5 5 5 4 4 4 3 5 3 0 1 1 1 1 1 1 1 1 1 0 -1 -2 -6
-5 -4 -5 -4 -5 -4 -3 -3 -2 0 2 3 4 4 4 4 5 5 5 5 5 5 3 3 5 6 4 4 4 4 5 6 4 5 4 4 5 7 5 3 0 2 1 1 1 1 1 1 1 0 -1 -2 -6 -8
-5 -5 -5 -5 -11 -3 -4 -3 -2 1 2 4 4 4 4 4 5 4 4 4 4 3 2 4 4 5 3 3 3 3 3 5 5 4 3 4 5 3 2 2 1 1 1 1 0 1 1 1 0 -1 -3 -6 -7 -8
-5 -5 -7 -9 -8 -4 -3 -3 -1 2 4 4 4 3 4 4 3 3 3 5 4 4 2 2 3 4 2 3 3 2 3 3 6 4 5 5 4 2 2 1 1 1 1 0 0 0 0 0 -1 -3 -7 -8 -9 -10
-6 -5 -10 -16 -5 -4 -3 -2 -1 0 3 3 3 4 3 1 0 3 4 2 2 4 2 2 3 2 1 -0 2 0 3 2 5 1 4 3 1 -2 0 1 1 1 1 1 0 0 -0 -1 -5 -8 -9 -10 -10 -9
-5 -9 -12 -13 -4 -3 -4 -2 -0 -0 3 3 4 2 1 1 3 4 3 3 2 2 2 1 2 0 -0 -1 1 1 3 3 -0 2 2 2 -1 -1 0 0 1 0 0 0 -1 -1 -4 -8 -9 -10 -10 -9 -8 -8
-8 -12 -17 -5 -5 -3 -3 -2 -0 1 3 2 1 2 3 3 2 3 2 3 1 2 1 1 1 1 -0 2 0 3 -0 -1 2 2 1 -2 -2 -1 0 0 -0 -1 -1 -1 -5 -8 -9 -10 -9 -8 -7 -7 -7 -7
-12 -18 -11 -6 -4 -4 -3 -2 -0 -0 0 0 1 4 3 -0 -2 -2 -1 -1 1 1 1 1 1 -0 1 1 -1 -1 0 1 0 0 -0 -2 -2 -1 0 -0 -2 -2 -3 -7 -8 -9 -8 -7 -7 -7 -7 -6 -6 -6
-18 -13 -7 -6 -4 -4 -2 -2 -0 -0 -0 -0 -1 0 -1 -0 -1 -2 -1 0 1 1 -1 -1 1 2 0 1 0 1 0 1 1 2 -1 -3 -3 -1 -0 -1 -3 -6 -8 -8 -8 -7 -8 -8 -8 -8 -7 -6 -6 -6
-15 -7 -8 -8 -7 -3 -2 -1 -0 -0 -1 -1 -1 -2 -1 -0 -1 -1 -0 1 1 -0 3 2 2 2 -1 0 0 -1 0 1 -0 -2 -3 -3 -3 -1 -1 -3 -7 -7 -7 -7 -8 -9 -8 -8 -8 -7 -6 -6 -6 -6
-14 -13 -12 -9 -6 -3 -2 -2 -1 -1 -1 -2 -1 -2 -2 -2 -2 -1 0 1 0 -1 -1 2 -1 0 1 1 0 -0 -2 -4 -4 -3 -3 -3 -2 -1 -1 -6 -6 -7 -9 -8 -8 -7 -7 -7 -7 -6 -6 -6 -6 -7
-16 -15 -12 -8 -5 -3 -3 -2 -2 -2 -2 -2 -2 -2 -2 -2 -1 -1 1 1 -1 -5 -4 -2 -0 0 -1 -1 -1 -2 -3 -4 -4 -5 -6 -4 -2 -1 -3 -7 -8 -8 -8 -7 -7 -7 -6 -6 -6 -6 -6 -6 -7 -8
-17 -15 -11 -8 -4 -3 -3 -3 -3 -2 -2 -3 -2 -2 -2 -2 -1 -0 -0 -2 -4 -3 0 -0 -5 -6 -5 -4 -5 -4 -4 -4 -5 -5 -5 -6 -7 -7 -7 -7 -7 -6 -7 -7 -7 -7 -6 -6 -6 -6 -6 -7 -8 -8
-17 -14 -13 -8 -4 -4 -4 -4 -3 -4 -3 -3 -3 -2 -2 -2 -1 -1 -1 -0 0 -0 -1 -4 -4 -5 -5 -5 -5 -4 -4 -5 -6 -6 -5 -5 -5 -6 -6 -6 -7 -8 -8 -8 -7 -6 -6 -6 -6 -6 -7 -7 -8 -8
-13 -13 -10 -9 -5 -5 -4 -5 -5 -4 -3 -3 -3 -2 -1 -1 -1 -1 -1 -1 -2 -3 -3 -3 -3 -3 -3 -4 -4 -4 -5 -5 -6 -6 -5 -5 -6 -7 -8 -9 -9 -8 -7 -7 -7 -7 -6 -6 -6 -7 -7 -8 -8 -10
-13 -11 -10 -8 -7 -6 -5 -5 -4 -4 -3 -3 -3 -3 -3 -3 -3 -2 -2 -4 -5 -5 -4 -4 -5 -5 -5 -5 -5 -5 -5 -6 -6 -6 -6 -8 -9 -9 -9 -8 -7 -7 -7 -7 -7 -6 -6 -6 -7 -8 -8 -10 -13 -15
-11 -11 -11 -10 -8 -7 -7 -5 -5 -5 -4 -4 -4 -4 -5 -4 -4 -3 -4 -6 -6 -6 -5 -5 -6 -6 -7 -8 -8 -8 -8 -8 -9 -10 -10 -11 -10 -9 -8 -8 -7 -7 -7 -6 -6 -6 -7 -7 -8 -9 -12 -15 -15 -16
-11 -10 -11 -11 -10 -8 -7 -5 -5 -5 -5 -5 -4 -4 -5 -6 -3 -4 -5 -7 -8 -8 -6 -6 -7 -7 -9 -10 -10 -10 -10 -11 -12 -12 -9 -9 -9 -8 -7 -7 -7 -7 -7 -7 -7 -7 -8 -8 -10 -13 -15 -15 -16 -19
-10 -9 -9 -9 -9 -8 -8 -5 -5 -5 -5 -5 -6 -6 -6 -4 -4 -6 -9 -11 -11 -9 -7 -6 -7 -9 -9 -9 -9 -9 -9 -9 -9 -10 -8 -8 -8 -8 -8 -8 -7 -7 -7 -7 -8 -8 -9 -12 -15 -15 -16 -17 -20 -22
-11 -9 -8 -8 -9 -9 -9 -9 -9 -7 -5 -5 -5 -5 -4 -4 -6 -10 -12 -12 -11 -10 -8 -7 -7 -9 -10 -9 -9 -9 -9 -9 -9 -10 -9 -9 -8 -8 -8 -8 -8 -8 -8 -9 -9 -12 -14 -15 -15 -16 -18 -21 -22 -21
-10 -9 -10 -9 -9 -10 -10 -10 -8 -8 -8 -8 -6 -6 -6 -8 -9 -13 -13 -12 -11 -10 -9 -7 -6 -6 -6 -6 -7 -8 -9 -9 -10 -9 -9 -9 -9 -9 -9 -9 -9 -9 -10 -12 -14 -15 -15 -16 -17 -20 -21 -21 -20 -20
-8 -9 -9 -12 -10 -9 -10 -10 -9 -10 -11 -10 -8 -8 -11 -14 -14 -14 -13 -12 -11 -10 -9 -8 -8 -7 -7 -9 -9 -10 -10 -10 -10 -10 -10 -10 -10 -10 -10 -11 -11 -13 -14 -15 -15 -16 -17 -19 -20 -20 -20 -20 -20 -20
-8 -9 -9 -10 -12 -10 -11 -11 -11 -11 -11 -12 -12 -12 -13 -14 -13 -13 -12 -11 -11 -10 -9 -9 -8 -8 -9 -10 -10 -10 -10 -10 -10 -10 -10 -10 -11 -11 -12 -13 -14 -14 -15 -15 -16 -17 -19 -20 -19 -19 -19 -19 -19 -19
-9 -9 -10 -11 -10 -12 -11 -11 -11 -10 -10 -11 -12 -12 -13 -12 -12 -12 -11 -11 -10 -10 -9 -9 -8 -9 -10 -10 -10 -11 -11 -11 -11 -11 -11 -11 -11 -12 -13 -14 -14 -14 -15 -16 -18 -19 -20 -19 -19 -19 -19 -18 -19 -21
-9 -9 -9 -10 -11 -12 -12 -11 -11 -11 -11 -11 -12 -12 -12 -12 -13 -11 -11 -11 -11 -10 -10 -10 -10 -10 -10 -10 -11 -11 -11 -11 -11 -11 -11 -12 -12 -13 -13 -13 -14 -15 -16 -18 -19 -19 -19 -19 -19 -18 -18 -21 -23 -23
-10 -10 -11 -13 -13 -13 -12 -12 -12 -13 -13 -14 -14 -14 -13 -12 -13 -13 -13 -12 -12 -11 -11 -11 -11 -11 -11 -11 -11 -11 -12 -11 -11 -11 -11 -12 -12 -12 -13 -14 -14 -16 -17 -18 -18 -18 -18 -18 -18 -20 -23 -24 -24 -23

GFSWCAN_850_dewp_018.txt.gz
Dewpoint
-3 -3 -3 -3 -4 -4 -4 -2 -2 -1 -1 -1 -0 1 2 5 5 5 5 5 5 5 4 4 3 1 5 4 5 4 5 5 7 7 8 8 7 6 7 7 6 7 8 9 8 9 8 -1 -0 2 3 0 -0 1
-4 -3 -3 -3 -4 -4 -4 -3 -2 -1 -2 -1 -0 1 2 5 5 5 5 5 5 5 6 5 3 2 1 6 4 5 5 5 6 8 7 6 6 4 4 8 5 7 5 6 7 7 2 1 1 1 1 1 1 1
-4 -4 -4 -4 -4 -4 -4 -3 -2 -2 -2 -1 -0 1 3 5 5 5 5 5 5 5 4 5 5 3 1 2 5 5 5 6 6 6 6 6 6 5 5 4 2 1 -1 2 1 1 1 1 1 1 1 1 1 1
-4 -4 -4 -3 -4 -5 -5 -3 -2 -2 -2 -1 -0 1 3 5 5 5 5 5 5 5 6 5 5 4 3 2 5 6 6 5 6 6 6 6 7 3 6 3 2 0 0 2 2 2 1 1 1 1 1 1 1 0
-4 -4 -4 -3 -3 -5 -5 -4 -3 -2 -2 -1 0 1 4 5 5 5 5 5 5 6 6 5 4 4 3 3 3 5 6 6 4 6 7 7 4 3 3 2 3 0 1 2 3 1 0 1 1 1 0 0 -0 -1
-4 -4 -5 -3 -3 -4 -5 -4 -3 -2 -2 -1 1 2 4 5 5 5 5 5 5 5 5 5 5 4 4 4 2 1 3 4 4 5 6 4 3 4 5 6 2 0 0 -0 0 0 0 1 1 0 0 -0 -1 -2
-3 -3 -4 -3 -3 -4 -5 -4 -3 -3 -2 -1 1 2 4 5 5 5 5 5 5 5 5 5 4 4 5 5 5 4 4 4 5 5 6 5 4 3 5 7 3 0 0 0 1 0 1 1 1 0 -0 -0 -1 -2
-3 -3 -4 -5 -5 -4 -5 -3 -3 -3 -2 -1 1 2 5 5 5 5 5 5 6 6 5 4 5 5 4 5 5 5 5 5 5 5 4 5 4 4 6 4 1 1 1 1 1 1 1 1 1 1 -0 -1 -3 -6
-4 -4 -5 -6 -5 -4 -9 -3 -3 -2 -2 0 1 3 4 4 5 5 5 5 5 5 4 3 4 5 4 4 4 4 5 6 4 5 5 4 5 5 5 3 1 1 1 1 1 1 1 1 1 0 -1 -3 -5 -7
-5 -5 -5 -5 -6 -8 -5 -4 -2 -3 -1 1 2 4 4 4 5 4 5 5 5 4 4 4 4 5 4 3 3 4 3 4 5 4 3 4 4 4 4 3 2 1 1 1 1 1 1 1 0 -0 -2 -4 -7 -8
-5 -5 -6 -6 -8 -14 -5 -3 -3 -2 1 1 3 3 4 5 4 4 4 4 4 3 3 3 4 4 3 4 3 2 3 2 5 4 4 4 4 3 2 2 1 1 1 1 0 0 1 0 -0 -3 -4 -6 -8 -9
-6 -7 -7 -12 -16 -5 -4 -3 -3 -2 -1 0 1 3 3 2 2 3 3 2 3 3 2 3 3 2 1 1 2 1 3 2 5 1 3 3 1 -1 -0 2 1 1 1 1 0 0 0 -0 -2 -4 -7 -9 -10 -10
-7 -9 -13 -17 -10 -5 -4 -3 -3 -2 -0 1 3 1 2 2 3 3 3 2 2 2 2 2 2 -0 -1 -1 1 1 2 3 0 2 2 1 -1 -1 0 1 1 1 1 0 0 0 -1 -2 -6 -8 -10 -10 -10 -10
-12 -16 -19 -9 -6 -5 -4 -3 -2 -1 -0 1 0 2 3 3 2 2 1 1 1 2 2 1 1 1 0 1 1 -1 0 -0 0 1 0 -1 -2 0 1 1 1 -0 -0 -1 -1 -2 -6 -8 -10 -10 -10 -9 -9 -9
-17 -19 -11 -9 -11 -6 -4 -3 -2 -1 -1 -0 -0 3 2 -0 -2 -1 1 1 1 1 1 0 -0 -0 0 -1 -1 -1 -0 -1 0 0 -0 -1 -1 0 0 -1 -2 -2 -2 -4 -6 -8 -9 -10 -10 -9 -8 -8 -8 -8
-17 -18 -15 -16 -12 -7 -3 -2 -1 -1 -0 -1 -1 0 -0 -0 -2 -2 -0 1 1 1 -0 -1 -0 -2 -1 -1 -2 -2 -1 -1 -1 -1 -2 -2 -1 0 -2 -3 -3 -3 -6 -8 -9 -10 -9 -9 -9 -9 -7 -7 -7 -7
-17 -14 -16 -15 -12 -6 -2 -2 -1 -1 -1 -1 -1 -1 -0 -0 -1 -1 -0 1 1 0 1 -0 -1 -2 -1 -2 -1 -2 -1 -1 -1 -2 -3 -3 -0 -1 -3 -3 -4 -7 -8 -9 -8 -8 -9 -8 -9 -8 -8 -7 -6 -7
-16 -16 -15 -13 -10 -5 -3 -2 -2 -2 -1 -2 -0 -2 -2 -1 -1 -0 0 1 1 0 -0 1 -1 -1 -1 -2 -2 -2 -2 -2 -2 -2 -3 -2 -0 -1 -3 -5 -7 -8 -8 -8 -9 -9 -8 -8 -8 -7 -6 -6 -6 -7
-17 -16 -15 -13 -7 -4 -3 -3 -3 -2 -2 -2 -2 -2 -2 -1 -1 -1 0 1 -0 -3 -3 -1 -0 -1 -2 -3 -2 -2 -4 -3 -3 -4 -3 -1 -1 -2 -5 -7 -7 -8 -9 -9 -8 -8 -8 -7 -7 -6 -6 -6 -7 -7
-17 -17 -16 -13 -7 -4 -3 -3 -3 -3 -2 -2 -2 -2 -2 -2 -1 -0 1 -0 -4 -5 -1 -2 -3 -5 -4 -4 -4 -2 -4 -4 -4 -4 -4 -3 -3 -6 -7 -7 -8 -8 -8 -7 -7 -7 -7 -7 -6 -6 -6 -7 -7 -8
-17 -16 -16 -12 -6 -4 -4 -5 -4 -4 -3 -2 -3 -2 -2 -1 -1 -1 -1 -0 0 -0 -2 -4 -4 -5 -5 -5 -4 -4 -4 -5 -4 -3 -3 -4 -6 -7 -7 -7 -7 -7 -8 -7 -8 -7 -7 -7 -7 -6 -7 -7 -7 -8
-14 -14 -12 -10 -7 -6 -4 -5 -5 -4 -3 -3 -3 -2 -1 -1 -1 -1 -1 -1 -2 -3 -3 -4 -4 -4 -4 -4 -4 -4 -5 -6 -4 -4 -5 -6 -6 -6 -6 -7 -8 -8 -9 -9 -8 -8 -7 -7 -6 -7 -7 -7 -8 -8
-14 -12 -11 -10 -9 -8 -5 -5 -5 -5 -3 -3 -3 -2 -3 -2 -3 -2 -3 -4 -5 -5 -4 -3 -3 -3 -3 -4 -4 -4 -5 -7 -6 -6 -6 -6 -6 -7 -9 -9 -10 -11 -9 -8 -7 -7 -7 -6 -7 -7 -7 -8 -10 -13
-12 -12 -12 -11 -9 -10 -8 -5 -5 -5 -4 -4 -4 -4 -5 -4 -4 -3 -4 -6 -7 -6 -5 -5 -4 -4 -4 -5 -5 -5 -6 -6 -6 -6 -6 -8 -9 -9 -9 -9 -8 -8 -8 -8 -7 -6 -6 -7 -7 -8 -9 -12 -15 -15
-12 -12 -11 -14 -10 -10 -10 -7 -5 -5 -5 -5 -4 -4 -5 -6 -3 -4 -5 -8 -9 -8 -7 -6 -6 -6 -6 -7 -7 -6 -6 -6 -7 -8 -9 -10 -11 -9 -8 -8 -7 -7 -7 -7 -6 -7 -7 -7 -8 -10 -13 -15 -15 -17
-14 -10 -11 -11 -11 -10 -9 -8 -6 -5 -5 -5 -5 -5 -5 -4 -5 -7 -10 -12 -12 -10 -8 -7 -7 -9 -9 -8 -8 -9 -9 -10 -11 -12 -9 -9 -9 -9 -8 -8 -7 -7 -7 -7 -7 -7 -8 -9 -11 -14 -15 -16 -18 -21
-14 -13 -8 -9 -9 -9 -10 -9 -9 -7 -6 -6 -6 -5 -4 -5 -8 -11 -13 -13 -12 -11 -9 -8 -8 -9 -9 -9 -9 -9 -10 -9 -9 -10 -8 -8 -8 -8 -8 -8 -8 -8 -8 -8 -8 -9 -10 -13 -15 -15 -16 -19 -22 -22
-10 -10 -12 -9 -9 -10 -11 -11 -11 -10 -9 -9 -7 -7 -7 -10 -11 -14 -14 -13 -13 -11 -10 -8 -7 -8 -8 -8 -9 -9 -9 -9 -9 -9 -8 -9 -8 -9 -9 -9 -9 -8 -9 -9 -11 -13 -15 -15 -16 -17 -20 -21 -21 -21
-8 -9 -9 -14 -11 -10 -12 -12 -11 -10 -11 -11 -9 -9 -12 -15 -15 -14 -13 -13 -12 -12 -10 -9 -9 -7 -7 -6 -7 -7 -7 -8 -9 -9 -10 -10 -10 -10 -9 -9 -9 -10 -11 -13 -15 -15 -15 -17 -19 -21 -20 -20 -21 -20
-8 -9 -10 -12 -14 -12 -11 -11 -11 -11 -12 -12 -12 -13 -13 -14 -14 -13 -12 -12 -11 -11 -11 -10 -10 -9 -8 -8 -8 -8 -9 -10 -10 -11 -11 -10 -11 -10 -11 -11 -12 -13 -14 -14 -15 -16 -17 -19 -20 -20 -19 -20 -19 -19
-9 -9 -10 -10 -13 -12 -12 -11 -11 -11 -11 -12 -12 -12 -13 -13 -12 -12 -12 -11 -11 -10 -10 -10 -9 -9 -8 -9 -9 -10 -11 -11 -11 -11 -11 -11 -11 -11 -12 -13 -14 -14 -14 -15 -16 -18 -19 -20 -19 -19 -19 -19 -19 -21
-9 -9 -13 -13 -14 -12 -11 -11 -11 -11 -11 -11 -12 -12 -12 -12 -13 -12 -11 -11 -11 -10 -10 -10 -9 -9 -9 -10 -11 -11 -11 -11 -11 -12 -12 -12 -12 -13 -13 -13 -13 -14 -15 -16 -18 -19 -19 -19 -19 -18 -18 -20 -24 -24
-10 -10 -12 -13 -13 -13 -12 -12 -12 -13 -13 -14 -14 -13 -13 -13 -14 -13 -12 -11 -11 -10 -10 -10 -10 -10 -10 -11 -11 -11 -11 -11 -11 -12 -12 -12 -13 -13 -13 -13 -14 -15 -16 -18 -18 -18 -18 -18 -18 -19 -23 -25 -26 -27

GFSWCAN_850_dewp_021.txt.gz
Dewpoint
-4 -3 -3 -3 -4 -5 -3 -3 -4 -3 -2 -1 -1 -1 1 3 5 5 5 5 5 5 4 4 3 1 5 5 5 4 5 5 7 7 8 8 8 7 6 6 6 7 8 9 8 9 7 -1 -1 0 1 0 2 1
-5 -3 -3 -3 -3 -5 -3 -4 -4 -2 -2 -1 -2 -1 1 2 5 5 5 5 5 5 5 5 4 4 3 3 4 5 5 5 6 7 6 7 7 4 6 8 5 7 6 7 6 6 2 1 1 1 1 1 2 1
-3 -3 -3 -4 -4 -3 -3 -4 -4 -3 -2 -1 -2 -1 1 2 4 5 5 5 5 5 5 4 4 4 3 1 3 5 5 6 6 6 5 5 6 4 4 4 5 4 1 4 3 2 1 1 1 1 1 1 1 1
-3 -3 -3 -4 -5 -3 -4 -4 -4 -3 -2 -2 -2 -1 1 3 5 5 5 5 5 5 5 5 5 5 4 2 5 6 6 6 6 6 6 6 6 3 6 3 3 1 0 2 2 1 1 1 0 1 1 1 1 0
-4 -3 -3 -3 -4 -3 -3 -4 -4 -4 -3 -2 -2 -1 1 3 5 5 5 5 5 5 6 5 5 4 4 3 4 6 6 6 6 6 6 7 5 3 3 2 3 -0 0 2 3 0 -0 0 1 1 1 1 0 -1
-3 -4 -2 -3 -4 -5 -5 -4 -4 -4 -2 -3 -2 -1 1 3 5 5 5 4 5 5 5 5 5 4 4 3 4 5 5 5 5 6 6 5 4 4 3 4 2 0 -0 -0 0 0 0 1 1 1 0 0 -1 -2
-3 -4 -4 -3 -4 -5 -5 -4 -7 -4 -3 -2 -2 -1 2 3 4 5 5 4 3 4 5 4 4 4 4 4 4 3 4 5 5 5 5 5 4 3 5 7 3 0 0 0 0 0 1 1 1 0 -0 -0 -1 -2
-5 -4 -5 -5 -5 -6 -5 -11 -7 -3 -2 -3 -3 -1 2 4 5 5 5 5 5 5 5 3 4 4 4 5 4 5 5 5 5 5 4 5 3 3 5 4 1 1 1 1 1 0 0 1 0 0 -1 -1 -2 -4
-5 -5 -4 -5 -6 -5 -12 -17 -4 -3 -4 -3 -2 1 3 4 5 5 5 5 5 5 4 3 4 5 4 4 4 4 5 5 4 4 4 4 5 5 4 3 1 1 1 1 1 1 1 1 0 -0 -1 -3 -5 -6
-6 -4 -5 -6 -5 -12 -18 -5 -4 -3 -3 0 1 3 3 5 5 4 5 5 5 5 4 4 4 4 4 3 3 3 3 4 5 4 3 3 4 3 4 4 2 1 0 1 1 1 1 1 0 -1 -2 -5 -7 -7
-10 -9 -8 -10 -13 -18 -9 -4 -4 -3 -2 0 0 3 4 4 4 4 3 4 3 3 3 4 3 4 3 3 3 2 2 2 5 3 4 4 5 3 2 3 2 1 1 1 0 0 1 0 -0 -2 -5 -6 -7 -8
-11 -13 -16 -18 -17 -7 -6 -3 -3 -3 -3 -2 -1 0 3 3 3 3 3 2 3 4 3 4 4 3 3 2 2 2 3 2 4 1 3 4 1 -1 0 2 2 1 1 1 0 1 1 0 -2 -4 -6 -7 -9 -10
-17 -20 -20 -17 -10 -9 -6 -4 -4 -3 -2 -1 -1 -0 -0 2 3 3 4 3 3 2 2 2 2 0 1 2 1 0 0 1 -1 0 2 1 -1 -1 1 2 2 1 1 1 1 1 0 -2 -4 -5 -8 -9 -10 -10
-20 -20 -21 -19 -17 -13 -5 -3 -3 -2 -1 -1 -0 1 2 1 1 1 1 0 0 1 2 1 1 1 -0 1 0 -1 -0 -1 -0 1 -1 -2 -2 0 1 1 1 1 1 1 0 -1 -2 -4 -7 -9 -10 -10 -10 -9
-20 -19 -20 -21 -18 -14 -5 -3 -2 -2 -1 -1 -1 2 2 -1 -2 -1 1 1 2 2 1 -0 -0 -1 -2 0 -2 -1 -1 -1 -1 -1 -2 -2 -1 1 1 1 0 -0 -0 -1 -2 -3 -6 -9 -9 -8 -8 -8 -9 -8
-18 -19 -18 -19 -19 -13 -6 -3 -2 -2 -1 -1 -1 0 -0 -1 -2 -1 -0 1 1 1 0 -2 -2 -4 -2 -3 -3 -4 -2 -2 -2 -2 -2 -1 0 -0 -1 -1 -1 -1 -2 -3 -6 -8 -9 -9 -9 -8 -7 -7 -8 -8
-17 -17 -18 -19 -20 -12 -4 -2 -2 -2 -1 -1 -1 -1 -0 -1 -2 -1 0 1 1 0 -0 -3 -4 -4 -4 -5 -3 -4 -3 -3 -1 -2 -2 -0 0 -1 -2 -2 -2 -3 -6 -8 -8 -8 -8 -9 -9 -8 -8 -7 -8 -7
-15 -18 -18 -18 -18 -12 -4 -3 -2 -2 -2 -2 -1 -1 -2 -1 -1 -1 0 1 1 0 -1 -2 -3 -3 -3 -3 -4 -4 -2 -1 -2 -3 -2 -0 -1 -3 -3 -3 -5 -7 -8 -8 -8 -8 -9 -9 -8 -8 -8 -7 -7 -7
-14 -17 -18 -17 -15 -6 -3 -3 -3 -2 -2 -2 -2 -2 -2 -1 -0 0 1 1 0 -2 -2 -1 -3 -4 -3 -4 -5 -2 -2 -3 -3 -2 -1 -1 -3 -3 -4 -6 -7 -7 -8 -8 -9 -9 -8 -8 -9 -8 -7 -7 -7 -8
-16 -18 -19 -17 -11 -5 -4 -4 -4 -3 -3 -3 -2 -2 -2 -1 -1 0 1 -0 -3 -5 -3 -4 -4 -4 -4 -3 -3 -2 -3 -3 -3 -2 -2 -3 -4 -4 -6 -7 -7 -8 -9 -8 -8 -8 -8 -7 -7 -7 -7 -7 -8 -8
-16 -17 -18 -15 -8 -6 -5 -5 -5 -4 -4 -3 -3 -2 -2 -2 -1 -1 -0 -2 -1 -0 -4 -4 -5 -5 -5 -6 -4 -3 -4 -4 -3 -3 -3 -5 -5 -6 -7 -8 -8 -8 -9 -8 -8 -7 -8 -8 -7 -7 -7 -7 -8 -8
-14 -15 -14 -12 -9 -7 -5 -6 -5 -4 -4 -3 -3 -3 -2 -1 -1 -1 -1 -2 -3 -4 -3 -4 -4 -4 -4 -3 -3 -4 -4 -4 -3 -3 -3 -5 -6 -7 -7 -8 -8 -8 -8 -9 -9 -9 -8 -7 -7 -7 -7 -7 -8 -8
-14 -13 -13 -12 -12 -10 -8 -6 -5 -5 -4 -4 -4 -3 -3 -3 -3 -2 -4 -5 -6 -6 -4 -3 -4 -4 -4 -4 -4 -5 -5 -4 -3 -2 -4 -6 -7 -7 -7 -7 -8 -10 -9 -8 -8 -8 -7 -7 -7 -7 -7 -7 -8 -10
-12 -13 -14 -12 -10 -13 -9 -7 -6 -5 -5 -5 -5 -4 -5 -5 -4 -4 -6 -7 -8 -7 -6 -5 -4 -4 -4 -4 -5 -5 -5 -3 -3 -5 -6 -6 -6 -6 -7 -9 -9 -10 -11 -9 -8 -7 -7 -7 -7 -7 -8 -9 -12 -14
-13 -13 -11 -16 -10 -12 -13 -11 -11 -8 -6 -5 -5 -5 -5 -6 -4 -6 -8 -10 -10 -9 -7 -7 -6 -5 -5 -5 -4 -4 -5 -4 -3 -5 -6 -7 -8 -9 -9 -9 -9 -9 -8 -8 -7 -7 -7 -7 -7 -8 -11 -14 -15 -15
-17 -11 -13 -15 -14 -13 -11 -11 -11 -9 -6 -6 -5 -6 -5 -5 -7 -9 -11 -13 -13 -12 -10 -9 -8 -7 -7 -6 -5 -5 -4 -4 -5 -7 -8 -9 -10 -12 -12 -10 -8 -7 -7 -7 -7 -7 -7 -8 -9 -12 -14 -15 -17 -19
-16 -16 -9 -9 -9 -9 -11 -10 -10 -10 -9 -8 -7 -6 -5 -6 -9 -11 -13 -13 -13 -12 -11 -9 -8 -7 -7 -7 -6 -6 -5 -6 -8 -9 -10 -9 -8 -9 -9 -9 -8 -8 -7 -7 -7 -8 -8 -10 -13 -15 -15 -17 -20 -22
-11 -10 -13 -10 -9 -10 -13 -14 -13 -13 -11 -10 -9 -9 -8 -10 -11 -14 -14 -13 -13 -12 -11 -10 -8 -7 -7 -7 -6 -6 -6 -7 -9 -8 -7 -7 -8 -8 -8 -8 -8 -8 -8 -8 -9 -10 -13 -14 -15 -16 -18 -21 -22 -21
-9 -9 -9 -15 -11 -11 -13 -14 -14 -11 -12 -11 -11 -11 -13 -14 -14 -14 -13 -13 -12 -12 -11 -10 -9 -8 -7 -7 -7 -7 -8 -8 -8 -9 -8 -8 -9 -9 -8 -8 -8 -9 -9 -12 -14 -15 -15 -16 -17 -19 -21 -21 -21 -21
-9 -9 -11 -16 -15 -14 -12 -11 -11 -11 -12 -12 -12 -13 -13 -14 -14 -13 -13 -13 -12 -12 -11 -10 -10 -8 -8 -8 -8 -8 -7 -7 -6 -6 -7 -9 -10 -9 -9 -9 -10 -12 -13 -14 -14 -15 -16 -18 -19 -20 -20 -20 -20 -20
-9 -9 -11 -12 -15 -12 -12 -11 -11 -11 -11 -12 -12 -12 -13 -13 -13 -13 -12 -12 -12 -11 -11 -10 -10 -9 -9 -8 -8 -8 -8 -8 -10 -10 -11 -11 -10 -11 -12 -13 -14 -14 -15 -15 -16 -17 -18 -19 -20 -20 -20 -20 -19 -20
-10 -10 -15 -15 -15 -12 -12 -11 -11 -11 -11 -12 -12 -12 -13 -13 -13 -12 -12 -12 -12 -11 -11 -10 -10 -10 -9 -9 -8 -8 -9 -11 -11 -11 -11 -11 -12 -13 -14 -14 -14 -14 -15 -15 -16 -18 -19 -19 -19 -19 -19 -18 -22 -25
-10 -11 -12 -13 -14 -14 -12 -12 -13 -14 -13 -14 -14 -14 -13 -13 -13 -12 -12 -12 -11 -11 -11 -10 -10 -10 -10 -9 -10 -11 -12 -12 -12 -12 -12 -13 -13 -13 -13 -13 -14 -15 -15 -16 -17 -18 -18 -18 -18 -18 -21 -25 -26 -26

GFSWCAN_850_dewp_024.txt.gz
Dewpoint
-4 -4 -3 -2 -3 -4 -3 -4 -3 -4 -4 -2 -2 -1 -1 1 2 3 5 4 5 5 4 4 4 3 5 4 5 4 6 5 6 7 7 8 7 7 6 5 6 7 8 8 7 8 6 0 -1 -0 -1 2 2 1
-3 -3 -3 -2 -3 -4 -3 -4 -4 -4 -4 -2 -2 -1 -1 0 2 4 5 5 5 5 5 5 4 4 3 3 4 5 5 5 6 7 6 6 7 5 5 7 4 7 6 7 6 5 2 1 1 1 1 1 1 1
-3 -3 -4 -4 -2 -4 -4 -3 -4 -3 -4 -3 -2 -2 -1 0 3 4 5 5 5 5 5 5 4 4 4 4 4 4 5 5 7 6 5 5 7 4 7 6 6 4 2 5 5 2 1 1 1 1 1 1 1 1
-4 -3 -3 -5 -3 -3 -5 -4 -5 -4 -4 -3 -2 -2 -1 0 3 4 5 4 5 5 5 5 5 5 4 3 2 4 6 6 6 6 6 5 6 3 5 2 4 3 1 2 3 1 1 1 1 1 1 1 1 1
-4 -3 -2 -3 -4 -3 -5 -4 -5 -4 -5 -3 -2 -3 -3 0 3 4 5 5 5 5 6 5 5 4 4 4 3 5 6 6 6 7 6 7 5 3 3 2 3 -0 2 3 4 1 -0 -0 1 1 1 1 1 0
-3 -2 -4 -5 -5 -4 -5 -5 -5 -10 -7 -2 -2 -2 -4 -0 3 4 5 5 5 5 5 6 5 4 4 4 4 5 5 5 6 6 6 5 4 4 4 4 1 1 -1 1 0 0 0 1 1 1 1 0 -0 -1
-5 -5 -5 -5 -5 -5 -5 -5 -12 -18 -4 -4 -2 -4 -4 -0 2 4 4 4 3 5 5 4 4 4 4 4 4 4 5 5 6 6 6 4 3 4 5 6 3 1 0 0 0 0 1 1 1 1 0 -0 -2 -2
-5 -6 -5 -5 -5 -5 -4 -11 -19 -7 -5 -3 -2 -4 -3 1 3 4 5 5 4 5 5 3 4 4 5 5 5 5 5 5 5 5 4 5 4 3 5 4 2 1 1 1 1 0 0 1 1 0 -0 -1 -2 -2
-11 -11 -9 -9 -9 -11 -12 -19 -6 -4 -4 -3 -1 -2 0 3 4 5 5 5 5 5 4 3 4 4 4 5 4 5 5 6 4 4 4 4 4 5 3 2 1 1 1 1 1 1 1 1 0 -0 -1 -1 -3 -2
-14 -14 -15 -16 -19 -20 -12 -4 -4 -3 -3 0 1 2 3 4 5 4 5 5 5 5 4 4 4 5 4 4 3 3 3 4 4 4 3 3 3 3 3 3 3 1 1 1 1 1 0 0 0 -0 -1 -3 -5 -7
-17 -19 -21 -21 -19 -13 -11 -10 -3 -4 -2 -2 -0 1 3 4 5 5 4 4 3 3 3 4 4 3 3 3 4 2 2 2 4 3 4 3 4 2 2 3 3 1 1 0 0 0 0 0 -0 -1 -3 -6 -7 -8
-17 -21 -20 -21 -19 -16 -15 -6 -4 -4 -2 -3 -3 -1 1 3 4 3 3 2 3 4 3 4 4 3 3 2 3 2 2 2 4 1 3 4 2 0 0 2 2 1 1 1 1 0 0 0 -1 -2 -5 -7 -8 -10
-16 -20 -20 -20 -20 -19 -11 -4 -4 -3 -3 -2 -2 -1 -0 1 3 4 4 3 3 2 3 3 2 2 3 3 1 1 3 4 -1 1 2 1 -1 -1 0 2 2 1 1 1 1 1 0 -0 -2 -5 -7 -8 -10 -9
-14 -18 -19 -19 -19 -18 -17 -5 -3 -3 -2 -2 -1 0 1 2 2 2 2 1 1 2 2 1 1 1 0 1 0 -1 0 -1 -0 1 0 -2 -1 -1 1 2 1 1 1 1 1 0 -1 -2 -5 -6 -8 -10 -10 -9
-15 -17 -18 -19 -18 -19 -18 -9 -3 -2 -2 -2 -1 1 2 0 -1 -1 -0 0 1 2 2 0 -0 -1 0 0 -2 -1 -0 0 -0 -0 -2 -3 -1 1 1 1 1 1 1 0 -0 -1 -3 -5 -7 -8 -9 -9 -9 -8
-14 -16 -17 -19 -20 -20 -18 -5 -2 -2 -2 -2 -1 -0 -0 -0 -1 -1 -0 0 1 2 1 -1 -2 -0 0 -2 -3 -3 -1 -1 -1 -3 -2 -1 0 1 1 1 0 -0 -0 -1 -2 -3 -5 -8 -9 -9 -8 -8 -8 -8
-14 -14 -16 -20 -21 -20 -13 -3 -2 -2 -2 -1 -1 -1 -1 -1 -2 -1 -0 1 2 1 1 -4 -1 -2 -5 -5 -4 -5 -3 -4 -4 -1 -2 -0 0 -0 -0 -1 -1 -1 -1 -2 -4 -7 -8 -9 -9 -9 -8 -8 -8 -8
-12 -14 -17 -19 -19 -19 -6 -3 -3 -2 -2 -2 -2 -2 -2 -1 -1 -1 -0 1 1 0 -2 -2 -3 -2 -3 -3 -4 -4 -4 -2 -2 -2 -1 -0 -1 -1 -1 -1 -2 -2 -3 -5 -8 -8 -9 -9 -9 -9 -9 -8 -8 -8
-11 -14 -17 -18 -17 -9 -4 -3 -3 -5 -3 -2 -3 -2 -2 -1 -1 -0 -0 1 1 -0 -2 -2 -4 -4 -3 -5 -7 -3 -2 -2 -2 -2 -0 -0 -1 -2 -2 -2 -2 -4 -6 -8 -8 -9 -9 -9 -9 -9 -8 -8 -9 -9
-13 -15 -17 -18 -16 -6 -5 -5 -5 -3 -7 -4 -3 -3 -2 -2 -1 -0 1 1 -1 -4 -3 -4 -4 -4 -4 -3 -2 -2 -2 -3 -4 -1 -2 -3 -3 -3 -3 -4 -6 -7 -8 -8 -8 -8 -8 -8 -8 -8 -8 -8 -9 -9
-14 -15 -17 -18 -11 -7 -5 -5 -6 -4 -4 -4 -3 -3 -2 -2 -1 -1 -1 -1 -1 -2 -5 -5 -5 -6 -6 -6 -6 -4 -3 -3 -3 -2 -3 -5 -5 -4 -6 -7 -7 -7 -8 -8 -8 -7 -7 -8 -7 -8 -8 -8 -9 -9
-13 -15 -15 -14 -11 -8 -6 -6 -6 -5 -4 -4 -4 -4 -3 -2 -1 -1 -1 -2 -4 -5 -4 -4 -4 -4 -5 -4 -4 -3 -3 -3 -3 -2 -2 -4 -5 -6 -6 -7 -7 -8 -8 -8 -8 -8 -7 -7 -7 -7 -8 -8 -8 -8
-13 -14 -13 -13 -13 -12 -10 -9 -6 -6 -8 -7 -5 -4 -4 -4 -4 -3 -5 -6 -7 -7 -6 -5 -4 -4 -4 -3 -4 -4 -4 -4 -3 -2 -3 -4 -5 -6 -7 -8 -9 -9 -8 -8 -8 -8 -8 -7 -7 -7 -8 -8 -8 -9
-12 -13 -15 -14 -11 -14 -11 -10 -8 -6 -6 -7 -7 -5 -5 -5 -5 -5 -7 -8 -10 -9 -7 -6 -5 -5 -4 -4 -4 -4 -4 -4 -3 -3 -3 -5 -6 -7 -8 -8 -8 -8 -9 -9 -8 -8 -7 -7 -7 -7 -7 -8 -10 -12
-11 -14 -12 -18 -11 -13 -14 -13 -14 -12 -10 -10 -8 -6 -5 -6 -5 -7 -9 -11 -11 -11 -10 -8 -7 -5 -5 -5 -5 -5 -4 -4 -3 -4 -5 -5 -6 -6 -7 -7 -8 -8 -9 -9 -8 -8 -7 -7 -7 -8 -9 -10 -13 -14
-15 -13 -15 -17 -15 -14 -13 -12 -13 -12 -11 -10 -8 -7 -6 -6 -7 -9 -11 -13 -13 -12 -12 -11 -10 -8 -7 -5 -5 -5 -5 -4 -4 -4 -4 -3 -3 -3 -6 -9 -9 -9 -8 -8 -8 -7 -7 -7 -8 -9 -12 -14 -15 -16
-15 -16 -9 -9 -9 -9 -11 -11 -11 -12 -13 -11 -10 -9 -8 -7 -8 -11 -13 -13 -13 -12 -11 -10 -10 -9 -8 -7 -6 -6 -5 -5 -4 -3 -3 -3 -3 -7 -10 -12 -10 -9 -8 -7 -7 -7 -8 -8 -9 -12 -14 -15 -17 -20
-11 -11 -13 -10 -10 -10 -14 -15 -15 -14 -13 -11 -11 -11 -10 -10 -11 -14 -13 -13 -13 -12 -12 -10 -10 -9 -8 -7 -7 -6 -6 -5 -4 -4 -7 -8 -8 -8 -8 -8 -7 -6 -7 -7 -7 -8 -9 -10 -12 -14 -15 -17 -20 -22
-9 -9 -10 -15 -12 -12 -14 -15 -14 -11 -12 -12 -14 -11 -13 -14 -14 -14 -13 -13 -13 -12 -12 -11 -10 -9 -9 -8 -8 -7 -7 -5 -5 -6 -6 -6 -6 -6 -6 -5 -6 -8 -8 -8 -9 -11 -13 -14 -15 -16 -18 -21 -21 -22
-9 -9 -11 -17 -15 -14 -12 -11 -11 -12 -12 -12 -13 -13 -13 -14 -13 -13 -13 -13 -13 -12 -12 -11 -10 -10 -9 -8 -8 -8 -7 -6 -5 -4 -4 -5 -6 -6 -7 -8 -8 -9 -9 -12 -14 -15 -15 -15 -17 -19 -20 -21 -21 -21
-9 -9 -12 -13 -16 -12 -12 -12 -11 -11 -12 -12 -12 -12 -13 -13 -13 -13 -12 -12 -12 -12 -12 -11 -11 -10 -9 -9 -8 -8 -8 -7 -6 -5 -5 -5 -7 -9 -9 -9 -10 -11 -13 -14 -14 -15 -16 -18 -19 -20 -20 -20 -20 -19
-10 -10 -15 -15 -15 -13 -12 -12 -11 -11 -12 -12 -12 -12 -12 -13 -12 -12 -12 -12 -12 -12 -11 -11 -10 -10 -9 -9 -8 -8 -7 -7 -7 -7 -8 -9 -10 -10 -11 -13 -14 -14 -15 -15 -16 -17 -18 -19 -20 -19 -19 -19 -19 -22
-11 -12 -13 -14 -14 -14 -13 -12 -13 -14 -13 -14 -14 -13 -13 -13 -13 -12 -12 -12 -11 -11 -11 -11 -10 -10 -9 -9 -8 -8 -8 -8 -9 -10 -10 -11 -12 -13 -14 -14 -15 -15 -16 -16 -17 -18 -18 -19 -18 -18 -18 -21 -25 -26

GFSWCAN_850_dewp_027.txt.gz
Dewpoint
-3 -3 -3 -3 -4 -2 -3 -4 -3 -4 -3 -4 -3 -2 -1 -1 1 2 4 4 5 4 4 4 4 4 5 4 5 4 5 5 6 7 7 7 6 5 6 4 6 7 7 7 6 7 5 0 -1 0 -1 1 1 1
-3 -3 -3 -3 -3 -4 -2 -4 -4 -4 -4 -4 -3 -1 -2 -1 1 2 4 5 5 5 5 4 4 4 4 4 4 4 5 5 6 6 6 6 7 5 5 6 4 6 5 6 5 4 1 1 1 1 1 1 1 1
-2 -3 -3 -2 -2 -4 -4 -3 -5 -4 -4 -4 -4 -1 -2 -2 0 1 3 5 4 5 4 5 4 4 4 5 4 4 4 5 6 6 5 5 7 4 6 5 5 4 3 5 5 2 2 1 1 1 1 1 1 1
-2 -3 -4 -3 -3 -4 -4 -5 -5 -4 -4 -13 -3 -2 -1 -2 -1 2 4 5 5 5 5 4 5 5 5 4 5 4 4 5 5 6 6 6 6 3 4 3 4 3 2 3 3 1 1 1 1 1 1 1 1 1
-3 -5 -5 -5 -5 -7 -5 -5 -5 -4 -11 -19 -4 -2 -1 -3 -2 3 3 4 4 5 6 5 5 4 4 4 4 3 4 5 6 6 7 7 5 4 3 2 3 0 3 4 4 1 0 -0 1 1 1 1 1 1
-4 -5 -6 -6 -5 -5 -6 -6 -5 -9 -21 -14 -4 -5 -3 -2 -0 3 4 4 5 5 5 5 5 4 4 4 4 4 5 5 6 6 6 6 4 4 4 5 2 1 -0 1 1 0 0 0 1 1 1 1 1 1
-6 -11 -13 -10 -6 -5 -6 -6 -12 -18 -7 -4 -4 -5 -4 -4 -1 2 4 4 5 5 5 4 4 4 4 4 4 4 5 5 5 6 6 5 4 4 5 5 3 1 1 -0 0 0 1 1 1 1 0 0 -0 -1
-13 -15 -19 -18 -16 -14 -11 -9 -5 -4 -5 -4 -3 -5 -3 -3 1 3 4 5 5 5 5 3 4 4 4 5 5 5 5 5 5 5 4 5 4 3 5 3 3 1 1 1 1 0 0 1 1 1 -0 -1 -2 -3
-14 -18 -21 -21 -21 -19 -11 -5 -5 -4 -3 -3 -0 -1 -1 1 3 4 5 5 5 5 4 3 4 4 4 5 4 5 5 6 4 5 4 4 4 5 3 2 2 1 1 1 1 1 1 1 1 0 -1 -2 -4 -4
-15 -17 -21 -20 -20 -21 -16 -5 -4 -3 -4 -0 1 1 3 3 4 5 4 5 5 5 4 4 3 4 4 4 3 4 3 4 5 4 3 3 4 3 3 3 3 1 1 1 1 1 1 1 0 -0 -2 -3 -4 -4
-14 -15 -19 -19 -19 -20 -20 -6 -4 -4 -3 -2 -2 -0 1 3 4 3 4 4 3 3 4 3 3 4 3 3 4 2 3 2 4 1 4 4 4 2 2 3 3 1 1 0 0 -0 0 0 -0 -1 -1 -3 -5 -6
-13 -14 -17 -18 -18 -18 -19 -8 -5 -3 -4 -3 -3 -2 1 2 3 2 3 2 3 4 3 4 3 2 3 2 2 2 2 2 4 0 3 4 1 1 1 2 3 2 1 1 0 0 0 0 -0 -1 -3 -5 -7 -8
-13 -15 -16 -17 -18 -18 -19 -18 -6 -3 -3 -2 -2 -1 -1 0 2 3 4 4 3 2 3 3 2 3 3 3 1 0 3 4 -1 1 2 1 -1 -0 -0 1 2 1 1 1 1 0 0 -0 -1 -3 -6 -7 -9 -10
-13 -15 -16 -18 -18 -20 -21 -21 -14 -3 -3 -2 -1 -0 0 2 2 2 2 2 1 2 3 2 1 1 1 2 1 3 0 -1 0 1 -0 -3 -2 -1 0 1 2 1 1 1 0 0 -0 -1 -3 -5 -7 -8 -10 -9
-14 -15 -16 -16 -19 -21 -22 -21 -5 -3 -3 -2 -1 -0 1 0 -0 -1 -0 -0 1 2 2 1 -0 -1 0 1 -2 -1 1 1 0 1 -3 -4 -2 -0 1 1 1 1 1 0 0 -0 -1 -2 -5 -6 -8 -9 -10 -10
-13 -15 -14 -16 -19 -21 -23 -18 -3 -3 -3 -2 -2 -1 -0 -1 -1 -1 -1 -1 1 2 1 -1 -0 1 1 -0 -3 -2 -1 -0 -0 -3 -3 -2 -1 0 1 1 1 1 0 -0 -1 -1 -3 -5 -6 -8 -8 -9 -8 -9
-13 -12 -13 -16 -19 -21 -22 -4 -3 -3 -3 -2 -2 -2 -2 -1 -1 -1 -1 -0 1 2 2 -1 1 -0 -5 -6 -3 -5 -2 -1 -5 -3 -2 -2 -0 0 1 0 -0 -0 -0 -1 -2 -3 -5 -6 -8 -9 -8 -7 -7 -7
-11 -12 -14 -16 -18 -21 -11 -3 -3 -3 -4 -2 -3 -2 -3 -2 -1 -1 -1 -0 1 1 -2 -2 -3 -3 -3 -3 -4 -5 -5 -3 -2 -2 -1 -0 0 -0 -0 -0 -1 -1 -1 -2 -3 -5 -7 -9 -10 -8 -8 -8 -8 -8
-10 -12 -14 -16 -18 -16 -5 -4 -4 -5 -4 -3 -3 -3 -3 -2 -2 -1 -1 -1 1 1 -1 -3 -4 -4 -3 -5 -5 -5 -4 -2 -3 -1 -0 -1 -1 -1 -1 -1 -1 -2 -2 -4 -6 -8 -9 -9 -10 -10 -9 -9 -9 -9
-11 -13 -15 -17 -19 -10 -6 -5 -5 -5 -6 -4 -4 -3 -3 -3 -3 -2 -1 0 0 -0 -1 -1 -3 -5 -4 -3 -2 -2 -2 -3 -3 -1 -2 -2 -3 -2 -2 -2 -2 -3 -4 -6 -8 -9 -9 -9 -9 -9 -9 -9 -9 -9
-12 -14 -15 -17 -15 -8 -7 -6 -7 -5 -5 -5 -5 -4 -3 -3 -2 -2 -1 -0 -0 -0 -1 -4 -5 -5 -5 -5 -6 -6 -4 -3 -3 -3 -2 -3 -4 -3 -3 -3 -3 -5 -7 -8 -8 -8 -9 -10 -9 -9 -9 -9 -9 -10
-11 -13 -14 -15 -12 -9 -8 -6 -8 -8 -5 -5 -5 -5 -4 -4 -3 -3 -3 -2 -5 -7 -6 -5 -4 -5 -5 -5 -5 -4 -3 -3 -3 -3 -2 -2 -4 -4 -4 -4 -6 -7 -8 -9 -10 -9 -9 -9 -8 -8 -9 -9 -9 -9
-11 -13 -14 -14 -14 -13 -11 -11 -6 -6 -9 -10 -6 -10 -7 -5 -4 -4 -6 -7 -9 -9 -9 -8 -5 -5 -4 -4 -4 -3 -3 -3 -3 -3 -3 -3 -4 -4 -5 -6 -7 -8 -9 -8 -9 -8 -8 -8 -8 -8 -9 -9 -8 -8
-11 -13 -14 -14 -13 -15 -12 -10 -9 -8 -7 -10 -13 -11 -8 -6 -5 -6 -7 -9 -10 -10 -9 -8 -7 -5 -4 -4 -4 -4 -3 -3 -3 -3 -3 -3 -4 -6 -6 -7 -7 -8 -9 -9 -8 -8 -8 -8 -8 -8 -8 -8 -8 -9
-11 -14 -13 -19 -11 -15 -15 -15 -16 -13 -11 -14 -11 -12 -8 -6 -6 -7 -8 -10 -11 -11 -11 -9 -8 -7 -7 -5 -4 -4 -4 -3 -3 -3 -5 -5 -5 -6 -7 -7 -8 -8 -8 -8 -8 -8 -8 -8 -8 -8 -8 -8 -10 -12
-14 -14 -14 -18 -16 -15 -14 -13 -14 -13 -13 -13 -11 -9 -8 -8 -8 -8 -11 -12 -13 -12 -12 -12 -11 -8 -8 -8 -7 -5 -5 -4 -4 -4 -4 -5 -4 -5 -7 -7 -8 -7 -8 -8 -9 -9 -8 -8 -7 -8 -9 -11 -13 -14
-14 -16 -11 -10 -10 -10 -12 -11 -11 -13 -13 -13 -14 -13 -11 -10 -10 -11 -12 -13 -13 -13 -12 -12 -11 -11 -9 -8 -7 -7 -6 -5 -5 -4 -4 -4 -3 -3 -3 -4 -4 -8 -9 -8 -8 -8 -7 -7 -8 -9 -11 -13 -15 -17
-11 -12 -12 -10 -10 -11 -15 -15 -15 -14 -14 -11 -12 -13 -12 -10 -11 -13 -14 -13 -13 -12 -12 -12 -11 -11 -10 -9 -8 -7 -7 -7 -6 -5 -5 -4 -4 -3 -2 -3 -9 -9 -8 -7 -6 -6 -7 -8 -9 -11 -12 -14 -15 -18
-9 -10 -11 -15 -12 -12 -13 -14 -15 -11 -11 -12 -14 -14 -14 -13 -13 -13 -13 -13 -13 -13 -12 -12 -11 -11 -10 -9 -9 -8 -8 -7 -7 -6 -5 -6 -6 -6 -8 -9 -8 -5 -5 -6 -7 -8 -9 -10 -12 -13 -15 -16 -19 -22
-10 -9 -12 -17 -15 -14 -12 -12 -11 -12 -12 -12 -12 -12 -13 -13 -13 -13 -13 -13 -12 -12 -12 -12 -12 -12 -11 -10 -10 -9 -9 -8 -7 -5 -6 -7 -8 -8 -6 -5 -5 -5 -7 -8 -9 -11 -13 -14 -14 -15 -17 -20 -21 -21
-10 -9 -12 -13 -17 -13 -12 -12 -12 -12 -12 -12 -12 -12 -12 -13 -12 -12 -12 -12 -12 -12 -12 -12 -11 -11 -11 -10 -9 -9 -8 -8 -7 -6 -5 -5 -4 -5 -6 -6 -6 -7 -9 -10 -11 -13 -14 -15 -17 -18 -20 -20 -21 -20
-10 -10 -15 -15 -15 -13 -13 -12 -12 -12 -12 -12 -12 -12 -12 -12 -12 -12 -12 -12 -12 -12 -11 -11 -11 -10 -10 -9 -9 -8 -7 -7 -6 -6 -5 -5 -6 -7 -7 -8 -9 -10 -12 -13 -14 -14 -16 -17 -19 -20 -20 -20 -19 -19
-12 -12 -13 -14 -15 -15 -13 -13 -13 -13 -13 -13 -13 -13 -13 -12 -13 -11 -12 -12 -11 -11 -11 -11 -10 -10 -9 -9 -9 -8 -8 -7 -7 -7 -7 -7 -7 -8 -10 -12 -13 -14 -14 -15 -16 -17 -18 -19 -19 -19 -18 -18 -19 -23

GFSWCAN_850_dewp_030.txt.gz
Dewpoint
-3 -3 -2 -2 -2 -2 -2 -4 -4 -5 -4 -4 -4 -4 -2 -1 -0 1 3 3 5 4 4 4 4 4 4 4 4 4 4 5 6 6 6 7 7 5 5 4 6 6 7 7 6 7 4 0 -0 1 -1 1 1 1
-3 -3 -2 -3 -4 -3 -4 -5 -4 -5 -5 -4 -4 -4 -1 -1 -1 1 2 4 5 4 5 4 4 4 4 4 4 4 5 5 5 5 6 6 7 5 4 6 3 6 4 5 5 4 1 1 1 1 1 1 1 1
-4 -4 -4 -5 -4 -5 -5 -6 -5 -5 -5 -4 -8 -4 -2 -1 -1 -0 2 4 3 4 4 4 3 4 4 5 5 5 4 4 6 6 5 5 6 4 6 5 4 3 2 5 4 2 2 1 1 1 1 1 1 1
-3 -5 -6 -6 -7 -6 -5 -5 -5 -5 -4 -7 -17 -6 -3 -2 -1 -1 2 4 4 4 5 4 4 5 5 5 5 5 4 5 4 6 6 6 6 3 4 3 4 3 3 4 3 2 1 1 1 1 1 1 1 1
-3 -12 -11 -13 -14 -6 -6 -6 -5 -6 -14 -18 -8 -5 -4 -4 -2 0 2 4 3 5 5 5 5 5 5 4 4 5 4 4 5 6 7 7 5 4 2 2 3 1 3 4 4 2 0 -0 1 1 1 1 1 1
-7 -17 -19 -19 -21 -20 -9 -11 -8 -7 -6 -4 -4 -4 -6 -6 -3 2 3 3 4 4 4 5 5 4 4 4 4 4 4 5 5 6 6 6 5 4 5 4 2 1 1 2 2 1 0 1 1 1 1 1 1 1
-13 -16 -19 -20 -21 -22 -12 -12 -5 -4 -5 -4 -3 -3 -4 -7 -3 0 3 4 4 5 5 4 4 4 5 4 4 4 5 5 5 6 6 5 4 4 5 4 2 2 1 0 0 1 1 1 1 1 0 1 1 1
-14 -15 -17 -20 -19 -21 -15 -13 -5 -5 -3 -3 -2 -2 -4 -4 -3 1 3 4 4 4 5 3 4 4 4 5 5 5 5 5 5 5 5 5 4 3 5 3 3 1 1 1 1 0 1 1 1 1 0 -0 -1 -2
-14 -14 -15 -18 -19 -19 -19 -18 -6 -4 -4 -3 -0 -1 -3 -1 2 3 4 5 4 5 4 3 4 3 4 5 4 5 5 6 5 5 4 4 5 5 3 2 2 2 1 1 1 1 1 1 1 0 -1 -2 -3 -4
-14 -13 -14 -15 -17 -17 -19 -19 -6 -4 -5 -1 -0 1 2 3 4 4 4 4 5 5 4 4 3 4 4 4 4 4 3 4 5 4 3 3 4 3 3 2 2 2 1 1 1 1 1 1 0 -0 -2 -3 -5 -5
-16 -14 -14 -15 -16 -18 -19 -20 -9 -5 -4 -3 -2 -1 1 3 3 3 3 4 3 3 4 4 3 3 3 3 4 3 3 2 4 2 4 3 4 1 2 2 3 2 1 0 0 -0 0 1 0 -1 -3 -4 -5 -5
-16 -14 -14 -15 -16 -18 -20 -22 -14 -7 -3 -3 -3 -2 1 2 3 3 2 2 3 4 3 4 3 2 3 2 2 2 2 2 3 -0 3 4 1 0 1 2 3 2 1 1 0 0 0 0 -0 -2 -3 -4 -5 -5
-15 -14 -15 -16 -17 -17 -20 -23 -21 -6 -3 -2 -2 -1 -1 0 2 3 4 3 3 1 3 3 2 3 3 2 0 0 3 3 -1 1 2 0 -2 -1 0 1 2 2 1 1 0 0 0 0 -1 -2 -3 -4 -6 -6
-16 -15 -15 -16 -16 -17 -20 -23 -22 -3 -3 -2 -2 -1 -1 1 2 2 1 1 0 1 3 3 1 1 2 2 1 4 1 -1 0 1 -0 -2 -3 -1 -0 1 2 1 1 1 0 0 0 -0 -1 -2 -4 -6 -8 -9
-16 -16 -15 -15 -15 -18 -21 -24 -15 -3 -3 -3 -2 -1 0 -0 -0 -0 -0 -0 0 1 2 1 0 -0 0 1 -1 -0 1 1 1 0 -2 -4 -3 -1 0 1 1 1 1 0 0 -0 -0 -1 -2 -4 -6 -8 -10 -11
-15 -15 -14 -14 -16 -19 -21 -21 -3 -3 -3 -3 -2 -3 -1 -1 -1 -1 -1 -1 0 2 2 0 0 1 1 -1 -1 -0 -1 0 0 -4 -4 -3 -1 -0 1 1 1 1 0 0 -0 -1 -1 -2 -5 -7 -7 -9 -10 -10
-14 -12 -12 -15 -17 -19 -20 -6 -3 -3 -3 -3 -2 -2 -2 -2 -1 -1 -1 -1 0 1 1 0 1 1 -4 -6 -3 -3 -1 -1 -4 -4 -2 -2 -1 0 1 1 0 0 -0 -1 -1 -1 -2 -4 -6 -8 -8 -8 -9 -8
-13 -11 -13 -15 -17 -20 -12 -4 -4 -4 -4 -4 -4 -3 -3 -3 -3 -2 -1 -0 -0 1 -1 -0 -3 -3 -3 -3 -3 -4 -5 -5 -3 -2 -2 -1 -0 0 0 0 0 -0 -1 -1 -1 -2 -4 -6 -8 -9 -10 -8 -7 -7
-11 -11 -12 -15 -16 -18 -12 -5 -4 -5 -5 -4 -4 -4 -3 -3 -4 -3 -2 -1 -1 -0 0 -1 -2 -3 -3 -5 -6 -6 -5 -4 -3 -2 -1 -1 -1 -0 -0 -1 -1 -1 -1 -2 -3 -5 -6 -8 -10 -10 -9 -8 -9 -8
-10 -11 -13 -14 -18 -17 -8 -5 -5 -5 -6 -5 -5 -5 -4 -4 -5 -3 -2 -2 -1 -0 -0 -0 -1 -4 -4 -4 -3 -2 -2 -3 -3 -2 -2 -2 -2 -1 -1 -1 -1 -2 -2 -3 -5 -6 -8 -9 -9 -10 -10 -9 -10 -9
-11 -12 -13 -15 -17 -12 -8 -6 -7 -6 -6 -6 -5 -5 -5 -4 -3 -3 -2 -2 -1 -0 -1 -4 -4 -4 -5 -5 -5 -5 -5 -3 -3 -3 -3 -2 -2 -3 -2 -2 -2 -2 -3 -5 -6 -7 -8 -10 -10 -9 -10 -9 -10 -10
-10 -11 -12 -15 -15 -10 -8 -6 -7 -8 -7 -6 -6 -6 -6 -6 -4 -4 -4 -3 -7 -9 -8 -8 -7 -6 -5 -5 -4 -4 -4 -3 -3 -3 -3 -2 -3 -3 -3 -3 -3 -4 -5 -6 -8 -9 -10 -10 -10 -10 -9 -10 -10 -10
-10 -11 -13 -14 -13 -13 -12 -10 -7 -7 -10 -10 -8 -11 -12 -8 -4 -5 -6 -8 -9 -10 -10 -9 -8 -7 -5 -4 -4 -4 -3 -3 -3 -3 -3 -2 -2 -3 -3 -3 -3 -4 -6 -7 -9 -10 -10 -9 -9 -9 -9 -10 -10 -9
-10 -12 -12 -14 -13 -17 -13 -11 -10 -9 -8 -12 -14 -12 -13 -8 -6 -7 -9 -9 -10 -10 -10 -9 -9 -7 -5 -5 -4 -3 -3 -3 -3 -3 -3 -3 -3 -4 -4 -4 -4 -6 -7 -8 -9 -9 -9 -9 -9 -9 -9 -9 -9 -8
-10 -13 -13 -18 -12 -16 -16 -16 -17 -13 -12 -15 -12 -13 -13 -7 -10 -10 -11 -11 -11 -11 -11 -10 -10 -10 -10 -8 -6 -5 -4 -3 -3 -3 -4 -4 -4 -4 -5 -5 -5 -7 -8 -9 -9 -9 -9 -9 -9 -9 -9 -8 -8 -9
-13 -14 -15 -18 -17 -16 -14 -15 -15 -14 -15 -14 -14 -11 -10 -11 -11 -11 -11 -11 -12 -12 -12 -12 -12 -11 -9 -10 -9 -7 -6 -5 -4 -4 -4 -4 -4 -4 -5 -4 -5 -7 -8 -9 -10 -9 -9 -9 -9 -8 -8 -8 -10 -11
-13 -15 -13 -12 -11 -11 -12 -11 -11 -14 -15 -14 -16 -15 -15 -12 -12 -11 -10 -12 -13 -13 -13 -12 -12 -12 -11 -10 -9 -8 -7 -6 -5 -5 -4 -4 -5 -5 -3 -3 -6 -8 -8 -7 -8 -9 -10 -9 -8 -7 -7 -10 -12 -13
-10 -12 -13 -10 -10 -11 -16 -15 -16 -14 -14 -11 -12 -14 -14 -13 -12 -12 -13 -13 -13 -13 -13 -12 -11 -11 -11 -10 -10 -9 -8 -7 -6 -6 -6 -6 -6 -5 -4 -3 -5 -3 -2 -7 -8 -9 -9 -8 -6 -7 -10 -12 -14 -16
-9 -11 -11 -16 -13 -12 -13 -15 -15 -12 -11 -12 -14 -14 -14 -12 -12 -12 -13 -13 -13 -13 -12 -12 -11 -11 -11 -10 -10 -10 -9 -8 -8 -8 -7 -7 -7 -6 -5 -4 -2 -2 -7 -8 -8 -6 -4 -5 -8 -10 -12 -14 -16 -18
-10 -10 -12 -16 -15 -14 -13 -12 -12 -11 -12 -12 -12 -12 -12 -12 -12 -12 -12 -12 -12 -12 -12 -12 -12 -12 -12 -11 -11 -11 -10 -10 -9 -8 -7 -7 -7 -6 -5 -4 -4 -7 -7 -5 -5 -6 -8 -9 -12 -13 -15 -16 -19 -21
-10 -10 -12 -13 -16 -13 -13 -12 -12 -12 -12 -12 -12 -12 -12 -12 -12 -12 -12 -12 -12 -12 -12 -12 -12 -11 -11 -11 -11 -11 -10 -9 -9 -8 -7 -6 -6 -6 -6 -6 -6 -5 -6 -5 -6 -8 -10 -12 -14 -15 -18 -19 -20 -21
-11 -10 -14 -15 -16 -14 -13 -13 -12 -12 -12 -12 -12 -12 -12 -12 -12 -11 -12 -12 -12 -12 -12 -11 -11 -11 -11 -10 -10 -9 -9 -8 -8 -7 -6 -5 -5 -6 -5 -5 -5 -5 -6 -8 -10 -12 -14 -15 -16 -18 -19 -20 -20 -19
-13 -12 -14 -14 -15 -15 -14 -13 -14 -14 -13 -13 -13 -13 -13 -12 -13 -11 -11 -12 -11 -11 -11 -11 -11 -10 -10 -10 -9 -9 -9 -8 -8 -7 -7 -7 -6 -6 -6 -7 -7 -8 -11 -13 -14 -15 -16 -17 -18 -19 -19 -18 -18 -18

GFSWCAN_850_dewp_033.txt.gz
Dewpoint
-6 -5 -2 -2 -3 -4 -3 -4 -4 -5 -6 -5 -4 -9 -6 -2 -0 0 3 4 4 5 4 4 4 4 4 4 5 4 4 4 5 6 5 6 6 5 5 3 5 6 7 8 7 7 6 1 1 2 0 1 1 1
-14 -5 -2 -2 -3 -4 -5 -5 -5 -5 -5 -5 -4 -11 -6 -2 -1 -0 2 3 5 4 5 4 4 4 4 3 3 3 4 4 5 5 4 6 6 5 4 5 3 5 4 5 4 4 1 2 1 1 1 1 1 1
-18 -6 -3 -3 -4 -4 -6 -5 -5 -5 -5 -4 -4 -12 -8 -3 -2 -1 0 2 4 4 3 3 3 4 4 4 4 4 4 4 4 6 5 5 6 4 6 5 4 3 2 5 4 2 2 1 1 1 1 1 1 1
-15 -4 -9 -7 -14 -13 -12 -5 -5 -7 -10 -10 -7 -4 -3 -5 -5 -3 0 2 3 4 4 4 4 4 5 5 5 5 4 4 4 4 5 6 5 3 3 3 3 3 3 4 3 2 1 1 1 1 1 1 1 0
-12 -4 -17 -18 -16 -19 -22 -6 -5 -5 -5 -4 -4 -4 -4 -7 -12 -5 0 3 4 4 5 4 5 5 5 4 4 4 4 4 4 6 6 7 5 3 3 2 3 1 3 4 4 2 1 -0 1 1 1 1 0 0
-12 -13 -16 -16 -18 -19 -20 -9 -5 -5 -5 -4 -4 -3 -3 -6 -10 0 3 3 4 4 5 5 5 4 4 4 4 4 4 4 5 5 6 6 5 4 5 5 2 2 1 2 2 1 0 1 1 1 1 0 0 0
-14 -15 -15 -14 -16 -18 -19 -12 -7 -5 -5 -4 -3 -2 -2 -9 -8 1 3 3 4 4 5 4 4 4 5 4 4 4 4 5 5 5 6 6 4 5 5 5 2 1 2 1 1 1 1 1 1 1 1 1 0 0
-18 -16 -13 -13 -15 -17 -18 -16 -18 -7 -4 -3 -2 -1 -3 -10 -5 -0 3 4 3 4 5 4 4 4 4 5 4 5 5 5 5 5 5 5 4 4 6 3 3 2 1 1 1 1 1 1 1 1 1 1 0 -0
-17 -16 -13 -13 -14 -17 -19 -20 -21 -14 -8 -3 -1 -1 -3 -3 -1 2 4 4 4 4 4 3 3 2 4 5 4 5 5 5 5 5 5 4 5 5 4 3 2 2 2 1 1 1 1 1 0 0 0 0 -0 -2
-16 -17 -14 -13 -15 -17 -19 -21 -23 -23 -5 -2 -2 1 1 2 3 4 4 4 4 5 4 4 2 2 3 4 4 4 3 4 4 4 3 4 5 3 4 3 2 2 2 1 1 1 1 1 0 -0 -0 -2 -3 -4
-16 -17 -14 -13 -15 -18 -18 -21 -23 -21 -4 -3 -2 -1 1 2 3 3 3 4 4 3 4 3 3 2 3 3 4 3 3 2 5 2 4 4 4 1 1 2 3 3 1 1 0 0 1 1 -0 -1 -2 -4 -5 -6
-15 -16 -14 -13 -15 -17 -17 -21 -23 -19 -3 -3 -3 -1 1 2 2 2 2 2 3 3 3 3 3 2 3 3 1 1 2 2 4 -0 3 3 1 0 0 2 3 2 1 1 0 0 1 1 -0 -2 -3 -5 -5 -6
-15 -16 -14 -14 -15 -16 -17 -21 -24 -21 -3 -2 -2 -0 -1 0 2 3 4 3 1 1 3 3 2 3 3 2 0 -0 3 3 -0 2 2 0 -1 -1 -0 1 2 1 1 1 0 0 1 0 -1 -3 -4 -5 -5 -5
-17 -16 -15 -14 -15 -15 -17 -21 -24 -13 -3 -2 -2 -3 -4 1 1 1 1 -0 -1 0 2 3 2 2 2 2 1 3 1 -0 2 2 -1 -3 -3 -2 -0 1 2 1 1 0 0 0 0 -0 -2 -3 -5 -5 -6 -6
-16 -15 -15 -15 -14 -16 -19 -22 -15 -4 -3 -3 -3 -3 -3 -1 -0 -0 -0 -0 -0 1 2 1 1 0 0 1 -0 0 2 2 1 0 -2 -4 -4 -1 0 1 1 1 1 0 0 0 0 -1 -2 -3 -4 -5 -7 -10
-14 -15 -15 -13 -14 -17 -20 -20 -4 -3 -3 -3 -3 -4 -2 -2 -1 -2 -1 -1 -0 1 2 1 1 1 2 -2 1 2 -0 1 -0 -3 -3 -3 -2 -1 0 1 1 1 0 0 -0 -0 -0 -1 -2 -4 -5 -6 -10 -11
-12 -13 -12 -12 -15 -18 -20 -8 -4 -3 -3 -3 -2 -2 -2 -3 -2 -2 -1 -2 -0 1 2 1 2 2 -3 -5 -3 -3 -1 -1 -3 -5 -4 -3 -1 -0 0 1 1 0 -0 -0 -0 -1 -1 -2 -3 -6 -7 -9 -9 -10
-10 -13 -12 -12 -16 -18 -15 -5 -5 -4 -4 -4 -4 -3 -3 -3 -3 -3 -2 -1 -1 -0 0 1 -2 -1 -3 -3 -3 -4 -4 -4 -5 -3 -3 -2 -1 -0 1 1 0 -0 -0 -1 -1 -1 -2 -4 -6 -8 -9 -9 -9 -8
-12 -12 -11 -12 -16 -18 -17 -7 -5 -5 -5 -5 -5 -5 -4 -4 -4 -4 -3 -3 -2 -1 -1 -1 -1 -0 -2 -5 -6 -5 -3 -4 -3 -3 -2 -2 -1 -0 0 0 -0 -1 -1 -1 -2 -3 -4 -6 -8 -9 -10 -9 -9 -8
-10 -10 -11 -13 -15 -19 -13 -6 -6 -6 -6 -5 -6 -6 -5 -5 -5 -4 -4 -3 -2 -2 -1 -1 -0 -4 -4 -4 -5 -4 -4 -4 -3 -3 -2 -2 -1 -1 -0 -0 -0 -1 -1 -2 -2 -4 -5 -7 -8 -10 -10 -9 -10 -9
-9 -11 -12 -13 -15 -18 -11 -7 -6 -6 -7 -6 -7 -7 -6 -5 -5 -4 -4 -3 -2 -1 -1 -5 -5 -6 -5 -4 -5 -4 -4 -4 -4 -3 -3 -2 -2 -1 -2 -2 -1 -2 -2 -2 -3 -5 -6 -8 -9 -8 -9 -9 -10 -9
-8 -10 -11 -13 -15 -12 -9 -7 -7 -8 -8 -7 -7 -7 -7 -7 -6 -4 -5 -4 -7 -9 -9 -9 -9 -8 -6 -4 -4 -4 -4 -4 -4 -3 -3 -3 -3 -2 -2 -2 -2 -2 -3 -3 -4 -6 -7 -8 -8 -9 -9 -9 -9 -10
-8 -10 -12 -13 -14 -13 -12 -10 -8 -8 -10 -10 -8 -11 -12 -9 -5 -6 -6 -8 -9 -10 -10 -9 -9 -8 -7 -6 -5 -4 -4 -3 -3 -3 -3 -3 -3 -3 -2 -3 -3 -2 -3 -4 -5 -7 -8 -8 -8 -9 -9 -10 -10 -11
-9 -10 -11 -14 -14 -18 -13 -11 -10 -9 -9 -12 -10 -13 -14 -9 -6 -8 -11 -9 -10 -9 -10 -10 -10 -9 -7 -7 -6 -6 -5 -5 -3 -3 -3 -3 -3 -3 -3 -3 -3 -4 -4 -5 -6 -4 -8 -9 -9 -9 -10 -10 -11 -10
-10 -12 -13 -17 -13 -15 -16 -16 -17 -14 -12 -16 -10 -13 -14 -8 -12 -15 -13 -11 -10 -11 -12 -13 -12 -11 -11 -9 -8 -7 -7 -6 -6 -5 -3 -3 -4 -4 -4 -4 -4 -5 -5 -6 -7 -9 -9 -10 -9 -10 -10 -10 -10 -9
-12 -13 -14 -16 -17 -17 -16 -16 -15 -15 -16 -15 -13 -12 -11 -13 -12 -12 -12 -10 -10 -12 -13 -13 -13 -12 -11 -10 -10 -9 -8 -7 -7 -6 -5 -4 -4 -4 -4 -4 -5 -5 -5 -6 -8 -9 -10 -10 -10 -10 -10 -9 -9 -7
-11 -13 -14 -14 -14 -13 -13 -12 -12 -14 -16 -13 -16 -15 -16 -12 -14 -13 -10 -10 -12 -12 -13 -13 -13 -12 -12 -11 -10 -10 -9 -8 -8 -7 -6 -5 -5 -5 -4 -4 -4 -4 -4 -5 -9 -7 -10 -10 -10 -9 -9 -8 -6 -9
-10 -12 -13 -10 -10 -12 -16 -15 -16 -14 -14 -12 -12 -14 -13 -13 -12 -11 -11 -12 -12 -12 -12 -12 -12 -12 -11 -11 -11 -10 -10 -9 -8 -8 -7 -7 -6 -6 -5 -5 -4 -3 -3 -7 -3 -6 -9 -10 -9 -9 -8 -5 -10 -13
-10 -11 -12 -16 -13 -12 -13 -15 -15 -14 -12 -11 -14 -14 -14 -11 -11 -12 -12 -12 -12 -12 -12 -12 -12 -12 -12 -11 -11 -10 -10 -10 -10 -10 -9 -8 -7 -7 -7 -6 -5 -4 -4 -4 -4 -6 -9 -9 -8 -5 -5 -10 -13 -15
-9 -11 -12 -15 -14 -14 -14 -13 -12 -12 -11 -12 -12 -12 -12 -13 -13 -13 -12 -12 -12 -12 -12 -12 -12 -12 -12 -11 -11 -11 -10 -10 -10 -10 -10 -8 -8 -7 -7 -6 -5 -5 -4 -4 -6 -8 -9 -6 -5 -6 -12 -13 -15 -17
-10 -10 -12 -13 -16 -13 -13 -13 -12 -12 -12 -12 -12 -12 -12 -12 -12 -13 -12 -11 -12 -12 -12 -12 -12 -12 -11 -11 -11 -11 -11 -10 -10 -9 -9 -9 -8 -7 -7 -6 -5 -5 -5 -6 -8 -6 -5 -6 -7 -12 -14 -16 -18 -20
-11 -10 -14 -15 -16 -14 -13 -13 -12 -12 -12 -12 -12 -12 -12 -12 -11 -11 -11 -11 -12 -12 -11 -11 -11 -11 -11 -11 -10 -10 -10 -10 -9 -9 -9 -9 -8 -8 -7 -7 -6 -6 -6 -6 -5 -6 -6 -7 -13 -15 -16 -18 -20 -20
-13 -13 -14 -14 -15 -15 -14 -14 -14 -14 -14 -13 -13 -13 -13 -12 -13 -12 -11 -11 -12 -11 -11 -11 -11 -11 -11 -11 -11 -10 -10 -10 -10 -10 -10 -9 -8 -8 -7 -7 -6 -6 -5 -6 -6 -8 -12 -14 -16 -18 -19 -19 -19 -19

GFSWCAN_850_dewp_039.txt.gz
Dewpoint
-11 -5 -5 -2 -1 -8 -18 -7 -7 -20 -12 -9 -11 -15 -17 -9 -4 -2 1 1 2 2 4 4 4 3 3 3 4 4 4 5 5 6 6 3 2 2 2 2 4 5 6 7 7 8 7 1 2 4 3 2 1 2
-9 -4 -5 -2 -1 -12 -17 -6 -8 -16 -8 -4 -5 -5 -3 -7 -10 -7 0 1 3 3 5 4 4 4 4 4 4 4 4 4 4 5 5 4 3 3 2 4 2 5 2 7 6 5 1 1 2 2 2 1 2 2
-19 -5 -7 -2 -2 -12 -10 -5 -8 -9 -4 -4 -4 -4 -3 -5 -6 -5 -2 1 3 4 4 4 4 4 4 4 3 4 4 4 4 4 5 3 5 4 4 3 3 2 2 4 4 3 2 2 2 2 1 1 1 2
-21 -12 -5 -3 -3 -10 -5 -3 -8 -7 -4 -4 -4 -3 -3 -4 -6 -6 -3 -0 1 2 4 4 3 4 3 4 4 4 4 4 4 5 5 5 4 3 4 3 4 2 3 3 3 2 1 1 2 1 0 -0 -1 -1
-20 -16 -4 -2 -6 -10 -4 -3 -8 -7 -4 -3 -4 -3 -3 -3 -3 -11 -8 -1 1 1 3 4 4 3 4 5 5 5 5 5 4 5 5 4 4 4 3 4 4 1 2 2 2 2 2 1 1 1 0 -1 -1 -1
-19 -19 -3 -3 -14 -9 -3 -7 -13 -7 -4 -4 -4 -3 -3 -3 -3 -1 2 3 3 3 3 5 4 4 4 4 4 4 4 3 3 4 4 4 4 4 5 4 1 1 1 1 1 1 2 1 1 1 -0 -1 -1 -2
-19 -18 -5 -4 -16 -14 -7 -14 -17 -15 -4 -3 -3 -3 -2 -3 -3 -0 2 2 3 3 3 5 4 4 4 4 4 4 4 4 4 4 4 5 6 4 5 5 1 1 2 2 2 2 2 1 1 0 -1 -2 -2 -3
-19 -16 -13 -11 -17 -14 -13 -17 -18 -20 -11 -3 -2 -1 -1 -5 -4 1 2 2 3 3 4 5 4 3 4 5 4 4 4 4 4 5 5 5 5 5 6 4 3 2 2 2 2 1 1 1 0 -0 -0 -1 -0 -2
-18 -19 -11 -13 -17 -13 -15 -19 -20 -22 -4 -2 -2 -1 -4 -3 -0 1 2 3 3 3 4 4 5 6 4 4 4 5 5 5 4 5 5 4 5 6 4 3 3 3 3 3 2 2 1 1 0 -0 -1 -0 -1 -3
-18 -19 -7 -15 -14 -14 -17 -19 -21 -22 -4 -3 -1 0 0 1 1 3 3 3 3 3 4 4 4 3 4 4 5 4 4 5 5 4 3 4 5 4 3 4 4 3 2 2 1 1 1 1 1 -1 -1 -1 -1 -2
-19 -13 -11 -14 -12 -14 -17 -19 -22 -23 -5 -4 -2 -0 2 2 3 3 3 4 4 4 3 3 3 3 3 4 4 3 4 4 6 3 4 5 4 3 2 1 1 2 3 3 2 1 1 2 1 -0 -1 -2 -2 -2
-18 -11 -17 -16 -13 -16 -17 -19 -23 -22 -5 -4 -1 1 2 2 3 3 3 3 3 4 3 4 3 3 3 3 4 3 5 3 5 1 3 4 3 0 -1 -0 1 2 2 2 2 1 1 2 1 0 -0 -1 -2 -3
-18 -14 -16 -12 -14 -16 -17 -20 -23 -20 -4 -3 -1 0 1 1 3 3 3 4 4 1 1 2 3 3 2 3 2 3 4 4 1 3 3 3 1 -3 -2 0 2 2 2 1 1 0 0 1 1 0 0 -1 -3 -4
-17 -16 -16 -13 -14 -15 -14 -19 -23 -16 -3 -2 -1 1 2 2 1 2 1 2 1 0 1 1 2 3 3 3 3 5 2 1 4 4 4 1 -1 -4 -2 0 2 1 1 1 1 0 0 1 0 -0 -0 -2 -5 -6
-7 -17 -15 -15 -15 -15 -14 -18 -22 -10 -3 -2 -2 0 -1 -0 -1 -1 -1 -1 -0 -0 1 2 2 1 3 3 2 3 3 3 3 4 4 -1 -4 -3 -1 -0 1 1 1 1 0 0 0 -0 -1 -1 -2 -4 -6 -7
-7 -14 -15 -16 -14 -14 -14 -16 -15 -5 -3 -3 -3 -1 -1 -1 0 -1 -2 -1 -0 -0 1 1 2 3 4 4 2 3 3 4 4 2 -1 -3 -3 -2 -1 -0 0 1 1 0 0 0 -0 -1 -1 -2 -4 -5 -6 -7
-6 -9 -14 -14 -13 -12 -15 -13 -5 -4 -4 -4 -3 -3 -3 -2 -2 -2 -2 -2 -2 -1 2 1 3 3 1 2 3 2 3 1 -2 -2 -3 -3 -3 -2 -1 -0 0 0 0 0 -0 -0 -1 -1 -2 -3 -5 -6 -6 -7
-4 -8 -9 -10 -12 -13 -15 -10 -5 -4 -4 -3 -3 -3 -3 -3 -3 -3 -3 -3 -2 -1 -1 1 -2 2 2 3 3 -1 -2 -3 -3 -3 -4 -4 -4 -3 -2 -1 -0 -0 -0 -0 -0 -1 -1 -2 -3 -4 -5 -6 -6 -7
-5 -5 -8 -10 -11 -14 -15 -9 -6 -5 -5 -5 -5 -4 -4 -4 -4 -4 -4 -4 -4 -3 -2 -2 0 1 1 -2 -3 -3 -4 -5 -4 -4 -4 -4 -3 -3 -2 -1 -0 -1 -1 -1 -1 -1 -1 -2 -3 -4 -5 -5 -7 -7
-4 -4 -6 -9 -11 -14 -15 -9 -9 -5 -5 -5 -5 -5 -5 -5 -5 -6 -5 -4 -4 -3 -2 -2 -2 -3 -4 -5 -5 -5 -5 -5 -5 -5 -4 -4 -4 -5 -3 -2 -1 -1 -1 -1 -2 -2 -2 -3 -4 -4 -5 -6 -7 -6
-3 -4 -7 -8 -12 -13 -13 -9 -8 -6 -6 -6 -6 -6 -6 -7 -6 -5 -4 -4 -3 -3 -3 -3 -5 -5 -5 -5 -6 -6 -6 -6 -6 -6 -5 -4 -3 -3 -4 -3 -2 -1 -1 -2 -2 -2 -3 -3 -4 -4 -5 -7 -5 -9
-4 -7 -10 -11 -12 -14 -10 -9 -7 -7 -7 -7 -7 -9 -7 -6 -6 -6 -6 -5 -4 -4 -5 -6 -6 -7 -8 -9 -10 -10 -9 -7 -6 -6 -5 -5 -4 -4 -3 -3 -3 -2 -2 -2 -2 -2 -3 -4 -4 -5 -7 -4 -7 -9
-4 -7 -9 -11 -13 -13 -11 -8 -8 -8 -7 -7 -8 -7 -7 -7 -6 -6 -6 -6 -6 -7 -7 -8 -11 -12 -13 -13 -13 -12 -10 -8 -7 -7 -7 -6 -5 -4 -3 -3 -3 -3 -3 -2 -2 -3 -3 -4 -6 -7 -6 -2 -7 -8
-5 -6 -10 -11 -12 -11 -13 -10 -9 -9 -9 -8 -7 -8 -8 -8 -8 -6 -6 -6 -7 -8 -9 -12 -13 -14 -14 -14 -13 -13 -12 -11 -10 -9 -8 -7 -7 -5 -5 -4 -3 -4 -3 -3 -3 -3 -3 -5 -7 -7 -2 -8 -8 -9
-5 -6 -8 -10 -13 -12 -10 -10 -10 -9 -8 -9 -8 -9 -9 -9 -6 -6 -7 -7 -8 -9 -10 -12 -14 -13 -13 -13 -13 -13 -12 -12 -11 -10 -9 -9 -8 -7 -6 -5 -4 -4 -3 -4 -4 -4 -4 -5 -7 -3 -7 -8 -8 -9
-6 -8 -11 -10 -11 -11 -11 -10 -10 -9 -10 -9 -10 -11 -10 -8 -7 -8 -8 -8 -9 -10 -11 -14 -14 -13 -12 -12 -12 -12 -12 -12 -11 -11 -10 -10 -9 -8 -7 -7 -6 -5 -3 -4 -5 -4 -4 -4 -5 -7 -7 -5 -9 -10
-6 -7 -13 -15 -15 -15 -13 -13 -13 -11 -10 -11 -10 -10 -9 -8 -8 -10 -11 -10 -12 -16 -17 -16 -15 -13 -12 -12 -12 -12 -12 -12 -12 -11 -11 -10 -10 -9 -8 -8 -8 -6 -5 -5 -6 -6 -5 -4 -5 -5 -4 -8 -9 -11
-8 -11 -10 -12 -12 -14 -12 -12 -11 -11 -12 -13 -10 -10 -9 -10 -10 -13 -11 -14 -17 -17 -17 -16 -15 -13 -12 -12 -12 -12 -12 -12 -11 -11 -11 -10 -10 -9 -8 -7 -7 -7 -7 -6 -6 -6 -6 -5 -4 -4 -5 -9 -10 -11
-9 -11 -12 -11 -12 -12 -12 -11 -12 -15 -15 -12 -9 -10 -11 -14 -15 -16 -16 -16 -17 -17 -17 -15 -14 -13 -12 -12 -12 -12 -12 -11 -11 -11 -11 -11 -11 -10 -8 -8 -7 -7 -7 -7 -6 -6 -6 -5 -4 -3 -6 -10 -11 -10
-9 -11 -11 -12 -12 -11 -12 -14 -14 -15 -14 -13 -13 -13 -14 -16 -17 -17 -17 -17 -17 -16 -15 -15 -13 -12 -12 -12 -11 -11 -11 -11 -11 -11 -11 -11 -11 -10 -10 -9 -8 -8 -8 -8 -8 -8 -8 -7 -6 -5 -8 -11 -10 -11
-10 -11 -12 -12 -11 -13 -14 -14 -14 -13 -13 -13 -13 -13 -13 -14 -16 -17 -17 -17 -17 -16 -14 -13 -12 -12 -11 -11 -11 -11 -11 -11 -11 -11 -11 -11 -11 -11 -10 -10 -9 -8 -8 -8 -9 -9 -9 -8 -5 -6 -8 -7 -8 -7
-11 -10 -11 -11 -12 -14 -14 -14 -14 -13 -13 -13 -13 -13 -13 -13 -13 -15 -15 -15 -14 -14 -13 -12 -11 -11 -11 -12 -12 -12 -12 -11 -11 -11 -11 -10 -10 -10 -10 -10 -10 -9 -9 -9 -9 -9 -8 -6 -6 -7 -7 -7 -6 -7
-13 -13 -13 -14 -14 -14 -14 -14 -14 -14 -14 -14 -14 -14 -13 -13 -12 -14 -14 -14 -14 -12 -11 -11 -11 -12 -12 -12 -12 -12 -12 -12 -12 -11 -11 -10 -10 -10 -10 -10 -10 -10 -10 -10 -9 -9 -7 -6 -6 -7 -7 -7 -8 -14

GFSWCAN_850_dewp_042.txt.gz
Dewpoint
-12 -7 -5 -4 -3 -2 -2 -3 -4 -4 -4 -5 -4 -4 -4 -3 -9 -7 -0 2 2 2 3 3 3 3 2 3 4 5 4 4 4 5 5 5 2 2 2 5 5 5 7 6 4 6 6 1 2 5 3 2 2 3
-10 -5 -9 -4 -3 -2 -2 -3 -3 -4 -3 -4 -4 -4 -4 -3 -5 -8 -0 1 2 2 4 4 4 3 4 4 4 4 4 4 4 5 5 5 5 2 3 4 2 5 3 6 5 4 2 2 2 2 2 2 2 2
-13 -11 -17 -4 -3 -2 -2 -2 -3 -3 -3 -4 -3 -4 -3 -3 -3 -5 -3 1 2 3 4 3 4 3 4 3 3 4 4 4 4 4 5 5 5 4 5 3 3 2 2 4 5 3 2 1 2 1 1 0 1 2
-14 -19 -12 -6 -3 -2 -2 -2 -2 -4 -3 -4 -4 -2 -3 -3 -3 -6 -2 -0 1 2 3 4 3 3 3 4 4 4 3 4 4 4 4 5 5 4 4 4 4 3 3 3 3 2 2 2 1 1 0 -1 -1 0
-16 -20 -11 -5 -3 -2 -3 -2 -2 -3 -4 -4 -4 -4 -4 -3 -2 -4 -9 -3 -1 1 3 4 4 3 4 4 4 4 4 5 4 5 5 4 4 4 3 4 4 2 3 3 3 2 2 2 1 1 -0 -1 -1 -1
-18 -16 -8 -10 -3 -2 -5 -4 -3 -4 -4 -4 -3 -3 -3 -3 -3 -1 1 2 2 3 3 5 4 4 4 4 4 4 5 4 4 4 4 3 3 4 5 5 1 0 1 1 1 1 2 1 1 0 -0 -1 -1 -1
-16 -13 -12 -13 -3 -3 -13 -6 -13 -5 -5 -3 -3 -3 -3 -3 -3 -1 1 1 3 3 3 4 5 4 4 4 4 4 5 4 4 3 4 4 4 4 5 5 1 1 2 2 2 2 2 2 1 0 -1 -1 -2 -2
-16 -13 -16 -17 -3 -7 -11 -15 -16 -15 -15 -4 -2 -2 -2 -2 -2 0 1 2 3 3 3 4 4 4 4 5 4 4 4 4 3 4 4 5 5 5 6 4 3 3 3 2 2 2 2 2 1 -0 -1 -1 -1 -2
-15 -15 -17 -18 -2 -14 -13 -17 -19 -18 -13 -3 -1 -1 -1 -1 0 1 2 2 3 3 4 4 4 5 4 4 5 4 5 5 3 4 5 4 5 6 4 3 4 3 3 3 2 1 1 1 0 -1 -1 -1 -1 -3
-16 -15 -17 -15 -3 -13 -15 -16 -19 -20 -7 -3 -1 0 0 1 2 2 2 3 3 3 4 4 3 4 3 3 4 4 4 4 4 4 3 4 5 3 3 3 3 3 3 2 2 2 1 1 -0 -1 -1 -1 -2 -2
-15 -16 -17 -9 -9 -14 -16 -16 -19 -20 -5 -3 -1 0 1 1 2 3 3 4 3 3 4 3 2 4 3 4 4 3 4 3 4 3 4 5 5 3 0 -1 -1 0 2 3 3 2 1 1 0 -0 -1 -2 -2 -3
-14 -17 -17 -8 -11 -15 -16 -16 -19 -17 -5 -4 -0 2 2 2 2 2 3 3 3 4 3 3 3 3 3 3 3 3 4 3 5 1 3 4 3 -2 -4 -1 1 2 2 2 2 2 1 1 1 0 -1 -1 -2 -1
-9 -15 -16 -4 -8 -14 -15 -16 -19 -15 -3 -2 -0 1 1 1 3 3 4 3 3 2 1 2 3 3 3 3 3 2 4 4 1 3 3 3 -1 -3 -3 -0 1 1 1 2 2 1 1 2 1 0 -1 -2 -2 -2
-4 -3 -10 -9 -10 -14 -15 -16 -18 -13 -3 -1 -1 -1 0 2 2 2 2 2 1 1 1 1 2 3 3 3 3 3 3 1 3 3 3 1 -2 -3 -1 -0 0 1 1 1 1 1 1 1 0 -0 -1 -1 -2 -4
-3 -3 -3 -13 -11 -12 -13 -16 -17 -9 -3 -2 -2 -0 -0 -0 -0 -1 -1 -0 -0 0 1 2 2 1 2 2 2 2 3 2 2 2 2 -1 -3 -3 -2 -1 -0 0 0 0 0 0 0 0 0 -1 -1 -2 -4 -5
-4 -3 -3 -12 -12 -12 -13 -15 -16 -6 -4 -3 -3 -2 -1 -0 -0 -1 -1 -0 -0 -0 1 1 2 2 1 2 2 2 2 2 2 -1 -2 -3 -4 -4 -3 -2 -1 -0 0 -0 -0 -0 -0 -1 -1 -1 -2 -3 -4 -6
-4 -3 -3 -9 -11 -11 -12 -14 -10 -4 -4 -4 -4 -3 -2 -2 -1 -2 -2 -2 -1 -1 1 1 2 3 1 2 2 1 1 0 -3 -3 -3 -4 -4 -4 -3 -2 -1 -0 -0 -0 -1 -1 -1 -2 -2 -2 -3 -5 -6 -7
-3 -3 -4 -7 -8 -11 -13 -11 -6 -4 -5 -4 -4 -4 -4 -3 -3 -3 -3 -3 -2 -1 -1 0 -1 1 2 3 2 -1 -3 -4 -3 -3 -3 -3 -4 -4 -4 -3 -2 -1 -0 -0 -0 -1 -2 -2 -3 -3 -4 -5 -7 -7
-3 -3 -4 -7 -9 -12 -15 -10 -7 -5 -5 -5 -5 -5 -4 -4 -4 -4 -4 -4 -4 -3 -2 -2 -1 1 0 -2 -2 -3 -4 -4 -5 -4 -4 -4 -3 -3 -3 -4 -3 -2 -1 -1 -1 -1 -2 -3 -3 -4 -5 -6 -7 -7
-3 -3 -4 -5 -8 -13 -15 -11 -10 -5 -5 -5 -5 -5 -5 -5 -5 -5 -5 -4 -5 -4 -3 -2 -2 -3 -3 -4 -4 -5 -6 -6 -6 -6 -5 -5 -5 -4 -4 -2 -3 -3 -2 -1 -1 -1 -2 -2 -4 -4 -5 -6 -7 -7
-4 -3 -3 -6 -9 -12 -14 -10 -8 -6 -6 -6 -6 -6 -6 -7 -7 -6 -5 -4 -4 -3 -6 -4 -3 -3 -4 -5 -6 -7 -8 -9 -9 -8 -8 -7 -6 -5 -4 -3 -3 -3 -3 -2 -1 -2 -2 -2 -3 -4 -5 -6 -7 -7
-3 -3 -5 -8 -11 -13 -13 -10 -7 -7 -7 -6 -7 -8 -7 -7 -7 -6 -6 -6 -5 -5 -5 -5 -5 -5 -6 -9 -12 -13 -13 -13 -12 -11 -8 -7 -7 -6 -6 -5 -4 -3 -3 -3 -2 -1 -2 -3 -3 -4 -5 -6 -6 -7
-4 -4 -7 -11 -12 -13 -10 -10 -7 -7 -6 -7 -8 -8 -8 -7 -7 -7 -7 -7 -6 -5 -5 -6 -7 -10 -13 -17 -17 -16 -15 -14 -13 -12 -11 -10 -9 -8 -7 -6 -5 -4 -3 -3 -3 -3 -2 -3 -4 -5 -5 -6 -7 -7
-4 -5 -5 -6 -6 -8 -13 -9 -9 -8 -8 -8 -7 -8 -9 -7 -8 -7 -7 -6 -6 -7 -7 -8 -13 -19 -20 -20 -19 -17 -14 -13 -13 -13 -12 -11 -11 -10 -9 -8 -7 -6 -5 -4 -4 -4 -3 -3 -5 -6 -6 -6 -7 -3
-5 -6 -6 -8 -10 -12 -9 -9 -9 -8 -8 -8 -8 -9 -11 -9 -10 -10 -10 -7 -7 -8 -8 -12 -15 -19 -19 -19 -18 -15 -13 -13 -13 -13 -13 -12 -12 -11 -11 -9 -8 -7 -6 -5 -5 -5 -5 -4 -4 -5 -6 -5 -5 -3
-5 -7 -8 -9 -12 -11 -10 -8 -9 -9 -9 -10 -10 -10 -10 -10 -10 -11 -11 -9 -9 -9 -10 -15 -18 -18 -18 -18 -17 -14 -13 -12 -12 -12 -12 -12 -12 -11 -10 -10 -10 -8 -7 -6 -6 -6 -6 -5 -4 -5 -6 -7 -5 -3
-5 -7 -9 -12 -13 -14 -12 -12 -12 -10 -10 -11 -11 -11 -11 -11 -12 -12 -12 -11 -11 -13 -17 -19 -19 -19 -18 -17 -16 -14 -12 -12 -12 -12 -12 -12 -11 -11 -11 -11 -10 -10 -9 -8 -7 -7 -7 -6 -5 -6 -6 -6 -5 -4
-7 -9 -12 -13 -13 -13 -10 -11 -11 -10 -11 -13 -10 -11 -11 -12 -13 -15 -13 -12 -12 -16 -19 -19 -18 -17 -16 -15 -14 -13 -12 -12 -12 -12 -12 -12 -11 -11 -11 -10 -10 -9 -8 -7 -8 -8 -8 -7 -7 -6 -7 -6 -5 -4
-9 -11 -12 -10 -11 -12 -12 -12 -12 -14 -15 -13 -11 -11 -12 -14 -16 -15 -14 -15 -16 -17 -18 -17 -16 -15 -15 -14 -12 -12 -12 -11 -11 -11 -11 -11 -11 -11 -11 -10 -9 -9 -8 -8 -8 -8 -7 -7 -7 -7 -7 -6 -5 -4
-8 -11 -10 -11 -10 -10 -13 -14 -13 -15 -15 -13 -12 -13 -14 -17 -18 -18 -18 -18 -18 -18 -17 -17 -16 -15 -14 -12 -12 -11 -11 -11 -12 -12 -12 -11 -11 -11 -11 -11 -10 -9 -9 -9 -8 -8 -8 -8 -9 -9 -8 -7 -6 -5
-9 -10 -10 -10 -10 -12 -13 -14 -15 -14 -14 -14 -14 -14 -14 -15 -17 -18 -18 -19 -18 -17 -17 -16 -15 -12 -12 -11 -11 -12 -12 -12 -12 -12 -12 -12 -12 -11 -11 -11 -10 -10 -9 -9 -9 -9 -9 -9 -10 -9 -8 -7 -6 -7
-10 -10 -11 -11 -12 -14 -14 -14 -14 -14 -13 -14 -14 -14 -14 -14 -14 -16 -17 -17 -17 -16 -15 -14 -12 -11 -11 -12 -12 -12 -12 -12 -12 -12 -12 -12 -11 -11 -10 -10 -10 -9 -10 -10 -9 -9 -10 -10 -10 -9 -8 -8 -7 -8
-12 -11 -12 -13 -14 -15 -14 -14 -14 -14 -14 -14 -14 -14 -14 -14 -13 -15 -15 -15 -15 -15 -13 -11 -11 -11 -12 -12 -12 -12 -12 -12 -12 -12 -11 -11 -12 -11 -10 -10 -10 -10 -10 -10 -10 -10 -10 -10 -9 -9 -8 -7 -7 -8

GFSWCAN_850_dewp_045.txt.gz
Dewpoint
-4 -2 -12 -18 -5 -3 -2 -2 -2 -3 -3 -3 -4 -4 -3 -4 -6 -14 -4 1 1 2 3 3 3 3 2 2 3 4 4 4 4 5 5 4 3 2 3 5 5 5 6 7 6 6 5 -1 2 5 3 2 2 3
-4 -6 -16 -20 -7 -3 -3 -2 -2 -2 -2 -3 -3 -3 -3 -3 -3 -4 -6 0 0 1 3 4 3 4 4 3 3 3 4 3 3 4 4 4 4 3 3 5 3 5 4 5 3 3 -1 1 2 2 1 1 1 2
-4 -7 -14 -19 -9 -3 -4 -2 -2 -2 -2 -2 -2 -2 -3 -3 -3 -3 -7 -1 0 1 3 4 3 4 4 3 3 3 4 3 3 4 4 4 5 3 4 3 3 3 2 4 5 3 3 2 1 1 0 0 0 2
-2 -6 -16 -17 -8 -4 -3 -2 -2 -3 -2 -2 -3 -3 -4 -3 -3 -3 -6 -1 -0 1 3 4 4 3 3 3 4 3 3 4 3 4 4 4 5 4 5 4 4 2 2 3 3 2 2 2 1 1 0 -0 -0 2
-1 -6 -11 -15 -11 -7 -3 -2 -2 -2 -2 -3 -4 -4 -3 -4 -3 -2 -7 -1 -0 1 2 3 3 4 4 4 4 4 4 4 4 5 5 4 3 3 3 3 4 2 3 4 4 1 2 2 1 1 -0 -1 -0 1
-2 -4 -12 -10 -12 -6 -3 -3 -2 -2 -3 -4 -3 -4 -3 -3 -3 -2 0 1 -0 1 2 4 4 4 4 4 4 5 4 5 4 4 4 3 2 3 5 5 2 2 1 1 1 1 1 2 1 0 -0 -1 -1 -1
-3 -4 -10 -11 -14 -3 -2 -6 -4 -3 -4 -5 -4 -3 -3 -3 -3 -1 0 1 2 2 2 3 4 4 4 4 4 4 4 4 4 4 4 3 4 4 4 5 1 0 0 1 2 2 2 2 1 0 -0 -1 -1 -1
-3 -5 -10 -14 -13 -3 -3 -9 -14 -10 -18 -4 -3 -3 -2 -2 -2 -0 1 1 2 2 3 3 3 3 4 4 4 4 4 4 4 4 4 4 4 3 6 3 3 3 3 3 2 2 2 2 1 0 -1 -1 -1 -2
-3 -7 -13 -14 -13 -3 -8 -14 -15 -17 -18 -2 -2 -2 -2 -1 -0 1 2 2 2 2 3 3 3 4 4 3 5 4 4 5 3 4 4 4 5 6 3 3 3 3 3 3 2 2 1 1 1 -0 -1 -2 -1 -2
-4 -11 -15 -12 -7 -3 -13 -14 -16 -20 -9 -3 -1 0 1 0 1 2 2 3 3 3 3 4 3 3 3 3 4 4 4 4 3 4 3 4 4 4 -2 -3 -1 -1 1 3 3 2 1 1 0 -1 -1 -1 -0 -2
-5 -11 -14 -10 -3 -8 -15 -14 -16 -20 -5 -3 -1 0 1 1 2 2 3 3 3 3 4 3 3 3 3 3 4 3 3 2 4 3 4 3 5 0 -3 -2 0 1 1 1 2 2 2 2 1 -0 -1 -1 -2 -2
-4 -7 -8 -6 -3 -13 -14 -14 -15 -17 -6 -4 -1 1 1 2 3 2 2 2 3 3 3 3 3 3 3 3 3 3 3 2 4 2 3 4 2 -2 -2 -1 0 1 1 2 2 3 2 1 1 -0 -1 -1 -2 -2
-2 -3 -4 -7 -5 -13 -14 -15 -16 -17 -2 0 0 1 1 1 2 3 3 3 3 2 2 2 2 3 3 3 2 2 3 4 1 2 4 2 -2 -3 -2 -1 -0 1 1 1 2 1 1 2 4 3 1 -1 -1 -2
-3 -3 -2 -2 -5 -13 -14 -15 -16 -18 -4 -1 -1 -1 0 1 1 1 1 1 0 1 1 2 2 3 3 2 2 3 2 1 2 3 2 0 -2 -3 -3 -2 -1 -0 0 0 0 1 1 1 3 2 0 -1 -1 -2
-3 -3 -3 -2 -6 -13 -15 -15 -16 -14 -5 -2 -2 -1 -1 -1 -0 -1 -0 -0 -0 0 1 2 2 1 1 1 1 1 2 1 1 2 -0 -2 -4 -4 -3 -3 -1 -1 -0 -0 -0 0 0 0 0 0 -1 -2 -2 -3
-3 -3 -3 -3 -11 -12 -13 -15 -15 -13 -6 -3 -3 -2 -2 -1 -1 -1 -1 -0 -0 0 1 1 1 2 2 1 2 1 1 1 2 -2 -3 -3 -4 -4 -4 -3 -2 -1 -0 -0 -0 -0 -0 -0 -1 -1 -1 -2 -3 -4
-3 -3 -3 -3 -7 -10 -12 -14 -14 -5 -4 -5 -4 -4 -2 -2 -1 -1 -1 -1 -1 -0 1 0 2 2 0 2 2 1 1 -1 -3 -3 -3 -4 -4 -3 -3 -3 -3 -2 -1 -0 -0 -1 -1 -1 -1 -2 -2 -3 -4 -5
-3 -3 -3 -3 -6 -10 -12 -12 -7 -5 -5 -5 -5 -5 -4 -3 -3 -3 -3 -2 -2 -1 -1 1 -1 1 2 3 1 -1 -3 -3 -3 -4 -4 -5 -3 -3 -4 -4 -2 -4 -2 -1 -1 -1 -1 -2 -2 -3 -3 -4 -5 -6
-3 -3 -3 -4 -7 -9 -13 -11 -10 -5 -5 -5 -5 -5 -4 -4 -4 -4 -4 -4 -3 -3 -2 -2 -1 -0 -1 -1 -2 -3 -3 -4 -5 -6 -6 -7 -4 -4 -6 -6 -4 -3 -3 -2 -1 -1 -2 -3 -3 -3 -4 -5 -6 -6
-3 -3 -3 -4 -7 -11 -14 -12 -12 -5 -5 -5 -5 -5 -5 -5 -5 -5 -5 -5 -5 -5 -4 -3 -2 -3 -2 -2 -3 -4 -5 -7 -8 -8 -9 -8 -9 -9 -8 -6 -5 -3 -3 -3 -2 -2 -2 -2 -3 -4 -4 -5 -6 -7
-3 -3 -3 -4 -7 -10 -13 -11 -9 -6 -5 -6 -6 -6 -6 -6 -6 -7 -6 -5 -5 -5 -8 -5 -4 -3 -3 -3 -4 -6 -8 -10 -11 -12 -12 -12 -11 -9 -8 -8 -7 -6 -4 -3 -3 -3 -2 -2 -2 -3 -4 -5 -6 -7
-4 -4 -3 -5 -8 -13 -13 -10 -7 -7 -7 -6 -7 -7 -8 -8 -8 -7 -5 -6 -6 -6 -5 -5 -5 -4 -4 -5 -7 -11 -14 -16 -15 -15 -13 -13 -13 -12 -12 -11 -9 -7 -5 -5 -3 -3 -3 -3 -3 -3 -4 -5 -6 -7
-3 -4 -4 -7 -11 -12 -11 -11 -8 -7 -8 -8 -8 -8 -8 -7 -7 -7 -7 -7 -7 -7 -7 -5 -5 -6 -7 -12 -19 -20 -20 -19 -18 -16 -15 -14 -14 -14 -13 -12 -10 -9 -8 -7 -5 -4 -4 -3 -4 -4 -4 -5 -6 -7
-4 -4 -5 -6 -7 -7 -11 -9 -8 -8 -7 -8 -8 -8 -9 -8 -8 -8 -7 -8 -8 -7 -6 -6 -6 -8 -17 -22 -23 -21 -18 -17 -15 -14 -13 -13 -13 -14 -13 -13 -12 -12 -10 -8 -7 -5 -5 -4 -4 -5 -5 -6 -6 -7
-4 -5 -5 -9 -7 -11 -13 -11 -11 -8 -8 -8 -7 -9 -11 -9 -11 -12 -9 -10 -8 -7 -8 -7 -8 -15 -22 -23 -22 -20 -18 -16 -15 -16 -15 -13 -12 -12 -13 -12 -12 -12 -10 -9 -7 -6 -6 -6 -6 -5 -5 -6 -6 -6
-6 -6 -8 -9 -13 -13 -13 -10 -9 -9 -8 -8 -9 -10 -10 -10 -11 -10 -10 -10 -11 -11 -9 -10 -12 -19 -23 -22 -20 -20 -17 -16 -14 -15 -15 -12 -12 -12 -12 -12 -12 -12 -11 -10 -9 -7 -7 -7 -7 -6 -6 -6 -7 -6
-6 -9 -7 -9 -12 -13 -12 -12 -11 -10 -9 -9 -11 -10 -10 -10 -11 -12 -14 -16 -14 -15 -15 -16 -19 -21 -21 -20 -19 -17 -16 -15 -14 -13 -13 -12 -12 -12 -12 -12 -11 -11 -11 -10 -10 -9 -8 -7 -7 -7 -7 -7 -7 -7
-7 -9 -11 -12 -14 -15 -12 -11 -11 -12 -11 -12 -11 -10 -10 -12 -12 -18 -18 -18 -14 -15 -19 -21 -21 -20 -19 -18 -17 -16 -15 -14 -12 -12 -12 -12 -12 -12 -11 -11 -11 -11 -11 -10 -9 -8 -8 -8 -8 -8 -8 -8 -8 -7
-8 -10 -12 -12 -12 -13 -12 -12 -12 -15 -14 -13 -11 -11 -12 -14 -17 -19 -17 -14 -14 -13 -12 -15 -18 -18 -17 -16 -16 -15 -13 -12 -11 -11 -11 -12 -12 -12 -12 -11 -11 -11 -10 -10 -9 -8 -8 -8 -8 -8 -8 -8 -8 -8
-9 -11 -11 -11 -10 -9 -11 -14 -13 -14 -15 -14 -13 -13 -14 -16 -19 -19 -20 -20 -20 -20 -19 -18 -18 -17 -17 -16 -15 -12 -11 -11 -12 -12 -12 -12 -12 -12 -12 -11 -11 -11 -11 -11 -10 -9 -8 -8 -8 -9 -9 -9 -9 -9
-10 -10 -10 -10 -10 -11 -12 -14 -15 -15 -15 -16 -15 -14 -15 -16 -19 -19 -19 -19 -19 -19 -18 -17 -17 -17 -15 -13 -11 -11 -12 -12 -12 -12 -12 -12 -12 -12 -12 -12 -11 -11 -11 -10 -10 -9 -9 -8 -9 -9 -9 -9 -9 -9
-10 -9 -9 -10 -12 -13 -13 -13 -14 -14 -14 -14 -14 -14 -14 -15 -15 -17 -17 -18 -18 -18 -18 -17 -16 -13 -12 -12 -12 -12 -12 -12 -12 -12 -12 -12 -12 -11 -11 -11 -11 -10 -10 -10 -10 -9 -9 -9 -9 -9 -10 -10 -10 -10
-11 -11 -12 -12 -14 -14 -14 -14 -14 -14 -14 -14 -14 -14 -14 -14 -14 -16 -16 -16 -16 -16 -16 -16 -12 -12 -12 -12 -12 -12 -12 -12 -13 -13 -13 -13 -12 -11 -11 -11 -11 -10 -10 -10 -10 -10 -9 -9 -9 -10 -10 -10 -10 -9

GFSWCAN_850_dewp_048.txt.gz
Dewpoint
-4 -8 -4 -3 -7 -17 -16 -4 -2 -2 -2 -2 -2 -4 -3 -4 -3 -5 -7 -0 1 1 2 3 4 3 1 2 3 4 3 3 4 5 4 3 4 2 3 4 3 3 4 5 5 6 4 -1 2 5 3 2 2 2
-6 -2 -4 -7 -11 -18 -17 -4 -3 -3 -3 -3 -3 -3 -4 -3 -3 -3 -7 -1 -0 0 2 3 4 4 3 3 3 3 3 3 3 4 4 3 4 3 3 6 3 4 3 4 4 3 -1 -1 2 2 2 1 1 2
-3 -2 -2 -3 -10 -7 -14 -5 -2 -2 -2 -3 -3 -4 -4 -3 -3 -3 -3 -6 -0 -0 2 3 3 3 4 4 3 3 4 2 3 3 3 3 4 3 4 3 3 2 1 4 3 2 1 1 2 1 0 -0 0 1
-2 -1 -2 -2 -5 -10 -6 -4 -3 -2 -3 -3 -3 -4 -4 -4 -3 -3 -3 -5 -1 -0 1 4 5 4 3 3 3 3 3 3 3 3 4 4 5 4 5 3 4 2 2 3 3 2 2 2 1 1 1 -0 -0 2
-1 -1 -2 -2 -2 -9 -4 -3 -2 -2 -3 -3 -4 -4 -5 -4 -3 -3 -3 -8 -1 -1 2 3 3 4 4 4 3 4 4 4 4 4 5 5 3 3 2 2 3 2 3 4 4 1 2 2 1 1 1 -0 -0 1
-1 -1 -2 -2 -5 -7 -4 -3 -2 -2 -3 -3 -4 -4 -5 -4 -3 -3 -2 -8 0 -1 1 3 4 4 4 4 4 4 4 4 4 4 4 3 2 4 5 5 1 2 2 2 2 2 1 1 2 1 0 -0 -0 -0
-1 -2 -2 -3 -4 -9 -3 -3 -4 -2 -2 -6 -3 -4 -3 -4 -3 -3 -0 0 1 0 1 3 3 4 4 4 4 4 5 5 4 4 3 4 3 3 4 4 1 3 3 3 3 3 2 2 2 1 0 -0 -1 -1
-1 -2 -2 -3 -7 -7 -5 -3 -4 -7 -16 -8 -3 -3 -3 -2 -4 -2 0 0 1 2 2 3 3 3 4 4 4 4 4 4 4 4 4 4 3 3 5 3 2 1 2 3 2 2 2 2 2 1 -0 -1 -1 -1
-2 -2 -2 -9 -13 -13 -4 -5 -12 -16 -19 -3 -2 -2 -3 -1 -0 1 1 1 2 2 3 3 3 3 4 4 4 4 4 5 3 3 4 4 5 5 0 -2 -2 -1 -0 1 2 2 2 1 1 1 -1 -1 -1 -2
-2 -2 -5 -6 -12 -4 -3 -11 -15 -18 -9 -2 -1 0 0 0 1 1 2 2 2 3 3 3 3 3 3 3 4 4 4 4 4 3 3 4 4 1 -2 -1 -0 0 1 1 2 2 2 1 1 0 -0 -1 -1 -1
-2 -3 -4 -6 -12 -3 -7 -13 -15 -18 -3 -2 -1 0 1 1 1 1 2 2 2 3 3 3 3 2 3 2 3 3 3 2 4 3 3 3 4 -0 -3 -2 -0 1 1 1 1 1 2 2 2 1 -1 -2 -1 -1
-2 -3 -4 -4 -8 -3 -8 -13 -15 -16 -5 -4 -1 1 1 1 2 2 2 2 2 3 3 3 3 3 3 3 3 2 3 2 4 2 3 4 2 -2 -3 -2 -1 0 0 1 2 2 2 2 2 1 0 -1 -1 -2
-3 -3 -3 -2 -6 -3 -8 -14 -15 -13 -3 -1 0 1 1 1 2 3 3 3 3 2 2 2 2 3 3 3 2 2 3 4 1 2 3 2 -2 -4 -3 -3 -1 -0 -0 1 1 1 1 2 2 1 -0 -0 -1 -1
-3 -3 -3 -2 -2 -4 -7 -14 -15 -14 -2 -1 -1 0 1 1 1 1 -1 0 1 1 1 2 2 2 3 2 2 3 2 0 2 3 2 -1 -3 -4 -3 -3 -2 -1 -0 -0 1 1 1 2 3 4 4 3 2 -0
-3 -3 -3 -2 -2 -8 -10 -13 -15 -13 -4 -2 -2 -2 -0 -1 -0 -1 -0 0 0 1 1 1 1 1 1 2 1 1 2 2 0 2 -0 -3 -4 -4 -4 -3 -3 -1 -1 -0 -0 -0 -0 0 1 1 2 1 -1 -2
-3 -3 -3 -2 -3 -13 -12 -12 -13 -10 -6 -3 -3 -3 -2 -1 -1 -1 -1 -0 -0 0 1 1 1 2 2 2 2 2 1 1 -1 -2 -3 -3 -3 -3 -3 -3 -3 -3 -1 -1 -0 -0 -0 -0 -0 -0 -1 -1 -2 -3
-3 -3 -3 -3 -4 -11 -11 -11 -11 -7 -5 -5 -5 -3 -2 -2 -1 -1 -1 -1 -1 -0 1 1 2 2 0 2 2 1 1 -0 -3 -3 -4 -4 -4 -3 -4 -5 -5 -3 -3 -2 -1 -0 -1 -1 -1 -1 -2 -2 -3 -3
-3 -3 -3 -3 -5 -7 -11 -12 -6 -5 -5 -5 -5 -5 -4 -3 -3 -2 -2 -2 -1 -1 -1 0 -1 1 2 2 -1 -3 -2 -3 -3 -3 -5 -6 -6 -4 -4 -7 -7 -4 -3 -3 -2 -1 -1 -1 -2 -2 -3 -3 -4 -4
-2 -3 -3 -3 -5 -7 -12 -11 -10 -5 -5 -5 -5 -5 -5 -4 -4 -3 -3 -3 -2 -2 -2 -2 -1 -0 -1 -2 -2 -2 -3 -3 -5 -5 -7 -9 -8 -7 -10 -9 -9 -7 -5 -3 -3 -3 -1 -1 -2 -3 -4 -4 -4 -5
-3 -3 -3 -4 -6 -9 -13 -12 -12 -6 -5 -6 -5 -5 -5 -5 -5 -4 -4 -4 -4 -4 -4 -3 -2 -2 -2 -2 -2 -2 -3 -5 -6 -8 -10 -12 -12 -12 -12 -11 -11 -10 -9 -7 -4 -3 -3 -2 -2 -2 -3 -4 -5 -5
-3 -3 -3 -3 -4 -9 -11 -11 -9 -6 -5 -6 -6 -5 -6 -6 -6 -6 -5 -5 -5 -5 -7 -5 -5 -4 -3 -3 -3 -4 -6 -7 -10 -12 -13 -15 -15 -15 -15 -14 -13 -13 -11 -9 -6 -5 -3 -3 -2 -3 -3 -4 -5 -6
-3 -4 -3 -4 -5 -9 -13 -10 -7 -7 -7 -6 -6 -6 -7 -8 -8 -7 -6 -6 -6 -7 -7 -8 -10 -7 -5 -4 -4 -6 -9 -13 -17 -18 -18 -18 -18 -18 -17 -15 -14 -14 -14 -11 -9 -8 -5 -4 -3 -3 -3 -3 -4 -5
-3 -4 -4 -4 -9 -12 -11 -11 -9 -8 -8 -8 -8 -9 -9 -8 -7 -7 -7 -6 -7 -8 -8 -8 -7 -6 -4 -5 -7 -12 -19 -22 -22 -20 -19 -17 -17 -16 -15 -14 -14 -13 -14 -14 -12 -11 -9 -6 -4 -4 -3 -4 -4 -5
-4 -4 -4 -7 -10 -8 -9 -10 -8 -8 -7 -8 -9 -8 -10 -8 -8 -8 -10 -8 -9 -9 -9 -8 -6 -5 -6 -7 -18 -22 -23 -23 -22 -21 -17 -18 -18 -17 -14 -14 -14 -13 -13 -13 -12 -11 -9 -8 -6 -5 -4 -4 -4 -5
-4 -5 -5 -10 -7 -10 -14 -12 -12 -10 -10 -9 -8 -9 -11 -8 -11 -11 -10 -9 -10 -10 -9 -7 -6 -6 -7 -15 -22 -22 -21 -21 -20 -20 -19 -17 -16 -16 -15 -13 -13 -13 -12 -12 -12 -11 -11 -9 -6 -5 -5 -5 -5 -5
-5 -6 -7 -9 -13 -13 -13 -12 -11 -11 -9 -9 -9 -10 -10 -12 -12 -11 -11 -12 -14 -13 -11 -10 -10 -8 -10 -18 -24 -22 -20 -20 -19 -19 -18 -17 -17 -14 -13 -12 -13 -13 -12 -12 -11 -11 -11 -10 -8 -7 -7 -6 -6 -7
-5 -9 -7 -8 -10 -13 -12 -12 -11 -10 -10 -9 -12 -12 -11 -10 -11 -12 -17 -18 -17 -18 -16 -14 -14 -16 -24 -23 -22 -21 -19 -19 -18 -17 -18 -18 -15 -13 -12 -12 -12 -12 -12 -11 -11 -11 -10 -10 -10 -8 -8 -7 -7 -7
-6 -8 -10 -9 -13 -14 -15 -12 -12 -11 -11 -12 -11 -11 -11 -12 -13 -19 -20 -21 -17 -17 -22 -23 -22 -22 -22 -21 -20 -19 -18 -17 -17 -17 -16 -14 -12 -12 -12 -12 -12 -12 -11 -11 -11 -11 -10 -9 -9 -9 -8 -8 -8 -8
-8 -9 -10 -14 -13 -14 -13 -13 -12 -14 -14 -14 -12 -12 -12 -16 -17 -21 -21 -19 -17 -15 -17 -18 -18 -19 -18 -17 -18 -18 -17 -17 -15 -13 -12 -12 -12 -12 -12 -12 -12 -12 -12 -11 -11 -11 -10 -10 -9 -9 -9 -8 -8 -8
-9 -10 -12 -13 -14 -13 -13 -15 -14 -15 -15 -14 -14 -14 -15 -17 -19 -20 -21 -20 -20 -19 -19 -19 -17 -17 -18 -18 -18 -18 -16 -13 -12 -12 -12 -12 -12 -12 -12 -12 -12 -12 -12 -11 -12 -11 -11 -10 -9 -9 -8 -9 -9 -9
-10 -11 -11 -12 -12 -11 -11 -11 -13 -15 -15 -15 -15 -15 -15 -17 -18 -18 -19 -19 -19 -19 -19 -19 -19 -18 -18 -18 -17 -15 -13 -12 -12 -12 -12 -12 -12 -12 -12 -12 -11 -11 -11 -11 -11 -11 -11 -10 -9 -9 -8 -8 -9 -9
-10 -10 -11 -11 -13 -12 -12 -13 -11 -10 -13 -14 -14 -14 -14 -15 -15 -15 -15 -16 -16 -17 -17 -18 -18 -18 -18 -15 -13 -12 -12 -13 -12 -12 -12 -12 -13 -13 -12 -12 -11 -11 -11 -11 -11 -10 -10 -10 -9 -9 -9 -9 -9 -10
-10 -11 -12 -13 -15 -14 -12 -12 -13 -14 -14 -14 -14 -14 -14 -14 -14 -15 -16 -18 -17 -18 -18 -17 -18 -16 -13 -12 -12 -13 -12 -12 -11 -11 -11 -12 -12 -12 -11 -11 -11 -11 -11 -11 -11 -10 -10 -10 -9 -9 -9 -9 -10 -10

GFSWCAN_850_dewp_051.txt.gz
Dewpoint
-3 -3 -3 -6 -4 -5 -8 -15 -5 -3 -2 -4 -3 -2 -4 -3 -3 -5 -6 -3 -0 1 1 2 4 4 1 2 2 4 2 3 4 4 4 3 4 3 3 3 4 4 4 5 4 6 4 -1 3 5 2 2 2 2
-2 -1 -3 -2 -3 -4 -10 -7 -9 -3 -2 -4 -3 -3 -4 -5 -3 -3 -7 -2 -1 -1 2 3 3 4 4 4 2 2 2 3 3 4 3 3 4 3 3 6 2 4 1 3 2 2 -1 -2 1 2 1 1 0 1
-1 -1 -1 -2 -2 -2 -5 -5 -10 -4 -2 -3 -4 -3 -4 -5 -3 -3 -3 -4 -3 -1 1 1 2 3 4 4 3 2 3 2 3 2 3 2 4 2 4 3 4 2 1 3 3 2 1 1 1 1 1 1 -0 0
-3 -3 -2 -2 -1 -2 -3 -4 -10 -3 -2 -2 -4 -3 -5 -4 -4 -4 -3 -4 -3 -1 -0 3 3 3 3 4 4 3 3 3 3 3 3 4 5 2 4 3 4 2 2 3 3 2 2 1 1 1 1 1 -0 0
-2 -2 -1 -2 -2 -2 -2 -5 -9 -3 -2 -3 -3 -4 -4 -5 -5 -3 -3 -3 -4 -2 -0 2 4 4 3 3 3 3 3 3 3 4 4 5 3 3 2 2 3 1 2 3 4 2 1 1 1 1 1 1 -0 -0
-1 -2 -1 -1 -2 -2 -5 -9 -4 -2 -3 -3 -3 -4 -5 -6 -3 -3 -4 -5 -5 -2 -1 3 4 4 4 4 4 4 4 4 4 4 4 3 3 2 5 5 1 2 3 3 2 2 2 2 2 1 1 0 -0 -0
-2 -1 -2 -2 -2 -4 -8 -7 -2 -2 -2 -2 -4 -5 -5 -3 -4 -5 -1 -1 -0 -1 -1 3 3 4 4 4 4 5 5 5 4 4 4 4 3 3 4 4 2 0 0 2 2 3 3 2 2 2 1 0 -0 -0
-1 -1 -1 -2 -2 -4 -9 -7 -2 -3 -6 -15 -4 -4 -4 -4 -3 -4 -1 -1 -1 -1 1 3 3 3 4 4 4 4 4 3 4 4 4 4 3 3 5 0 -2 -2 -1 1 2 2 1 2 2 2 1 0 -0 -1
-1 -1 -2 -2 -2 -6 -9 -4 -3 -11 -17 -5 -2 -3 -2 -4 -2 -0 0 0 0 1 2 3 3 3 4 4 3 4 4 4 4 3 4 4 4 5 1 -2 -1 -1 -0 0 -0 -0 2 1 1 1 0 -0 -1 -1
-2 -2 -2 -2 -5 -5 -4 -3 -5 -14 -17 -2 -2 -1 -0 0 0 0 1 1 1 2 2 3 3 2 4 3 4 4 4 4 3 3 3 4 4 1 -0 -3 -2 -1 0 1 1 0 1 2 2 1 1 -0 -1 -1
-2 -3 -3 -4 -3 -7 -3 -3 -9 -15 -7 -1 -1 -0 1 1 1 1 2 2 2 3 3 2 3 2 3 2 2 3 3 2 4 3 4 3 4 1 -3 -3 -2 -1 0 0 1 1 2 1 2 2 2 0 -1 -2
-2 -2 -3 -3 -3 -4 -3 -5 -11 -15 -5 -3 -1 0 1 1 0 1 2 2 2 1 3 3 3 2 3 3 2 2 3 2 4 2 3 3 2 -3 -4 -3 -2 -1 -0 0 0 1 1 2 2 2 2 0 -1 -1
-2 -2 -3 -3 -3 -4 -3 -6 -11 -14 -5 -2 -0 0 1 1 2 3 3 2 3 2 2 2 2 3 3 3 2 2 3 4 1 3 2 2 -3 -4 -4 -3 -2 -1 0 -0 1 1 2 2 2 1 1 -0 -1 -0
-3 -2 -3 -3 -2 -4 -3 -5 -11 -9 -2 -1 -1 1 0 1 0 1 -2 0 0 1 1 2 2 2 3 2 2 3 2 0 3 3 2 -1 -3 -4 -3 -3 -3 -2 -1 -1 0 0 1 1 3 3 1 1 2 -0
-3 -3 -3 -3 -2 -3 -6 -10 -12 -11 -3 -2 -2 -2 -0 -1 -0 -0 0 0 0 1 1 1 1 1 1 2 1 2 2 2 0 1 -1 -3 -4 -3 -3 -4 -3 -3 -2 -1 -1 -1 -0 0 0 1 2 3 2 2
-2 -3 -3 -3 -3 -2 -11 -11 -13 -10 -7 -3 -3 -4 -2 -1 -1 -1 -0 -0 0 1 1 1 1 1 1 2 2 2 1 1 -1 -2 -3 -3 -3 -3 -4 -5 -6 -4 -3 -3 -1 -1 -1 -1 -1 -1 -0 0 0 -1
-3 -3 -3 -3 -3 -4 -10 -11 -12 -9 -6 -5 -5 -4 -2 -2 -1 -1 -1 -1 -0 0 1 1 2 1 0 2 2 1 1 -1 -3 -3 -4 -4 -4 -4 -4 -5 -8 -8 -5 -4 -3 -2 -1 -1 -1 -1 -2 -2 -2 -2
-3 -3 -3 -3 -4 -5 -8 -12 -7 -5 -5 -5 -6 -5 -4 -3 -2 -2 -2 -1 -1 -0 0 1 -0 1 2 2 1 -2 -2 -3 -2 -4 -5 -6 -7 -8 -6 -9 -11 -11 -10 -7 -5 -3 -3 -1 -1 -2 -2 -3 -3 -3
-3 -3 -3 -4 -4 -5 -8 -10 -10 -5 -6 -5 -5 -5 -5 -4 -4 -4 -3 -3 -2 -1 -1 -2 -1 -0 -2 -3 -3 -2 -2 -2 -2 -3 -5 -7 -9 -10 -11 -13 -13 -13 -13 -11 -10 -8 -4 -3 -2 -2 -2 -3 -4 -4
-3 -3 -3 -4 -4 -5 -5 -6 -11 -7 -5 -5 -5 -5 -5 -5 -4 -4 -4 -4 -3 -3 -3 -3 -3 -2 -2 -2 -2 -1 -2 -3 -3 -5 -6 -10 -12 -14 -15 -16 -17 -17 -17 -15 -14 -12 -8 -5 -3 -3 -2 -3 -4 -4
-3 -3 -3 -4 -4 -6 -9 -11 -9 -7 -5 -6 -6 -5 -6 -6 -6 -5 -5 -5 -4 -5 -6 -5 -4 -4 -3 -3 -2 -2 -3 -4 -6 -9 -12 -16 -17 -19 -21 -21 -20 -19 -18 -17 -16 -15 -13 -10 -5 -3 -3 -3 -3 -4
-3 -3 -4 -4 -4 -8 -11 -10 -7 -7 -7 -6 -6 -6 -7 -8 -7 -7 -6 -6 -5 -6 -5 -6 -7 -8 -6 -4 -3 -3 -4 -6 -9 -14 -18 -22 -23 -21 -19 -17 -17 -16 -16 -15 -15 -15 -16 -14 -11 -7 -4 -3 -3 -3
-3 -4 -4 -4 -7 -10 -11 -11 -9 -8 -9 -8 -8 -9 -9 -8 -7 -7 -7 -7 -7 -8 -10 -8 -8 -10 -11 -6 -4 -5 -7 -10 -18 -23 -23 -22 -21 -21 -21 -20 -18 -16 -16 -15 -14 -14 -15 -14 -13 -10 -7 -5 -4 -3
-3 -4 -4 -5 -9 -9 -9 -11 -9 -8 -8 -9 -10 -10 -11 -9 -8 -8 -9 -10 -12 -13 -12 -10 -8 -7 -6 -5 -5 -7 -12 -20 -23 -23 -22 -21 -21 -20 -20 -20 -18 -15 -13 -13 -14 -13 -13 -13 -13 -12 -8 -6 -5 -4
-4 -5 -5 -10 -7 -9 -15 -13 -13 -11 -11 -12 -10 -11 -12 -9 -12 -12 -10 -10 -12 -13 -11 -10 -8 -7 -6 -6 -7 -11 -21 -23 -23 -22 -21 -20 -20 -20 -20 -19 -17 -14 -13 -13 -13 -13 -12 -12 -12 -12 -10 -7 -6 -6
-6 -6 -6 -8 -12 -11 -12 -14 -13 -13 -13 -12 -12 -11 -10 -14 -13 -11 -12 -14 -15 -16 -15 -13 -12 -8 -7 -7 -9 -20 -23 -23 -22 -22 -21 -19 -18 -17 -17 -15 -14 -13 -12 -12 -12 -12 -12 -12 -12 -11 -11 -10 -7 -7
-7 -9 -7 -7 -9 -10 -13 -12 -11 -12 -13 -12 -13 -12 -13 -12 -13 -13 -19 -19 -18 -18 -16 -15 -14 -12 -13 -10 -13 -20 -22 -21 -20 -19 -19 -18 -18 -17 -14 -12 -12 -12 -12 -12 -12 -12 -12 -12 -12 -11 -11 -10 -9 -8
-5 -7 -9 -8 -12 -13 -15 -13 -14 -13 -13 -11 -11 -11 -11 -13 -14 -20 -21 -21 -21 -19 -18 -18 -18 -16 -14 -19 -22 -22 -21 -20 -18 -18 -18 -19 -17 -13 -12 -12 -12 -12 -12 -12 -12 -12 -12 -11 -11 -11 -11 -10 -9 -9
-7 -7 -8 -15 -13 -13 -14 -14 -14 -15 -14 -13 -12 -12 -13 -17 -19 -21 -24 -25 -25 -20 -21 -23 -24 -23 -22 -21 -20 -19 -18 -17 -17 -18 -18 -16 -13 -13 -12 -12 -12 -12 -12 -12 -12 -12 -12 -12 -11 -11 -11 -10 -9 -9
-8 -8 -11 -13 -15 -14 -14 -16 -16 -14 -13 -14 -15 -16 -17 -18 -19 -19 -20 -20 -21 -23 -18 -15 -15 -15 -14 -13 -13 -14 -16 -18 -18 -16 -13 -12 -12 -13 -12 -12 -12 -13 -13 -12 -11 -12 -12 -12 -11 -11 -11 -10 -9 -9
-8 -9 -12 -12 -14 -12 -12 -14 -14 -13 -14 -15 -15 -15 -15 -16 -16 -14 -13 -12 -11 -14 -18 -20 -20 -20 -19 -19 -19 -18 -18 -16 -13 -12 -12 -12 -12 -12 -12 -12 -12 -12 -12 -12 -11 -11 -12 -11 -11 -11 -11 -10 -9 -9
-10 -11 -12 -14 -14 -12 -11 -12 -12 -13 -13 -14 -14 -15 -14 -13 -12 -10 -10 -11 -13 -14 -15 -16 -17 -17 -17 -18 -18 -16 -13 -12 -12 -12 -12 -11 -11 -11 -11 -12 -12 -11 -11 -12 -12 -11 -11 -11 -11 -11 -10 -10 -9 -9
-10 -10 -11 -13 -14 -14 -12 -12 -11 -13 -14 -14 -14 -14 -13 -13 -14 -13 -14 -15 -16 -18 -19 -19 -19 -18 -18 -16 -13 -13 -13 -12 -12 -12 -11 -11 -11 -12 -12 -12 -12 -11 -11 -11 -11 -11 -11 -11 -11 -10 -10 -9 -9 -9

GFSWCAN_850_dewp_054.txt.gz
Dewpoint
-1 -1 -1 -3 -3 -3 -5 -5 -11 -11 -3 -3 -3 -3 -3 -4 -3 -5 -6 -4 -1 -0 0 1 3 4 2 2 2 2 1 3 3 4 3 3 4 4 4 2 4 3 4 5 3 5 4 -1 2 5 2 2 2 1
0 -1 -0 -1 -1 -1 -2 -3 -7 -6 -9 -3 -2 -4 -3 -3 -5 -4 -5 -4 -3 -1 0 2 2 2 4 4 3 3 1 2 2 3 3 3 4 3 2 6 2 4 0 1 2 1 -2 -1 1 0 1 1 1 0
-0 -1 -1 -1 -1 -2 -2 -3 -5 -5 -10 -5 -2 -2 -4 -3 -5 -2 -4 -4 -4 -3 -1 -0 0 2 4 4 4 2 3 2 2 2 3 2 3 1 3 2 3 2 -0 2 3 2 1 1 1 2 1 1 1 0
-3 -2 -1 -1 -2 -3 -2 -2 -2 -3 -6 -4 -2 -4 -3 -4 -5 -3 -3 -4 -4 -3 -2 1 1 3 4 4 4 3 2 2 2 3 3 3 4 2 2 2 3 2 1 1 2 2 1 1 1 1 1 1 1 0
-1 -0 -2 -3 -2 -3 -3 -3 -2 -3 -5 -2 -2 -4 -3 -4 -5 -4 -3 -3 -4 -3 -2 -0 2 3 4 3 4 4 3 3 3 4 4 4 3 3 1 1 2 1 3 4 4 2 1 1 1 1 1 1 1 0
0 -0 -2 -1 -2 -3 -1 -2 -4 -6 -3 -2 -3 -3 -5 -5 -4 -3 -3 -4 -3 -3 -2 0 3 4 3 2 3 3 4 4 3 4 4 4 3 3 4 4 1 2 2 2 2 2 2 2 2 2 1 1 1 -0
0 -0 -2 -2 -3 -3 -3 -4 -6 -5 -2 -3 -3 -3 -5 -4 -4 -3 -4 -1 -4 -4 -2 0 3 4 4 4 4 4 4 4 4 4 4 3 3 3 4 3 2 -0 -0 -0 2 2 2 2 2 2 1 1 1 0
0 -0 -1 -1 -3 -3 -2 -5 -7 -4 -3 -4 -5 -4 -4 -4 -3 -4 -5 -2 -2 -1 -1 2 3 3 4 4 4 4 4 4 4 4 4 4 3 3 4 1 -1 -1 -0 0 1 1 -0 2 1 1 1 1 0 0
0 -0 -1 -1 -2 -3 -3 -6 -5 -3 -9 -13 -3 -3 -3 -3 -5 -2 -1 -1 -1 -1 0 3 2 3 3 4 3 4 3 4 3 4 3 4 4 4 2 -1 -1 -2 -1 -1 -1 -1 -1 -0 2 1 1 0 0 -0
-0 -1 -1 -1 -2 -2 -5 -6 -3 -4 -14 -4 -2 -1 -1 -0 -0 -0 -0 -1 -1 0 1 3 2 3 4 3 4 5 4 4 3 4 3 3 4 1 0 -2 -3 -2 -2 -0 -0 -0 0 0 1 2 1 1 0 -1
-1 -1 -1 -3 -3 -4 -5 -4 -3 -10 -10 -2 -1 -1 0 0 0 0 1 2 2 1 2 1 2 2 3 2 3 3 3 2 4 3 3 3 4 1 -0 -3 -3 -2 -1 -0 -0 0 1 1 1 1 1 2 1 -1
-1 -2 -3 -4 -3 -4 -5 -3 -6 -12 -5 -1 -1 -0 0 1 1 1 2 1 1 0 2 3 3 2 3 3 2 2 3 2 4 2 3 2 2 -3 -4 -3 -2 -1 -0 0 0 1 1 1 2 2 2 2 2 -0
-2 -2 -4 -4 -3 -3 -3 -3 -6 -12 -10 -3 -1 -0 0 0 1 2 2 2 2 2 2 2 2 3 3 3 2 2 3 4 1 3 2 1 -3 -4 -3 -3 -2 -1 -0 -0 0 1 1 2 2 1 1 1 0 -1
-2 -3 -3 -3 -3 -3 -4 -3 -6 -8 -2 -2 -1 0 0 1 0 1 -2 -3 0 1 2 2 2 2 3 2 2 3 2 1 3 3 2 -1 -3 -4 -3 -3 -3 -3 -2 -1 -1 -0 1 1 2 2 1 -1 -2 -1
-3 -3 -3 -3 -3 -3 -3 -4 -9 -9 -2 -2 -2 -2 -0 -1 -0 -0 -0 -0 0 1 2 2 1 1 1 2 1 2 2 3 2 1 -1 -3 -4 -3 -5 -6 -5 -3 -3 -3 -2 -1 -1 -1 0 1 1 2 2 2
-3 -3 -3 -3 -3 -3 -3 -7 -11 -8 -6 -3 -3 -3 -3 -1 -1 -1 -0 -0 1 1 1 1 1 -0 2 0 2 2 1 0 -2 -2 -3 -4 -3 -4 -4 -6 -8 -8 -6 -5 -4 -3 -2 -1 -1 -2 -2 -1 1 1
-3 -3 -3 -3 -3 -3 -3 -10 -11 -8 -6 -5 -5 -4 -3 -3 -2 -1 -1 -1 -0 0 1 1 1 1 0 2 2 1 1 -3 -2 -3 -3 -3 -4 -4 -5 -6 -10 -12 -12 -11 -10 -7 -4 -3 -2 -2 -2 -2 -3 -3
-3 -3 -3 -3 -4 -4 -4 -8 -8 -5 -4 -5 -6 -5 -4 -4 -3 -2 -2 -1 -1 -0 -0 1 -0 1 2 2 -1 -3 -1 -3 -3 -3 -4 -5 -6 -7 -7 -10 -13 -14 -15 -14 -14 -13 -11 -7 -4 -2 -2 -2 -2 -3
-3 -3 -3 -4 -4 -4 -5 -5 -7 -6 -6 -4 -4 -4 -4 -4 -4 -4 -4 -3 -2 -1 -1 -2 -1 -0 -2 -3 -4 -2 -2 -3 -2 -3 -4 -4 -6 -8 -10 -14 -16 -17 -17 -18 -18 -16 -15 -11 -6 -4 -3 -2 -2 -3
-3 -3 -4 -4 -4 -4 -5 -5 -5 -6 -5 -5 -5 -5 -5 -5 -4 -4 -5 -4 -3 -3 -3 -3 -3 -2 -2 -2 -2 -2 -2 -2 -2 -3 -4 -5 -8 -11 -15 -18 -20 -23 -23 -22 -21 -20 -19 -17 -12 -7 -5 -3 -3 -2
-3 -3 -3 -4 -4 -5 -6 -6 -7 -6 -5 -6 -5 -5 -5 -6 -5 -5 -5 -5 -4 -4 -6 -4 -3 -3 -3 -2 -2 -2 -2 -2 -2 -3 -4 -8 -13 -16 -20 -23 -22 -21 -20 -20 -20 -20 -18 -18 -18 -16 -12 -7 -4 -3
-4 -3 -4 -4 -4 -7 -10 -9 -7 -7 -6 -6 -6 -6 -7 -7 -7 -6 -6 -5 -5 -6 -6 -6 -5 -4 -4 -4 -4 -3 -3 -3 -4 -6 -10 -15 -19 -23 -23 -22 -23 -20 -18 -16 -15 -16 -16 -16 -16 -17 -17 -13 -9 -5
-4 -4 -4 -4 -6 -9 -10 -10 -9 -8 -8 -8 -8 -8 -8 -9 -8 -8 -7 -7 -7 -8 -9 -8 -7 -6 -6 -9 -6 -4 -4 -4 -7 -11 -17 -22 -24 -23 -22 -21 -20 -21 -20 -17 -15 -14 -14 -14 -14 -15 -15 -15 -12 -8
-4 -4 -4 -5 -7 -10 -10 -10 -9 -8 -8 -9 -10 -10 -10 -9 -8 -8 -9 -10 -11 -11 -11 -11 -9 -8 -8 -8 -8 -7 -5 -6 -10 -18 -24 -24 -22 -21 -20 -21 -20 -20 -20 -17 -15 -14 -13 -13 -13 -13 -13 -13 -13 -12
-3 -5 -5 -11 -8 -9 -14 -13 -14 -11 -11 -12 -11 -12 -12 -9 -12 -12 -10 -10 -12 -14 -13 -12 -11 -9 -8 -9 -9 -6 -6 -9 -17 -23 -23 -23 -22 -22 -21 -20 -20 -20 -16 -14 -13 -13 -13 -12 -12 -12 -12 -12 -12 -12
-6 -6 -6 -7 -12 -11 -13 -15 -14 -12 -13 -12 -12 -11 -10 -14 -13 -12 -12 -16 -17 -18 -16 -15 -12 -11 -10 -10 -7 -6 -8 -14 -22 -24 -23 -22 -20 -19 -19 -20 -21 -19 -13 -13 -12 -12 -12 -12 -12 -12 -12 -12 -12 -11
-8 -9 -7 -7 -8 -9 -13 -12 -12 -13 -14 -12 -13 -13 -14 -14 -15 -15 -20 -20 -19 -18 -17 -16 -14 -14 -14 -11 -9 -8 -15 -21 -23 -23 -22 -21 -19 -18 -18 -18 -16 -13 -13 -12 -12 -12 -12 -12 -12 -12 -12 -12 -11 -11
-5 -7 -8 -8 -10 -11 -15 -14 -14 -13 -13 -12 -11 -13 -14 -14 -13 -21 -23 -24 -24 -21 -21 -20 -21 -20 -17 -14 -13 -12 -15 -22 -23 -21 -20 -19 -18 -18 -17 -14 -13 -13 -12 -12 -12 -12 -12 -12 -12 -12 -12 -12 -11 -11
-6 -7 -8 -15 -13 -13 -14 -14 -14 -15 -15 -11 -12 -13 -14 -18 -19 -21 -21 -21 -25 -26 -23 -21 -20 -20 -21 -22 -22 -22 -21 -20 -18 -16 -16 -17 -19 -18 -14 -13 -12 -12 -12 -12 -12 -12 -12 -12 -11 -11 -11 -11 -11 -11
-8 -7 -9 -13 -13 -13 -11 -12 -16 -16 -16 -14 -13 -15 -16 -16 -15 -15 -16 -15 -14 -14 -16 -20 -20 -19 -20 -20 -20 -19 -17 -15 -14 -14 -17 -18 -16 -13 -13 -12 -12 -12 -12 -12 -12 -12 -12 -11 -11 -11 -12 -11 -12 -11
-7 -8 -11 -11 -13 -10 -10 -11 -13 -14 -14 -14 -13 -13 -13 -13 -13 -12 -11 -11 -11 -10 -10 -11 -14 -17 -19 -15 -14 -15 -17 -18 -18 -18 -15 -13 -13 -13 -12 -12 -11 -11 -11 -12 -11 -11 -12 -12 -12 -12 -12 -11 -11 -11
-8 -9 -12 -15 -14 -11 -11 -12 -13 -13 -13 -13 -14 -14 -14 -14 -14 -11 -11 -10 -10 -10 -11 -12 -12 -13 -15 -17 -18 -18 -18 -18 -16 -13 -13 -12 -12 -12 -11 -11 -11 -12 -12 -12 -12 -11 -11 -11 -11 -12 -11 -11 -11 -10
-11 -11 -12 -12 -12 -13 -12 -12 -12 -12 -12 -12 -12 -12 -12 -12 -12 -10 -10 -10 -11 -12 -16 -18 -18 -18 -17 -17 -17 -17 -15 -13 -13 -13 -12 -12 -11 -11 -11 -12 -12 -12 -12 -12 -12 -11 -11 -11 -11 -11 -11 -11 -10 -10

GFSWCAN_850_dewp_057.txt.gz
Dewpoint
4 4 3 0 -2 -3 -2 -4 -4 -4 -8 -7 -2 -2 -3 -3 -4 -5 -5 -6 -3 -1 -0 0 1 3 3 1 1 2 1 2 2 3 3 3 3 3 3 2 2 2 3 2 2 3 2 -2 2 5 3 2 1 1
4 4 2 1 -2 -2 -1 -2 -3 -3 -5 -6 -5 -3 -2 -4 -3 -5 -3 -4 -5 -4 -2 0 -0 -0 0 3 4 3 -0 1 1 3 3 3 3 4 2 6 1 4 1 1 0 -0 -3 -1 1 -0 -1 1 1 1
4 2 1 -0 -2 -1 -1 -3 -2 -3 -4 -4 -4 -3 -2 -4 -3 -4 -2 -2 -4 -4 -7 -9 -13 -2 1 2 4 3 2 2 2 2 2 2 2 1 3 2 3 2 -0 2 2 1 -0 0 2 1 2 1 1 1
4 3 2 -1 -2 -1 -2 -3 -3 -2 -3 -2 -5 -2 -2 -4 -3 -5 -3 -3 -3 -5 -3 -3 1 0 0 2 4 4 3 2 2 2 2 3 3 1 2 1 2 1 1 1 2 1 1 1 3 1 1 1 1 1
3 3 1 -1 -1 -1 -1 -3 -3 -3 -3 -4 -5 -3 -3 -4 -5 -4 -4 -4 -4 -5 -3 -3 -4 2 2 2 4 4 4 3 3 3 3 3 3 2 1 1 2 1 2 4 5 1 2 1 1 2 2 2 1 1
4 3 1 -0 -0 -1 -1 -3 -3 -3 -4 -6 -2 -2 -4 -4 -4 -3 -4 -5 -4 -3 -4 -1 0 3 3 4 4 4 4 3 3 3 3 3 3 2 4 3 0 0 2 2 2 2 2 2 2 2 2 1 1 1
4 3 1 0 -0 -1 -2 -3 -3 -4 -6 -4 -3 -3 -4 -5 -3 -3 -4 -2 -3 -2 -3 -1 0 4 3 4 4 4 4 4 4 4 4 3 3 3 4 4 1 2 0 0 -0 2 2 2 2 2 2 2 1 1
3 2 1 0 -0 -1 -2 -4 -3 -4 -6 -4 -5 -5 -5 -4 -2 -2 -4 -4 -3 -3 -2 -0 1 4 4 3 4 4 5 4 4 4 4 4 4 4 4 3 0 -0 -0 -0 0 1 0 -0 -1 1 1 1 1 1
3 2 0 0 -1 -1 -2 -3 -3 -5 -4 -6 -6 -4 -3 -3 -4 -5 -3 -3 -2 -2 -2 1 2 3 3 4 4 4 4 4 4 4 3 4 4 4 2 1 -0 -1 -1 -1 -1 -1 -1 -0 -0 0 1 1 1 1
2 1 0 -0 -1 -1 -2 -3 -4 -4 -4 -12 -3 -2 -2 -1 -1 -1 -1 -2 -2 -1 -1 1 3 3 3 3 3 4 3 4 3 4 3 3 4 2 0 -1 -2 -3 -3 -2 -1 -1 -1 -0 0 0 1 1 1 1
2 1 -0 -0 -1 -1 -3 -3 -4 -3 -10 -4 -2 -1 -0 -0 -1 -0 0 0 0 1 1 1 2 3 3 3 3 3 3 2 4 3 4 3 3 1 0 -2 -3 -3 -2 -1 -0 -0 0 0 1 1 1 1 1 2
1 -0 -1 -1 -1 -3 -3 -4 -3 -4 -10 -2 -1 -1 -0 -0 -0 1 1 1 1 0 1 3 2 2 3 3 1 2 2 2 3 2 3 3 1 -3 -3 -3 -3 -2 -1 -0 -0 0 0 1 1 1 1 2 1 1
0 -0 -1 -1 -3 -4 -4 -4 -4 -7 -14 -3 -2 -1 -0 0 1 2 2 2 2 2 2 2 2 2 3 3 1 1 3 4 2 3 2 0 -2 -4 -3 -3 -2 -1 -1 -1 -0 0 0 1 1 2 0 0 1 1
-0 -1 -1 -2 -3 -3 -3 -3 -3 -10 -8 -2 -1 -1 0 1 0 1 -1 -1 0 1 2 2 2 2 3 1 2 3 2 2 3 3 2 -1 -3 -3 -3 -3 -3 -3 -2 -1 -1 -1 -1 0 1 1 2 -1 -2 -2
-1 -2 -2 -3 -3 -3 -3 -3 -4 -8 -2 -2 -2 -2 -0 -1 -1 -0 -0 -0 0 1 2 2 2 1 1 1 1 1 3 2 2 -0 -2 -2 -4 -3 -5 -6 -5 -4 -4 -4 -3 -2 -2 -1 -1 -1 1 1 2 2
-2 -2 -2 -4 -3 -3 -3 -4 -5 -9 -4 -3 -3 -3 -3 -1 -1 -1 -0 -0 1 1 1 1 1 -1 1 -1 2 1 1 -1 -2 -4 -2 -4 -3 -4 -5 -7 -9 -10 -10 -10 -10 -8 -5 -3 -2 -2 -2 -2 -1 1
-3 -3 -4 -3 -3 -3 -3 -3 -9 -10 -6 -5 -5 -4 -4 -3 -2 -1 -1 -0 0 1 1 1 2 0 -0 1 1 0 -2 -4 -2 -2 -3 -3 -3 -3 -4 -6 -10 -12 -14 -15 -15 -14 -13 -9 -5 -3 -2 -2 -2 -2
-4 -3 -3 -3 -4 -4 -4 -8 -11 -6 -4 -5 -6 -5 -4 -3 -3 -2 -1 -1 -0 -0 -0 1 0 1 2 2 -1 -4 -1 -2 -2 -3 -3 -3 -4 -6 -6 -7 -11 -16 -17 -18 -18 -18 -17 -15 -11 -8 -5 -3 -3 -3
-4 -3 -3 -3 -4 -4 -4 -6 -8 -6 -6 -5 -5 -5 -4 -4 -4 -4 -3 -2 -1 -1 -1 -1 -0 -0 -1 -3 -4 -2 -2 -3 -3 -3 -4 -5 -5 -6 -7 -10 -15 -18 -20 -23 -24 -23 -22 -20 -17 -13 -9 -6 -4 -3
-3 -3 -4 -4 -4 -4 -5 -5 -5 -5 -5 -5 -5 -4 -5 -5 -5 -4 -4 -4 -4 -3 -3 -4 -4 -2 -2 -2 -2 -2 -2 -2 -2 -3 -3 -3 -4 -6 -9 -13 -18 -23 -26 -24 -22 -21 -20 -19 -19 -19 -17 -14 -9 -6
-3 -4 -4 -4 -4 -5 -5 -6 -6 -6 -6 -6 -5 -5 -5 -5 -5 -5 -4 -5 -5 -4 -6 -4 -3 -3 -2 -2 -3 -3 -2 -2 -2 -2 -3 -3 -5 -7 -13 -19 -25 -24 -23 -22 -22 -19 -18 -19 -18 -18 -18 -18 -16 -12
-4 -4 -4 -4 -4 -7 -7 -6 -6 -6 -6 -6 -6 -6 -6 -7 -7 -6 -6 -5 -5 -6 -7 -8 -8 -7 -5 -4 -4 -3 -3 -2 -2 -3 -3 -5 -11 -15 -20 -24 -24 -23 -23 -22 -20 -17 -16 -15 -15 -15 -15 -16 -16 -16
-4 -4 -4 -4 -6 -10 -9 -9 -8 -7 -8 -8 -8 -7 -8 -8 -8 -8 -8 -7 -7 -7 -8 -8 -8 -7 -7 -6 -5 -5 -4 -3 -3 -3 -6 -11 -17 -23 -24 -23 -22 -22 -22 -21 -20 -17 -15 -14 -14 -14 -13 -13 -14 -14
-4 -4 -4 -5 -8 -10 -10 -10 -9 -8 -8 -9 -10 -9 -10 -10 -8 -8 -9 -9 -10 -11 -11 -11 -10 -8 -7 -7 -7 -7 -7 -5 -4 -5 -8 -17 -24 -24 -22 -21 -21 -21 -21 -22 -21 -17 -14 -13 -13 -13 -13 -12 -12 -12
-4 -5 -5 -9 -8 -10 -14 -14 -15 -12 -11 -12 -11 -11 -11 -10 -10 -10 -9 -10 -14 -19 -18 -16 -13 -11 -9 -9 -8 -8 -7 -6 -5 -7 -15 -22 -23 -22 -22 -21 -21 -20 -20 -21 -18 -16 -14 -13 -13 -13 -12 -12 -12 -12
-7 -6 -7 -7 -9 -11 -13 -15 -14 -13 -13 -13 -13 -12 -11 -13 -11 -10 -11 -17 -20 -20 -17 -15 -15 -12 -12 -11 -10 -8 -8 -6 -6 -13 -20 -23 -23 -22 -21 -20 -20 -20 -19 -19 -16 -14 -13 -13 -12 -12 -12 -12 -12 -12
-8 -9 -7 -7 -8 -9 -13 -13 -12 -13 -14 -12 -14 -13 -14 -14 -14 -14 -18 -22 -24 -24 -22 -20 -20 -17 -14 -12 -12 -8 -7 -7 -11 -18 -22 -23 -22 -21 -20 -19 -19 -19 -17 -15 -13 -13 -13 -13 -12 -12 -12 -12 -12 -12
-5 -7 -8 -8 -9 -10 -15 -14 -15 -14 -14 -12 -11 -12 -12 -12 -10 -18 -22 -24 -25 -26 -26 -24 -21 -20 -20 -20 -18 -15 -12 -13 -17 -20 -23 -23 -22 -19 -17 -17 -18 -17 -14 -13 -13 -13 -12 -12 -12 -12 -12 -12 -12 -12
-7 -7 -8 -14 -12 -12 -13 -14 -14 -14 -14 -13 -12 -13 -13 -13 -12 -13 -15 -18 -19 -19 -19 -17 -18 -21 -22 -21 -21 -21 -21 -20 -18 -20 -22 -21 -19 -16 -16 -18 -15 -13 -13 -13 -12 -12 -12 -12 -12 -12 -12 -12 -12 -12
-8 -7 -9 -12 -14 -12 -10 -10 -13 -15 -15 -14 -12 -13 -13 -14 -13 -13 -13 -13 -13 -13 -12 -12 -12 -12 -14 -18 -20 -20 -20 -18 -18 -17 -16 -14 -15 -18 -18 -15 -13 -12 -12 -12 -11 -11 -11 -11 -12 -12 -12 -12 -12 -11
-7 -7 -9 -10 -12 -9 -9 -10 -11 -12 -13 -14 -14 -13 -14 -13 -13 -12 -12 -12 -12 -12 -12 -11 -11 -12 -13 -13 -15 -18 -16 -14 -14 -13 -16 -18 -18 -16 -13 -13 -12 -12 -11 -11 -11 -11 -11 -12 -12 -12 -12 -12 -12 -12
-8 -8 -11 -14 -13 -10 -10 -10 -11 -12 -13 -13 -13 -13 -13 -14 -14 -12 -12 -11 -11 -11 -10 -10 -10 -10 -11 -12 -14 -15 -16 -17 -18 -18 -18 -16 -14 -13 -12 -12 -11 -11 -11 -12 -12 -12 -12 -12 -12 -12 -12 -12 -12 -11
-10 -11 -11 -11 -12 -11 -12 -11 -12 -12 -12 -12 -11 -12 -12 -12 -12 -11 -11 -11 -10 -10 -10 -11 -13 -16 -16 -15 -15 -16 -16 -17 -16 -14 -13 -13 -13 -12 -11 -11 -12 -12 -12 -12 -12 -12 -12 -12 -12 -11 -11 -11 -11 -11

GFSWCAN_850_dewp_060.txt.gz
Dewpoint
2 4 5 4 3 2 -0 -8 -5 -3 -4 -3 -6 -4 -2 -3 -4 -3 -4 -6 -6 -2 -2 -3 1 2 3 2 2 2 3 2 3 3 2 2 1 2 3 1 2 1 3 3 1 3 2 -2 2 5 3 2 1 2
2 3 4 4 4 2 -0 -3 -2 -3 -2 -2 -4 -6 -4 -2 -3 -2 -3 -5 -3 -4 -6 -7 -9 -5 -2 1 2 3 1 1 1 2 3 2 2 4 3 4 1 2 -0 1 0 -1 -3 -1 0 0 0 1 1 1
-2 2 4 4 3 2 0 -2 -1 -2 -2 -3 -2 -4 -3 -2 -3 -3 -2 -3 -3 -3 -4 -4 -9 -13 -12 -2 1 3 2 2 2 1 2 2 2 3 4 3 3 1 -0 1 1 -0 -2 -2 -2 2 2 1 1 1
-5 -0 2 3 3 2 -0 -1 -1 -1 -3 -3 -2 -2 -5 -2 -3 -4 -3 -3 -3 -3 -4 -6 -3 -1 -9 -8 -1 2 2 3 2 2 2 3 2 1 2 1 2 1 1 1 1 0 0 1 2 3 2 2 1 1
-10 -10 1 2 2 2 1 -1 -1 -2 -3 -3 -3 -5 -3 -3 -4 -4 -4 -4 -4 -3 -4 -5 -7 -10 -4 -2 1 2 3 4 4 3 3 3 3 2 2 2 3 1 1 2 1 0 1 2 2 3 2 2 2 1
-28 -27 0 3 3 2 1 -0 -0 -2 -3 -3 -5 -4 -2 -3 -4 -4 -4 -4 -4 -3 -3 -4 -2 -2 1 -0 1 3 4 4 3 2 3 3 2 1 2 2 -0 1 1 2 1 2 2 2 2 2 2 2 1 1
-26 -12 2 2 3 2 1 0 -1 -2 -3 -4 -7 -4 -4 -5 -4 -3 -4 -3 -3 -3 -3 -2 -1 1 3 1 3 4 4 4 3 2 3 3 3 3 3 3 -0 1 1 1 1 1 2 2 2 1 1 2 2 1
-30 -20 -1 1 2 2 0 -0 -1 -2 -3 -5 -5 -4 -5 -5 -4 -3 -4 -3 -3 -3 -3 -1 0 3 2 1 4 4 4 4 4 3 4 3 4 3 4 2 1 1 1 0 0 1 1 1 1 0 -0 1 1 1
-29 -22 -3 -0 2 1 -0 -0 -1 -3 -3 -5 -5 -4 -4 -3 -4 -3 -3 -3 -3 -3 -3 -1 2 4 3 3 4 4 4 4 3 4 4 3 4 4 3 2 1 -0 -0 -0 -0 0 -0 -1 -0 -0 -0 0 1 1
-20 -14 -5 0 2 1 -0 -1 -2 -3 -5 -5 -8 -3 -2 -3 -3 -2 -2 -3 -3 -3 -3 -1 1 3 3 3 3 3 3 3 4 3 3 4 3 3 0 0 -0 -1 -1 -2 -2 -2 -1 -1 -1 -0 -0 0 1 2
-11 -4 -4 1 1 -0 -1 -1 -2 -3 -4 -8 -3 -2 -1 -1 -1 -1 -1 -1 -2 0 -0 1 2 3 3 3 3 3 2 2 4 4 4 4 4 2 -0 -1 -1 -2 -2 -2 -1 -1 -0 -0 0 1 1 1 1 1
-5 -3 -1 1 0 -1 -1 -1 -2 -3 -6 -7 -2 -1 -1 -1 -1 0 1 1 1 1 -0 2 1 2 3 3 3 2 3 3 4 2 3 4 2 -1 -2 -3 -3 -2 -1 -0 -0 -0 -0 0 0 1 1 1 1 2
-1 -1 -0 1 -1 -1 -1 -2 -3 -3 -7 -4 -2 -1 -1 -1 1 2 2 2 2 2 2 2 3 3 3 2 2 3 3 3 2 3 3 1 -2 -3 -3 -3 -2 -1 -0 -0 -0 -0 0 0 0 1 1 -1 -1 0
-0 0 1 -0 -1 -1 -2 -3 -3 -4 -13 -3 -2 -0 0 1 1 1 0 0 0 1 2 2 2 2 2 2 2 3 2 3 4 3 3 0 -2 -3 -3 -3 -2 -1 -2 -1 -1 -1 -1 -1 1 1 1 1 -2 -2
1 -0 -1 -1 -2 -2 -3 -2 -3 -7 -5 -2 -2 -1 -0 -0 -0 -0 -0 0 0 1 2 2 1 1 2 2 1 2 3 3 2 0 0 -1 -3 -4 -4 -4 -4 -4 -5 -6 -5 -4 -3 -2 -2 -1 -2 -0 1 1
-0 -2 -2 -2 -3 -3 -3 -3 -3 -7 -3 -3 -3 -3 -3 -1 -1 -1 -1 -0 0 1 1 1 1 2 1 0 2 1 2 1 1 -0 -1 -2 -3 -4 -7 -8 -9 -10 -11 -13 -14 -13 -12 -9 -5 -3 -3 -2 -2 -2
-2 -3 -3 -3 -3 -3 -3 -4 -6 -11 -5 -5 -5 -4 -3 -3 -2 -1 -1 0 0 1 1 0 1 1 0 0 0 0 2 1 -3 -2 -2 -2 -3 -5 -5 -5 -9 -12 -14 -16 -17 -18 -17 -16 -12 -7 -6 -4 -3 -3
-3 -3 -3 -3 -3 -3 -3 -6 -11 -9 -6 -6 -6 -6 -4 -3 -3 -2 -1 -1 -0 -0 -0 1 -0 2 2 2 1 0 -1 -2 -3 -3 -3 -3 -3 -4 -4 -6 -9 -13 -16 -19 -21 -23 -23 -21 -19 -15 -11 -8 -6 -4
-3 -3 -3 -3 -4 -4 -4 -7 -8 -6 -7 -5 -5 -5 -4 -4 -4 -4 -3 -2 -1 -1 -1 -1 1 1 -0 -1 -1 -3 -2 -2 -3 -3 -3 -3 -3 -5 -5 -6 -10 -13 -16 -23 -26 -26 -24 -23 -23 -22 -21 -19 -15 -8
-3 -3 -4 -4 -4 -4 -5 -5 -6 -5 -6 -5 -5 -4 -5 -5 -4 -4 -4 -4 -3 -2 -2 -2 -2 -2 -2 -2 -2 -2 -2 -2 -3 -3 -3 -4 -4 -5 -6 -7 -10 -14 -21 -26 -24 -23 -22 -20 -19 -19 -19 -20 -20 -19
-4 -4 -4 -4 -4 -5 -5 -6 -6 -6 -6 -5 -6 -5 -5 -5 -5 -5 -5 -5 -5 -5 -4 -4 -3 -3 -2 -2 -2 -3 -3 -2 -2 -3 -3 -3 -3 -4 -5 -7 -11 -20 -26 -24 -23 -22 -20 -18 -17 -16 -16 -16 -17 -17
-5 -4 -4 -4 -5 -6 -6 -6 -6 -6 -6 -6 -6 -6 -6 -6 -6 -6 -6 -5 -5 -6 -7 -7 -8 -8 -7 -7 -5 -4 -3 -3 -2 -2 -2 -3 -3 -4 -6 -11 -20 -25 -25 -23 -23 -22 -20 -18 -16 -15 -15 -14 -14 -14
-4 -4 -5 -5 -7 -10 -9 -7 -8 -7 -7 -7 -7 -7 -7 -7 -8 -7 -7 -7 -7 -7 -7 -7 -7 -7 -7 -7 -7 -7 -5 -4 -3 -3 -3 -3 -5 -11 -16 -22 -25 -24 -22 -22 -22 -22 -22 -19 -16 -14 -14 -13 -13 -13
-4 -4 -5 -6 -9 -11 -10 -10 -9 -9 -8 -8 -8 -8 -9 -9 -9 -8 -7 -8 -9 -11 -15 -17 -15 -13 -10 -9 -8 -8 -7 -6 -4 -3 -4 -5 -9 -16 -22 -24 -23 -22 -22 -21 -21 -21 -20 -18 -15 -14 -13 -13 -13 -13
-4 -6 -6 -8 -8 -10 -13 -13 -13 -11 -11 -11 -10 -9 -10 -10 -9 -8 -8 -9 -12 -17 -20 -18 -16 -15 -12 -11 -9 -9 -8 -7 -6 -5 -5 -6 -14 -22 -24 -23 -22 -22 -20 -20 -20 -20 -19 -15 -14 -13 -13 -13 -13 -13
-7 -7 -7 -7 -9 -11 -12 -12 -13 -12 -12 -13 -12 -12 -11 -10 -10 -8 -9 -14 -20 -23 -20 -18 -17 -16 -15 -14 -12 -11 -10 -9 -7 -6 -6 -10 -18 -23 -24 -22 -21 -21 -19 -19 -19 -19 -16 -14 -13 -13 -13 -13 -12 -12
-6 -7 -8 -8 -9 -10 -12 -13 -13 -13 -14 -12 -12 -12 -12 -12 -11 -12 -14 -22 -25 -25 -25 -23 -20 -18 -17 -19 -18 -13 -11 -8 -7 -7 -8 -15 -21 -23 -22 -21 -20 -18 -18 -19 -19 -17 -14 -13 -13 -13 -13 -13 -12 -12
-6 -7 -9 -8 -9 -10 -13 -14 -14 -13 -13 -13 -11 -11 -10 -10 -9 -13 -20 -20 -18 -18 -17 -16 -20 -21 -21 -19 -18 -18 -16 -13 -11 -11 -14 -20 -23 -23 -23 -20 -17 -16 -17 -18 -16 -14 -13 -13 -13 -12 -12 -12 -12 -12
-7 -7 -8 -12 -11 -11 -13 -12 -13 -13 -13 -13 -11 -11 -12 -12 -12 -12 -14 -14 -14 -14 -14 -14 -15 -15 -13 -13 -18 -20 -19 -17 -15 -16 -18 -20 -21 -21 -20 -16 -15 -17 -17 -15 -13 -13 -13 -12 -12 -12 -11 -11 -11 -12
-8 -7 -9 -12 -14 -11 -9 -10 -11 -13 -14 -14 -13 -12 -13 -13 -12 -12 -12 -12 -12 -12 -11 -12 -12 -12 -12 -13 -13 -14 -16 -18 -17 -16 -16 -18 -18 -17 -13 -13 -17 -17 -15 -13 -13 -12 -12 -12 -11 -11 -11 -11 -11 -12
-7 -7 -8 -10 -12 -9 -9 -10 -10 -11 -12 -12 -13 -13 -13 -12 -12 -12 -13 -13 -14 -14 -12 -13 -13 -12 -12 -12 -12 -12 -13 -14 -15 -15 -13 -12 -12 -12 -16 -17 -16 -14 -13 -12 -12 -12 -11 -11 -12 -12 -12 -12 -12 -12
-8 -8 -9 -13 -11 -11 -10 -10 -11 -11 -11 -11 -11 -11 -11 -12 -12 -12 -12 -13 -13 -15 -16 -13 -11 -11 -11 -10 -10 -11 -11 -13 -14 -13 -14 -15 -17 -18 -16 -14 -13 -12 -12 -11 -11 -12 -12 -12 -12 -12 -12 -12 -12 -12
-10 -11 -11 -11 -11 -11 -11 -11 -12 -12 -12 -12 -12 -12 -12 -12 -12 -12 -12 -13 -13 -13 -12 -11 -11 -10 -10 -11 -15 -14 -13 -14 -15 -16 -17 -16 -14 -13 -13 -12 -11 -12 -12 -12 -12 -12 -12 -12 -13 -12 -12 -12 -12 -12

GFSWCAN_850_dewp_063.txt.gz
Dewpoint
-2 1 2 4 4 4 4 3 2 -4 -8 -4 -3 -3 -5 -3 -3 -4 -2 -4 -3 -4 -4 -4 -2 -1 2 3 3 3 3 3 3 3 2 1 1 0 1 -1 0 2 2 2 1 3 3 -3 1 2 4 2 1 2
-10 -3 -1 1 -1 1 2 2 2 1 -3 -4 -2 -2 -3 -6 -2 -3 -2 -2 -3 -2 -4 -3 -7 -10 -7 -0 0 3 2 1 0 2 0 0 1 2 0 2 -0 1 -1 0 -0 -0 -3 -1 1 0 1 2 2 2
-19 -9 -3 2 2 3 1 2 2 -0 -1 -2 -2 -2 -3 -4 -2 -2 -2 -2 -2 -3 -5 -4 -4 -6 -11 -14 -7 2 3 3 2 2 1 0 1 1 3 1 1 -1 -2 -0 -0 -1 -2 -3 -1 1 3 2 1 1
-26 -19 -12 -8 0 3 2 2 2 0 -1 -1 -3 -2 -2 -3 -3 -2 -2 -2 -2 -3 -4 -7 -7 -5 -3 -2 -6 -6 2 3 4 4 2 1 0 0 1 1 1 1 -0 0 -0 -1 -0 2 1 2 3 3 2 1
-32 -30 -30 -24 -9 3 3 2 2 1 -0 -1 -3 -3 -3 -4 -3 -3 -4 -4 -4 -4 -4 -5 -5 -7 -7 -5 -1 -3 -2 0 3 4 2 2 1 0 0 2 1 -0 0 2 1 -1 -1 1 3 3 3 3 2 1
-32 -32 -29 -27 -4 0 1 2 2 1 -0 -1 -2 -3 -5 -4 -2 -3 -3 -4 -4 -3 -3 -4 -5 -4 -0 -4 -7 0 0 1 3 3 2 2 2 0 1 1 -2 -2 -1 -0 -0 2 2 2 2 2 2 2 1 1
-32 -32 -32 -32 -15 -3 1 2 2 0 -0 -1 -2 -3 -6 -4 -4 -3 -4 -3 -4 -3 -3 -3 -3 -1 -1 -0 1 2 2 2 4 3 2 2 3 2 2 2 -2 -1 0 1 1 1 1 2 2 1 1 1 2 1
-29 -30 -31 -30 -23 -9 -2 2 1 0 -0 -1 -2 -4 -5 -5 -5 -4 -4 -4 -4 -3 -3 -2 -1 0 1 1 1 1 2 2 4 3 3 3 3 3 4 0 -0 -1 1 0 0 1 1 1 1 1 1 0 0 1
-28 -29 -30 -31 -30 -15 -3 2 1 0 -1 -2 -3 -5 -5 -4 -3 -2 -4 -3 -3 -3 -2 -1 1 3 2 1 2 3 3 3 3 4 3 3 4 4 2 1 2 1 0 0 0 0 0 0 0 0 -0 -0 -0 0
-27 -27 -28 -28 -27 -18 -5 2 1 -0 -1 -2 -3 -4 -2 -3 -5 -2 -2 -3 -3 -3 -3 -2 -1 2 2 2 3 3 3 4 4 3 3 4 3 2 2 1 1 1 0 -0 -1 -0 -1 -2 -1 -1 -0 0 0 0
-18 -18 -20 -17 -15 -9 -4 1 0 -1 -2 -3 -4 -2 -1 -1 -2 -1 -2 -2 -2 -1 -2 -1 1 2 3 4 4 3 3 3 5 4 4 4 3 2 0 0 -1 -1 -1 -2 -2 -2 -1 -1 -0 -0 0 1 1 1
-6 -3 -6 -8 -6 -4 -3 0 -1 -2 -2 -3 -5 -2 -1 -1 -1 -0 1 0 1 1 1 2 2 2 3 3 3 2 3 3 5 3 4 3 2 -1 -1 -1 -1 -2 -2 -2 -1 -1 0 0 0 0 1 1 1 -0
-3 -1 -2 -3 -2 -2 -0 -0 -1 -2 -2 -4 -2 -2 -1 -1 0 1 2 2 2 1 2 2 3 3 3 2 2 3 4 4 2 4 3 1 -0 -2 -2 -3 -2 -1 -0 -0 -0 -0 -0 -0 -0 0 0 0 -2 -2
-3 -1 -4 -3 -0 -1 -0 -0 -2 -2 -4 -4 -2 -0 0 1 0 0 0 2 1 1 2 2 2 2 2 3 2 3 3 3 3 3 2 0 -1 -3 -3 -3 -0 -0 -1 -1 -1 -1 -1 -1 -0 -0 0 0 0 -2
-3 -1 -0 -1 0 -0 -1 -2 -2 -3 -9 -2 -2 -0 0 -1 -0 -1 -0 0 0 1 2 2 1 2 2 2 1 2 2 3 1 1 2 0 -2 -3 -3 -3 -0 -4 -5 -6 -7 -6 -6 -4 -3 -3 -3 -3 -2 -0
-2 -1 0 0 -1 -1 -2 -3 -3 -5 -4 -2 -2 -2 -2 -1 -0 -1 -1 -0 0 1 1 1 1 2 2 1 2 2 1 1 1 3 0 -1 -3 -4 -4 -4 -5 -8 -11 -14 -14 -15 -16 -15 -11 -7 -5 -4 -3 -3
0 -2 -2 -2 -2 -2 -3 -3 -4 -7 -6 -4 -4 -3 -3 -2 -1 -1 -1 -0 0 1 2 0 2 1 1 0 1 0 2 3 1 -1 -2 -2 -3 -5 -7 -8 -9 -11 -12 -13 -16 -19 -21 -22 -19 -15 -12 -10 -7 -5
-1 -2 -2 -3 -2 -2 -3 -4 -5 -8 -6 -5 -5 -4 -4 -3 -2 -2 -2 -1 -0 -0 0 1 0 1 0 0 1 2 1 -2 -3 -2 -2 -2 -3 -5 -5 -5 -7 -8 -10 -12 -16 -23 -27 -26 -25 -24 -23 -22 -18 -11
-3 -3 -3 -3 -3 -4 -4 -5 -7 -6 -6 -5 -5 -5 -4 -3 -3 -3 -3 -2 -1 -1 -1 -1 1 -0 -0 -0 1 -1 -2 -2 -2 -3 -3 -3 -3 -4 -4 -5 -6 -8 -10 -12 -19 -25 -24 -24 -24 -23 -22 -22 -22 -21
-3 -3 -3 -3 -4 -5 -5 -6 -7 -5 -5 -4 -4 -4 -4 -4 -4 -4 -4 -3 -2 -2 -1 -1 -2 -2 -2 -2 -2 -2 -2 -2 -3 -3 -3 -3 -3 -3 -4 -5 -6 -7 -9 -14 -23 -25 -23 -22 -20 -19 -18 -18 -17 -18
-3 -3 -3 -4 -4 -5 -6 -5 -5 -5 -5 -5 -5 -4 -4 -5 -5 -4 -4 -4 -4 -3 -3 -4 -3 -4 -3 -3 -2 -2 -3 -3 -3 -3 -3 -3 -3 -4 -4 -4 -5 -7 -10 -19 -25 -24 -23 -21 -19 -18 -17 -16 -16 -15
-4 -4 -4 -5 -5 -6 -6 -6 -6 -6 -5 -5 -5 -6 -5 -5 -5 -5 -6 -4 -4 -5 -7 -8 -9 -8 -7 -7 -7 -7 -6 -4 -3 -3 -3 -3 -3 -3 -3 -3 -4 -6 -15 -24 -24 -23 -22 -22 -21 -18 -16 -15 -15 -14
-5 -5 -5 -5 -8 -9 -8 -7 -7 -7 -5 -6 -6 -6 -6 -6 -7 -7 -6 -5 -5 -6 -6 -7 -7 -7 -7 -7 -7 -8 -8 -7 -5 -4 -3 -3 -3 -3 -4 -7 -11 -16 -24 -24 -22 -22 -22 -22 -21 -19 -16 -15 -14 -14
-5 -5 -5 -7 -9 -9 -10 -10 -9 -8 -8 -7 -7 -7 -7 -7 -8 -7 -6 -5 -4 -6 -10 -16 -18 -19 -17 -16 -12 -10 -8 -8 -7 -5 -3 -3 -3 -4 -8 -14 -20 -24 -24 -22 -22 -22 -21 -21 -21 -19 -16 -15 -14 -14
-5 -6 -6 -7 -8 -9 -9 -9 -10 -9 -9 -9 -8 -8 -9 -10 -7 -6 -6 -6 -10 -14 -19 -19 -17 -16 -15 -16 -14 -11 -9 -9 -7 -6 -5 -4 -4 -5 -11 -19 -23 -24 -23 -23 -22 -21 -20 -20 -20 -17 -15 -14 -14 -13
-6 -7 -6 -7 -7 -8 -8 -8 -9 -9 -10 -9 -9 -11 -10 -9 -8 -6 -6 -12 -20 -24 -21 -19 -17 -16 -16 -16 -15 -13 -12 -11 -10 -8 -7 -5 -5 -7 -13 -21 -24 -24 -22 -21 -19 -19 -19 -19 -18 -16 -14 -13 -13 -13
-5 -6 -7 -8 -9 -10 -11 -12 -12 -11 -10 -10 -9 -10 -9 -9 -8 -8 -12 -18 -22 -21 -18 -17 -19 -20 -18 -18 -17 -17 -15 -14 -12 -10 -8 -7 -8 -12 -19 -23 -24 -23 -21 -19 -17 -17 -18 -18 -16 -14 -13 -13 -13 -12
-6 -7 -7 -8 -9 -10 -10 -11 -11 -10 -10 -12 -10 -9 -8 -8 -6 -12 -19 -19 -17 -16 -14 -13 -14 -15 -15 -14 -14 -16 -17 -16 -13 -11 -10 -10 -12 -16 -21 -23 -23 -22 -21 -18 -16 -17 -17 -16 -14 -13 -13 -12 -12 -12
-6 -7 -8 -12 -10 -10 -11 -9 -10 -12 -13 -12 -8 -8 -9 -11 -12 -13 -13 -13 -12 -12 -13 -14 -15 -14 -12 -12 -13 -13 -13 -14 -16 -16 -15 -15 -16 -18 -20 -21 -20 -20 -17 -15 -16 -17 -16 -14 -13 -13 -12 -12 -12 -11
-7 -8 -8 -11 -12 -8 -9 -10 -11 -12 -13 -13 -13 -13 -13 -13 -13 -13 -13 -14 -14 -16 -17 -17 -18 -17 -17 -14 -13 -13 -13 -13 -13 -14 -14 -15 -15 -15 -14 -15 -16 -14 -12 -14 -16 -15 -13 -13 -12 -12 -12 -11 -11 -12
-8 -8 -8 -9 -9 -9 -10 -11 -10 -10 -11 -11 -12 -12 -12 -12 -12 -14 -15 -17 -18 -20 -20 -21 -19 -18 -16 -15 -13 -12 -11 -12 -12 -13 -14 -14 -14 -12 -10 -10 -11 -12 -15 -16 -14 -13 -12 -12 -11 -11 -12 -12 -12 -12
-8 -9 -9 -11 -9 -11 -11 -11 -11 -11 -11 -11 -11 -11 -12 -12 -12 -14 -16 -17 -17 -18 -19 -17 -16 -16 -14 -13 -12 -11 -10 -10 -11 -12 -12 -13 -13 -12 -12 -14 -16 -16 -14 -13 -12 -11 -11 -12 -12 -12 -12 -12 -12 -12
-10 -11 -10 -11 -10 -10 -11 -11 -12 -12 -12 -13 -12 -12 -12 -12 -12 -13 -15 -15 -16 -15 -14 -13 -13 -12 -12 -12 -11 -10 -11 -13 -13 -13 -13 -14 -15 -16 -16 -14 -13 -12 -12 -12 -12 -12 -12 -12 -12 -12 -12 -12 -12 -12

GFSWCAN_850_dewp_066.txt.gz
Dewpoint
-9 -6 -8 -7 -3 -5 -1 2 3 2 1 1 -0 -4 -2 -3 -3 -2 -2 -2 -3 -3 -5 -6 -5 -5 -4 -0 4 3 4 3 3 4 5 3 1 1 0 -1 1 1 3 3 2 4 3 -0 -1 2 3 2 2 2
-29 -23 -17 -11 -6 -3 -2 0 2 2 2 0 -0 -2 -2 -3 -5 -2 -1 -2 -3 -2 -4 -6 -6 -7 -5 -3 -2 1 3 3 2 3 2 1 1 1 0 2 -1 1 -0 0 -0 1 -1 -2 0 1 2 2 2 2
-32 -27 -26 -22 -16 -11 -6 0 3 2 2 1 -0 -1 -3 -2 -3 -2 -1 -2 -1 -2 -4 -4 -4 -6 -8 -7 -9 -3 1 4 3 4 3 2 2 1 2 0 1 -0 -2 -0 -0 -1 -2 -3 -1 1 3 2 1 1
-31 -31 -29 -26 -25 -21 -18 -13 2 1 1 1 0 -1 -3 -2 -3 -3 -2 -2 -2 -2 -3 -6 -7 -7 -7 -5 -5 -6 -6 2 1 3 4 3 2 -0 1 1 2 1 -1 -0 0 -1 -1 1 -1 -1 3 2 2 2
-31 -31 -31 -28 -23 -23 -13 -7 -1 1 1 0 0 -0 -1 -2 -2 -3 -2 -3 -4 -2 -4 -4 -5 -7 -5 -6 -6 -1 -4 -3 -1 2 4 3 1 1 0 1 2 -0 1 2 2 0 0 3 3 2 3 3 3 3
-30 -31 -31 -32 -32 -32 -23 -6 -2 -1 2 1 0 -0 -1 -2 -3 -3 -3 -3 -4 -3 -2 -2 -6 -8 -7 -3 -3 -4 -2 -2 -1 3 3 1 1 1 1 2 -2 -2 -1 -1 0 1 2 2 2 2 2 2 1 1
-30 -30 -30 -30 -31 -32 -32 -22 -3 1 1 1 0 -1 -1 -2 -3 -3 -4 -3 -4 -5 -3 -3 -3 -3 0 -1 -5 -2 -1 -1 -1 1 3 2 2 2 2 2 -2 -1 -1 -0 0 1 1 1 2 2 1 1 1 1
-28 -26 -27 -28 -29 -30 -31 -27 -11 -3 1 1 0 -1 -1 -3 -4 -4 -6 -4 -4 -4 -3 -3 -3 -1 1 0 -1 -3 -1 1 1 3 3 3 2 3 4 1 -0 -1 -1 1 1 0 1 1 2 1 1 1 1 0
-25 -26 -27 -28 -29 -29 -29 -28 -21 -8 -0 0 -0 -1 -3 -5 -4 -3 -3 -3 -3 -3 -2 -2 -1 1 1 1 0 -0 1 2 0 3 3 3 3 4 2 1 1 1 1 0 0 0 1 1 0 0 0 0 0 0
-25 -26 -27 -26 -22 -23 -24 -22 -21 -6 0 -0 -2 -4 -3 -3 -3 -3 -3 -2 -2 -3 -3 -3 -3 0 1 2 1 1 2 3 3 3 3 4 4 1 1 1 1 1 1 1 0 -0 -0 -0 -1 -1 -1 -0 -0 -0
-23 -24 -20 -14 -8 -9 -13 -14 -10 -2 -1 -2 -3 -4 -2 -2 -2 -2 -2 -2 -2 -2 -3 -3 -2 0 1 2 2 3 2 2 4 3 3 4 3 2 1 1 1 1 0 -0 -1 -1 -1 -1 -1 -1 -0 0 0 1
-21 -16 -10 -6 -2 -1 -4 -4 -2 -1 -1 -2 -4 -3 -2 -2 -2 -0 -0 -1 -1 -1 0 0 2 1 2 3 2 2 2 2 4 3 3 3 1 -0 -0 -0 -0 -1 -1 -1 -1 -1 -1 -0 0 0 1 1 1 1
-19 -12 -8 -5 -1 -2 -3 -4 -1 -1 -2 -3 -2 -2 -2 -2 -0 -0 -0 2 2 1 1 2 3 2 3 3 2 3 3 3 2 3 3 2 0 -1 -1 -1 -2 -2 -1 -0 -0 -0 -0 0 0 0 0 0 0 -1
-10 -7 -6 -4 -1 -2 -3 -0 -1 -2 -2 -4 -3 -1 -1 0 0 0 1 1 1 1 1 2 1 2 2 3 2 2 3 2 3 3 2 1 -1 -1 -2 -3 -0 0 0 0 -1 -1 -1 -1 -1 -0 -0 -0 0 0
-4 -3 -1 -2 0 -1 -0 -1 -1 -2 -3 -4 -2 -1 -1 -1 -0 -0 -0 -0 0 1 2 1 1 2 1 2 1 1 2 3 2 1 1 -0 -1 -2 -3 -2 0 -1 -2 -4 -7 -8 -10 -9 -6 -4 -4 -3 -3 -3
-1 -0 -1 -2 -0 -0 -1 -1 -2 -2 -4 -2 -2 -2 -2 -2 -1 -1 -1 -0 0 1 1 1 1 2 2 2 2 2 2 0 -0 -0 0 -1 -2 -3 -3 -2 -2 -6 -11 -13 -14 -16 -18 -19 -17 -14 -11 -10 -8 -6
-0 -0 -1 -0 -0 -0 -2 -2 -3 -4 -5 -4 -4 -3 -2 -3 -2 -1 -1 -0 -0 0 1 0 2 2 0 1 1 0 -0 -0 2 -1 -1 -2 -2 -3 -4 -4 -7 -10 -11 -11 -12 -14 -19 -24 -25 -22 -20 -20 -18 -13
-0 -0 -0 -0 -1 -2 -3 -3 -4 -6 -6 -5 -4 -4 -4 -3 -2 -2 -2 -1 -1 -0 -0 1 0 1 1 1 -1 -2 1 -0 -3 -2 -2 -2 -3 -5 -7 -8 -8 -9 -9 -9 -10 -15 -23 -27 -25 -24 -24 -23 -23 -23
-2 -2 -1 -2 -2 -4 -3 -4 -4 -6 -6 -5 -6 -5 -4 -3 -3 -3 -2 -2 -1 -1 -1 -1 1 1 -0 -0 -0 0 -1 -1 -2 -3 -3 -2 -3 -4 -5 -4 -5 -6 -7 -8 -9 -12 -22 -26 -24 -23 -21 -20 -20 -19
-2 -3 -2 -2 -3 -4 -5 -5 -6 -5 -4 -4 -5 -4 -4 -4 -4 -4 -4 -3 -3 -2 -1 -1 -1 -1 -1 -2 -3 -3 -2 -2 -2 -3 -3 -3 -3 -3 -4 -3 -4 -5 -6 -7 -8 -16 -25 -24 -23 -21 -19 -18 -17 -17
-3 -3 -3 -3 -3 -5 -6 -5 -5 -5 -5 -5 -5 -5 -5 -5 -5 -4 -4 -4 -4 -3 -4 -2 -2 -3 -3 -4 -4 -3 -3 -3 -3 -3 -3 -3 -3 -3 -3 -3 -5 -5 -5 -6 -9 -20 -26 -24 -23 -22 -21 -18 -17 -16
-3 -3 -3 -4 -5 -6 -6 -6 -6 -6 -5 -6 -6 -5 -6 -6 -6 -5 -5 -5 -4 -4 -5 -6 -7 -9 -8 -7 -7 -7 -8 -8 -7 -5 -3 -3 -3 -3 -3 -3 -4 -4 -4 -5 -14 -25 -25 -24 -23 -23 -22 -20 -17 -16
-4 -4 -4 -6 -8 -8 -7 -6 -6 -6 -6 -6 -6 -7 -7 -6 -7 -7 -6 -5 -5 -6 -6 -6 -6 -6 -7 -9 -10 -9 -7 -7 -8 -9 -7 -4 -3 -3 -3 -3 -3 -5 -7 -11 -22 -25 -23 -22 -22 -22 -22 -21 -18 -16
-4 -4 -5 -7 -9 -9 -9 -10 -9 -8 -7 -8 -9 -7 -7 -7 -8 -7 -7 -5 -5 -5 -5 -8 -12 -17 -19 -18 -18 -17 -15 -9 -8 -8 -8 -6 -4 -3 -4 -4 -5 -11 -17 -23 -25 -23 -23 -22 -21 -21 -21 -20 -17 -16
-5 -6 -6 -8 -9 -10 -11 -11 -11 -10 -10 -10 -10 -10 -10 -10 -8 -6 -5 -5 -10 -13 -19 -18 -16 -16 -15 -16 -15 -14 -13 -10 -10 -9 -8 -6 -4 -3 -4 -4 -7 -14 -22 -24 -24 -23 -22 -20 -20 -20 -20 -19 -17 -15
-7 -7 -7 -7 -8 -9 -10 -11 -12 -12 -12 -12 -11 -10 -10 -10 -9 -9 -7 -12 -19 -23 -20 -19 -19 -19 -17 -17 -16 -16 -14 -13 -12 -12 -11 -8 -6 -5 -5 -5 -9 -17 -23 -24 -23 -22 -20 -18 -18 -18 -19 -18 -16 -14
-6 -7 -7 -8 -9 -10 -11 -12 -12 -11 -13 -13 -13 -12 -12 -11 -11 -10 -11 -17 -22 -18 -15 -13 -13 -13 -13 -14 -14 -14 -14 -15 -16 -14 -12 -10 -8 -7 -7 -8 -12 -19 -23 -23 -22 -20 -19 -17 -17 -18 -18 -16 -14 -13
-7 -7 -10 -8 -9 -10 -12 -12 -13 -14 -12 -11 -10 -13 -12 -11 -9 -11 -17 -21 -17 -15 -12 -12 -13 -14 -16 -18 -18 -15 -13 -12 -12 -14 -15 -14 -14 -13 -13 -13 -16 -19 -23 -23 -22 -21 -19 -16 -16 -17 -16 -14 -13 -13
-6 -7 -8 -13 -10 -9 -10 -12 -11 -11 -12 -12 -11 -11 -11 -11 -12 -13 -13 -13 -13 -13 -14 -16 -18 -20 -21 -22 -21 -18 -16 -14 -13 -13 -13 -12 -13 -15 -15 -14 -15 -18 -22 -22 -21 -20 -16 -15 -16 -16 -15 -13 -13 -12
-7 -8 -8 -10 -12 -10 -8 -9 -10 -11 -12 -12 -13 -13 -13 -13 -14 -15 -16 -17 -17 -18 -19 -20 -21 -23 -24 -23 -22 -19 -16 -16 -14 -13 -13 -13 -13 -13 -13 -13 -13 -14 -16 -16 -16 -13 -12 -15 -16 -14 -13 -12 -12 -11
-8 -8 -8 -9 -10 -9 -10 -11 -11 -11 -11 -11 -11 -12 -12 -13 -13 -15 -16 -18 -19 -19 -19 -19 -21 -22 -22 -21 -19 -16 -15 -15 -15 -13 -11 -11 -12 -13 -13 -13 -12 -10 -10 -10 -10 -12 -15 -14 -13 -12 -11 -11 -12 -12
-9 -9 -9 -11 -9 -10 -10 -11 -12 -12 -12 -12 -12 -12 -12 -12 -12 -13 -15 -16 -16 -16 -17 -17 -17 -18 -17 -15 -14 -14 -13 -13 -12 -11 -11 -11 -11 -12 -13 -13 -12 -11 -11 -14 -15 -14 -12 -12 -11 -12 -12 -12 -12 -12
-10 -10 -10 -10 -11 -10 -11 -12 -12 -12 -12 -12 -12 -12 -12 -12 -12 -13 -13 -14 -15 -16 -15 -15 -15 -15 -14 -13 -13 -12 -12 -12 -11 -11 -12 -13 -13 -13 -14 -15 -16 -15 -14 -12 -12 -12 -12 -12 -12 -12 -12 -12 -12 -12

GFSWCAN_850_dewp_069.txt.gz
Dewpoint
-3 -2 -2 -4 -11 -14 -5 -1 1 1 1 2 0 0 -1 -2 -3 -4 -3 -2 -2 -3 -4 -5 -5 -6 -5 -5 -0 1 3 4 3 4 4 4 2 1 0 -0 2 2 2 4 2 4 3 0 -1 3 3 2 2 2
-8 -5 -6 -16 -20 -14 -3 0 0 1 -1 2 0 -0 -1 -2 -3 -4 -2 -1 -1 -1 -3 -3 -4 -4 -5 -4 -3 -2 2 1 4 3 2 1 1 0 0 2 -2 1 0 0 0 1 -2 -1 0 2 2 2 2 2
-17 -21 -22 -21 -25 -25 -18 -14 -0 -3 2 1 -0 0 0 -2 -2 -2 -2 -2 -2 -2 -3 -4 -6 -6 -7 -7 -7 -4 -6 -6 1 -0 3 3 2 1 2 1 0 -1 -2 -1 -1 -2 -2 -2 0 1 2 2 2 1
-31 -30 -29 -27 -23 -20 -19 -19 -10 -3 -6 1 0 -0 -0 -0 -1 -1 -2 -2 -1 -2 -2 -5 -8 -7 -7 -7 -6 -6 -7 -5 -3 -2 -1 3 3 -0 1 -0 -0 -0 -1 -1 -0 -1 -2 -2 -2 0 2 2 1 1
-31 -30 -30 -30 -28 -24 -21 -17 -10 -3 -2 0 1 1 -0 0 -1 -1 -2 -3 -3 -2 -3 -4 -4 -7 -5 -6 -5 -5 -4 -5 -3 -2 1 4 1 0 -0 0 1 0 1 1 1 -1 -1 2 1 -1 1 3 3 3
-30 -29 -29 -30 -31 -31 -31 -30 -29 -22 -6 -1 -3 1 1 -0 -1 -2 -4 -4 -4 -3 -3 -3 -5 -7 -5 -5 -6 -5 -5 -3 -2 -2 -1 1 2 0 1 2 -0 -2 -2 -0 -0 1 1 2 3 3 3 3 3 2
-28 -28 -29 -28 -28 -29 -30 -31 -32 -31 -15 -2 -0 1 1 -0 -1 -2 -4 -4 -4 -4 -4 -4 -5 -6 -3 -2 -3 -4 -3 -2 -3 -2 -1 -1 1 3 3 2 -2 -2 -2 -1 0 0 1 1 1 2 2 1 1 1
-28 -28 -27 -27 -28 -29 -30 -31 -30 -29 -23 -6 1 1 0 -1 -1 -2 -3 -3 -3 -3 -3 -3 -5 -4 -1 -2 -4 -3 -2 -1 -2 -1 0 2 3 3 4 2 -0 -1 -2 -1 -0 -1 -1 1 2 2 1 1 1 1
-27 -27 -27 -27 -28 -29 -30 -26 -27 -26 -23 -7 0 0 -1 -2 -2 -5 -4 -3 -3 -3 -3 -3 -5 -4 -0 0 0 -4 -3 -1 -1 1 1 2 4 4 2 2 1 1 -0 0 1 0 0 1 1 1 0 0 0 0
-27 -26 -26 -27 -28 -27 -20 -15 -22 -19 -8 -2 -0 -1 -2 -3 -4 -2 -3 -2 -2 -2 -3 -3 -4 -3 -2 1 1 0 0 2 2 1 3 3 3 1 1 1 1 1 1 1 0 0 0 0 -0 -0 -1 -1 -1 -0
-25 -25 -26 -27 -23 -13 -5 -5 -11 -5 -2 -2 -1 -2 -2 -2 -2 -3 -2 -2 -2 -2 -3 -3 -4 -3 -1 2 2 0 2 2 4 3 3 3 3 1 0 1 0 1 1 0 0 0 -0 -0 -1 -1 -1 -0 0 0
-25 -26 -25 -23 -11 -5 -2 -3 -5 -3 -2 -2 -2 -2 -2 -2 -2 -1 -1 -2 -2 -3 -2 -1 -1 -2 0 1 2 2 2 2 4 3 4 4 1 -0 0 0 -0 -0 -0 -1 -1 -1 -1 -1 -1 -0 1 1 1 1
-26 -23 -16 -11 -8 -3 -1 -2 -2 -2 -2 -2 -2 -2 -2 -2 -2 -1 -4 0 1 0 1 1 2 2 2 2 2 2 3 3 2 3 2 1 -0 -1 -1 -1 -1 -1 -1 -1 -1 -0 -0 0 0 0 0 0 0 0
-22 -15 -8 -6 -6 -4 -1 -1 -2 -3 -2 -3 -2 -2 -1 -2 -2 -2 -1 1 1 1 1 2 1 -0 1 2 2 2 3 2 3 3 2 -0 -0 -1 -1 -1 -1 0 0 -0 -0 -0 -0 -0 -0 -0 -1 -2 -2 -1
-10 -5 -2 -4 -3 -1 -1 -1 -1 -2 -2 -3 -3 -3 -3 -3 -1 -0 -0 -0 0 0 1 1 1 1 1 1 1 1 2 2 2 1 -0 -0 -1 -1 -2 -2 0 0 -0 -1 -6 -8 -10 -9 -7 -7 -7 -6 -6 -5
-2 -1 -1 -3 -3 -1 -1 -1 -2 -2 -2 -3 -3 -2 -2 -2 -3 -1 -1 -1 -0 0 0 1 1 1 2 1 1 1 1 1 -1 -1 1 -1 -2 -2 -3 -0 -0 -1 -7 -12 -13 -15 -17 -19 -18 -16 -15 -14 -15 -11
-0 0 0 -2 -1 -0 -1 -1 -2 -2 -3 -3 -4 -3 -2 -2 -2 -2 -1 -1 -0 -0 1 0 1 1 0 1 1 1 1 -2 -0 -0 -1 -1 -2 -3 -3 -1 -4 -9 -12 -11 -10 -11 -14 -20 -24 -23 -23 -24 -25 -23
1 1 -0 -1 -1 -1 -2 -3 -3 -4 -5 -5 -5 -5 -5 -3 -3 -2 -2 -2 -1 -1 -1 0 -0 -0 1 1 0 -1 0 0 -2 -2 -2 -2 -2 -4 -4 -4 -7 -10 -9 -8 -7 -9 -12 -21 -25 -25 -24 -23 -22 -21
-2 -0 -1 -1 -1 -2 -3 -3 -3 -5 -7 -6 -7 -5 -4 -4 -4 -3 -3 -2 -2 -2 -1 -1 0 -3 -1 -0 -0 -1 -1 -1 -1 -3 -3 -2 -3 -4 -6 -7 -7 -7 -8 -7 -8 -8 -10 -19 -26 -25 -23 -22 -20 -20
-1 -2 -2 -2 -2 -3 -4 -5 -5 -6 -6 -6 -5 -5 -5 -5 -4 -4 -4 -3 -3 -2 -2 -1 -2 -2 -0 0 -0 -2 -3 -3 -3 -3 -3 -3 -3 -3 -4 -5 -4 -4 -5 -6 -7 -7 -10 -22 -25 -24 -22 -21 -20 -18
-2 -3 -3 -2 -3 -4 -5 -5 -5 -5 -5 -5 -5 -6 -6 -5 -5 -5 -5 -4 -4 -3 -5 -3 -2 -2 -2 -2 -5 -6 -6 -5 -4 -3 -3 -3 -3 -3 -3 -3 -3 -3 -4 -5 -6 -6 -12 -24 -25 -24 -24 -23 -21 -19
-3 -3 -3 -3 -3 -5 -6 -6 -5 -5 -6 -6 -6 -6 -6 -6 -6 -6 -6 -6 -5 -4 -5 -5 -5 -6 -7 -8 -7 -7 -7 -7 -7 -7 -7 -5 -4 -3 -3 -3 -3 -4 -4 -4 -4 -5 -17 -25 -24 -23 -23 -23 -22 -21
-3 -3 -3 -4 -6 -7 -7 -6 -6 -6 -7 -7 -6 -7 -9 -6 -7 -7 -7 -6 -5 -5 -6 -5 -6 -6 -6 -9 -15 -18 -18 -15 -9 -7 -7 -8 -7 -5 -4 -3 -3 -3 -3 -4 -5 -10 -23 -24 -23 -23 -22 -22 -21 -21
-4 -4 -4 -6 -8 -9 -7 -10 -9 -8 -7 -9 -12 -10 -11 -7 -8 -7 -10 -7 -6 -7 -9 -8 -10 -14 -16 -16 -16 -17 -17 -17 -16 -11 -8 -8 -8 -7 -5 -4 -4 -4 -5 -9 -15 -20 -24 -23 -23 -22 -21 -20 -20 -20
-4 -6 -6 -9 -10 -10 -11 -12 -13 -12 -13 -14 -12 -13 -13 -10 -12 -11 -9 -6 -7 -9 -11 -9 -7 -8 -12 -16 -16 -16 -16 -14 -12 -11 -10 -9 -8 -7 -5 -4 -4 -4 -6 -12 -20 -24 -24 -23 -22 -20 -18 -18 -19 -19
-7 -7 -8 -8 -9 -10 -11 -11 -13 -13 -14 -14 -15 -11 -10 -14 -12 -11 -10 -10 -10 -21 -18 -16 -15 -14 -14 -14 -14 -14 -13 -13 -14 -15 -15 -14 -11 -9 -7 -5 -5 -5 -7 -15 -22 -24 -23 -22 -20 -18 -17 -17 -18 -18
-6 -7 -8 -8 -9 -10 -11 -12 -11 -13 -15 -14 -16 -14 -16 -13 -13 -12 -11 -17 -21 -16 -13 -12 -12 -13 -14 -16 -18 -20 -20 -19 -14 -12 -12 -14 -15 -13 -10 -9 -9 -9 -10 -17 -23 -24 -23 -21 -20 -19 -17 -16 -17 -17
-7 -7 -10 -9 -10 -10 -13 -13 -14 -14 -14 -10 -12 -13 -13 -12 -11 -11 -14 -17 -21 -17 -13 -13 -13 -14 -17 -19 -20 -21 -20 -19 -18 -17 -15 -13 -13 -13 -13 -14 -14 -12 -13 -16 -20 -23 -23 -22 -21 -21 -17 -15 -16 -16
-7 -8 -9 -12 -10 -10 -11 -13 -13 -11 -11 -12 -13 -13 -12 -11 -12 -13 -14 -14 -14 -14 -15 -16 -17 -18 -19 -20 -22 -22 -20 -18 -17 -16 -16 -18 -18 -16 -14 -13 -13 -13 -13 -13 -16 -20 -21 -21 -20 -19 -15 -14 -15 -15
-8 -8 -9 -11 -13 -11 -8 -9 -10 -11 -11 -12 -12 -12 -13 -16 -19 -18 -18 -19 -20 -21 -22 -22 -21 -20 -21 -21 -21 -21 -20 -19 -17 -15 -15 -16 -15 -16 -13 -12 -12 -12 -12 -13 -15 -17 -18 -17 -16 -12 -12 -15 -14 -13
-8 -8 -9 -9 -11 -9 -9 -11 -11 -12 -12 -13 -13 -12 -13 -13 -14 -17 -17 -18 -17 -17 -17 -18 -19 -20 -19 -19 -19 -18 -18 -18 -16 -15 -14 -14 -13 -12 -11 -11 -12 -13 -13 -12 -11 -12 -12 -10 -10 -13 -14 -12 -12 -12
-9 -9 -9 -12 -11 -10 -10 -11 -12 -12 -12 -12 -13 -13 -13 -12 -12 -14 -15 -15 -15 -16 -16 -17 -17 -16 -16 -15 -15 -15 -16 -15 -13 -13 -13 -13 -13 -11 -11 -11 -12 -13 -13 -12 -10 -10 -12 -14 -13 -12 -12 -12 -13 -13
-10 -10 -10 -10 -10 -10 -11 -11 -12 -12 -12 -12 -12 -12 -12 -12 -12 -13 -14 -15 -15 -15 -15 -15 -15 -16 -16 -15 -15 -14 -13 -13 -12 -12 -12 -12 -11 -12 -12 -13 -13 -14 -14 -15 -14 -13 -12 -12 -13 -13 -13 -13 -12 -12

GFSWCAN_850_dewp_075.txt.gz
Dewpoint
7 7 7 5 4 3 3 2 1 -11 -15 -11 -8 -7 -1 -0 -1 -2 -2 -3 -2 -2 -3 -2 -3 -4 -5 -5 -4 -5 -5 -2 2 4 4 5 3 1 1 1 2 3 4 4 3 4 3 -2 0 2 0 2 2 0
7 7 6 5 5 3 0 2 -2 -18 -13 -12 -11 -5 -2 -2 -1 -2 -3 -2 -2 -1 -2 -2 -2 -2 -2 -3 -2 -3 -5 -3 -1 -0 -0 0 4 0 -0 2 -1 2 1 2 1 1 -3 -2 0 -1 -0 2 2 2
7 6 6 5 4 0 1 3 -5 -3 -17 -24 -12 -5 -0 -1 -1 -1 -3 -2 -1 -1 -2 -2 -5 -5 -5 -5 -5 -3 -4 -4 -3 -3 -1 -0 2 1 1 0 -0 -1 -3 -1 -1 -2 -2 -3 -2 -0 1 2 2 2
5 6 6 5 2 3 3 0 1 -1 -21 -18 -17 -1 -0 0 -0 0 -1 -1 -1 -1 -2 -3 -5 -5 -5 -6 -7 -7 -6 -3 -3 -2 -2 -2 -1 -1 2 -1 -1 -1 -2 -1 -1 -2 -2 -1 -2 -3 0 2 2 1
5 5 4 3 3 3 -3 -13 -1 -15 -17 -15 -12 -2 -0 -0 0 0 -0 -1 -1 -1 -2 -3 -4 -6 -8 -6 -7 -5 -5 -4 -3 -3 -2 -2 -2 -0 2 1 0 -1 -1 -0 -0 -2 -2 -3 -2 -2 -2 1 2 1
5 5 1 -2 -4 -11 -12 -11 -16 -23 -23 -22 -18 -14 -4 -1 1 1 -0 -1 -4 -3 -2 -3 -6 -8 -8 -5 -2 -3 -4 -3 -3 -3 -3 -4 -4 -1 -1 4 -1 -1 -2 -3 -2 -2 -2 0 0 0 -1 0 2 2
3 1 -2 -9 -17 -13 -18 -23 -28 -28 -29 -31 -30 -28 -11 0 -1 0 -0 -2 -3 -2 -3 -4 -6 -8 -8 -5 -1 -4 -4 -3 -3 -4 -3 -4 -4 -1 1 3 -0 -2 -1 -1 -1 -1 1 1 1 0 0 0 1 2
-3 -12 -17 -20 -19 -20 -25 -27 -28 -29 -30 -29 -29 -28 -9 -1 0 -0 -1 -1 -1 -3 -3 -4 -5 -6 -3 -1 -3 -2 -3 -4 -3 -3 -3 -3 -4 -3 -1 -3 -5 -2 -1 -1 -1 -1 -0 -0 1 2 2 2 2 2
-17 -19 -19 -22 -22 -24 -26 -27 -27 -26 -25 -26 -28 -17 -2 -1 -1 -1 -1 -2 -3 -3 -4 -4 -5 -7 -4 -1 -1 -2 -2 -2 -3 -2 -3 -4 -2 1 -1 -1 -1 -0 1 -1 -1 1 0 -0 0 1 1 1 1 1
-19 -20 -20 -21 -23 -26 -26 -24 -19 -18 -18 -18 -7 -5 -1 -1 -1 -2 -2 -2 -2 -3 -3 -4 -5 -3 -6 -4 -3 -2 -2 -1 -1 -3 -4 -2 -2 -4 -7 1 1 1 1 0 0 1 0 1 1 1 1 1 1 0
-18 -18 -19 -21 -24 -25 -18 -14 -12 -11 -8 -4 -5 -2 -2 -3 -2 -2 -3 -3 -3 -3 -4 -4 -4 -3 -3 -3 -2 -1 0 0 1 -0 -0 1 2 1 -1 -1 0 1 1 1 0 0 0 0 0 0 0 -0 -0 -1
-18 -20 -21 -22 -22 -19 -11 -8 -6 -6 -8 -6 -4 -2 -2 -2 -3 -3 -3 -3 -3 -4 -5 -3 -2 -2 -3 -2 -1 0 1 1 3 -1 1 3 2 -0 -1 -0 -0 0 0 0 0 0 0 -0 -0 -0 -1 -1 -1 -0
-20 -20 -20 -20 -18 -14 -9 -2 -3 -6 -6 -4 -4 -2 -3 -3 -3 -3 -4 -5 -3 -3 -3 -0 -1 -0 -1 -1 -1 1 3 3 1 3 3 2 -1 -1 -1 -1 -0 -1 -0 -0 -0 -1 -1 -0 -0 0 0 0 0 0
-18 -17 -19 -19 -17 -12 -7 -3 -3 -4 -4 -3 -3 -3 -3 -4 -4 -6 -6 -7 -2 0 -0 -0 -0 -0 0 0 1 3 3 2 2 2 1 0 -1 -1 -1 -0 -0 -0 -0 0 -0 -0 -0 0 0 0 0 0 -0 -0
-17 -18 -18 -19 -14 -9 -3 -3 -1 -3 -5 -4 -4 -5 -5 -5 -5 -2 -3 -2 -1 -1 -1 -1 0 0 0 1 1 1 1 0 1 1 -1 -1 -2 -1 -1 -1 -0 -1 -1 -1 -1 -1 -1 -2 -4 -5 -8 -10 -12 -13
-18 -16 -15 -10 -10 -4 -3 -1 -1 -2 -3 -2 -3 -4 -4 -4 -4 -3 -3 -2 -2 -1 -1 -1 -0 1 1 1 0 1 1 -0 1 -0 -1 -1 -2 -2 -1 -1 -0 -0 -1 -4 -10 -12 -13 -14 -14 -15 -16 -17 -22 -22
-7 -3 -14 -9 -4 -3 -2 -2 -2 -2 -2 -3 -3 -4 -4 -4 -4 -3 -2 -2 -2 -2 -1 -1 -0 1 -0 -2 -3 -3 -3 -1 0 -0 -2 -2 -2 -1 -2 -0 -0 -1 -9 -11 -10 -10 -11 -13 -17 -19 -22 -24 -24 -24
-3 -3 -2 -2 -2 -2 -2 -1 -2 -2 -3 -4 -4 -4 -4 -3 -3 -3 -3 -2 -2 -2 -1 -1 -2 -1 -2 -2 -2 -3 -1 -1 -0 -2 -3 -2 -2 -3 -3 -0 -1 -6 -11 -9 -8 -9 -9 -9 -13 -20 -24 -24 -22 -21
-2 -1 -0 -1 -2 -2 -2 -2 -2 -4 -4 -5 -4 -5 -5 -4 -4 -3 -3 -2 -3 -3 -2 -3 -2 -1 -1 -2 -1 -1 -0 -0 -0 -1 -2 -3 -2 -3 -4 -3 -2 -5 -10 -10 -8 -8 -7 -7 -8 -18 -24 -24 -23 -22
-1 -1 0 -0 -1 -1 -2 -4 -3 -4 -6 -6 -6 -5 -5 -5 -5 -4 -4 -4 -4 -3 -3 -2 -3 -2 -2 -1 -0 -1 -1 -2 -1 -2 -4 -2 -3 -3 -3 -5 -6 -7 -8 -7 -7 -7 -7 -7 -6 -13 -23 -24 -24 -23
-1 -1 -1 -1 -2 -2 -4 -5 -5 -5 -5 -6 -5 -5 -6 -5 -6 -6 -5 -5 -5 -5 -4 -3 -3 -3 -3 -2 -0 -0 -4 -7 -7 -7 -7 -7 -6 -4 -3 -3 -3 -4 -5 -5 -4 -4 -5 -5 -6 -8 -22 -25 -23 -23
-3 -2 -2 -2 -3 -4 -5 -5 -5 -5 -5 -6 -6 -6 -6 -6 -6 -6 -6 -6 -6 -6 -5 -6 -6 -6 -6 -4 -3 -3 -6 -7 -7 -8 -9 -10 -8 -7 -7 -6 -4 -3 -3 -3 -3 -3 -4 -5 -5 -6 -21 -24 -23 -22
-3 -2 -2 -3 -4 -5 -7 -6 -6 -6 -7 -7 -6 -6 -7 -7 -7 -7 -8 -7 -7 -7 -8 -6 -6 -6 -5 -5 -6 -7 -8 -10 -15 -18 -19 -18 -18 -15 -8 -7 -7 -8 -7 -5 -3 -3 -4 -5 -5 -6 -19 -23 -23 -22
-3 -3 -3 -5 -5 -8 -7 -7 -7 -7 -7 -8 -9 -8 -10 -9 -8 -8 -9 -8 -7 -7 -7 -7 -6 -8 -8 -8 -14 -16 -15 -15 -15 -14 -13 -13 -13 -11 -9 -8 -7 -7 -7 -6 -5 -4 -4 -4 -6 -10 -20 -23 -23 -21
-3 -5 -5 -8 -7 -9 -11 -10 -9 -9 -7 -9 -9 -10 -12 -10 -11 -12 -10 -8 -6 -9 -13 -12 -11 -12 -13 -14 -16 -18 -18 -19 -20 -17 -14 -14 -15 -15 -12 -10 -9 -8 -7 -6 -4 -4 -4 -8 -14 -20 -24 -23 -22 -20
-6 -7 -8 -10 -11 -9 -9 -8 -9 -8 -9 -10 -10 -12 -11 -13 -12 -11 -12 -8 -8 -8 -8 -7 -7 -6 -8 -16 -17 -18 -19 -20 -21 -21 -19 -18 -16 -13 -13 -14 -14 -11 -8 -7 -5 -5 -5 -9 -18 -23 -24 -23 -22 -20
-9 -10 -8 -9 -9 -10 -10 -10 -10 -11 -11 -11 -12 -13 -14 -12 -12 -12 -11 -11 -10 -9 -10 -13 -17 -12 -13 -14 -14 -14 -15 -17 -19 -19 -21 -21 -21 -20 -20 -18 -15 -13 -12 -11 -9 -8 -9 -13 -19 -23 -23 -23 -22 -20
-7 -8 -9 -9 -9 -8 -9 -11 -11 -11 -12 -13 -12 -13 -12 -12 -11 -12 -17 -17 -18 -19 -17 -15 -14 -13 -12 -12 -13 -13 -14 -15 -17 -19 -20 -21 -21 -22 -21 -20 -20 -18 -14 -13 -13 -12 -11 -10 -11 -17 -21 -22 -22 -21
-8 -9 -9 -10 -10 -10 -12 -12 -12 -12 -12 -12 -13 -13 -13 -13 -14 -17 -18 -18 -19 -19 -19 -19 -18 -15 -15 -16 -16 -17 -16 -16 -15 -16 -18 -20 -21 -21 -20 -20 -19 -17 -16 -16 -14 -13 -12 -11 -10 -10 -12 -14 -17 -18
-8 -8 -10 -11 -11 -10 -9 -10 -10 -11 -12 -12 -12 -13 -14 -18 -21 -22 -21 -21 -21 -20 -19 -18 -17 -16 -16 -16 -16 -16 -16 -16 -16 -16 -17 -18 -19 -19 -19 -18 -16 -15 -15 -14 -13 -12 -12 -12 -12 -12 -12 -14 -16 -17
-8 -9 -10 -10 -11 -9 -9 -10 -11 -12 -12 -12 -12 -13 -14 -14 -18 -20 -21 -20 -18 -17 -16 -16 -15 -15 -15 -15 -15 -15 -15 -15 -16 -15 -15 -15 -15 -16 -16 -15 -13 -13 -13 -13 -12 -11 -11 -12 -12 -12 -13 -13 -11 -10
-10 -10 -12 -12 -11 -11 -11 -11 -11 -12 -12 -13 -14 -14 -14 -14 -14 -16 -19 -18 -17 -16 -15 -15 -14 -14 -14 -14 -14 -14 -14 -14 -15 -15 -15 -15 -15 -15 -14 -13 -13 -13 -12 -12 -12 -12 -12 -12 -12 -11 -10 -11 -13 -12
-10 -10 -11 -11 -12 -11 -12 -13 -12 -12 -12 -12 -12 -13 -13 -13 -13 -15 -15 -15 -13 -12 -11 -11 -11 -11 -13 -14 -14 -13 -11 -11 -12 -13 -13 -14 -14 -14 -13 -13 -12 -12 -12 -12 -12 -12 -12 -12 -13 -13 -12 -13 -13 -13

GFSWCAN_850_dewp_078.txt.gz
Dewpoint
9 9 7 7 5 4 4 3 2 -3 -4 -12 -17 -13 -9 -7 -2 -3 -3 -3 -3 -3 -3 -3 -4 -4 -4 -4 -4 -4 -4 -2 -0 2 4 3 4 2 1 1 2 3 3 4 4 5 3 -3 -0 1 -1 1 2 2
9 8 8 6 4 4 5 3 2 -2 -3 -12 -10 -12 -8 -5 -4 -2 -2 -2 -2 -2 -3 -2 -3 -5 -4 -3 -3 -3 -4 -4 -3 -1 -1 -1 3 2 1 2 -1 2 1 2 1 1 -3 -2 -0 -1 -0 0 2 2
8 8 7 5 5 5 4 3 1 -2 -12 -12 -7 -6 -3 -3 -1 -1 -2 -1 -1 -1 -2 -3 -6 -5 -5 -5 -3 -2 -4 -5 -3 -2 -2 -1 -0 0 3 1 -0 -1 -2 -1 -0 -2 -2 -3 -3 -3 -1 1 2 2
8 8 5 6 6 5 3 3 2 -4 -13 -12 -7 -1 -0 -0 -1 -0 -3 -0 -1 -1 -1 -4 -4 -4 -5 -5 -5 -4 -4 -4 -4 -3 -2 -2 -1 -1 0 1 2 -1 -2 -1 -1 -2 -2 -2 -2 -3 -3 1 2 2
8 6 5 6 6 5 4 3 3 2 0 -1 1 1 0 -1 0 1 0 -3 -0 -1 -2 -3 -4 -6 -7 -7 -6 -5 -5 -4 -3 -3 -3 -3 -3 -2 -1 1 1 -2 -2 -1 -1 -3 -3 -3 -3 -2 -2 -1 1 1
7 5 6 4 5 5 3 3 2 2 1 -1 -0 0 -3 -1 1 1 -1 -0 -0 -1 -2 -3 -5 -6 -6 -5 -5 -3 -4 -3 -3 -3 -3 -5 -6 -2 -1 0 1 -1 -1 -1 -3 -3 -3 -2 -1 -0 -1 -1 1 1
6 6 5 5 5 3 2 2 -10 -10 -13 -10 -14 -18 -14 -5 -3 1 -2 -3 -1 -2 -3 -4 -6 -8 -9 -5 -2 -2 -3 -3 -4 -3 -3 -4 -3 -1 -1 -0 -2 -2 -2 -2 -1 -1 -1 -1 0 0 -0 -0 2 2
5 4 5 5 3 2 -4 -12 -15 -23 -22 -22 -27 -24 -10 -3 -1 1 0 -1 -1 -2 -3 -4 -6 -7 -4 -1 -2 -2 -3 -3 -3 -3 -3 -3 -5 -4 -2 -4 -6 -6 -7 -4 -1 -1 0 -0 1 1 1 1 2 2
5 4 4 3 -1 -7 -15 -21 -24 -23 -21 -25 -24 -22 -5 -1 -2 -2 -2 -2 -2 -3 -4 -4 -6 -7 -6 -3 -2 -2 -2 -2 -3 -2 -2 -3 -3 -1 -4 -6 -6 -5 -0 0 -0 -0 0 0 1 1 1 2 1 1
3 0 -1 -9 -15 -19 -22 -22 -20 -19 -23 -23 -12 -2 -2 -1 -2 -2 -3 -2 -3 -3 -3 -5 -5 -4 -4 -4 -3 -2 -2 -3 -3 -3 -3 -2 -4 -7 -8 -5 -2 -0 1 1 1 0 0 1 0 1 1 1 1 1
-4 -12 -16 -19 -21 -21 -20 -19 -19 -17 -13 -4 -6 -3 -3 -3 -3 -3 -3 -3 -2 -4 -4 -4 -4 -4 -4 -3 -3 -1 -2 -2 -0 -1 -2 -1 0 -0 -2 -4 -5 -4 -1 0 0 -0 -0 0 0 1 1 0 0 -0
-17 -18 -18 -19 -20 -19 -18 -15 -12 -9 -9 -8 -6 -3 -3 -3 -3 -3 -3 -3 -4 -4 -5 -4 -4 -3 -3 -3 -2 -1 0 0 1 -2 -0 2 1 -1 -1 -1 -1 -0 0 0 0 0 0 0 0 0 0 -0 -0 -1
-15 -17 -19 -18 -19 -18 -11 -9 -7 -7 -6 -6 -4 -4 -4 -3 -3 -4 -4 -4 -3 -4 -4 -1 -1 -1 -1 -2 -2 0 2 2 -0 1 2 2 -0 -1 -1 -0 -0 -1 -0 -0 -0 -0 -0 -0 -0 -0 -0 0 1 0
-17 -17 -19 -18 -16 -16 -12 -4 -5 -6 -5 -5 -3 -3 -3 -3 -4 -6 -7 -8 -5 -2 -1 -2 -2 -1 -1 0 1 2 2 2 1 0 1 -0 -1 -2 -1 -1 -1 -1 -0 -0 -0 -0 -0 0 0 0 0 0 -0 -1
-18 -19 -19 -16 -13 -7 -1 -3 -5 -5 -5 -4 -4 -4 -4 -5 -5 -4 -5 -3 -3 -2 -2 -2 -1 -0 0 0 0 1 0 -1 1 1 -1 -1 -1 -2 -1 -1 -1 -0 -1 -0 -0 -0 -1 -1 -1 -1 -3 -4 -10 -13
-8 -11 -14 -10 -10 -10 -2 -2 -3 -3 -4 -4 -4 -4 -5 -4 -5 -4 -3 -3 -2 -2 -2 -1 -1 0 1 1 0 -0 0 -0 1 -0 -1 -1 -1 -2 -1 -1 -1 -1 -1 -2 -6 -9 -11 -12 -12 -14 -15 -18 -23 -24
-6 -8 -10 -8 -8 -3 -2 -2 -2 -2 -3 -3 -3 -3 -4 -4 -4 -4 -4 -3 -2 -2 -2 -2 -0 -0 -0 -2 -2 -2 -0 -1 -1 -1 -3 -2 -1 -1 -1 -1 -0 -2 -6 -11 -10 -9 -10 -11 -14 -17 -21 -23 -24 -23
-8 -10 -14 -8 -3 -2 -1 -1 -2 -2 -3 -3 -4 -4 -4 -4 -3 -3 -3 -3 -2 -3 -2 -1 -2 -1 -1 -3 -2 -2 -1 -1 -0 -1 -2 -3 -2 -2 -2 -1 -1 -3 -8 -9 -6 -8 -10 -8 -9 -13 -20 -25 -24 -22
-8 -5 -2 -3 -3 -2 -2 -2 -2 -3 -4 -4 -4 -4 -4 -4 -4 -3 -3 -3 -3 -3 -3 -3 -3 -2 -2 -3 -2 -1 -0 -1 -1 -1 -0 -1 -3 -3 -4 -3 -1 -1 -4 -10 -10 -8 -8 -7 -6 -7 -13 -22 -25 -24
-3 -2 -1 -2 -3 -2 -2 -3 -3 -3 -5 -5 -5 -5 -5 -5 -4 -4 -4 -4 -4 -4 -4 -3 -3 -3 -2 -2 -1 -0 -1 -1 -3 -6 -3 -1 -1 -2 -3 -3 -5 -5 -5 -7 -9 -8 -7 -6 -6 -6 -7 -15 -23 -24
-1 -1 -1 -2 -2 -2 -3 -4 -4 -4 -6 -6 -6 -5 -5 -5 -5 -5 -6 -5 -5 -5 -5 -4 -4 -6 -3 -3 -2 -1 -0 -1 -7 -7 -7 -7 -8 -8 -7 -6 -4 -3 -4 -5 -6 -5 -5 -4 -5 -6 -5 -9 -22 -25
-1 -1 -2 -2 -3 -4 -5 -5 -5 -5 -6 -6 -5 -6 -6 -6 -6 -6 -6 -6 -6 -7 -6 -6 -7 -7 -6 -5 -5 -3 -3 -4 -6 -7 -8 -12 -15 -17 -17 -12 -7 -7 -5 -4 -3 -3 -3 -3 -4 -5 -5 -7 -17 -24
-2 -2 -2 -3 -4 -5 -7 -5 -6 -6 -9 -7 -6 -7 -7 -7 -7 -7 -7 -7 -7 -8 -8 -8 -8 -7 -6 -6 -6 -6 -6 -7 -12 -15 -15 -15 -14 -15 -17 -18 -14 -8 -7 -7 -7 -5 -4 -3 -4 -4 -5 -5 -13 -23
-3 -2 -3 -4 -5 -8 -7 -7 -7 -7 -7 -10 -12 -11 -12 -9 -8 -9 -11 -9 -7 -7 -7 -7 -6 -6 -6 -7 -7 -9 -14 -15 -15 -15 -15 -14 -14 -14 -12 -11 -10 -9 -8 -8 -7 -7 -6 -4 -4 -4 -5 -7 -14 -23
-3 -5 -4 -8 -7 -9 -11 -11 -11 -10 -11 -11 -10 -11 -13 -10 -13 -14 -11 -8 -7 -7 -8 -12 -13 -14 -15 -15 -14 -16 -19 -21 -22 -22 -22 -22 -19 -18 -15 -13 -13 -13 -11 -10 -8 -6 -5 -4 -5 -6 -10 -16 -20 -23
-9 -7 -8 -9 -10 -11 -11 -12 -12 -12 -12 -12 -11 -12 -11 -13 -12 -10 -11 -9 -8 -9 -10 -11 -9 -7 -7 -11 -18 -18 -17 -16 -16 -16 -18 -20 -21 -22 -22 -22 -21 -16 -14 -13 -11 -8 -6 -5 -5 -6 -11 -20 -23 -23
-9 -9 -8 -9 -9 -10 -11 -10 -9 -11 -11 -10 -12 -12 -12 -10 -11 -11 -11 -12 -11 -9 -9 -10 -11 -13 -10 -8 -14 -14 -13 -13 -13 -14 -15 -17 -18 -21 -21 -21 -22 -21 -20 -17 -13 -13 -12 -10 -9 -10 -15 -19 -23 -23
-8 -8 -10 -9 -8 -8 -10 -11 -11 -10 -10 -12 -12 -11 -11 -11 -12 -12 -17 -17 -17 -18 -18 -17 -15 -15 -16 -14 -14 -13 -13 -13 -14 -15 -16 -17 -18 -18 -20 -21 -21 -21 -21 -20 -18 -16 -14 -14 -13 -11 -10 -10 -15 -19
-8 -9 -8 -11 -9 -9 -8 -11 -11 -12 -12 -12 -11 -12 -13 -14 -13 -15 -17 -18 -19 -20 -21 -21 -20 -19 -18 -16 -15 -15 -15 -16 -17 -17 -17 -18 -18 -18 -18 -19 -19 -19 -18 -17 -16 -16 -16 -15 -13 -12 -12 -10 -9 -10
-9 -9 -9 -9 -10 -9 -10 -10 -10 -11 -12 -12 -12 -13 -14 -17 -19 -20 -20 -21 -21 -19 -18 -17 -16 -16 -15 -15 -15 -15 -15 -15 -15 -15 -16 -16 -16 -16 -16 -17 -17 -16 -16 -15 -14 -14 -13 -13 -12 -11 -11 -12 -12 -13
-9 -9 -11 -11 -11 -9 -10 -10 -11 -12 -12 -12 -12 -13 -13 -15 -18 -21 -20 -18 -17 -17 -16 -15 -15 -15 -14 -13 -13 -13 -14 -14 -14 -14 -14 -15 -15 -15 -15 -15 -15 -16 -16 -14 -13 -13 -13 -12 -12 -12 -12 -12 -12 -12
-9 -10 -12 -13 -11 -11 -11 -12 -12 -12 -12 -13 -13 -14 -14 -14 -15 -17 -16 -16 -15 -15 -14 -12 -11 -11 -12 -13 -13 -11 -11 -12 -14 -14 -14 -14 -14 -14 -14 -14 -14 -14 -14 -13 -13 -12 -12 -12 -12 -12 -12 -11 -11 -12
-11 -11 -12 -12 -12 -11 -13 -13 -13 -13 -12 -12 -12 -12 -13 -13 -14 -15 -15 -15 -15 -12 -11 -11 -12 -14 -16 -16 -16 -14 -12 -12 -12 -12 -11 -11 -11 -12 -13 -13 -13 -13 -13 -13 -12 -12 -12 -12 -12 -11 -12 -13 -13 -13

GFSWCAN_850_dewp_081.txt.gz
Dewpoint
8 9 9 9 8 7 4 2 2 2 1 -2 -10 -12 -9 -10 -7 -11 -9 -6 -5 -4 -4 -5 -4 -3 -4 -4 -4 -4 -5 -3 -3 -0 -1 1 2 2 2 1 2 3 4 4 4 4 4 -3 -1 0 -1 0 1 2
8 9 9 9 8 6 3 3 3 3 2 -3 -15 -13 -10 -8 -6 -5 -6 -5 -4 -3 -4 -3 -4 -5 -4 -3 -3 -3 -4 -4 -4 -4 -4 -4 -1 0 2 4 0 3 0 2 1 1 -3 -2 -2 -2 -1 -0 1 2
8 9 9 9 8 6 4 3 3 3 -2 -4 -15 -15 -11 -4 -3 -4 -3 -2 -3 -2 -2 -4 -6 -4 -4 -5 -3 -2 -3 -5 -4 -3 -3 -3 -2 -2 1 2 2 1 -2 -0 0 -2 -2 -3 -3 -3 -2 -1 1 2
8 8 9 8 7 5 4 4 4 2 -0 -7 -16 -15 -8 -1 -1 -1 -2 -2 -1 -1 -1 -5 -5 -4 -6 -6 -5 -5 -3 -4 -4 -3 -3 -3 -2 -2 -1 -1 -1 -1 -2 -1 -1 -3 -3 -2 -3 -3 -3 -3 1 2
8 9 9 8 7 5 5 4 4 3 0 -16 -16 -4 -0 -1 -0 0 -0 -0 -1 -0 -1 -2 -4 -6 -7 -7 -6 -5 -4 -3 -3 -3 -3 -3 -4 -4 -4 -2 -2 -2 -1 -1 -0 -3 -3 -4 -4 -3 -2 -2 -0 2
8 8 8 7 6 5 5 5 3 1 -5 -6 0 0 -0 -1 1 1 -1 -2 -1 -3 -2 -3 -4 -6 -6 -8 -6 -6 -5 -3 -3 -3 -3 -4 -6 -5 -3 -1 -3 -2 -2 -2 -2 -2 -2 -3 -1 -1 -1 -2 0 1
8 8 8 6 5 5 5 3 2 2 2 2 1 -0 -1 -2 1 -1 -2 -3 -2 -2 -2 -4 -5 -7 -7 -3 -3 -3 -3 -3 -3 -3 -3 -4 -4 -4 -3 -3 -5 -3 -3 -1 -2 -2 -0 -2 -0 0 0 -1 1 1
8 8 7 6 5 4 4 3 2 2 2 0 -1 -2 -2 0 -0 -1 -1 -0 -3 -3 -3 -5 -6 -7 -4 -2 -2 -2 -3 -4 -3 -4 -3 -3 -4 -4 -3 -5 -6 -8 -8 -9 -1 -1 0 0 0 1 1 1 2 2
8 7 6 5 5 4 3 -1 1 -0 -4 -8 -21 -12 -1 -1 -2 -2 -1 -2 -2 -3 -4 -5 -6 -8 -6 -4 -2 -2 -2 -3 -5 -3 -3 -3 -3 -3 -5 -6 -7 -7 -7 -2 -1 0 0 0 1 1 1 1 1 1
7 6 4 4 4 1 -5 -2 -3 -9 -21 -21 -10 -5 -2 -2 -2 -2 -2 -2 -3 -3 -3 -5 -5 -5 -5 -4 -3 -3 -2 -3 -5 -3 -3 -2 -3 -5 -6 -7 -7 -5 -4 0 1 1 1 0 0 1 1 1 1 1
6 6 5 3 1 -6 -4 -12 -21 -20 -20 -13 -5 -3 -2 -2 -3 -3 -3 -4 -3 -5 -4 -5 -5 -4 -4 -3 -3 -3 -4 -4 -4 -4 -2 -3 -2 -0 -1 -1 -4 -7 -7 -6 -4 0 0 0 0 0 1 1 0 0
5 4 3 0 -6 -14 -20 -21 -18 -18 -14 -10 -10 -3 -3 -3 -4 -4 -4 -3 -5 -4 -5 -4 -5 -4 -3 -3 -3 -3 -0 -1 -1 -2 -2 -2 1 -1 -1 -1 -1 -0 -0 -0 0 0 0 0 0 0 0 0 -0 -0
2 1 -6 -12 -16 -18 -18 -17 -14 -12 -12 -11 -5 -3 -4 -3 -4 -4 -5 -5 -5 -5 -5 -4 -1 -1 -1 -2 -2 -1 0 1 -1 -1 -1 2 -1 -1 -1 -1 -1 -0 -0 -0 -0 -0 -0 -0 -0 -0 -0 -0 0 1
-3 -10 -14 -17 -15 -13 -12 -8 -9 -11 -10 -6 -4 -3 -4 -4 -4 -5 -7 -7 -6 -3 -2 -2 -2 -2 -1 -0 -0 -0 1 2 1 -0 -0 -1 -1 -2 -1 -1 -1 -1 -1 -0 -0 -0 -0 -0 0 0 -0 -0 -0 -1
-14 -14 -12 -11 -6 -7 -8 -9 -10 -8 -6 -5 -5 -4 -3 -5 -5 -4 -6 -3 -2 -2 -3 -3 -2 -1 -0 0 0 0 0 -1 1 1 -2 -1 -2 -2 -2 -1 -1 -1 -1 -1 -1 -1 -1 -1 -1 -1 -3 -6 -13 -17
-12 -6 -2 -2 -6 -4 -6 -6 -6 -6 -6 -5 -4 -5 -5 -5 -5 -4 -3 -4 -3 -3 -3 -2 -1 -0 0 -0 -0 -1 0 0 0 -0 -1 -2 -1 -1 -1 -1 -1 -2 -2 -2 -2 -3 -3 -4 -8 -12 -16 -19 -23 -24
-2 -2 -2 -1 -2 -3 -4 -4 -4 -4 -3 -3 -3 -3 -5 -5 -5 -5 -5 -3 -2 -3 -4 -3 -3 -1 -2 -2 -3 -4 -1 -1 -1 -1 -1 -3 -2 -1 -1 -1 -1 -2 -3 -3 -6 -10 -11 -10 -11 -13 -17 -23 -25 -24
-1 -2 -2 -2 -2 -1 -2 -2 -3 -2 -3 -3 -4 -4 -4 -4 -4 -4 -3 -3 -3 -3 -4 -4 -2 -2 -2 -2 -4 -4 -1 -1 -0 -0 -0 -1 -3 -3 -3 -1 -1 -1 -2 -5 -2 -8 -9 -7 -6 -6 -9 -17 -23 -24
-2 -3 -4 -3 -4 -2 -2 -2 -3 -3 -4 -4 -4 -4 -4 -4 -4 -3 -3 -3 -3 -3 -4 -3 -3 -3 -3 -4 -4 -2 -1 -1 -1 -1 -1 -0 -1 -2 -3 -4 -2 -1 -2 -3 -9 -10 -8 -7 -7 -7 -6 -7 -14 -22
-4 -6 -4 -3 -2 -2 -2 -3 -3 -3 -5 -5 -5 -4 -4 -5 -4 -4 -4 -3 -3 -4 -3 -4 -4 -4 -4 -3 -1 -1 -1 -1 -1 -4 -6 -6 -7 -7 -5 -3 -2 -2 -4 -4 -5 -7 -9 -8 -7 -7 -6 -6 -7 -16
-1 -2 -2 -2 -2 -2 -4 -4 -4 -4 -6 -6 -5 -5 -5 -5 -5 -5 -5 -4 -4 -5 -5 -5 -5 -6 -5 -4 -3 -3 -3 -2 -2 -3 -6 -5 -6 -8 -10 -12 -10 -8 -5 -4 -4 -5 -6 -5 -5 -5 -4 -5 -5 -9
-1 -2 -2 -2 -2 -3 -5 -5 -5 -5 -6 -6 -5 -5 -6 -6 -6 -6 -6 -6 -5 -6 -6 -7 -7 -7 -7 -6 -6 -5 -4 -3 -3 -4 -6 -7 -10 -14 -15 -16 -17 -17 -12 -7 -7 -5 -5 -4 -4 -3 -3 -4 -5 -6
-2 -2 -2 -3 -4 -5 -7 -5 -6 -6 -8 -7 -6 -7 -7 -7 -7 -8 -8 -7 -7 -8 -8 -8 -7 -7 -7 -6 -5 -6 -7 -7 -7 -7 -13 -14 -14 -14 -13 -13 -12 -13 -13 -11 -7 -7 -7 -7 -6 -4 -4 -4 -4 -4
-2 -2 -3 -4 -5 -8 -7 -7 -7 -7 -7 -9 -11 -10 -12 -9 -9 -9 -11 -9 -8 -8 -7 -7 -7 -7 -6 -6 -6 -8 -7 -7 -13 -15 -16 -18 -16 -17 -16 -14 -13 -13 -12 -11 -9 -8 -7 -7 -6 -4 -4 -4 -5 -7
-2 -5 -4 -9 -7 -9 -10 -11 -12 -11 -11 -13 -12 -12 -13 -10 -13 -15 -11 -9 -8 -7 -7 -7 -8 -9 -12 -14 -12 -12 -15 -18 -20 -20 -19 -18 -19 -19 -20 -22 -22 -21 -15 -14 -12 -10 -7 -5 -5 -4 -5 -5 -8 -14
-8 -7 -7 -8 -9 -10 -10 -12 -11 -11 -12 -12 -12 -12 -11 -16 -14 -12 -12 -9 -8 -10 -12 -13 -10 -8 -8 -10 -17 -19 -18 -17 -15 -14 -14 -14 -14 -15 -16 -17 -19 -22 -20 -21 -19 -14 -12 -10 -8 -6 -6 -7 -11 -17
-9 -9 -8 -9 -9 -10 -11 -9 -9 -12 -13 -12 -14 -15 -14 -12 -13 -12 -11 -12 -10 -9 -9 -9 -8 -9 -9 -10 -10 -10 -15 -15 -14 -13 -13 -13 -13 -13 -15 -17 -18 -19 -21 -21 -21 -19 -17 -14 -12 -12 -11 -10 -11 -15
-9 -8 -10 -9 -9 -8 -12 -12 -13 -11 -11 -11 -12 -12 -11 -11 -12 -12 -17 -17 -17 -18 -18 -18 -17 -15 -15 -16 -17 -16 -14 -13 -14 -14 -13 -13 -15 -17 -18 -17 -16 -17 -18 -20 -20 -19 -18 -17 -16 -16 -15 -14 -12 -10
-8 -9 -9 -12 -9 -8 -8 -11 -11 -9 -12 -12 -11 -11 -12 -13 -13 -15 -17 -17 -19 -20 -21 -21 -20 -20 -19 -18 -18 -18 -17 -17 -16 -16 -17 -17 -17 -17 -17 -17 -16 -16 -17 -18 -17 -17 -16 -15 -15 -15 -14 -12 -11 -11
-9 -9 -8 -9 -12 -11 -9 -10 -11 -12 -12 -12 -12 -13 -14 -15 -17 -18 -19 -20 -20 -19 -18 -17 -16 -16 -15 -15 -15 -15 -15 -14 -13 -13 -14 -14 -14 -15 -15 -15 -15 -15 -15 -15 -15 -14 -14 -13 -13 -13 -13 -12 -12 -12
-9 -9 -10 -10 -11 -10 -10 -10 -11 -12 -12 -12 -12 -12 -13 -14 -17 -19 -18 -17 -16 -16 -15 -14 -14 -13 -12 -11 -12 -12 -12 -13 -14 -13 -12 -12 -13 -14 -14 -14 -14 -14 -15 -14 -14 -14 -14 -13 -13 -12 -12 -12 -12 -12
-9 -10 -11 -13 -11 -10 -11 -12 -11 -12 -12 -12 -12 -13 -14 -15 -17 -17 -15 -15 -15 -14 -14 -13 -11 -12 -14 -16 -16 -16 -16 -16 -15 -14 -13 -12 -12 -13 -13 -13 -13 -14 -14 -14 -14 -14 -13 -13 -12 -12 -12 -12 -12 -12
-11 -11 -12 -12 -11 -11 -13 -14 -13 -13 -13 -12 -12 -13 -13 -14 -15 -16 -14 -14 -12 -11 -12 -11 -11 -15 -16 -15 -15 -15 -14 -14 -14 -14 -14 -14 -14 -13 -13 -12 -11 -11 -12 -13 -13 -13 -13 -12 -12 -12 -12 -11 -12 -13

GFSWCAN_850_dewp_084.txt.gz
Dewpoint
1 2 3 8 8 9 8 6 2 1 -0 -3 -6 -13 -23 -23 -22 -20 -15 -13 -14 -7 -6 -6 -5 -4 -4 -4 -4 -4 -4 -3 -4 -1 -1 -1 0 2 3 2 3 3 4 4 3 4 3 -3 -1 -1 -3 0 1 2
1 2 5 8 9 9 8 5 3 1 1 -1 -3 -13 -22 -23 -22 -20 -15 -9 -10 -6 -5 -4 -4 -4 -4 -3 -4 -2 -4 -4 -4 -4 -3 -4 -3 -2 0 1 0 4 1 1 1 -1 -2 -2 -3 -3 -1 -0 1 2
2 2 6 8 9 9 8 4 3 1 1 -0 -4 -15 -22 -19 -19 -15 -11 -6 -6 -4 -3 -4 -5 -4 -4 -4 -3 -3 -3 -3 -3 -4 -4 -4 -2 -2 -2 1 0 3 1 1 0 -3 -2 -2 -3 -2 -2 -1 -0 1
1 2 6 8 8 8 6 5 3 2 2 1 -7 -18 -20 -9 -10 -9 -8 -4 -2 -5 -3 -4 -4 -3 -6 -5 -5 -4 -3 -4 -4 -4 -3 -4 -4 -3 -3 -2 -2 -3 -2 2 -0 -2 -3 -3 -2 -3 -3 -3 -3 0
2 2 4 7 8 7 6 4 4 3 3 -1 -11 -16 -10 -4 -3 -2 -2 -1 -3 -4 -3 -1 -4 -6 -7 -7 -7 -5 -3 -3 -3 -3 -3 -4 -5 -5 -6 -6 -6 -8 -5 -0 0 -2 -2 -3 -2 -3 -3 -3 -3 1
2 4 5 7 8 6 4 4 4 3 1 -2 -8 -3 -1 -0 -2 0 -1 -1 -3 -3 -3 -2 -4 -6 -6 -8 -7 -6 -4 -3 -3 -3 -4 -4 -4 -5 -5 -5 -8 -7 -6 -6 -4 -2 -1 -1 -1 -1 -1 -1 -2 1
2 4 6 7 8 5 4 4 3 3 2 -7 -1 -0 -0 0 -0 -1 -3 -3 -2 -3 -3 -3 -4 -7 -8 -4 -3 -4 -4 -3 -3 -3 -3 -4 -5 -4 -3 -5 -9 -6 -2 -4 -6 -2 0 0 0 1 1 -1 0 1
3 4 7 7 7 5 5 4 4 3 -3 1 1 1 -0 -0 -0 -1 -2 -1 -3 -3 -4 -3 -4 -7 -5 -3 -2 -3 -3 -3 -3 -4 -3 -4 -4 -3 -3 -7 -7 -8 -7 -5 -8 -7 0 0 0 1 1 0 1 1
4 5 8 7 6 5 4 4 2 1 1 2 0 0 -2 -1 -2 -2 -2 -2 -3 -3 -4 -5 -4 -3 -6 -4 -2 -2 -3 -3 -4 -4 -4 -4 -5 -3 -5 -4 -5 -7 -7 -7 -1 -0 1 1 1 1 1 1 1 1
5 6 7 6 5 4 3 2 1 2 1 0 -1 -10 -2 -1 -2 -2 -2 -3 -4 -2 -4 -5 -4 -4 -5 -3 -3 -3 -2 -3 -2 -4 -3 -3 -4 -6 -3 -1 -2 -2 -6 -5 -4 -3 1 1 1 1 1 1 1 1
6 6 5 5 4 3 3 2 1 1 0 -13 -9 -3 -2 -2 -3 -4 -4 -4 -4 -4 -4 -4 -5 -4 -4 -3 -3 -3 -2 -2 -1 -2 -2 -2 -2 -0 -1 -2 -1 -3 -7 -9 -7 -4 -0 0 0 1 1 1 1 0
5 5 5 4 4 3 2 -1 -0 -4 -17 -17 -6 -2 -2 -3 -4 -4 -4 -3 -4 -4 -4 -4 -4 -4 -3 -3 -3 -3 -1 -1 -1 -2 -1 -1 0 -1 -2 -1 -1 -1 -0 -0 0 1 0 1 1 1 0 0 0 -0
5 5 4 4 3 2 -0 -6 -10 -19 -14 -7 -5 -3 -5 -3 -3 -4 -3 -3 -3 -4 -5 -4 -1 -2 -2 -2 -3 -2 -0 -0 -1 -0 -1 0 -0 -1 -2 -1 -1 -1 -0 -0 0 0 -0 0 0 0 0 -0 -0 0
5 4 4 3 1 -3 -11 -17 -17 -10 -6 -7 -5 -3 -3 -3 -4 -4 -5 -4 -6 -5 -4 -1 -2 -2 -1 -1 -2 0 -2 1 2 1 1 -0 -1 -2 -2 -2 -1 -1 -1 -1 -1 -0 -0 -0 -0 -0 -0 -0 -0 -1
3 2 1 -1 -8 -17 -16 -12 -10 -6 -7 -5 -4 -3 -3 -5 -5 -6 -6 -3 -3 -3 -3 -3 -3 -2 -1 -0 -0 0 1 1 1 1 0 -1 -2 -1 -2 -2 -2 -2 -2 -1 -1 -1 -1 -1 -1 -2 -4 -7 -14 -17
1 -5 -11 -16 -14 -13 -11 -10 -4 -1 -7 -4 -6 -5 -5 -5 -5 -5 -5 -3 -3 -3 -3 -3 -2 -1 -2 -0 0 0 1 0 1 0 -1 -1 -3 -1 -2 -1 -2 -2 -2 -2 -2 -3 -3 -5 -6 -9 -14 -20 -23 -23
-3 -3 -6 -9 -9 -7 -6 -1 -2 -4 -3 -4 -3 -5 -5 -5 -5 -4 -4 -4 -3 -3 -2 -2 -2 -2 -2 -1 -1 -1 0 -0 -1 -1 -1 -1 -3 -3 -2 -1 -1 -2 -2 -2 -2 -9 -11 -11 -11 -12 -15 -21 -24 -24
-3 -4 -2 -0 -2 -2 -2 -3 -3 -3 -3 -4 -4 -4 -5 -4 -4 -4 -4 -3 -3 -4 -4 -3 -3 -2 -2 -2 -1 -2 -1 -1 -1 -1 -0 -1 -1 -2 -3 -2 -1 -1 -1 -1 -2 -7 -9 -9 -8 -7 -7 -9 -14 -21
-2 -2 -2 -2 -2 -3 -4 -4 -4 -3 -4 -4 -4 -4 -4 -4 -4 -3 -3 -3 -3 -4 -3 -3 -3 -3 -3 -4 -3 -3 -2 -2 -1 -1 -2 -3 -3 -4 -3 -2 -2 -2 -1 -1 -1 -2 -8 -9 -8 -8 -7 -7 -7 -9
-1 -2 -2 -2 -4 -3 -3 -3 -3 -4 -4 -5 -4 -4 -4 -5 -4 -3 -4 -3 -3 -3 -3 -3 -4 -5 -5 -5 -4 -3 -2 -1 -1 -2 -3 -5 -5 -6 -7 -8 -9 -7 -4 -1 -1 -1 -4 -6 -8 -7 -6 -6 -6 -6
-2 -2 -2 -2 -3 -3 -4 -4 -4 -5 -5 -5 -5 -5 -6 -6 -5 -5 -4 -4 -4 -4 -4 -5 -6 -6 -6 -5 -5 -3 -3 -3 -4 -4 -3 -3 -5 -6 -7 -11 -13 -15 -15 -11 -7 -5 -4 -4 -5 -5 -4 -4 -4 -5
-2 -2 -2 -3 -3 -4 -5 -5 -5 -5 -6 -6 -6 -6 -7 -7 -7 -6 -6 -5 -5 -6 -6 -6 -6 -6 -6 -6 -7 -7 -4 -4 -4 -4 -4 -5 -6 -11 -14 -13 -13 -13 -15 -16 -17 -14 -8 -7 -6 -5 -5 -4 -4 -4
-2 -2 -2 -2 -4 -5 -6 -5 -6 -6 -6 -6 -6 -7 -7 -7 -7 -8 -8 -7 -7 -8 -8 -8 -8 -8 -7 -7 -7 -6 -6 -5 -5 -5 -6 -10 -14 -14 -15 -14 -14 -13 -13 -11 -10 -9 -8 -7 -7 -7 -6 -5 -4 -4
-2 -2 -3 -5 -6 -8 -6 -7 -7 -8 -7 -8 -7 -7 -9 -9 -9 -9 -9 -9 -8 -8 -8 -8 -7 -8 -8 -8 -8 -8 -7 -6 -7 -7 -13 -18 -21 -20 -20 -20 -21 -22 -21 -15 -13 -12 -10 -8 -8 -7 -6 -5 -4 -4
-2 -5 -5 -9 -8 -8 -9 -9 -9 -9 -8 -10 -11 -11 -11 -11 -10 -10 -9 -9 -8 -8 -8 -8 -7 -7 -9 -14 -12 -9 -9 -8 -11 -19 -19 -16 -14 -13 -13 -13 -14 -17 -19 -20 -21 -21 -14 -11 -8 -6 -5 -5 -5 -6
-6 -7 -7 -8 -8 -9 -9 -8 -10 -10 -10 -11 -11 -13 -11 -12 -11 -9 -10 -9 -9 -10 -11 -12 -13 -12 -11 -11 -16 -18 -18 -19 -19 -16 -14 -14 -14 -13 -13 -13 -13 -17 -17 -17 -19 -21 -20 -19 -16 -12 -10 -8 -8 -9
-8 -9 -8 -8 -8 -9 -10 -10 -10 -10 -11 -10 -12 -13 -12 -11 -11 -12 -11 -11 -10 -9 -11 -11 -10 -9 -9 -9 -9 -9 -9 -12 -15 -16 -15 -14 -14 -14 -14 -14 -16 -18 -18 -18 -18 -19 -19 -19 -18 -17 -15 -13 -12 -12
-8 -8 -9 -9 -9 -9 -11 -12 -11 -10 -10 -11 -12 -12 -11 -10 -11 -12 -16 -14 -16 -16 -16 -16 -16 -15 -16 -17 -17 -16 -17 -16 -15 -14 -14 -14 -15 -16 -16 -17 -17 -17 -17 -17 -16 -16 -17 -18 -17 -17 -17 -16 -15 -14
-8 -9 -9 -11 -9 -9 -9 -10 -10 -9 -10 -11 -11 -11 -12 -13 -13 -14 -16 -16 -16 -18 -20 -20 -19 -19 -18 -17 -17 -16 -16 -16 -16 -16 -16 -15 -15 -14 -14 -14 -15 -15 -16 -16 -16 -16 -16 -16 -15 -15 -14 -14 -14 -13
-9 -9 -9 -11 -11 -10 -8 -8 -11 -11 -12 -12 -12 -13 -14 -14 -14 -14 -16 -17 -18 -18 -17 -16 -15 -15 -15 -14 -14 -13 -12 -13 -12 -13 -13 -13 -13 -13 -13 -13 -13 -13 -14 -14 -14 -14 -14 -14 -14 -16 -14 -13 -12 -12
-9 -9 -9 -9 -11 -10 -10 -10 -10 -11 -12 -12 -12 -12 -13 -14 -16 -17 -17 -16 -15 -15 -13 -13 -13 -13 -12 -12 -15 -17 -18 -17 -17 -16 -15 -15 -15 -15 -14 -13 -12 -12 -13 -13 -13 -13 -13 -14 -14 -14 -13 -12 -12 -12
-9 -10 -12 -13 -11 -10 -10 -11 -11 -11 -12 -12 -12 -13 -13 -15 -16 -16 -15 -14 -13 -11 -12 -13 -13 -13 -12 -12 -13 -16 -16 -16 -15 -15 -15 -14 -14 -14 -14 -14 -14 -13 -12 -12 -13 -13 -13 -13 -13 -13 -12 -12 -12 -12
-11 -12 -12 -11 -12 -12 -13 -13 -13 -13 -13 -12 -12 -13 -13 -15 -15 -16 -14 -14 -12 -11 -11 -11 -12 -12 -12 -12 -14 -14 -14 -13 -13 -13 -13 -13 -13 -13 -13 -13 -13 -13 -12 -12 -11 -11 -12 -13 -13 -12 -12 -12 -12 -11

GFSWCAN_850_dewp_090.txt.gz
Dewpoint
-2 -0 -2 -2 1 0 2 2 5 6 5 1 -3 -3 -6 -12 -18 -12 -14 -19 -17 -6 -6 -6 -6 -6 -5 -5 -4 -4 -3 -2 -3 -1 -2 -1 -1 -1 -0 -1 1 2 3 4 3 4 4 -2 -2 -1 -0 -1 -1 1
-2 -1 -2 0 -1 2 2 3 4 6 4 1 -2 -2 -12 -12 -16 -12 -17 -20 -16 -13 -5 -4 -6 -7 -5 -4 -4 -4 -4 -5 -3 -1 -1 -2 -1 -1 -2 0 -0 1 3 3 5 3 -2 -2 -2 -3 -2 -3 -1 2
-2 -1 -2 -4 -1 2 2 4 5 6 3 2 1 -5 -14 -14 -14 -17 -18 -18 -17 -9 -4 -3 -3 -6 -6 -5 -4 -3 -4 -4 -3 -3 -3 -3 -2 -3 -2 -2 -2 0 1 2 1 -1 -0 -1 -2 -1 -2 -2 -1 0
-1 -2 -4 -2 -1 1 1 3 5 4 2 -0 -5 -10 -12 -16 -16 -17 -18 -17 -12 -6 -3 -2 -4 -5 -5 -6 -5 -2 -3 -4 -3 -3 -3 -2 -2 -4 -2 -3 -3 -4 -5 -2 -0 -2 -1 -1 -1 -1 -0 -1 -2 -2
-3 -2 -2 -5 -3 1 1 3 5 3 1 -0 -5 -9 -13 -16 -17 -16 -15 -13 -12 -5 -2 -3 -3 -6 -8 -7 -6 -4 -3 -4 -3 -2 -3 -3 -5 -4 -5 -5 -4 -6 -7 -5 -4 -5 -2 -1 -3 -0 1 1 -0 -1
-5 -2 -2 -2 -1 2 1 3 5 3 2 -2 -5 -11 -14 -15 -13 -13 -10 -11 -12 -9 -5 -2 -3 -6 -6 -6 -6 -3 -3 -4 -4 -2 -3 -4 -5 -5 -2 -3 -7 -8 -9 -8 -5 -4 -4 -5 -1 0 0 1 1 0
-9 -3 -6 -0 1 1 3 3 4 3 2 -1 -5 -7 -12 -12 -13 -10 -5 -8 -12 -10 -6 -2 -3 -6 -5 -3 -3 -3 -3 -3 -2 -2 -3 -5 -4 -4 -2 -3 -7 -7 -5 -4 -5 -8 -5 -5 -3 -5 0 1 1 1
-9 -5 -4 1 2 3 3 3 3 2 1 -2 -6 -8 -7 -7 -7 -5 -5 -7 -8 -9 -4 -1 -3 -6 -5 -3 -2 -4 -3 -3 -3 -2 -2 -4 -4 -3 -3 -5 -6 -5 -1 -2 -4 -7 -6 -2 -1 -1 1 1 1 1
-6 -3 -3 1 2 3 3 3 3 1 -1 -2 -4 -4 -4 -5 -4 -3 -3 -4 -6 -5 -2 -2 -3 -2 -4 -3 -2 -3 -4 -2 -2 -3 -4 -3 -3 -2 -4 -5 -1 -1 -1 -1 -3 -4 -4 -3 -2 2 2 1 1 1
-6 -3 -1 2 3 2 2 3 2 0 -0 -0 -1 -4 -1 -2 -2 -4 -4 -6 -6 -5 -4 -2 -4 -3 -3 -3 -2 -2 -2 -1 -1 -3 -4 -3 -3 -5 -5 -2 -1 -2 -2 -2 -2 -2 -4 -4 -3 1 1 1 1 1
-4 -1 2 2 2 2 3 2 1 -0 -0 -1 -5 -2 -2 -2 -4 -3 -3 -3 -4 -3 -3 -4 -3 -3 -3 -3 -2 -4 -1 -1 -1 -1 -2 -1 -2 -1 -1 -1 -1 -1 -2 -2 -1 -3 -3 -1 0 1 1 1 1 1
-2 1 2 2 2 3 3 1 -0 0 -1 -3 -4 -2 -3 -4 -3 -2 -2 -3 -3 -3 -4 -3 -3 -3 -2 -3 -4 -3 -2 -1 -1 -2 -1 -2 -2 -1 -1 -2 -2 -1 -2 -1 -1 -1 -0 0 1 1 1 0 0 0
-0 1 2 2 2 3 1 0 0 -0 -5 -5 -2 -3 -3 -3 -2 -2 -2 -2 -2 -4 -4 -3 -3 -2 -2 -3 -4 -3 -1 -0 -1 -0 -2 -1 -1 -1 -2 -2 -2 -2 -1 -1 -1 -1 -1 -0 0 -0 0 -0 0 0
1 2 2 2 3 2 1 0 -0 -5 -4 -2 -3 -2 -1 -1 -1 -2 -2 -2 -3 -3 -3 -2 -2 -2 -2 -2 -2 -0 -2 -0 0 1 0 -0 -1 -1 -2 -2 -1 -2 -2 -1 -1 -1 -1 -1 -1 -1 -1 -1 -1 -1
2 2 2 3 2 1 0 -0 -3 -3 -2 -2 -2 -0 -1 -2 -3 -3 -3 -3 -3 -4 -2 -3 -3 -4 -1 -1 -1 -0 1 -0 -1 -1 0 -1 -1 -2 -2 -2 -2 -3 -3 -2 -2 -2 -2 -2 -1 -1 -2 -5 -13 -15
3 2 2 2 1 0 -0 -1 -2 -1 0 -4 -4 -3 -3 -3 -4 -3 -2 -2 -2 -2 -3 -3 -3 -2 -4 -3 -1 -1 -2 -2 -2 -0 -0 -1 -1 -2 -3 -2 -2 -2 -2 -2 -2 -3 -4 -9 -11 -12 -15 -19 -22 -24
2 1 1 1 -0 -1 -1 -2 -1 -0 -2 -2 -3 -3 -3 -3 -4 -3 -2 -2 -2 -3 -3 -3 -3 -4 -2 -2 -1 -2 -1 -2 -0 -1 -1 -1 -1 -2 -3 -3 -1 -2 -2 -2 -2 -2 -2 -3 -7 -9 -8 -8 -9 -13
-0 -1 0 -0 -0 -1 -1 -0 -2 -2 -3 -3 -3 -3 -3 -3 -3 -2 -3 -2 -3 -2 -3 -4 -3 -2 -2 -2 -3 -3 -0 -0 -1 -1 -1 -1 -2 -2 -3 -3 -3 -2 -2 -2 -2 -2 -2 -2 -5 -7 -8 -8 -7 -7
-2 -1 -1 -0 -1 -1 -1 -2 -3 -4 -4 -4 -3 -3 -3 -3 -3 -3 -2 -2 -2 -3 -4 -3 -4 -3 -3 -3 -1 -1 0 -1 -1 -2 -1 -2 -4 -6 -6 -6 -7 -7 -7 -6 -3 -2 -2 -1 -1 -1 -2 -6 -8 -8
-2 -1 -1 -1 -3 -3 -3 -3 -3 -3 -3 -4 -4 -4 -4 -4 -3 -3 -2 -3 -3 -4 -3 -4 -4 -4 -4 -4 -4 -3 -3 -3 -1 -2 -2 -3 -4 -5 -5 -5 -6 -7 -9 -12 -12 -12 -11 -10 -9 -5 -3 -4 -6 -7
-2 -1 -1 -1 -3 -4 -3 -4 -4 -5 -5 -5 -5 -5 -5 -4 -4 -4 -4 -3 -3 -3 -3 -4 -4 -5 -5 -6 -5 -6 -6 -5 -3 -3 -3 -3 -4 -4 -4 -6 -10 -14 -13 -13 -12 -12 -13 -14 -14 -12 -8 -5 -4 -4
-2 -2 -1 -1 -3 -3 -5 -5 -5 -5 -6 -5 -5 -5 -5 -5 -5 -5 -4 -3 -3 -5 -6 -6 -6 -6 -6 -5 -6 -6 -6 -6 -6 -4 -4 -3 -3 -5 -5 -11 -14 -16 -18 -18 -18 -15 -13 -11 -10 -10 -10 -10 -8 -7
-1 -1 -3 -3 -4 -5 -6 -5 -6 -5 -6 -6 -6 -7 -6 -6 -6 -5 -5 -5 -5 -5 -6 -6 -6 -6 -6 -6 -6 -7 -7 -7 -7 -7 -7 -5 -5 -6 -8 -16 -20 -18 -17 -17 -17 -19 -20 -20 -18 -12 -10 -8 -8 -7
-2 -3 -3 -4 -6 -6 -6 -7 -7 -6 -6 -6 -7 -8 -8 -8 -8 -8 -8 -7 -8 -8 -8 -9 -8 -8 -8 -8 -8 -8 -8 -8 -7 -7 -5 -4 -5 -9 -17 -16 -13 -13 -13 -13 -14 -16 -18 -18 -20 -21 -18 -13 -9 -7
-4 -5 -4 -7 -7 -7 -6 -6 -7 -7 -8 -8 -9 -10 -10 -9 -9 -9 -8 -8 -8 -9 -8 -8 -8 -8 -7 -11 -13 -10 -10 -11 -8 -8 -6 -6 -11 -19 -16 -13 -13 -14 -14 -13 -14 -16 -18 -18 -18 -18 -20 -20 -20 -17
-5 -7 -6 -7 -7 -6 -6 -6 -7 -7 -8 -9 -10 -11 -10 -10 -9 -9 -8 -9 -9 -9 -8 -8 -8 -9 -12 -14 -16 -17 -14 -11 -9 -9 -12 -18 -19 -16 -14 -14 -14 -14 -13 -14 -16 -17 -17 -17 -17 -17 -17 -18 -18 -18
-6 -6 -8 -8 -8 -9 -8 -9 -9 -8 -9 -9 -10 -11 -11 -10 -9 -9 -11 -11 -9 -10 -12 -12 -11 -9 -8 -8 -9 -9 -9 -12 -15 -18 -19 -18 -16 -15 -15 -14 -14 -14 -15 -16 -16 -16 -15 -15 -15 -16 -16 -16 -16 -16
-8 -8 -7 -9 -9 -9 -8 -9 -9 -9 -9 -9 -10 -10 -9 -9 -9 -12 -13 -12 -10 -11 -11 -11 -10 -10 -12 -14 -16 -18 -18 -18 -18 -18 -18 -18 -17 -16 -16 -15 -15 -14 -14 -13 -13 -13 -13 -13 -13 -14 -14 -15 -16 -15
-8 -8 -8 -9 -9 -9 -9 -9 -8 -9 -9 -9 -9 -10 -10 -12 -13 -13 -14 -15 -16 -17 -19 -20 -20 -19 -18 -17 -17 -16 -15 -15 -14 -14 -15 -16 -16 -16 -16 -16 -15 -15 -15 -15 -15 -15 -15 -15 -14 -14 -13 -13 -14 -14
-8 -8 -9 -9 -10 -8 -9 -9 -9 -9 -10 -10 -11 -13 -13 -13 -13 -13 -15 -16 -16 -17 -18 -18 -17 -15 -14 -14 -14 -14 -14 -14 -14 -14 -14 -14 -15 -15 -17 -16 -16 -15 -15 -15 -14 -15 -15 -15 -14 -13 -13 -13 -13 -13
-9 -8 -9 -9 -10 -10 -9 -10 -10 -10 -11 -12 -12 -13 -13 -14 -15 -15 -15 -15 -16 -17 -16 -14 -13 -13 -14 -14 -14 -14 -14 -14 -13 -13 -13 -14 -14 -14 -14 -14 -14 -14 -14 -14 -13 -13 -13 -13 -13 -13 -12 -12 -13 -12
-9 -11 -11 -12 -12 -11 -10 -11 -11 -11 -12 -12 -12 -12 -13 -13 -15 -17 -18 -17 -16 -13 -12 -12 -13 -13 -13 -13 -12 -12 -12 -13 -13 -14 -14 -14 -14 -14 -13 -13 -13 -13 -13 -13 -13 -12 -12 -12 -13 -13 -13 -12 -11 -12
-12 -13 -12 -11 -12 -12 -11 -12 -13 -13 -13 -13 -13 -13 -14 -15 -16 -17 -17 -15 -13 -12 -12 -13 -13 -12 -12 -12 -12 -13 -14 -14 -14 -14 -14 -13 -13 -13 -14 -14 -13 -13 -13 -13 -13 -13 -14 -14 -13 -13 -12 -12 -11 -11

GFSWCAN_850_dewp_093.txt.gz
Dewpoint
-2 -2 -2 -0 -1 -4 -0 -1 2 2 3 4 6 7 -5 -4 -8 -10 -9 -13 -10 -7 -5 -6 -6 -6 -5 -6 -4 -4 -3 -3 -3 -3 -3 -3 -2 -1 -1 -1 2 2 3 3 2 3 3 -2 -2 -2 -1 -1 -0 1
-4 -3 -4 -1 -1 -3 -1 1 2 3 3 4 5 -0 -4 -4 -7 -8 -9 -11 -10 -11 -4 -5 -5 -6 -6 -5 -4 -4 -4 -4 -3 -2 -4 -5 -2 -4 -3 -1 -3 0 2 3 5 3 2 2 -0 -1 -1 -2 -1 2
-3 -4 -3 -2 -1 -6 -3 2 2 2 4 4 4 -3 -3 -5 -7 -7 -9 -13 -11 -8 -4 -4 -5 -6 -6 -5 -5 -4 -4 -4 -3 -3 -4 -4 -4 -4 -3 -4 -3 -1 -0 1 -0 -1 -1 1 -1 0 1 0 -1 -0
-3 -5 -4 -3 -2 -5 1 3 2 3 4 4 2 0 -2 -6 -4 -6 -13 -13 -13 -9 -3 -3 -3 -5 -6 -5 -5 -4 -4 -4 -5 -4 -3 -5 -3 -4 -3 -4 -4 -4 -5 -3 -2 -5 -3 -0 -2 -0 0 1 0 -1
-2 -5 -4 -2 -3 -4 1 2 3 3 4 2 0 -2 -4 -2 -4 -9 -14 -14 -12 -7 -2 -3 -4 -6 -6 -5 -4 -4 -5 -4 -4 -3 -5 -4 -4 -5 -5 -5 -4 -6 -6 -5 -4 -5 -4 -4 -5 -4 -0 -1 1 1
-3 -4 -4 -5 -4 -6 2 1 2 3 2 2 2 1 1 -4 -9 -12 -10 -10 -10 -10 -8 -3 -5 -4 -5 -6 -4 -4 -4 -4 -4 -3 -3 -4 -5 -5 -4 -3 -6 -7 -7 -4 -5 -4 -5 -7 -6 -1 -2 0 1 2
-3 -3 -4 -5 -6 -3 2 2 2 3 3 2 0 -3 -5 -8 -10 -11 -7 -10 -10 -12 -10 -4 -4 -5 -3 -3 -3 -4 -3 -4 -4 -3 -4 -4 -5 -5 -6 -3 -6 -6 -5 -4 -4 -3 -3 -5 -5 -3 -2 -0 2 1
-3 -3 -6 -7 -2 2 2 2 2 3 2 -0 -2 -4 -6 -6 -7 -7 -7 -8 -12 -13 -6 -4 -4 -6 -3 -3 -2 -4 -3 -4 -4 -2 -3 -4 -4 -4 -2 -5 -6 -4 -2 -2 -2 -2 -2 -4 -3 -1 -0 -1 2 1
-3 -4 -8 -8 1 2 2 2 2 2 1 -1 -2 -3 -5 -7 -6 -5 -8 -8 -11 -11 -3 -5 -5 -5 -3 -3 -2 -3 -4 -3 -3 -4 -3 -4 -3 -2 -5 -5 -1 -1 -1 -2 -3 -3 -4 -4 -4 -5 1 1 2 1
-3 -5 -11 -1 1 2 2 1 2 2 0 -1 -2 -7 -4 -4 -4 -8 -10 -9 -9 -7 -4 -3 -4 -4 -3 -3 -2 -2 -4 -2 -4 -3 -4 -3 -3 -6 -5 -2 -1 -1 -2 -3 -2 -3 -3 -4 -4 -3 0 1 1 2
-4 -12 -9 1 1 2 2 1 2 1 -1 -3 -3 -2 -2 -3 -8 -5 -4 -4 -4 -4 -4 -4 -4 -3 -3 -2 -2 -3 -2 -2 -2 -2 -3 -1 -2 -4 -2 -1 -2 -2 -1 -2 -2 -1 -1 -1 -0 0 1 1 1 1
-9 -11 -8 1 2 2 1 1 0 -0 -0 -0 -2 -2 -3 -3 -4 -3 -2 -3 -4 -3 -4 -4 -3 -3 -2 -4 -4 -3 -2 -2 -3 -2 -2 -2 -3 -2 -2 -2 -2 -2 -2 -2 -2 -2 -1 -0 -0 0 0 0 -0 -0
-9 -7 1 1 1 1 1 1 0 0 -1 -3 -2 -1 -2 -3 -2 -2 -2 -3 -3 -3 -3 -2 -3 -3 -3 -4 -3 -3 -1 -2 -2 -1 -3 -3 -2 -2 -2 -2 -2 -2 -2 -1 -1 -1 -1 -1 -1 -1 -0 -0 -0 -0
-9 0 0 2 1 1 0 0 0 -0 -0 -0 -2 -2 -1 -1 -1 -2 -2 -3 -3 -4 -3 -3 -2 -3 -3 -2 -2 -4 -3 -0 -0 -1 -3 -4 -1 -2 -2 -2 -2 -3 -2 -2 -2 -1 -1 -1 -1 -1 -1 -1 -1 -1
-0 -0 2 1 1 0 -0 0 0 1 1 -0 -1 -1 -1 -3 -2 -2 -3 -3 -3 -3 -3 -3 -4 -4 -2 -1 -2 -1 0 -1 -2 -2 -4 -1 -1 -2 -2 -2 -2 -3 -3 -2 -2 -2 -2 -2 -2 -2 -3 -6 -12 -17
0 2 1 1 0 -0 -1 -0 0 1 -0 -2 -2 -3 -3 -4 -3 -2 -3 -2 -2 -3 -3 -4 -3 -3 -3 -3 -2 -2 -3 -4 -4 -5 -1 -1 -1 -2 -2 -2 -2 -2 -2 -3 -3 -3 -4 -10 -11 -12 -14 -16 -18 -20
2 1 1 0 -0 -1 -1 0 1 -1 -2 -3 -3 -3 -3 -3 -4 -2 -3 -2 -2 -4 -5 -5 -6 -5 -4 -3 -2 -4 -3 -5 -1 -1 -1 -2 -2 -2 -2 -3 -2 -2 -2 -2 -3 -2 -3 -3 -3 -5 -8 -7 -7 -7
1 1 0 -0 -1 -1 -0 0 -1 -3 -3 -3 -3 -3 -3 -3 -3 -2 -2 -2 -3 -3 -4 -6 -3 -3 -3 -3 -3 -5 -0 -1 -0 -1 -2 -2 -2 -2 -3 -4 -4 -3 -2 -2 -2 -2 -2 -2 -1 -2 -4 -7 -8 -7
0 -0 -0 -0 -1 -1 -0 -2 -3 -5 -4 -3 -3 -3 -3 -3 -2 -2 -2 -3 -3 -4 -3 -4 -7 -7 -4 -4 -4 -1 -1 -0 -1 -3 -2 -2 -3 -4 -5 -6 -6 -6 -6 -7 -7 -6 -4 -3 -2 -2 -2 -2 -1 -3
-1 -1 -1 -0 -0 -0 -3 -3 -3 -4 -4 -4 -4 -4 -3 -3 -2 -2 -3 -3 -3 -5 -4 -5 -5 -5 -5 -4 -3 -3 -1 -2 -2 -2 -3 -4 -3 -4 -5 -5 -5 -6 -8 -12 -13 -13 -13 -13 -13 -12 -10 -7 -5 -4
-1 -1 -1 -0 -1 -3 -4 -4 -5 -5 -4 -5 -5 -5 -4 -3 -3 -3 -3 -3 -4 -4 -6 -4 -5 -6 -5 -5 -5 -6 -6 -6 -5 -4 -3 -3 -4 -4 -4 -4 -5 -12 -13 -13 -14 -13 -12 -11 -11 -11 -13 -14 -13 -10
-2 -1 -0 -1 -3 -4 -5 -5 -5 -5 -5 -5 -5 -5 -5 -5 -4 -4 -4 -3 -4 -4 -5 -6 -6 -6 -6 -6 -6 -6 -6 -6 -6 -5 -4 -3 -3 -3 -4 -5 -8 -16 -20 -20 -19 -19 -19 -20 -19 -16 -11 -9 -8 -8
-1 -1 -1 -2 -3 -4 -5 -5 -5 -5 -5 -6 -6 -7 -7 -6 -6 -5 -5 -5 -5 -5 -5 -5 -5 -5 -5 -5 -6 -6 -6 -7 -7 -7 -7 -6 -6 -5 -4 -5 -14 -18 -15 -14 -14 -14 -16 -18 -19 -19 -19 -15 -9 -7
-1 -2 -3 -4 -5 -7 -6 -7 -6 -6 -6 -6 -8 -7 -7 -9 -7 -7 -11 -8 -7 -7 -7 -7 -7 -7 -8 -8 -8 -8 -8 -8 -8 -8 -8 -7 -5 -5 -5 -11 -17 -13 -13 -14 -14 -13 -14 -17 -19 -19 -18 -19 -19 -15
-3 -5 -4 -7 -6 -7 -7 -7 -7 -8 -7 -8 -9 -11 -11 -9 -14 -13 -12 -9 -8 -8 -9 -9 -9 -8 -8 -12 -12 -9 -10 -11 -9 -8 -8 -6 -6 -8 -14 -17 -14 -13 -14 -14 -14 -13 -15 -17 -17 -17 -17 -17 -17 -18
-6 -7 -7 -9 -8 -7 -7 -7 -8 -8 -9 -10 -12 -11 -10 -14 -11 -10 -11 -9 -9 -9 -8 -8 -8 -8 -13 -17 -18 -17 -12 -10 -9 -8 -7 -7 -10 -16 -18 -16 -14 -14 -14 -14 -14 -15 -17 -17 -16 -15 -15 -15 -16 -16
-6 -8 -8 -8 -8 -8 -8 -8 -8 -8 -10 -10 -12 -13 -13 -10 -10 -10 -9 -10 -9 -10 -9 -9 -11 -11 -9 -8 -9 -9 -9 -11 -13 -17 -18 -19 -19 -18 -16 -15 -15 -14 -14 -15 -15 -15 -14 -13 -13 -13 -13 -14 -14 -14
-7 -8 -7 -9 -8 -9 -8 -9 -9 -9 -9 -9 -10 -11 -10 -9 -9 -11 -12 -11 -9 -12 -11 -10 -9 -9 -9 -10 -12 -16 -18 -18 -18 -17 -17 -17 -16 -16 -16 -15 -15 -14 -14 -14 -14 -14 -15 -15 -16 -16 -16 -15 -15 -14
-8 -8 -7 -9 -8 -9 -9 -10 -10 -9 -9 -9 -10 -10 -11 -11 -13 -13 -12 -11 -11 -13 -15 -15 -16 -18 -19 -18 -17 -17 -16 -15 -15 -15 -15 -15 -15 -15 -15 -16 -16 -16 -17 -17 -16 -15 -15 -14 -14 -15 -15 -15 -16 -15
-8 -8 -9 -10 -10 -9 -10 -9 -9 -10 -9 -9 -12 -12 -13 -13 -13 -14 -14 -15 -16 -17 -18 -19 -19 -18 -16 -15 -15 -15 -15 -15 -15 -15 -14 -14 -14 -13 -13 -14 -14 -14 -14 -14 -14 -14 -14 -13 -13 -13 -13 -13 -13 -13
-8 -8 -9 -10 -12 -11 -10 -10 -10 -10 -11 -12 -13 -14 -14 -14 -14 -14 -14 -16 -16 -16 -17 -18 -16 -14 -14 -14 -15 -15 -14 -14 -13 -13 -13 -13 -14 -14 -14 -14 -14 -13 -13 -13 -13 -13 -13 -13 -13 -13 -13 -13 -13 -13
-9 -10 -11 -11 -12 -11 -11 -11 -11 -12 -12 -12 -12 -12 -12 -13 -14 -16 -17 -15 -15 -16 -16 -14 -14 -13 -14 -14 -13 -13 -13 -12 -13 -14 -14 -14 -14 -13 -13 -13 -14 -14 -14 -13 -13 -13 -13 -13 -14 -14 -14 -13 -13 -13
-12 -12 -11 -11 -12 -12 -11 -12 -13 -13 -13 -13 -13 -14 -14 -15 -17 -17 -18 -17 -15 -13 -13 -13 -13 -13 -12 -12 -13 -12 -13 -13 -14 -14 -13 -13 -14 -14 -14 -14 -13 -13 -13 -14 -14 -14 -14 -14 -14 -13 -13 -13 -12 -12

GFSWCAN_850_dewp_096.txt.gz
Dewpoint
-2 -1 -1 -3 -3 -2 -1 -1 -3 -1 3 3 5 5 5 -0 -3 -4 -9 -11 -9 -7 -5 -5 -6 -7 -6 -7 -4 -4 -4 -4 -3 -3 -4 -3 -2 -2 -1 -2 1 1 1 1 2 2 3 2 0 1 -0 -1 -1 1
-2 -1 -2 -3 -3 -2 -2 -1 -4 -0 3 3 5 5 5 -0 -3 -3 -6 -7 -11 -11 -3 -4 -5 -6 -8 -7 -5 -5 -5 -4 -3 -3 -5 -5 -2 -6 -4 -2 -4 2 1 2 2 0 2 1 1 -0 1 1 1 0
-2 -1 -2 -3 -3 -3 -2 -2 -9 1 3 4 4 4 4 -1 -3 -5 -6 -6 -9 -6 -4 -6 -5 -5 -5 -5 -6 -5 -4 -4 -3 -3 -5 -5 -4 -4 -4 -4 -3 -3 -1 0 0 -2 -3 0 1 1 1 -1 1 1
-2 -2 -2 -2 -3 -4 -3 -5 -3 2 3 4 3 4 4 -0 -3 -5 -6 -5 -10 -9 -4 -3 -3 -5 -5 -5 -6 -6 -6 -4 -4 -4 -4 -6 -3 -4 -3 -4 -4 -5 -5 -4 -3 -5 -2 -3 -5 -5 -2 -1 0 1
-1 -2 -2 -2 -3 -4 -5 -4 1 2 4 4 4 3 -1 -2 -3 -5 -6 -6 -11 -8 -3 -3 -6 -5 -3 -4 -5 -4 -5 -5 -5 -5 -5 -4 -4 -5 -5 -5 -4 -6 -5 -5 -4 -5 -5 -6 -6 -8 -4 -2 1 1
-1 -2 -1 -2 -3 -6 -6 1 3 3 3 3 3 0 -1 -3 -5 -2 -5 -8 -9 -7 -7 -3 -5 -4 -4 -3 -4 -5 -5 -5 -4 -4 -4 -4 -5 -5 -5 -4 -6 -6 -6 -3 -4 -2 -2 -3 -3 -4 -3 -3 -3 1
-1 -2 -1 -2 -5 -5 -5 1 3 3 3 3 2 0 -3 -3 -1 -4 -10 -9 -9 -9 -9 -5 -5 -3 -3 -4 -4 -4 -4 -4 -4 -3 -4 -4 -5 -5 -6 -3 -6 -6 -6 -3 -1 -1 -1 -3 -3 -5 -6 -2 -1 1
-1 -1 -2 -3 -5 -5 -1 1 2 2 2 2 1 -1 -0 0 -1 -6 -6 -5 -7 -11 -8 -5 -5 -4 -3 -4 -3 -4 -4 -5 -5 -3 -3 -4 -4 -4 -3 -5 -6 -5 -1 -2 -3 -3 -3 -3 -4 -3 -4 0 1 0
-1 -1 -2 -3 -6 -7 -0 1 2 2 1 1 0 0 -1 -1 -5 -5 -5 -5 -9 -11 -5 -6 -6 -6 -3 -2 -3 -3 -4 -4 -3 -5 -3 -5 -4 -3 -5 -6 -4 -2 -1 -1 -3 -3 -3 -3 -4 -4 -3 -1 1 2
-2 -2 -3 -4 -7 -2 1 2 1 0 1 -0 -1 -2 -3 -3 -4 -7 -9 -11 -12 -9 -4 -4 -5 -3 -4 -3 -3 -4 -4 -3 -6 -4 -4 -3 -3 -5 -6 -5 -2 -2 -1 -2 -3 -2 -3 -3 -3 -3 -0 1 1 1
-2 -2 -4 -9 -5 0 2 1 0 0 0 -1 -2 -2 -2 -4 -5 -6 -7 -6 -6 -5 -4 -4 -5 -3 -4 -4 -4 -3 -5 -4 -3 -3 -4 -2 -3 -5 -3 -2 -2 -2 -2 -2 -3 -2 -2 -1 -1 -0 0 1 1 1
-2 -4 -8 -9 -1 1 1 0 1 1 -1 -3 -3 -2 -3 -3 -3 -5 -5 -5 -5 -5 -4 -4 -3 -3 -3 -4 -4 -3 -4 -3 -2 -3 -2 -2 -4 -3 -2 -2 -2 -2 -2 -2 -2 -2 -2 -1 -1 -1 -1 -0 -0 0
-4 -5 -7 -2 1 1 1 1 1 -1 -2 -2 -3 -1 -2 -3 -4 -4 -3 -5 -5 -4 -3 -2 -3 -3 -4 -4 -4 -2 -2 -4 -3 -1 -3 -4 -5 -2 -2 -2 -2 -2 -2 -2 -1 -1 -2 -1 -1 -1 -1 -1 -1 -1
-5 -7 -1 1 1 0 1 0 -0 -1 -1 0 -1 -2 -2 -3 -3 -3 -3 -4 -5 -4 -3 -4 -3 -3 -4 -3 -4 -3 -3 -1 -1 -1 -4 -5 -4 -2 -2 -2 -2 -3 -3 -2 -2 -2 -1 -1 -1 -1 -1 -2 -2 -2
-7 -4 -1 1 0 -0 -0 -0 -0 1 1 -1 -3 -2 -2 -3 -2 -2 -3 -3 -3 -3 -4 -3 -4 -4 -5 -4 -4 -2 -0 -2 -3 -3 -5 -2 -2 -2 -2 -2 -2 -2 -3 -3 -3 -3 -2 -2 -2 -2 -4 -7 -15 -15
-5 -1 0 -0 -0 -0 -0 -0 1 1 -0 -2 -3 -3 -3 -3 -3 -2 -3 -2 -3 -4 -4 -5 -6 -6 -5 -5 -3 -4 -4 -5 -5 -6 -1 -1 -2 -2 -2 -3 -2 -2 -2 -3 -3 -3 -4 -8 -11 -12 -11 -11 -13 -16
-1 0 0 -0 -1 -1 -0 0 2 -1 -2 -3 -3 -4 -3 -3 -3 -2 -2 -3 -3 -5 -5 -6 -7 -6 -6 -6 -4 -4 -5 -6 -3 -1 -1 -2 -2 -2 -2 -3 -2 -2 -3 -2 -2 -3 -3 -4 -3 -3 -3 -3 -3 -3
-1 0 -0 -1 -1 -0 1 1 -1 -3 -3 -3 -3 -3 -3 -2 -2 -2 -2 -3 -4 -4 -5 -6 -4 -4 -6 -5 -4 -5 -2 -1 -1 -1 -2 -2 -2 -2 -2 -3 -4 -4 -3 -3 -2 -2 -2 -2 -2 -2 -2 -2 -2 -2
-0 -1 -1 -1 -0 0 -0 -2 -3 -5 -4 -3 -3 -3 -3 -2 -2 -2 -2 -3 -4 -5 -4 -4 -8 -7 -4 -5 -6 -3 -1 -1 -1 -2 -2 -2 -2 -3 -4 -5 -6 -5 -6 -7 -8 -9 -10 -10 -9 -7 -5 -3 -2 -2
-1 -1 -1 0 0 -0 -3 -3 -3 -4 -4 -4 -3 -3 -3 -3 -2 -2 -2 -3 -4 -5 -6 -7 -7 -6 -5 -4 -3 -3 -2 -1 -2 -3 -3 -2 -2 -3 -4 -5 -5 -5 -6 -10 -13 -13 -13 -12 -12 -12 -12 -12 -11 -9
-1 -1 -0 -0 -1 -3 -4 -4 -5 -5 -4 -5 -4 -4 -3 -2 -2 -2 -2 -3 -4 -4 -8 -5 -6 -6 -5 -5 -5 -4 -2 -3 -4 -4 -4 -3 -3 -3 -4 -4 -4 -5 -10 -13 -17 -18 -17 -18 -18 -16 -12 -10 -10 -12
-2 -1 -1 -0 -3 -4 -5 -5 -5 -5 -5 -5 -5 -4 -4 -4 -4 -4 -3 -3 -3 -4 -5 -6 -6 -5 -5 -6 -6 -6 -6 -6 -6 -6 -5 -4 -4 -4 -4 -4 -4 -7 -15 -21 -18 -16 -16 -17 -18 -19 -19 -18 -14 -9
-1 -0 -0 -1 -3 -4 -5 -5 -5 -5 -5 -6 -6 -6 -6 -6 -5 -4 -4 -4 -5 -5 -5 -5 -6 -6 -6 -6 -6 -6 -6 -6 -6 -6 -6 -6 -5 -4 -3 -4 -4 -8 -20 -16 -13 -13 -13 -13 -15 -18 -19 -19 -19 -19
-0 -1 -3 -4 -5 -6 -6 -6 -6 -6 -6 -6 -6 -7 -8 -8 -7 -7 -8 -7 -6 -6 -5 -5 -5 -5 -6 -6 -7 -8 -8 -8 -8 -8 -8 -8 -7 -7 -6 -5 -5 -13 -15 -13 -14 -14 -14 -14 -14 -17 -18 -18 -17 -18
-2 -5 -4 -6 -6 -6 -6 -6 -6 -6 -6 -7 -8 -9 -10 -9 -11 -10 -10 -9 -8 -8 -8 -8 -8 -8 -8 -9 -11 -10 -10 -10 -10 -8 -8 -8 -5 -5 -6 -6 -13 -16 -14 -13 -14 -14 -14 -14 -15 -17 -17 -16 -15 -15
-5 -7 -6 -7 -7 -6 -6 -5 -6 -7 -7 -8 -10 -11 -10 -12 -11 -9 -10 -9 -8 -9 -9 -9 -8 -8 -10 -15 -15 -11 -10 -10 -8 -8 -8 -7 -7 -7 -11 -16 -16 -16 -14 -14 -14 -14 -14 -15 -16 -15 -14 -14 -13 -13
-5 -7 -8 -8 -8 -8 -8 -8 -8 -8 -8 -8 -10 -11 -11 -9 -8 -10 -8 -9 -9 -8 -8 -8 -8 -12 -16 -15 -12 -11 -11 -12 -15 -17 -17 -17 -18 -18 -17 -17 -16 -16 -15 -15 -15 -15 -15 -15 -15 -16 -17 -18 -17 -16
-7 -8 -7 -8 -8 -8 -8 -8 -7 -7 -8 -10 -10 -10 -8 -8 -8 -10 -11 -9 -10 -9 -8 -11 -11 -9 -8 -9 -10 -13 -16 -18 -18 -18 -17 -16 -16 -16 -15 -15 -15 -15 -15 -15 -16 -16 -17 -16 -16 -15 -15 -15 -16 -16
-8 -8 -7 -8 -8 -8 -9 -8 -8 -9 -9 -10 -9 -9 -10 -11 -12 -12 -11 -10 -11 -12 -11 -9 -9 -9 -11 -16 -18 -17 -16 -15 -15 -15 -16 -16 -16 -15 -15 -14 -14 -14 -13 -14 -14 -14 -14 -14 -14 -14 -13 -13 -13 -13
-7 -7 -7 -9 -8 -8 -10 -10 -10 -10 -9 -10 -11 -12 -13 -13 -13 -12 -11 -11 -12 -12 -14 -16 -19 -19 -18 -17 -15 -15 -15 -15 -16 -15 -15 -14 -13 -13 -13 -13 -14 -14 -14 -14 -13 -13 -13 -13 -13 -13 -13 -13 -13 -13
-7 -7 -9 -10 -11 -11 -11 -11 -11 -11 -12 -12 -13 -13 -13 -13 -13 -14 -14 -14 -16 -17 -18 -19 -19 -17 -15 -14 -15 -15 -15 -14 -14 -13 -13 -13 -13 -14 -14 -14 -13 -13 -13 -14 -14 -14 -14 -14 -14 -13 -14 -14 -14 -14
-8 -10 -10 -10 -12 -11 -11 -11 -11 -11 -11 -12 -12 -13 -13 -14 -15 -14 -14 -15 -16 -16 -17 -17 -15 -14 -14 -14 -15 -14 -13 -13 -12 -13 -14 -14 -14 -13 -13 -14 -15 -15 -14 -14 -14 -14 -14 -14 -14 -14 -14 -14 -13 -13
-11 -11 -11 -11 -11 -12 -11 -12 -13 -13 -13 -13 -13 -13 -13 -14 -15 -15 -16 -16 -15 -15 -15 -14 -13 -13 -13 -13 -13 -13 -13 -13 -14 -14 -13 -13 -14 -15 -15 -15 -15 -15 -14 -14 -14 -14 -14 -14 -14 -14 -13 -13 -13 -13

GFSWCAN_850_dewp_099.txt.gz
Dewpoint
-4 -3 -1 -1 -2 -1 -1 -3 -4 -1 -3 1 3 4 4 4 2 -0 -5 -5 -8 -5 -3 -5 -6 -7 -7 -7 -5 -5 -5 -4 -3 -3 -4 -3 -2 -2 -1 -2 -1 -0 0 0 0 1 1 2 -0 0 1 0 1 1
-3 -3 -1 -1 -2 -1 -2 -4 -5 -2 -4 1 3 3 4 4 1 -7 -8 -8 -9 -8 -3 -4 -5 -6 -6 -6 -6 -5 -6 -4 -4 -3 -5 -6 -2 -6 -4 -3 -4 1 -0 1 -1 -1 0 1 -0 0 1 -0 -0 1
-2 -3 -2 -1 -1 -0 -2 -3 -6 -2 -6 1 3 3 4 4 -1 -3 -9 -9 -12 -5 -4 -6 -5 -4 -4 -5 -6 -6 -5 -4 -3 -4 -5 -5 -4 -5 -4 -4 -3 -4 -2 0 -0 -2 -3 -2 1 -2 -3 1 1 1
-2 -2 -2 -2 -2 -1 -2 -3 -8 -2 -4 2 3 2 4 3 -0 -1 -4 -9 -12 -8 -4 -3 -4 -5 -5 -6 -5 -7 -7 -5 -4 -5 -5 -5 -3 -5 -4 -4 -4 -5 -5 -4 -4 -5 -1 -1 -5 -7 -7 -4 -2 1
-1 -2 -1 -1 -1 -1 -2 -4 -11 -5 -1 2 4 2 4 3 1 -1 -3 -4 -7 -7 -3 -5 -5 -3 -4 -4 -5 -5 -5 -5 -6 -5 -6 -5 -4 -5 -5 -5 -4 -6 -5 -5 -5 -6 -5 -5 -6 -5 -4 -4 -2 -1
-3 -2 -2 -1 -1 -1 -2 -6 -12 -5 -0 3 4 4 3 2 -0 -4 -3 -4 -6 -8 -7 -4 -4 -3 -4 -4 -5 -5 -5 -5 -4 -4 -4 -4 -5 -6 -5 -4 -6 -6 -6 -5 -4 -3 -2 -2 -3 -3 -4 -4 -5 -4
-2 -2 -2 -1 -1 -2 -2 -10 -9 -1 2 3 4 3 3 1 -2 -4 -4 -5 -4 -8 -10 -5 -4 -3 -4 -5 -4 -4 -5 -4 -5 -4 -4 -4 -5 -5 -6 -3 -7 -6 -5 -5 -2 -2 -2 -4 -3 -4 -3 -4 -2 -2
-1 -1 -1 -1 -2 -2 -3 -10 -2 2 3 3 3 2 1 -0 -1 -4 -5 -6 -10 -9 -9 -5 -4 -3 -4 -4 -4 -4 -5 -5 -5 -3 -3 -5 -4 -4 -3 -5 -6 -6 -3 -1 -1 -3 -4 -3 -4 -5 -4 -4 -2 -0
-0 -0 -1 -1 -3 -2 -4 -1 3 3 3 2 1 0 -0 -1 -2 -3 -3 -5 -8 -10 -6 -7 -4 -5 -3 -2 -4 -4 -4 -6 -4 -5 -4 -5 -4 -4 -5 -6 -6 -4 -3 -2 -1 -3 -3 -2 -3 -3 -3 -2 -0 0
0 -1 -1 -2 -3 -2 -6 0 2 2 2 1 -0 -0 -0 -0 -2 -3 -4 -6 -9 -10 -7 -6 -5 -3 -3 -3 -3 -4 -3 -4 -6 -5 -4 -4 -4 -6 -6 -6 -5 -4 -2 -2 -1 -3 -3 -2 -2 -1 -0 -0 0 1
-1 -1 -1 -3 -2 -4 -1 1 2 1 0 -0 -1 -2 -1 -1 -1 -5 -6 -7 -7 -5 -4 -5 -4 -4 -4 -5 -4 -4 -6 -5 -3 -5 -5 -6 -4 -5 -4 -5 -3 -2 -2 -2 -2 -3 -3 -2 -2 -1 -0 -0 -0 -0
-1 -1 -2 -2 -3 -4 0 1 1 0 0 -0 -2 -2 -1 -2 -2 -3 -4 -5 -5 -6 -4 -4 -4 -3 -3 -5 -4 -3 -6 -5 -5 -4 -3 -4 -5 -5 -3 -2 -2 -3 -3 -3 -2 -2 -3 -2 -1 -1 -1 -1 -1 -1
-1 -2 -2 -4 -5 -1 0 1 0 1 -2 -5 -4 -3 -2 -2 -3 -3 -3 -5 -5 -4 -3 -3 -3 -4 -4 -5 -4 -4 -3 -4 -4 -2 -3 -5 -6 -4 -2 -2 -2 -2 -3 -3 -2 -1 -2 -2 -1 -1 -1 -1 -1 -1
-2 -3 -5 -4 0 0 0 0 0 -3 -3 -0 -1 -1 -2 -4 -3 -4 -3 -4 -5 -4 -3 -4 -3 -4 -4 -5 -4 -6 -4 -2 -1 -3 -4 -6 -6 -3 -2 -2 -2 -3 -3 -3 -3 -2 -2 -2 -2 -2 -2 -2 -2 -2
-4 -4 -4 -0 -0 -0 -0 -0 -1 -0 1 -1 -2 -1 -2 -4 -2 -3 -4 -4 -3 -3 -4 -4 -4 -4 -4 -5 -5 -3 -1 -2 -3 -4 -5 -5 -5 -3 -2 -2 -2 -3 -3 -3 -3 -3 -2 -2 -3 -4 -8 -13 -17 -19
-7 -4 -3 -1 -0 -0 -0 -0 1 1 -0 -2 -3 -2 -3 -2 -2 -3 -3 -3 -3 -4 -6 -5 -5 -7 -6 -5 -4 -3 -5 -5 -5 -6 -4 -3 -2 -2 -2 -3 -2 -2 -3 -3 -3 -3 -3 -5 -10 -11 -10 -9 -9 -10
-5 -1 -0 -0 -1 -1 -0 0 1 -1 -2 -3 -3 -3 -3 -3 -3 -3 -3 -3 -4 -6 -5 -7 -7 -6 -6 -7 -5 -6 -6 -6 -7 -4 -1 -2 -3 -3 -3 -3 -3 -2 -2 -3 -3 -3 -3 -5 -5 -3 -3 -3 -3 -2
-2 -0 0 -0 -1 -1 -0 0 -1 -3 -4 -3 -3 -3 -2 -2 -2 -3 -3 -3 -5 -5 -6 -7 -6 -6 -6 -6 -5 -6 -4 -1 -1 -1 -1 -2 -3 -3 -3 -3 -4 -4 -3 -3 -3 -3 -3 -3 -3 -2 -3 -3 -3 -3
-2 -1 -1 -1 -0 -0 -1 -2 -3 -5 -4 -3 -3 -3 -2 -2 -2 -3 -3 -4 -5 -6 -5 -5 -8 -7 -5 -6 -7 -5 -2 -2 -1 -1 -2 -2 -3 -3 -4 -5 -5 -5 -5 -6 -7 -8 -10 -11 -11 -11 -12 -11 -10 -8
-1 -1 -1 -0 0 -0 -3 -3 -3 -4 -4 -4 -3 -3 -3 -2 -2 -2 -3 -4 -5 -6 -6 -8 -7 -7 -6 -5 -4 -4 -4 -3 -2 -2 -2 -2 -2 -3 -4 -5 -6 -5 -5 -6 -11 -13 -13 -12 -12 -12 -11 -11 -10 -11
-1 -1 -0 -0 -0 -3 -4 -4 -5 -4 -4 -4 -4 -3 -3 -2 -2 -3 -3 -4 -4 -5 -7 -6 -7 -6 -4 -4 -4 -3 -2 -2 -2 -3 -4 -4 -3 -3 -3 -4 -4 -5 -5 -8 -13 -17 -19 -19 -19 -19 -19 -19 -17 -12
-2 -1 -1 -0 -2 -3 -5 -5 -5 -5 -5 -5 -4 -4 -4 -4 -4 -3 -3 -3 -3 -4 -5 -6 -7 -5 -5 -6 -5 -5 -4 -4 -4 -5 -5 -6 -5 -5 -4 -4 -4 -4 -5 -11 -19 -18 -15 -15 -14 -15 -17 -19 -19 -18
-1 -0 -0 -1 -3 -4 -5 -5 -5 -5 -4 -6 -5 -5 -6 -6 -5 -3 -4 -4 -4 -5 -5 -6 -7 -6 -5 -6 -6 -6 -6 -6 -6 -6 -6 -6 -6 -5 -4 -3 -3 -3 -4 -12 -18 -14 -13 -14 -14 -14 -14 -17 -18 -18
-0 -0 -2 -4 -5 -6 -5 -6 -5 -6 -5 -5 -6 -7 -7 -7 -6 -6 -6 -6 -5 -5 -5 -5 -6 -6 -6 -6 -6 -6 -6 -6 -7 -8 -7 -7 -7 -7 -7 -6 -5 -5 -4 -12 -16 -13 -14 -14 -14 -14 -14 -16 -18 -17
-1 -4 -4 -6 -6 -6 -6 -6 -6 -5 -6 -6 -7 -8 -9 -8 -7 -8 -7 -8 -7 -6 -6 -5 -5 -5 -5 -6 -7 -9 -9 -10 -10 -9 -8 -8 -8 -6 -5 -5 -5 -6 -7 -14 -14 -13 -13 -14 -14 -14 -15 -16 -15 -14
-5 -7 -5 -6 -6 -5 -5 -5 -5 -6 -6 -7 -9 -11 -10 -9 -8 -7 -8 -9 -8 -8 -8 -8 -7 -7 -8 -10 -10 -10 -11 -10 -10 -9 -8 -8 -7 -6 -6 -8 -11 -13 -15 -16 -14 -14 -14 -14 -14 -15 -15 -15 -16 -16
-5 -7 -8 -8 -7 -7 -7 -6 -6 -6 -6 -7 -9 -10 -9 -7 -8 -9 -9 -8 -8 -9 -9 -9 -9 -8 -13 -15 -15 -15 -14 -15 -14 -13 -14 -13 -15 -17 -17 -17 -17 -16 -16 -15 -15 -15 -15 -15 -15 -16 -16 -16 -16 -16
-7 -8 -7 -8 -8 -8 -7 -7 -6 -6 -7 -10 -10 -8 -7 -8 -8 -9 -9 -9 -9 -8 -8 -8 -9 -15 -16 -11 -9 -10 -12 -14 -16 -17 -18 -17 -16 -16 -16 -16 -16 -15 -15 -15 -15 -14 -14 -14 -14 -14 -14 -14 -14 -14
-8 -8 -7 -7 -7 -8 -8 -7 -7 -9 -9 -10 -8 -9 -10 -10 -10 -11 -10 -9 -8 -8 -8 -11 -11 -9 -9 -10 -13 -17 -18 -17 -16 -16 -16 -16 -16 -16 -15 -14 -13 -13 -13 -13 -14 -14 -14 -14 -13 -13 -13 -13 -13 -13
-7 -6 -7 -8 -7 -8 -11 -10 -10 -9 -9 -10 -10 -12 -12 -12 -12 -11 -10 -10 -11 -10 -10 -9 -9 -10 -14 -17 -17 -16 -15 -15 -16 -16 -15 -14 -13 -13 -13 -13 -14 -14 -14 -13 -13 -13 -14 -14 -14 -14 -14 -14 -14 -14
-7 -7 -9 -10 -11 -12 -11 -10 -10 -11 -12 -13 -13 -13 -13 -13 -12 -11 -11 -12 -12 -11 -11 -14 -19 -19 -18 -16 -15 -15 -16 -15 -14 -14 -13 -12 -13 -14 -14 -14 -13 -14 -14 -15 -15 -14 -14 -14 -14 -14 -14 -14 -14 -14
-8 -9 -9 -10 -12 -11 -11 -11 -11 -11 -12 -12 -13 -14 -14 -14 -13 -13 -13 -14 -15 -17 -18 -19 -19 -18 -16 -15 -15 -15 -14 -14 -13 -13 -13 -14 -14 -13 -14 -14 -15 -15 -15 -15 -14 -14 -14 -14 -14 -14 -14 -14 -13 -13
-10 -10 -11 -11 -11 -12 -11 -13 -13 -13 -13 -13 -13 -13 -13 -14 -14 -14 -14 -14 -15 -16 -16 -17 -16 -14 -14 -14 -14 -13 -13 -13 -14 -14 -14 -14 -14 -15 -15 -15 -15 -15 -15 -14 -14 -14 -14 -14 -14 -13 -13 -13 -13 -13

GFSWCAN_850_dewp_102.txt.gz
Dewpoint
-9 -4 -2 -2 -1 -2 -1 -2 -2 -2 -9 -4 -2 3 4 4 3 3 -1 -4 -8 -5 -4 -5 -6 -8 -7 -7 -5 -5 -5 -4 -4 -3 -4 -4 -3 -2 -2 -3 -2 -1 -1 -1 -1 -0 -1 1 -0 -0 -0 -0 0 1
-7 -4 -3 -3 -1 -2 -1 -1 -2 -2 -7 -5 -2 3 4 4 4 3 -0 -5 -7 -8 -3 -4 -4 -6 -7 -8 -6 -5 -8 -5 -5 -4 -6 -6 -3 -7 -4 -3 -3 0 -2 -1 -2 -2 -2 0 -0 0 1 1 1 1
-3 -3 -3 -3 -1 -1 -2 -2 -1 -2 -6 -5 -3 3 3 4 4 2 -5 -6 -9 -5 -4 -5 -4 -4 -4 -6 -8 -7 -5 -4 -4 -5 -6 -5 -4 -5 -4 -4 -4 -5 -2 0 -0 -2 -3 -4 1 -3 -6 -5 -3 -2
-3 -3 -2 -2 -1 -1 -2 -2 -2 -2 -5 -5 -2 3 3 4 3 -5 -7 -8 -8 -8 -4 -4 -4 -4 -5 -6 -6 -7 -7 -4 -4 -5 -5 -6 -4 -5 -5 -5 -4 -5 -4 -3 -4 -5 -2 -1 -6 -5 -5 -4 -4 -3
-2 -2 -2 -2 -1 -1 -2 -2 -3 -1 -5 -6 -1 3 3 4 0 -3 -5 -7 -9 -9 -3 -4 -4 -4 -4 -5 -6 -6 -5 -5 -6 -6 -6 -5 -5 -5 -6 -5 -5 -6 -5 -4 -5 -6 -5 -5 -5 -4 -3 -3 -3 -4
-2 -3 -3 -3 -2 -1 -1 -3 -3 -2 -5 -6 1 3 4 3 -1 -1 -3 -4 -4 -9 -9 -4 -4 -4 -4 -5 -5 -5 -6 -6 -5 -5 -4 -4 -4 -6 -5 -5 -7 -6 -6 -7 -5 -3 -3 -3 -3 -4 -3 -3 -3 -3
-2 -2 -2 -4 -4 -2 -1 -3 -3 -2 -6 -7 -0 3 3 3 0 -0 -3 -3 -4 -6 -10 -4 -3 -3 -4 -5 -5 -5 -5 -5 -5 -4 -4 -5 -5 -5 -7 -4 -7 -6 -5 -4 -4 -2 -3 -3 -4 -4 -4 -4 -3 -2
-1 -0 -1 -1 -2 -2 -1 -3 -3 -2 -6 -4 2 3 3 3 1 1 -3 -4 -5 -7 -10 -4 -4 -3 -4 -4 -4 -4 -5 -5 -5 -3 -3 -5 -4 -5 -4 -6 -6 -5 -5 -4 -2 -2 -3 -4 -3 -4 -3 -3 -2 -2
-1 -1 -1 -0 -1 -2 -2 -3 -3 -3 -4 1 3 3 1 0 -0 -1 -3 -3 -5 -8 -7 -6 -4 -4 -4 -3 -4 -4 -4 -6 -4 -5 -5 -5 -5 -3 -5 -6 -6 -6 -5 -3 -2 -2 -3 -3 -2 -3 -2 -0 -0 0
-0 -0 -0 -0 -1 -1 -2 -3 -3 -3 1 3 2 1 -0 -0 -1 -2 -5 -6 -8 -7 -10 -5 -5 -3 -3 -3 -4 -4 -4 -5 -6 -5 -4 -4 -4 -6 -6 -6 -7 -5 -4 -2 -2 -2 -3 -3 -2 -2 -1 -1 -0 0
0 1 -0 -0 -1 -2 -2 -1 -3 0 3 1 0 -2 -1 -0 -1 -2 -5 -5 -6 -4 -5 -6 -4 -3 -4 -5 -5 -5 -5 -5 -8 -6 -5 -7 -5 -6 -6 -7 -6 -5 -2 -3 -3 -2 -3 -3 -2 -1 -1 -1 -1 -0
-0 -0 -0 -1 -2 -1 -1 -1 -0 2 1 1 -1 -1 -0 1 -1 -2 -3 -5 -5 -6 -4 -5 -4 -4 -4 -5 -4 -3 -6 -7 -6 -5 -4 -4 -6 -6 -4 -5 -3 -2 -3 -3 -3 -2 -2 -3 -3 -1 -1 -1 -1 -1
-0 -1 -1 -2 -1 -1 0 0 1 1 0 -1 -1 -0 -1 -2 -4 -4 -5 -5 -6 -4 -4 -3 -3 -4 -4 -5 -4 -5 -5 -4 -5 -2 -3 -6 -7 -5 -3 -2 -2 -2 -3 -3 -3 -2 -2 -2 -2 -2 -1 -2 -2 -2
-1 -1 -1 -1 -1 -1 0 0 1 0 -1 -2 -1 -1 -2 -3 -4 -5 -4 -4 -6 -4 -3 -4 -3 -4 -4 -5 -5 -6 -5 -3 -2 -4 -5 -7 -6 -5 -2 -2 -2 -3 -3 -3 -3 -3 -3 -3 -2 -2 -2 -3 -4 -5
-1 -1 -1 -2 -1 0 -0 1 1 0 1 -1 -2 -2 -3 -4 -3 -4 -4 -4 -4 -4 -5 -4 -4 -4 -5 -5 -5 -4 -2 -2 -4 -5 -6 -6 -6 -4 -2 -2 -2 -3 -3 -3 -3 -3 -3 -3 -3 -4 -7 -12 -15 -17
-1 -1 -3 -3 0 -0 0 -0 -0 1 -0 -2 -3 -3 -3 -3 -3 -3 -3 -3 -3 -5 -6 -6 -5 -6 -5 -4 -2 -5 -5 -5 -5 -6 -6 -5 -6 -3 -2 -2 -3 -3 -3 -3 -3 -3 -3 -4 -6 -10 -10 -8 -7 -5
-4 -2 -1 -3 -0 -1 -0 0 1 -1 -2 -3 -3 -3 -3 -3 -3 -3 -3 -3 -4 -6 -5 -6 -7 -6 -6 -7 -5 -6 -6 -7 -7 -6 -3 -5 -4 -2 -3 -3 -3 -3 -3 -3 -3 -3 -3 -4 -6 -6 -3 -2 -3 -3
-2 -1 -0 -0 -1 -1 -0 0 -1 -3 -4 -3 -3 -3 -2 -2 -3 -3 -3 -4 -5 -6 -7 -7 -6 -7 -5 -6 -5 -6 -6 -2 -3 -3 -3 -2 -3 -3 -3 -3 -4 -4 -3 -3 -3 -4 -4 -4 -4 -4 -4 -4 -3 -3
-4 -3 -1 -1 -1 -0 -1 -2 -2 -5 -4 -3 -3 -2 -2 -2 -3 -4 -4 -4 -6 -7 -6 -6 -7 -7 -5 -6 -7 -6 -3 -2 -1 -1 -1 -2 -3 -3 -4 -4 -4 -5 -5 -6 -7 -8 -10 -11 -11 -12 -12 -12 -11 -11
-0 -1 -2 -1 -0 -1 -3 -3 -3 -4 -4 -4 -3 -3 -3 -2 -3 -3 -4 -5 -6 -6 -6 -7 -7 -8 -6 -6 -6 -6 -5 -3 -2 -2 -2 -3 -3 -3 -4 -5 -6 -6 -6 -5 -6 -10 -12 -13 -14 -17 -18 -18 -18 -16
-1 -1 -1 -0 -0 -2 -4 -4 -4 -4 -4 -4 -3 -3 -3 -3 -3 -3 -4 -5 -6 -6 -7 -6 -7 -7 -5 -4 -3 -4 -4 -3 -2 -3 -3 -3 -3 -3 -3 -4 -4 -5 -5 -5 -6 -11 -16 -19 -17 -17 -17 -18 -19 -19
-2 -1 -1 -0 -1 -4 -5 -5 -5 -4 -5 -5 -4 -3 -3 -3 -3 -2 -3 -3 -4 -4 -6 -7 -7 -5 -4 -4 -4 -2 -2 -2 -2 -3 -4 -5 -4 -4 -4 -3 -3 -4 -4 -5 -7 -15 -19 -15 -13 -14 -14 -14 -15 -18
-1 -0 -0 -1 -3 -4 -5 -5 -5 -4 -4 -6 -5 -5 -5 -5 -5 -3 -3 -4 -4 -5 -6 -7 -7 -5 -6 -6 -6 -6 -6 -5 -6 -6 -6 -6 -6 -6 -5 -4 -4 -4 -4 -4 -4 -17 -16 -13 -14 -14 -14 -14 -14 -16
-1 -0 -2 -4 -5 -6 -5 -6 -5 -5 -5 -5 -6 -6 -7 -7 -5 -5 -6 -6 -5 -5 -5 -6 -7 -6 -5 -5 -6 -7 -7 -7 -6 -6 -7 -7 -7 -7 -7 -6 -5 -3 -3 -4 -4 -11 -16 -13 -14 -14 -14 -14 -14 -15
-1 -4 -4 -6 -5 -6 -6 -6 -5 -5 -5 -6 -6 -7 -8 -8 -6 -7 -6 -7 -7 -5 -5 -5 -6 -6 -6 -6 -6 -6 -7 -8 -9 -9 -8 -8 -8 -8 -7 -5 -6 -6 -6 -5 -6 -10 -14 -13 -13 -13 -14 -14 -15 -15
-5 -7 -5 -6 -6 -6 -6 -5 -5 -5 -6 -6 -8 -10 -9 -8 -6 -5 -7 -8 -8 -6 -5 -5 -5 -5 -5 -6 -7 -9 -10 -10 -10 -9 -9 -8 -8 -7 -6 -7 -9 -11 -12 -12 -14 -14 -14 -14 -14 -14 -15 -15 -15 -15
-5 -8 -8 -6 -6 -6 -6 -6 -6 -5 -5 -6 -9 -9 -8 -5 -6 -8 -9 -9 -8 -7 -7 -6 -5 -6 -7 -9 -10 -10 -10 -9 -8 -8 -9 -9 -11 -14 -17 -17 -16 -16 -16 -15 -15 -15 -15 -15 -14 -14 -14 -14 -14 -14
-7 -8 -7 -8 -7 -6 -6 -6 -5 -4 -6 -8 -8 -7 -6 -6 -7 -9 -8 -8 -8 -8 -8 -8 -8 -10 -13 -14 -13 -14 -14 -13 -13 -14 -16 -17 -17 -17 -17 -17 -16 -16 -15 -14 -13 -13 -13 -14 -14 -14 -14 -14 -14 -14
-8 -8 -7 -7 -7 -7 -7 -6 -6 -8 -8 -8 -6 -8 -9 -10 -10 -10 -9 -8 -8 -8 -9 -9 -10 -16 -13 -10 -11 -14 -16 -18 -17 -17 -17 -17 -17 -17 -15 -14 -13 -13 -13 -14 -14 -14 -14 -14 -14 -14 -14 -14 -14 -14
-6 -6 -7 -7 -6 -7 -10 -10 -9 -9 -9 -9 -10 -11 -12 -11 -11 -10 -9 -8 -8 -8 -9 -13 -14 -11 -9 -11 -14 -16 -17 -16 -16 -17 -16 -15 -14 -13 -13 -13 -14 -14 -14 -14 -14 -15 -15 -15 -14 -14 -14 -14 -14 -14
-6 -7 -9 -10 -11 -12 -11 -10 -10 -9 -9 -11 -12 -12 -12 -12 -11 -10 -9 -8 -8 -9 -10 -9 -9 -10 -13 -17 -17 -17 -17 -16 -15 -15 -14 -13 -13 -14 -14 -14 -14 -15 -15 -15 -15 -15 -14 -14 -14 -14 -14 -14 -14 -13
-8 -9 -9 -9 -11 -11 -10 -9 -9 -11 -12 -12 -13 -13 -13 -13 -12 -11 -11 -10 -10 -10 -9 -11 -14 -17 -18 -16 -16 -16 -16 -15 -14 -14 -14 -15 -14 -14 -14 -15 -16 -16 -15 -15 -15 -15 -14 -14 -14 -14 -14 -13 -13 -13
-10 -10 -11 -11 -11 -11 -10 -9 -12 -13 -13 -13 -13 -14 -14 -14 -13 -12 -12 -13 -13 -14 -16 -18 -17 -16 -15 -15 -15 -15 -14 -14 -14 -15 -15 -14 -15 -15 -16 -16 -15 -15 -15 -15 -14 -14 -14 -14 -14 -14 -13 -13 -13 -13

GFSWCAN_850_dewp_105.txt.gz
Dewpoint
2 1 -1 -10 -6 -3 -3 -3 -2 -2 -2 -3 -7 -2 2 3 1 2 2 1 -1 -6 -4 -5 -6 -8 -7 -7 -5 -5 -5 -4 -4 -3 -4 -4 -3 -2 -3 -3 -3 -3 -3 -2 -2 -1 -2 -0 -1 0 -1 -0 -0 1
1 1 -7 -10 -4 -3 -3 -3 -3 -2 -2 -3 -7 -2 2 3 3 2 2 1 -5 -7 -4 -4 -5 -6 -7 -8 -7 -5 -9 -5 -5 -5 -6 -6 -3 -7 -5 -3 -4 -1 -3 -2 -2 -3 -5 0 -1 -0 1 0 -0 -0
1 -3 -11 -6 -4 -2 -3 -3 -2 -3 -3 -3 -6 -3 2 3 3 3 1 -5 -6 -6 -4 -4 -4 -4 -5 -7 -8 -8 -6 -6 -5 -6 -6 -5 -4 -5 -4 -4 -4 -4 -3 -0 -1 -3 -2 -3 -0 0 -5 -4 -4 -4
-3 -11 -8 -5 -3 -2 -2 -2 -3 -3 -3 -3 -7 -3 3 3 3 3 1 -6 -7 -8 -5 -4 -4 -5 -5 -6 -6 -7 -7 -5 -5 -5 -6 -6 -4 -5 -5 -7 -5 -5 -3 -3 -3 -5 -5 -1 -1 -5 -5 -4 -4 -4
-11 -7 -6 -3 -2 -1 -2 -2 -2 -2 -3 -3 -9 -4 3 3 4 3 2 -4 -8 -8 -4 -4 -4 -4 -5 -5 -6 -6 -5 -5 -6 -6 -6 -5 -5 -5 -6 -6 -5 -6 -5 -3 -4 -6 -7 -5 -5 -4 -4 -4 -4 -4
-6 -4 -2 -2 -3 -2 -1 -1 -2 -2 -3 -3 -8 -3 3 3 4 -0 -6 -7 -7 -9 -9 -4 -4 -4 -5 -5 -5 -5 -5 -6 -6 -6 -5 -4 -4 -6 -5 -5 -7 -6 -6 -7 -7 -7 -5 -3 -3 -4 -4 -4 -4 -3
-2 -1 -2 -4 -4 -3 -4 -3 -2 -2 -3 -3 -5 -2 1 3 2 -3 -4 -5 -6 -6 -10 -4 -3 -4 -5 -5 -6 -6 -6 -6 -6 -4 -4 -5 -5 -5 -7 -4 -8 -7 -6 -6 -5 -4 -3 -3 -4 -4 -4 -4 -3 -2
-2 -4 -4 -2 -2 -2 -2 -4 -4 -2 -3 -3 -3 -1 1 2 1 -2 -4 -3 -6 -5 -10 -4 -3 -3 -4 -5 -5 -5 -5 -5 -5 -4 -4 -5 -4 -5 -4 -6 -7 -6 -5 -4 -4 -2 -2 -3 -4 -3 -4 -3 -1 -2
-4 -2 -1 -1 -1 -1 -1 -2 -5 -2 -3 -2 -2 -0 1 2 1 1 -2 -3 -4 -8 -7 -6 -4 -3 -4 -4 -4 -4 -5 -6 -4 -5 -5 -5 -5 -4 -6 -6 -6 -5 -5 -5 -3 -2 -2 -3 -3 -3 -2 -1 -0 -0
-2 -1 -1 -1 -1 -0 -0 -2 -3 -2 -3 -1 -1 1 -0 0 1 1 -1 -3 -6 -7 -9 -5 -5 -3 -3 -3 -4 -5 -4 -5 -6 -5 -4 -4 -4 -6 -7 -6 -7 -6 -6 -4 -2 -2 -3 -3 -3 -2 -2 -1 -1 -0
-2 -2 -0 -0 -1 -1 -0 -2 -2 -2 -1 -1 -0 -1 -1 -0 1 0 -1 -1 -5 -3 -6 -6 -5 -4 -4 -5 -5 -5 -5 -6 -8 -7 -6 -7 -5 -6 -6 -7 -7 -6 -5 -3 -3 -3 -3 -3 -3 -2 -2 -1 -1 -1
-1 -0 -0 0 0 -0 0 -2 -1 -1 -1 -1 -1 -1 -0 1 -0 -1 -1 -4 -4 -3 -5 -5 -5 -5 -4 -5 -4 -4 -7 -7 -7 -6 -4 -4 -6 -7 -6 -6 -5 -5 -3 -3 -3 -2 -2 -3 -3 -3 -2 -1 -1 -1
-1 -0 0 0 -0 0 -1 -1 -1 -0 -0 -0 -0 0 0 -1 -1 -1 -2 -5 -6 -4 -5 -4 -3 -4 -4 -5 -4 -6 -6 -5 -5 -4 -3 -6 -8 -5 -5 -6 -5 -3 -3 -3 -3 -1 -1 -2 -2 -2 -3 -2 -3 -3
-0 -0 0 0 -1 -1 -1 -0 -1 -0 -0 0 -1 -1 -1 -2 -2 -4 -5 -5 -7 -4 -4 -4 -4 -4 -5 -5 -5 -6 -5 -5 -3 -3 -5 -7 -7 -4 -3 -3 -3 -3 -3 -3 -2 -2 -3 -3 -3 -3 -2 -2 -4 -7
-1 -1 -1 -1 -1 -1 -1 -1 0 0 -0 -1 -3 -1 -2 -4 -4 -5 -5 -5 -4 -4 -5 -5 -5 -5 -6 -5 -5 -4 -3 -3 -4 -5 -6 -7 -6 -4 -2 -2 -2 -3 -3 -3 -3 -3 -3 -3 -3 -3 -4 -8 -12 -13
-1 -1 -1 -1 -1 -1 -1 -0 -0 -0 -1 -3 -3 -3 -3 -3 -4 -4 -3 -3 -4 -4 -7 -7 -5 -6 -6 -5 -3 -5 -5 -5 -6 -6 -7 -6 -6 -4 -3 -2 -3 -3 -3 -3 -3 -3 -3 -3 -4 -5 -9 -10 -7 -5
-1 -1 -1 -0 0 -0 -1 -0 0 -1 -2 -3 -3 -3 -3 -3 -4 -4 -3 -3 -4 -6 -5 -6 -7 -7 -6 -6 -5 -6 -6 -6 -8 -7 -6 -6 -5 -4 -3 -3 -4 -4 -3 -3 -3 -3 -3 -3 -4 -6 -6 -3 -3 -3
-2 -1 -0 -1 -0 -1 -0 0 -1 -3 -4 -3 -2 -3 -3 -3 -3 -3 -3 -4 -5 -6 -7 -7 -6 -5 -5 -5 -5 -6 -6 -6 -7 -5 -5 -6 -4 -3 -3 -4 -4 -4 -4 -3 -3 -3 -4 -4 -5 -6 -8 -10 -11 -11
-4 -1 -1 -1 -1 -0 -0 -2 -2 -5 -4 -3 -3 -2 -2 -3 -3 -4 -4 -5 -7 -8 -8 -6 -8 -6 -5 -6 -8 -7 -5 -3 -3 -3 -4 -3 -3 -3 -4 -4 -5 -5 -5 -5 -7 -7 -7 -10 -12 -12 -12 -14 -16 -16
-1 -2 -1 -0 -0 -0 -2 -3 -3 -4 -4 -4 -3 -3 -3 -3 -3 -3 -4 -6 -7 -6 -7 -7 -8 -8 -7 -7 -7 -7 -5 -3 -2 -2 -2 -3 -3 -3 -4 -5 -5 -5 -6 -5 -5 -6 -9 -12 -14 -18 -18 -18 -19 -19
-1 -1 -1 -0 -0 -2 -4 -4 -4 -4 -4 -4 -3 -3 -3 -3 -3 -4 -5 -5 -6 -6 -6 -7 -8 -7 -5 -5 -6 -6 -4 -2 -2 -3 -3 -3 -3 -3 -3 -4 -4 -5 -6 -5 -5 -5 -9 -15 -18 -16 -15 -15 -15 -16
-1 -1 -1 -0 -2 -4 -5 -5 -4 -4 -4 -4 -4 -3 -3 -3 -3 -2 -3 -4 -4 -5 -6 -7 -8 -5 -3 -4 -5 -4 -3 -2 -3 -4 -4 -4 -4 -3 -3 -3 -4 -4 -4 -4 -4 -6 -12 -18 -16 -14 -14 -14 -14 -14
-2 -1 -1 -1 -3 -4 -5 -5 -5 -4 -3 -5 -5 -4 -5 -5 -4 -2 -2 -3 -4 -5 -7 -8 -7 -4 -4 -3 -3 -3 -2 -2 -3 -4 -4 -5 -5 -5 -5 -5 -4 -3 -3 -4 -4 -4 -7 -17 -14 -13 -14 -14 -14 -14
-1 -1 -2 -4 -4 -7 -5 -6 -5 -5 -5 -5 -5 -6 -6 -6 -4 -4 -4 -5 -4 -5 -6 -8 -6 -4 -4 -4 -4 -4 -4 -5 -6 -7 -7 -7 -7 -7 -6 -6 -6 -4 -4 -4 -4 -4 -5 -14 -14 -13 -13 -13 -13 -14
-1 -4 -4 -6 -5 -6 -6 -6 -6 -5 -5 -6 -6 -7 -7 -7 -5 -6 -5 -6 -6 -5 -5 -6 -7 -6 -7 -6 -6 -7 -7 -7 -7 -7 -7 -8 -8 -8 -8 -8 -7 -7 -6 -6 -5 -5 -6 -10 -13 -13 -13 -13 -14 -15
-5 -7 -5 -6 -6 -6 -6 -6 -6 -6 -6 -6 -8 -9 -8 -6 -5 -5 -6 -7 -8 -6 -5 -5 -6 -5 -5 -6 -7 -7 -7 -8 -9 -9 -9 -8 -8 -7 -6 -7 -9 -11 -13 -14 -15 -14 -14 -14 -14 -14 -14 -14 -14 -14
-5 -7 -7 -6 -6 -6 -6 -6 -6 -5 -5 -6 -8 -8 -7 -4 -3 -7 -9 -9 -8 -8 -6 -5 -5 -6 -6 -6 -6 -8 -10 -10 -10 -9 -9 -8 -7 -8 -14 -17 -16 -16 -16 -16 -16 -15 -14 -14 -13 -14 -14 -14 -14 -14
-8 -8 -6 -7 -7 -6 -6 -6 -5 -4 -5 -7 -7 -6 -4 -3 -6 -9 -8 -8 -8 -6 -5 -5 -5 -5 -6 -7 -10 -10 -10 -8 -10 -12 -13 -15 -16 -17 -17 -17 -17 -16 -15 -13 -13 -14 -14 -14 -14 -14 -15 -15 -15 -14
-8 -7 -6 -7 -7 -7 -8 -6 -6 -7 -7 -6 -5 -6 -7 -10 -9 -9 -8 -8 -7 -7 -6 -6 -6 -8 -10 -10 -11 -13 -13 -14 -15 -18 -17 -18 -18 -17 -16 -15 -13 -13 -14 -15 -15 -14 -15 -15 -15 -15 -14 -14 -14 -14
-6 -6 -7 -7 -6 -7 -11 -10 -10 -9 -8 -7 -8 -10 -11 -11 -11 -9 -8 -8 -8 -8 -8 -9 -12 -13 -13 -13 -13 -15 -17 -17 -16 -18 -18 -17 -15 -14 -13 -13 -15 -15 -14 -15 -16 -16 -15 -15 -14 -14 -14 -14 -14 -14
-6 -7 -9 -10 -11 -12 -11 -10 -10 -9 -8 -9 -12 -12 -12 -11 -10 -8 -8 -8 -8 -8 -8 -13 -14 -11 -11 -13 -15 -17 -17 -17 -17 -16 -16 -15 -15 -16 -16 -15 -15 -15 -16 -16 -16 -15 -15 -14 -14 -14 -14 -14 -14 -13
-8 -9 -9 -9 -11 -11 -10 -9 -9 -9 -9 -10 -13 -13 -12 -12 -11 -9 -8 -7 -8 -10 -13 -12 -10 -11 -14 -16 -16 -17 -18 -17 -16 -15 -15 -15 -16 -15 -15 -16 -16 -16 -16 -15 -15 -14 -14 -14 -14 -14 -14 -14 -14 -14
-10 -10 -10 -11 -11 -11 -10 -9 -10 -10 -10 -12 -14 -14 -14 -13 -12 -11 -9 -8 -9 -10 -9 -10 -13 -15 -16 -16 -16 -17 -17 -16 -15 -15 -15 -16 -15 -16 -16 -16 -16 -16 -15 -15 -14 -14 -14 -14 -14 -14 -14 -14 -14 -14

GFSWCAN_850_dewp_108.txt.gz
Dewpoint
4 4 2 2 2 1 -11 -7 -1 -1 -2 -3 -3 -4 2 3 3 4 -1 1 2 -3 -5 -5 -6 -7 -7 -6 -6 -5 -5 -4 -4 -2 -1 -2 -2 -2 -2 -3 -2 -3 -2 -1 -2 -0 -2 -5 -1 0 -0 0 0 1
4 3 2 2 1 -0 -10 -7 -2 -1 -2 -3 -4 -5 2 3 2 2 -0 2 -0 -3 -5 -5 -6 -6 -7 -8 -8 -6 -7 -4 -5 -4 -3 -3 -2 -2 -2 -5 -4 -2 -4 -2 -3 -5 -5 0 -0 -0 0 1 -1 -2
4 3 3 2 1 -7 -8 -7 -2 -1 -1 -3 -3 -6 1 3 2 2 2 1 -0 -4 -4 -5 -4 -5 -6 -7 -7 -6 -7 -7 -5 -7 -3 -3 -2 -3 -3 -4 -3 -3 -4 -2 -1 -3 -3 -2 -0 0 -2 -3 -3 -3
3 2 2 1 -2 -11 -7 -1 -2 -1 -1 -3 -4 -5 -1 2 2 2 2 1 -1 -7 -4 -5 -5 -5 -5 -7 -7 -7 -7 -6 -5 -6 -4 -4 -5 -5 -5 -6 -5 -5 -3 -2 -1 -3 -3 -3 -2 -2 -3 -4 -4 -4
2 3 2 1 -10 -9 -6 -1 -2 -1 -1 -2 -4 -4 -3 3 3 2 2 -1 -6 -8 -3 -4 -5 -5 -6 -7 -6 -7 -6 -5 -6 -4 -4 -4 -5 -5 -5 -5 -5 -6 -3 -3 -5 -5 -6 -3 -4 -4 -4 -3 -4 -3
3 2 2 -4 -10 -7 -2 -1 -2 -2 -1 -2 -3 -4 -1 2 3 3 2 1 -1 -5 -7 -2 -5 -4 -5 -5 -5 -5 -5 -6 -7 -4 -4 -4 -5 -5 -4 -4 -8 -6 -6 -6 -7 -7 -6 -4 -3 -4 -5 -5 -5 -4
2 2 -1 -9 -8 -3 -1 -2 -2 -2 -1 -2 -3 -3 -1 1 3 3 1 -0 1 -7 -10 -3 -3 -4 -5 -5 -6 -6 -6 -6 -6 -4 -4 -5 -4 -4 -3 -4 -8 -7 -6 -6 -6 -6 -3 -3 -4 -5 -4 -4 -3 -2
2 -1 -8 -6 -3 -1 -2 -2 -3 -4 -2 -2 -3 -3 -1 1 2 1 0 -3 -2 -8 -10 -2 -3 -3 -5 -5 -4 -5 -5 -6 -5 -3 -4 -4 -4 -5 -3 -6 -7 -7 -6 -5 -5 -4 -3 -3 -4 -4 -4 -2 -0 -2
-4 -8 -5 -1 -1 -2 -4 -3 -2 -4 -3 -2 -3 -3 -1 -0 -0 0 -0 -5 -6 -7 -6 -4 -2 -1 -4 -4 -4 -4 -6 -4 -5 -4 -4 -4 -5 -2 -5 -6 -6 -6 -5 -5 -5 -3 -2 -3 -3 -3 -2 -1 -1 -0
-7 -5 -5 -6 -4 -2 -2 -2 -2 -2 -3 -2 -1 0 -1 -0 0 -2 -2 -4 -5 -6 -8 -4 -4 -3 -4 -4 -4 -4 -4 -4 -3 -5 -4 -3 -4 -6 -7 -7 -8 -7 -6 -6 -3 -2 -2 -3 -3 -3 -2 -2 -1 -1
-5 -6 -5 -1 -1 -1 -1 -1 -1 -1 -3 -1 -1 -1 -0 -0 0 1 -0 -0 -3 -2 -5 -5 -5 -4 -5 -4 -3 -5 -4 -4 -3 -4 -3 -3 -3 -5 -7 -8 -7 -7 -6 -5 -4 -3 -3 -3 -3 -2 -2 -2 -1 -1
-6 -4 -2 -1 -1 -1 -2 -1 -0 -1 -1 -1 -2 -1 -1 0 -0 -0 -0 0 -0 -1 -5 -4 -5 -4 -5 -6 -4 -5 -3 -5 -2 -5 -3 -3 -4 -7 -6 -7 -7 -6 -6 -4 -3 -3 -3 -3 -3 -3 -2 -1 -2 -2
-3 -2 -2 -1 -1 -0 -0 -1 0 -1 -1 -1 -1 -1 -2 -1 0 1 0 -1 -0 -4 -4 -4 -3 -4 -5 -5 -4 -4 -3 -3 -5 -3 -3 -3 -6 -7 -6 -7 -6 -6 -4 -3 -3 -2 -2 -2 -2 -2 -2 -2 -2 -3
-2 -1 -1 -1 -1 0 0 -0 -0 -1 -1 -1 -1 -0 -0 -0 -1 -1 -2 -3 -5 -4 -4 -4 -4 -3 -4 -3 -4 -3 -5 -5 -2 -2 -3 -6 -6 -6 -6 -6 -5 -4 -3 -3 -2 -2 -2 -2 -3 -3 -3 -2 -3 -7
-1 -1 -1 -1 -1 0 -0 -0 -1 -1 -2 -1 -1 1 -0 -3 -4 -5 -5 -5 -5 -4 -4 -4 -4 -5 -4 -3 -5 -4 -3 -2 -4 -3 -5 -6 -7 -5 -6 -6 -5 -3 -3 -3 -3 -2 -2 -3 -3 -3 -3 -4 -8 -12
-1 -0 0 -0 -0 -0 -1 -1 -1 -1 -3 -1 -3 -2 -3 -3 -4 -4 -4 -4 -4 -4 -6 -7 -3 -3 -3 -3 -3 -2 -3 -3 -2 -3 -6 -7 -6 -5 -5 -4 -4 -4 -4 -4 -3 -3 -3 -3 -3 -4 -5 -9 -9 -6
-1 -1 -0 0 -0 -1 -1 -1 -1 -1 -1 -3 -3 -3 -4 -4 -4 -4 -4 -4 -4 -5 -3 -4 -4 -4 -4 -3 -3 -4 -3 -3 -5 -7 -7 -7 -6 -3 -3 -3 -4 -5 -5 -4 -3 -3 -3 -3 -4 -4 -5 -5 -4 -4
-1 -1 -1 -1 -1 -1 -1 -1 -1 -3 -3 -3 -3 -3 -3 -3 -4 -3 -4 -4 -5 -6 -7 -3 -6 -3 -3 -3 -3 -3 -5 -7 -8 -7 -6 -7 -5 -3 -3 -4 -5 -5 -5 -4 -3 -3 -3 -4 -5 -7 -8 -9 -10 -11
-2 -1 -1 -1 -1 -1 -1 -1 -2 -4 -4 -3 -3 -3 -3 -3 -4 -4 -4 -5 -7 -8 -9 -6 -4 -3 -4 -5 -4 -7 -6 -6 -5 -4 -6 -6 -5 -4 -3 -4 -5 -5 -4 -4 -5 -6 -7 -8 -10 -11 -12 -14 -17 -19
-1 -1 -1 -1 -1 -2 -3 -3 -3 -4 -3 -3 -3 -3 -3 -3 -3 -4 -4 -5 -7 -8 -5 -5 -6 -8 -8 -8 -9 -9 -7 -6 -4 -5 -5 -4 -3 -3 -3 -4 -5 -5 -5 -5 -5 -5 -6 -9 -12 -15 -18 -18 -17 -17
-1 -1 -1 -0 -0 -2 -3 -4 -4 -4 -4 -4 -3 -3 -3 -3 -3 -4 -5 -6 -6 -6 -5 -8 -9 -9 -7 -7 -7 -7 -6 -4 -5 -5 -5 -3 -3 -3 -3 -3 -4 -5 -6 -6 -6 -5 -6 -8 -14 -17 -17 -15 -15 -15
-2 -1 -1 -1 -2 -4 -5 -4 -4 -4 -4 -4 -3 -3 -3 -2 -3 -3 -4 -4 -5 -6 -7 -8 -9 -6 -6 -7 -6 -4 -4 -3 -3 -3 -4 -4 -4 -3 -3 -4 -4 -5 -5 -5 -4 -4 -5 -9 -16 -17 -14 -14 -14 -14
-2 -1 -1 -1 -3 -4 -5 -5 -5 -4 -3 -4 -4 -4 -4 -4 -3 -2 -2 -2 -3 -5 -7 -8 -8 -4 -5 -5 -4 -2 -2 -2 -3 -3 -4 -4 -4 -4 -3 -3 -3 -3 -3 -3 -3 -4 -4 -5 -11 -16 -14 -13 -14 -14
-2 -1 -2 -4 -4 -6 -5 -5 -5 -5 -4 -4 -4 -5 -5 -5 -4 -3 -2 -3 -4 -4 -6 -8 -6 -4 -3 -3 -3 -2 -2 -3 -3 -4 -4 -4 -4 -4 -5 -5 -6 -5 -5 -4 -4 -5 -5 -5 -8 -13 -14 -13 -13 -13
-1 -3 -4 -5 -6 -7 -7 -6 -5 -6 -5 -5 -5 -6 -6 -6 -4 -4 -3 -4 -5 -4 -4 -5 -6 -5 -4 -3 -2 -2 -3 -3 -5 -7 -7 -7 -7 -7 -7 -7 -7 -7 -7 -6 -6 -6 -5 -6 -7 -10 -12 -13 -13 -14
-4 -6 -4 -7 -6 -7 -7 -5 -5 -5 -6 -5 -6 -8 -8 -6 -4 -3 -5 -6 -6 -4 -4 -6 -7 -5 -5 -5 -5 -6 -7 -7 -7 -7 -7 -8 -8 -8 -8 -8 -7 -8 -9 -11 -12 -14 -14 -14 -14 -14 -14 -14 -14 -14
-5 -8 -6 -6 -6 -6 -6 -6 -6 -5 -5 -6 -7 -8 -6 -4 -3 -5 -8 -9 -8 -7 -5 -5 -7 -8 -8 -7 -7 -7 -7 -7 -8 -9 -9 -8 -8 -7 -7 -12 -17 -16 -17 -17 -17 -16 -14 -14 -14 -14 -14 -15 -15 -15
-8 -7 -7 -7 -7 -7 -7 -6 -5 -4 -4 -7 -7 -6 -4 -3 -4 -9 -9 -8 -8 -8 -5 -5 -6 -6 -6 -7 -6 -7 -8 -10 -9 -9 -8 -8 -8 -14 -17 -18 -18 -17 -16 -14 -13 -14 -15 -15 -15 -15 -16 -15 -15 -14
-8 -7 -7 -7 -7 -8 -8 -6 -6 -7 -7 -7 -4 -5 -6 -9 -10 -9 -9 -8 -7 -6 -5 -5 -5 -5 -6 -6 -7 -9 -10 -9 -9 -10 -13 -16 -18 -18 -18 -17 -15 -14 -14 -16 -15 -15 -16 -16 -16 -15 -15 -14 -14 -14
-6 -6 -6 -6 -6 -8 -11 -10 -10 -9 -8 -7 -7 -8 -10 -11 -10 -9 -8 -7 -6 -5 -5 -5 -5 -6 -6 -9 -9 -8 -10 -13 -15 -17 -20 -20 -19 -17 -15 -14 -16 -16 -15 -15 -16 -16 -16 -15 -15 -14 -14 -14 -14 -14
-6 -7 -9 -10 -11 -12 -11 -10 -9 -8 -8 -8 -8 -8 -11 -11 -9 -8 -7 -7 -6 -5 -5 -5 -7 -9 -10 -10 -12 -14 -15 -17 -18 -19 -18 -17 -16 -16 -17 -17 -16 -16 -16 -16 -16 -15 -15 -14 -14 -14 -14 -14 -14 -14
-8 -9 -9 -9 -11 -11 -10 -9 -9 -9 -9 -9 -9 -12 -12 -11 -11 -8 -8 -8 -8 -9 -10 -11 -11 -12 -13 -14 -15 -16 -17 -19 -18 -17 -16 -16 -17 -17 -16 -16 -16 -16 -16 -16 -15 -14 -14 -14 -14 -14 -14 -14 -14 -14
-9 -10 -10 -11 -11 -11 -10 -9 -9 -10 -9 -10 -10 -12 -13 -12 -10 -10 -8 -8 -8 -9 -12 -13 -12 -12 -14 -15 -16 -17 -17 -17 -16 -16 -16 -16 -17 -16 -16 -16 -16 -16 -15 -15 -14 -14 -14 -14 -14 -14 -14 -14 -14 -14

GFSWCAN_850_dewp_111.txt.gz
Dewpoint
4 4 3 4 4 3 2 2 -3 -8 -5 -2 -3 -3 -5 -0 3 3 2 2 1 0 -2 -6 -5 -5 -6 -6 -6 -4 -5 -4 -5 -3 -2 -3 -5 -4 -3 -5 -3 -3 -2 -2 -4 -1 -2 -3 -1 0 -0 -0 -0 0
5 4 3 4 4 3 2 2 -7 -8 -4 -2 -2 -3 -5 1 3 3 3 3 2 -0 -2 -5 -6 -7 -7 -7 -5 -5 -5 -5 -6 -5 -2 -2 -3 -1 -3 -6 -5 -3 -6 -3 -4 -4 -4 -3 -1 -1 -1 -1 -0 -2
5 5 4 4 4 3 3 1 -9 -9 -3 -2 -2 -3 -4 2 2 1 2 2 1 -1 -2 -4 -4 -6 -7 -8 -8 -4 -6 -5 -4 -4 -2 -3 -2 -4 -5 -5 -5 -4 -5 -4 -2 -5 -5 -2 -0 -1 -0 -2 -3 -3
5 4 4 4 4 3 3 1 -10 -8 -3 -2 -2 -4 -4 2 2 2 0 1 -0 -2 -2 -3 -5 -5 -6 -7 -8 -8 -7 -8 -5 -4 -2 -3 -4 -5 -5 -6 -6 -6 -4 -4 -4 -5 -3 -3 -3 -1 -2 -3 -3 -3
5 4 4 4 3 3 2 -0 -10 -7 -1 -1 -2 -3 -4 0 2 2 2 1 0 -3 -2 -3 -5 -5 -6 -6 -7 -6 -7 -4 -3 -3 -3 -4 -5 -5 -6 -6 -6 -7 -6 -4 -8 -6 -6 -4 -3 -3 -3 -3 -3 -3
5 4 4 4 3 3 2 -3 -9 -4 -1 -1 -2 -3 -4 -3 2 2 2 1 -0 -6 -7 -1 -4 -5 -5 -5 -5 -5 -5 -4 -3 -3 -4 -5 -4 -4 -3 -5 -9 -9 -8 -7 -7 -6 -6 -5 -4 -3 -3 -4 -4 -4
5 4 4 4 3 3 2 -6 -7 -1 -2 -2 -2 -2 -3 -2 1 2 2 2 1 -4 -7 -1 -2 -3 -5 -5 -5 -4 -5 -4 -3 -3 -3 -4 -4 -4 -2 -5 -11 -8 -7 -6 -7 -5 -3 -3 -3 -4 -5 -4 -4 -2
4 4 4 3 3 2 0 -7 -3 -1 -2 -2 -2 -2 -3 -2 0 1 2 1 1 0 -8 0 -1 -3 -5 -4 -4 -5 -3 -3 -3 -3 -3 -4 -4 -5 -3 -6 -8 -8 -7 -5 -5 -4 -4 -3 -4 -4 -4 -3 -1 -1
4 4 4 3 3 2 -5 -6 -1 -1 -3 -2 -2 -2 -1 -1 0 0 2 -1 1 -1 -2 -1 0 1 -5 -4 -3 -3 -3 -2 -3 -3 -4 -4 -4 -1 -5 -7 -7 -7 -6 -5 -4 -3 -3 -2 -3 -3 -3 -2 -1 -1
4 3 3 3 2 -4 -7 -1 -1 -2 -3 -3 -1 -0 -1 -1 -0 0 1 -2 -3 -3 -7 -3 -3 -2 -4 -4 -4 -3 -4 -3 -1 -4 -4 -4 -3 -6 -7 -6 -7 -7 -5 -4 -3 -3 -2 -2 -3 -3 -2 -2 -1 -1
3 3 2 2 -4 -6 -2 -2 -2 -3 -2 -1 -0 -1 -1 -0 0 1 -1 -1 -1 1 -2 -4 -4 -3 -4 -3 -2 -4 -2 -2 -1 -2 -3 -1 -2 -3 -5 -6 -8 -6 -5 -4 -4 -3 -3 -3 -3 -3 -2 -2 -2 -2
3 3 1 -5 -6 -5 -5 -4 -2 -1 -0 -1 -1 -1 -1 -0 0 -0 0 0 1 -0 -4 -3 -4 -3 -4 -4 -3 -4 -2 -4 -1 -4 -3 -2 -1 -5 -6 -6 -7 -5 -4 -3 -3 -3 -3 -3 -3 -3 -2 -2 -2 -1
2 -0 -6 -6 -5 -4 -2 -1 -1 -1 -0 -1 -1 -1 -1 -2 -0 1 1 2 1 -1 -3 -3 -2 -4 -5 -3 -3 -3 -2 -2 -5 -3 -2 -2 -4 -7 -6 -6 -6 -5 -3 -4 -3 -2 -2 -2 -2 -2 -2 -2 -2 -2
-1 -6 -5 -5 -2 -1 -0 -1 -0 -0 -1 -1 -1 0 -1 1 -0 1 0 0 -1 -2 -4 -4 -4 -2 -3 -2 -3 -1 -4 -4 -2 -1 -2 -5 -5 -7 -6 -6 -6 -5 -4 -4 -3 -2 -2 -2 -2 -2 -3 -3 -2 -3
-5 -5 -4 -3 -2 -1 -1 -1 -0 -1 -1 -1 -1 1 1 -1 -1 -2 -2 -3 -3 -4 -4 -4 -3 -4 -2 -2 -3 -3 -3 -1 -2 -2 -2 -4 -6 -7 -6 -4 -5 -5 -4 -3 -2 -2 -2 -2 -3 -3 -3 -3 -4 -7
-2 -1 -1 -2 -2 -1 -1 -0 0 -1 -1 -1 -2 -1 -2 -1 -2 -3 -2 -2 -3 -4 -5 -6 -1 -1 -1 -1 -2 -1 -2 -1 0 -0 -2 -6 -5 -5 -5 -5 -6 -5 -4 -4 -3 -2 -2 -2 -3 -3 -3 -4 -7 -9
-1 -1 -2 -2 -1 -1 -0 1 -1 -1 -1 -2 -2 -2 -2 -1 -2 -2 -3 -3 -3 -4 -3 0 -0 -1 -3 -1 -2 -3 -1 0 -1 -4 -6 -7 -6 -5 -6 -6 -5 -4 -4 -4 -4 -4 -3 -3 -3 -4 -4 -5 -7 -5
-1 -1 -1 -1 0 -0 -2 -1 -2 -2 -2 -2 -2 -2 -2 -2 -3 -3 -3 -4 -3 -4 -4 1 -4 -2 -1 -1 -1 -1 -3 -4 -7 -7 -7 -6 -5 -6 -7 -6 -4 -4 -5 -5 -4 -4 -4 -4 -4 -4 -5 -7 -8 -10
-2 -2 -0 0 -0 -1 -1 -1 -2 -2 -3 -2 -3 -2 -2 -2 -3 -3 -4 -4 -4 -4 -9 -4 -1 0 -2 -2 0 -2 -4 -7 -6 -5 -6 -5 -5 -5 -4 -4 -5 -5 -5 -5 -4 -4 -4 -6 -6 -8 -10 -11 -13 -17
-2 -0 -0 -1 -1 -1 -2 -3 -3 -4 -3 -3 -3 -3 -3 -3 -3 -3 -4 -3 -5 -8 -3 -2 -4 -6 -7 -8 -9 -9 -6 -7 -7 -5 -5 -4 -3 -3 -4 -4 -6 -6 -5 -6 -6 -6 -7 -7 -9 -11 -13 -16 -18 -18
-1 -0 -1 -1 -1 -2 -3 -4 -3 -3 -4 -3 -3 -3 -3 -3 -3 -3 -3 -5 -4 -2 -1 -7 -9 -11 -10 -8 -9 -9 -8 -8 -6 -7 -5 -4 -4 -3 -3 -5 -6 -5 -6 -6 -6 -6 -5 -6 -9 -12 -16 -17 -16 -15
-2 -1 -1 -1 -1 -4 -4 -4 -4 -3 -3 -3 -3 -3 -2 -2 -3 -3 -3 -2 -2 -4 -7 -9 -10 -10 -8 -7 -7 -7 -7 -5 -5 -6 -6 -5 -4 -3 -3 -5 -6 -6 -6 -6 -6 -5 -5 -5 -8 -12 -16 -16 -14 -14
-2 -1 -1 -1 -4 -4 -5 -4 -4 -4 -2 -3 -3 -2 -2 -2 -3 -4 -2 -3 -3 -6 -7 -9 -9 -7 -6 -6 -5 -5 -4 -4 -5 -5 -4 -4 -4 -3 -4 -4 -5 -5 -5 -5 -4 -4 -4 -5 -6 -10 -15 -15 -14 -13
-1 -1 -2 -3 -4 -4 -5 -5 -5 -4 -3 -3 -3 -4 -4 -4 -4 -2 -1 -1 -3 -5 -6 -9 -7 -5 -4 -3 -3 -3 -3 -3 -3 -4 -4 -4 -4 -4 -4 -4 -4 -4 -4 -3 -3 -3 -5 -5 -6 -6 -9 -13 -13 -13
-1 -3 -3 -5 -5 -5 -5 -4 -4 -4 -3 -4 -4 -4 -5 -6 -2 -2 -2 -2 -3 -3 -6 -8 -5 -5 -4 -3 -3 -2 -3 -3 -4 -4 -3 -3 -4 -4 -3 -3 -4 -5 -5 -5 -4 -5 -6 -6 -6 -7 -9 -11 -13 -14
-2 -5 -4 -4 -5 -4 -5 -4 -4 -4 -5 -4 -5 -6 -6 -4 -3 -2 -3 -4 -4 -3 -5 -7 -5 -4 -4 -3 -3 -3 -3 -4 -4 -5 -5 -6 -6 -7 -8 -7 -7 -7 -7 -7 -7 -7 -9 -11 -14 -14 -14 -14 -14 -15
-4 -5 -6 -6 -6 -6 -5 -6 -6 -4 -4 -5 -6 -6 -5 -3 -2 -3 -7 -7 -6 -4 -4 -5 -6 -5 -7 -4 -3 -3 -3 -6 -8 -8 -8 -7 -8 -8 -8 -8 -8 -10 -13 -15 -17 -17 -17 -15 -14 -14 -15 -15 -15 -15
-6 -7 -5 -6 -6 -6 -5 -5 -4 -4 -3 -6 -6 -4 -3 -2 -2 -8 -9 -9 -8 -6 -4 -4 -4 -4 -6 -4 -5 -7 -8 -7 -8 -8 -8 -8 -8 -7 -8 -13 -16 -18 -19 -18 -16 -14 -15 -16 -15 -16 -16 -15 -15 -15
-7 -6 -6 -7 -7 -7 -7 -5 -4 -6 -6 -6 -3 -3 -5 -8 -9 -9 -9 -8 -8 -7 -5 -4 -3 -2 -4 -5 -7 -7 -7 -8 -9 -8 -8 -7 -7 -13 -16 -18 -19 -17 -15 -14 -16 -16 -16 -16 -16 -16 -15 -15 -15 -14
-6 -6 -6 -7 -8 -7 -10 -10 -9 -8 -7 -6 -7 -8 -9 -11 -10 -9 -8 -8 -7 -6 -5 -5 -3 -3 -5 -6 -6 -6 -8 -9 -9 -9 -10 -12 -16 -19 -20 -18 -15 -15 -17 -16 -16 -16 -16 -16 -15 -15 -15 -15 -14 -14
-6 -7 -9 -9 -10 -11 -11 -10 -9 -8 -8 -8 -7 -8 -9 -9 -8 -8 -7 -7 -6 -5 -5 -5 -3 -3 -3 -4 -7 -9 -9 -9 -11 -14 -18 -21 -21 -18 -16 -17 -18 -17 -16 -16 -16 -16 -16 -15 -15 -15 -15 -15 -15 -15
-8 -8 -9 -9 -10 -11 -10 -9 -9 -9 -8 -8 -9 -9 -8 -8 -8 -8 -7 -6 -6 -5 -5 -4 -4 -5 -6 -8 -9 -10 -12 -16 -18 -21 -20 -19 -18 -18 -18 -18 -17 -17 -17 -16 -16 -15 -15 -15 -15 -15 -15 -15 -15 -14
-9 -9 -9 -10 -10 -10 -10 -9 -8 -9 -8 -8 -10 -9 -9 -10 -8 -8 -8 -7 -6 -5 -5 -6 -6 -8 -9 -9 -13 -16 -17 -19 -19 -18 -17 -17 -18 -18 -17 -17 -17 -17 -16 -16 -15 -15 -15 -15 -15 -15 -14 -14 -14 -14

GFSWCAN_850_dewp_114.txt.gz
Dewpoint
-0 1 3 5 4 4 4 4 2 2 -4 -9 -4 -2 -3 -5 -2 -0 1 1 1 0 -0 -2 -5 -5 -6 -7 -4 -5 -4 -4 -4 -2 0 -0 -3 -2 -3 -5 -3 -2 -1 -1 -2 -1 -1 -2 -1 1 -0 -0 0 1
1 2 3 4 5 4 4 4 3 1 -4 -10 -4 -2 -3 -5 1 2 3 2 2 1 -0 -3 -5 -6 -6 -5 -5 -5 -4 -5 -4 -3 -0 -0 -1 -1 -3 -3 -5 -3 -5 -1 -3 -2 -4 -2 -1 -1 -1 -1 -0 -0
2 3 4 4 5 4 4 4 3 2 -3 -10 -4 -2 -4 -5 1 2 2 2 2 1 0 -1 -2 -4 -7 -7 -8 -3 -5 -5 -5 -2 0 -1 -1 -2 -2 -2 -5 -5 -6 -4 -3 -5 -3 -4 -2 -1 -1 -1 -2 -3
3 3 4 5 5 4 4 4 3 3 -2 -11 -4 -2 -4 -4 2 2 1 2 2 -0 -0 -2 -3 -4 -6 -7 -8 -7 -4 -7 -6 -7 -1 -1 -2 -5 -3 -5 -5 -6 -4 -3 -4 -5 -4 -4 -3 -2 -1 -2 -3 -3
4 3 4 5 5 4 4 4 3 3 -3 -10 -5 -1 -2 -4 1 2 2 0 1 -1 -0 -3 -5 -6 -6 -6 -6 -7 -7 -5 -4 -3 -2 -2 -4 -5 -6 -5 -4 -6 -4 -3 -3 -6 -4 -4 -4 -3 -2 -3 -3 -3
5 5 5 5 5 4 4 4 3 3 -5 -9 -4 -1 -2 -3 0 2 2 1 1 -1 -4 0 -3 -5 -6 -6 -5 -5 -5 -4 -3 -2 -2 -4 -4 -4 -2 -2 -7 -9 -9 -8 -8 -5 -6 -4 -3 -4 -4 -4 -5 -5
6 5 5 6 5 4 4 4 3 2 -6 -7 -2 -1 -1 -2 -1 1 2 2 1 1 -3 -1 -1 -3 -4 -3 -3 -4 -4 -3 -3 -2 -3 -3 -4 -5 -2 -1 -8 -9 -9 -9 -7 -7 -5 -5 -4 -4 -5 -6 -5 -4
5 6 5 5 5 4 4 3 3 1 -7 -3 -1 -2 -1 -2 -2 -0 2 2 2 -3 -2 1 -1 -3 -5 -4 -3 -3 -3 -4 -4 -3 -3 -4 -4 -4 -2 -4 -7 -9 -8 -7 -6 -7 -5 -5 -4 -4 -6 -5 -3 -2
5 5 5 5 4 4 4 3 3 -2 -6 -2 -2 -1 -1 -1 -1 -2 -1 2 0 -0 -0 -1 -1 -1 -4 -4 -3 -4 -3 -2 -3 -3 -3 -3 -3 -2 -5 -6 -7 -7 -8 -7 -6 -5 -4 -5 -5 -4 -5 -3 -2 -1
5 5 5 4 4 4 3 3 1 -3 -2 -2 -1 -0 -1 -1 -2 -1 -0 1 -1 -0 -0 -1 -2 -2 -4 -3 -2 -3 -3 -2 -2 -3 -4 -3 -2 -5 -7 -7 -9 -8 -8 -7 -4 -3 -3 -3 -3 -4 -4 -2 -2 -1
4 4 4 4 4 3 3 2 -0 -2 -1 -1 -1 -1 -1 -1 -2 -1 -0 -2 -2 -0 -1 -2 -3 -3 -4 -3 -2 -3 -3 -2 -3 -2 -3 -2 -2 -4 -7 -6 -7 -8 -8 -6 -6 -6 -5 -5 -4 -4 -3 -2 -2 -2
4 4 4 3 3 3 3 1 -1 -1 -1 -2 -2 -1 -1 -0 -1 -1 -0 -1 -0 -0 0 -1 -3 -4 -4 -4 -3 -4 -3 -4 -2 -4 -4 -2 -3 -4 -6 -6 -6 -8 -7 -5 -4 -4 -4 -4 -4 -3 -3 -2 -2 -2
4 3 3 3 3 3 1 -1 -1 -1 -1 -1 -1 -1 -1 -1 -0 0 -1 -1 0 -1 -2 -3 -3 -4 -6 -4 -2 -2 -1 -3 -4 -3 -2 -3 -3 -4 -6 -6 -6 -7 -6 -4 -3 -4 -4 -4 -3 -3 -2 -2 -3 -2
4 3 3 3 3 1 -0 -1 -1 -1 -1 -1 -1 -1 -1 -1 -2 -1 -2 -1 -1 -3 -3 -3 -3 -3 -3 -2 -2 -1 -2 -3 -3 -2 -2 -4 -7 -6 -8 -6 -6 -5 -4 -3 -4 -4 -4 -3 -3 -2 -2 -3 -2 -2
3 3 3 2 1 -0 -1 -2 -2 -1 -1 -1 -1 -0 -1 -2 -1 -1 -0 -1 -2 -3 -3 -3 -3 -3 -1 -1 -1 -2 -3 -3 -3 -3 -2 -5 -6 -6 -7 -6 -6 -4 -3 -4 -4 -4 -4 -3 -3 -3 -3 -3 -3 -3
3 2 1 0 -1 -1 -2 -2 -1 -1 -1 -1 -1 -0 -1 -3 -2 -2 -2 -2 -2 -3 -3 -5 -2 -0 -1 -0 -1 -3 -4 -4 -3 -2 -3 -5 -6 -7 -7 -6 -5 -4 -4 -4 -4 -4 -4 -3 -3 -3 -3 -3 -4 -5
1 -0 -0 -1 -2 -1 -1 -0 -0 -0 -2 -2 -1 -1 -3 -3 -3 -2 -2 -2 -3 -3 -2 -1 -1 -2 -3 -3 -2 -3 -3 -2 -3 -3 -6 -6 -8 -7 -6 -6 -5 -4 -4 -4 -4 -4 -4 -3 -2 -3 -3 -4 -5 -7
-0 -1 -1 -2 -1 -1 -0 -0 -0 -1 -2 -1 -1 -2 -2 -3 -3 -2 -3 -3 -3 -3 -3 -1 -3 -4 -3 -3 -3 -3 -6 -6 -6 -6 -7 -7 -7 -6 -6 -5 -4 -5 -4 -5 -6 -6 -4 -3 -4 -4 -4 -4 -5 -8
-1 -1 -2 -1 -1 0 -1 -2 -1 -2 -2 -2 -2 -2 -2 -2 -3 -3 -3 -3 -3 -2 -3 -3 -0 -1 -3 -4 -3 -4 -5 -6 -6 -7 -7 -6 -6 -5 -5 -5 -5 -4 -5 -6 -6 -5 -4 -4 -4 -5 -7 -9 -10 -11
-1 -1 -1 -1 -0 -0 -2 -3 -2 -2 -2 -2 -2 -2 -3 -3 -3 -2 -3 -3 -1 -2 -1 -2 -2 -2 -5 -7 -10 -6 -6 -6 -7 -6 -3 -3 -4 -5 -6 -5 -5 -5 -6 -5 -5 -5 -6 -7 -8 -8 -10 -11 -13 -17
-1 -1 -0 -0 -1 -1 -2 -3 -3 -2 -3 -3 -3 -3 -3 -3 -3 -2 -3 -2 -2 -2 -1 -1 -4 -9 -11 -11 -10 -10 -8 -6 -7 -8 -5 -3 -3 -6 -5 -4 -5 -6 -6 -7 -7 -7 -7 -7 -8 -9 -11 -14 -16 -16
-1 -1 -2 -1 -1 -3 -4 -4 -3 -3 -3 -3 -3 -3 -3 -4 -3 -3 -3 -2 -2 -2 -2 -2 -6 -10 -11 -10 -8 -7 -6 -6 -6 -6 -4 -4 -3 -3 -3 -4 -5 -6 -6 -8 -8 -7 -6 -6 -6 -7 -11 -15 -16 -15
-1 -1 -1 -1 -3 -4 -5 -4 -4 -3 -5 -3 -3 -4 -3 -3 -2 -3 -3 -3 -3 -2 -2 -2 -5 -4 -8 -8 -6 -4 -4 -5 -5 -5 -4 -3 -3 -4 -4 -5 -6 -7 -7 -7 -6 -6 -5 -5 -5 -8 -10 -14 -16 -15
-1 -1 -2 -2 -4 -5 -5 -5 -4 -3 -3 -4 -4 -4 -4 -5 -3 -3 -2 -2 -3 -3 -2 -1 -1 -4 -5 -4 -5 -5 -4 -3 -4 -4 -3 -3 -3 -3 -4 -5 -6 -6 -6 -6 -5 -4 -4 -4 -5 -5 -6 -7 -11 -13
-1 -2 -2 -4 -5 -6 -7 -5 -4 -3 -3 -3 -3 -4 -5 -5 -3 -2 -2 -2 -3 -4 -3 -1 -1 -1 -2 -3 -4 -3 -3 -3 -4 -3 -3 -4 -4 -3 -3 -4 -4 -4 -4 -4 -4 -4 -4 -5 -6 -6 -6 -8 -9 -13
-2 -5 -3 -7 -5 -6 -5 -5 -5 -4 -4 -3 -3 -5 -6 -4 -3 -2 -3 -3 -3 -3 -4 -3 -2 -1 -2 -4 -3 -3 -3 -3 -3 -2 -3 -3 -4 -5 -4 -4 -4 -4 -4 -6 -6 -6 -6 -6 -6 -9 -13 -15 -15 -15
-4 -5 -5 -5 -6 -5 -5 -5 -5 -5 -5 -5 -6 -6 -6 -3 -3 -4 -6 -4 -3 -3 -3 -4 -3 -2 -2 -3 -3 -3 -3 -3 -3 -3 -3 -2 -2 -3 -4 -6 -7 -7 -7 -8 -7 -9 -12 -16 -16 -15 -15 -16 -16 -16
-6 -6 -7 -6 -6 -6 -6 -6 -6 -5 -6 -6 -6 -6 -5 -5 -4 -7 -8 -8 -6 -3 -3 -3 -2 -1 -3 -3 -3 -3 -3 -3 -3 -2 -3 -4 -5 -6 -7 -8 -8 -9 -12 -15 -18 -18 -16 -15 -16 -16 -16 -16 -15 -15
-6 -6 -6 -8 -7 -7 -7 -7 -6 -6 -6 -6 -6 -5 -6 -8 -9 -9 -9 -8 -6 -5 -4 -3 -3 -2 -3 -3 -3 -3 -3 -7 -8 -6 -6 -6 -7 -7 -7 -9 -15 -18 -20 -19 -15 -15 -17 -16 -17 -16 -16 -15 -15 -15
-6 -5 -8 -9 -9 -7 -9 -10 -9 -8 -7 -6 -7 -8 -10 -11 -10 -10 -9 -8 -7 -6 -5 -3 -2 -3 -3 -2 -3 -4 -6 -8 -8 -7 -9 -9 -8 -9 -15 -17 -20 -18 -16 -16 -18 -17 -17 -17 -16 -15 -15 -15 -15 -15
-6 -8 -9 -10 -11 -11 -11 -10 -9 -8 -8 -8 -7 -8 -9 -9 -8 -8 -8 -8 -8 -6 -5 -4 -3 -3 -2 -3 -4 -4 -5 -5 -5 -8 -9 -9 -12 -17 -20 -19 -16 -16 -18 -17 -17 -17 -17 -16 -15 -15 -15 -15 -15 -15
-7 -9 -10 -11 -12 -10 -10 -9 -8 -8 -8 -8 -9 -8 -8 -8 -8 -8 -8 -8 -8 -7 -6 -5 -4 -4 -3 -2 -3 -3 -3 -6 -9 -9 -12 -16 -21 -21 -17 -17 -18 -17 -17 -17 -17 -17 -15 -15 -15 -15 -15 -15 -15 -15
-9 -10 -10 -11 -11 -11 -9 -8 -8 -9 -8 -8 -10 -9 -9 -8 -7 -8 -7 -7 -7 -7 -6 -5 -4 -3 -3 -3 -2 -4 -8 -10 -14 -19 -21 -20 -18 -18 -18 -18 -17 -17 -17 -17 -16 -15 -15 -15 -15 -15 -15 -15 -14 -14

GFSWCAN_850_dewp_117.txt.gz
Dewpoint
7 6 3 2 1 4 5 3 3 3 3 1 -10 -7 -3 -6 -7 -6 -2 -0 -1 -0 -0 0 -2 -5 -5 -6 -5 -5 -5 -4 -5 -3 -2 -2 -4 -3 -4 -5 -3 -3 -3 -2 -3 -2 -5 -1 -0 -1 -3 1 0 0
7 7 4 3 1 4 4 4 3 3 3 1 -6 -9 -3 -5 -7 -2 0 1 1 0 -0 -0 -1 -2 -5 -5 -4 -5 -4 -5 -5 -3 -3 -3 -2 -4 -5 -5 -5 -4 -5 -3 -4 -4 -7 -2 -3 -2 -1 -1 -0 1
7 7 5 4 1 4 4 4 4 3 3 2 -2 -10 -4 -4 -5 1 2 2 2 1 1 1 -1 -1 -3 -6 -6 -5 -5 -5 -5 -2 -2 -3 -3 -3 -3 -3 -5 -5 -5 -4 -5 -8 -4 -4 -2 -1 -1 -2 -1 -1
6 6 5 4 2 3 4 4 4 4 4 2 -0 -10 -3 -4 -4 2 2 1 2 1 0 -1 -2 -3 -5 -6 -7 -7 -5 -5 -5 -6 -2 -4 -4 -5 -4 -6 -5 -6 -5 -5 -4 -5 -5 -4 -4 -1 -1 -1 -2 -3
7 6 5 4 3 3 4 4 4 4 4 2 -0 -10 -3 -3 -3 1 2 -0 1 0 -1 -3 -4 -4 -5 -6 -6 -7 -7 -7 -6 -5 -3 -2 -4 -5 -6 -6 -5 -6 -4 -4 -6 -7 -7 -6 -5 -3 -2 -2 -3 -4
7 6 6 5 4 3 4 4 4 4 4 2 -1 -9 -2 -1 -1 1 1 1 0 1 -2 -3 -3 -4 -5 -6 -6 -6 -7 -5 -3 -2 -2 -3 -4 -5 -3 -3 -6 -9 -9 -9 -8 -8 -6 -6 -4 -3 -3 -3 -4 -4
7 6 6 5 5 4 4 4 4 4 3 3 -3 -6 -1 -1 -1 1 2 2 1 1 -1 -2 -3 -3 -4 -4 -4 -4 -4 -4 -4 -3 -2 -3 -4 -4 -5 -2 -8 -11 -11 -10 -8 -7 -4 -4 -4 -4 -5 -5 -5 -6
6 6 6 5 5 5 5 4 4 4 3 2 -6 -2 -1 -1 -1 -0 2 1 1 1 -2 -0 -3 -3 -4 -4 -3 -4 -4 -4 -4 -4 -3 -4 -4 -4 -3 -5 -11 -10 -10 -9 -9 -8 -7 -7 -7 -6 -5 -6 -6 -4
5 6 6 5 5 5 5 4 4 3 3 -3 -3 -1 -1 -0 -1 -2 -1 1 1 -1 0 -0 -3 -5 -4 -4 -3 -3 -3 -3 -4 -4 -3 -4 -4 -3 -5 -7 -9 -9 -9 -9 -8 -7 -7 -7 -7 -5 -5 -6 -5 -3
5 5 6 5 5 5 4 4 4 3 1 -1 -1 -1 -0 -1 -2 -2 -3 -0 0 -0 -0 -1 -3 -3 -4 -3 -3 -4 -3 -3 -4 -3 -4 -3 -3 -5 -7 -9 -9 -10 -10 -8 -6 -4 -5 -5 -5 -5 -6 -6 -5 -3
6 5 5 5 5 5 4 4 3 2 -1 -1 -0 -0 -1 -1 -1 -2 -0 -1 -1 -1 -1 -1 -2 -4 -4 -4 -4 -3 -5 -5 -6 -5 -3 -4 -2 -4 -10 -10 -9 -8 -10 -9 -11 -11 -8 -8 -6 -6 -5 -4 -3 -2
5 5 5 4 4 4 4 3 3 0 -1 -1 -1 -1 -1 -1 -1 -1 -1 -1 -1 -1 -1 -1 -3 -4 -4 -4 -3 -3 -3 -4 -3 -4 -5 -5 -4 -9 -8 -8 -9 -7 -7 -8 -9 -9 -8 -6 -6 -6 -5 -4 -3 -3
5 5 4 4 4 4 3 3 2 -0 -1 -1 -1 -1 -1 -1 -1 -1 -1 -0 0 -1 -0 -2 -4 -4 -4 -4 -3 -4 -2 -2 -5 -5 -4 -5 -8 -10 -8 -8 -8 -6 -6 -8 -8 -7 -6 -5 -5 -4 -4 -3 -3 -2
5 4 4 4 4 3 3 3 -1 -1 -1 -1 -1 -2 -2 -1 -2 -2 -3 -2 -2 -2 -1 -2 -4 -4 -4 -2 -3 -1 -3 -4 -5 -4 -4 -5 -9 -9 -8 -7 -7 -6 -7 -7 -6 -5 -4 -4 -4 -4 -4 -3 -3 -2
4 4 4 4 3 3 3 0 -1 -1 -1 -1 -1 -1 -1 -3 -3 -3 -4 -3 -2 -2 -2 -3 -3 -4 -4 -2 -3 -3 -4 -4 -4 -5 -4 -8 -9 -8 -8 -8 -8 -7 -6 -6 -5 -4 -4 -4 -4 -4 -4 -4 -3 -2
4 4 3 3 3 2 0 -1 -1 -1 -1 -1 -2 -1 -3 -3 -3 -1 -2 -2 -2 -3 -3 -5 -4 -1 -1 -2 -2 -3 -4 -4 -5 -5 -8 -7 -7 -7 -7 -7 -7 -6 -6 -4 -4 -4 -4 -4 -4 -5 -4 -3 -3 -3
3 2 2 2 2 0 -1 -1 -1 -1 -1 -1 -2 -1 -2 -3 -3 -2 -2 -2 -2 -3 -3 -4 -2 -2 -3 -1 -2 -4 -5 -5 -7 -8 -8 -10 -8 -8 -8 -7 -7 -5 -4 -4 -4 -4 -4 -4 -4 -4 -4 -4 -4 -4
2 1 1 1 -0 -1 -1 -1 -1 -1 -2 -2 -3 -2 -2 -3 -4 -4 -4 -3 -2 -3 -3 -4 -4 -3 -3 -5 -5 -5 -5 -7 -7 -8 -7 -7 -8 -8 -9 -9 -7 -6 -4 -4 -4 -4 -4 -4 -5 -4 -4 -4 -5 -5
1 0 -0 -0 -1 -2 -1 -1 -1 -2 -2 -2 -2 -3 -3 -3 -3 -5 -6 -6 -4 -3 -3 -3 -3 -2 -3 -5 -5 -6 -6 -6 -7 -7 -6 -6 -8 -9 -9 -7 -7 -5 -4 -4 -4 -4 -5 -6 -4 -4 -4 -4 -5 -7
-0 -1 -1 -1 -2 -1 -2 -3 -1 -2 -4 -2 -2 -2 -3 -3 -3 -4 -4 -3 -3 -2 -3 -3 -3 -2 -2 -3 -4 -6 -7 -5 -4 -5 -5 -6 -6 -8 -7 -6 -6 -5 -4 -3 -4 -5 -4 -4 -4 -5 -6 -8 -9 -11
-1 -2 -1 -2 -1 -1 -2 -3 -2 -1 -2 -2 -2 -2 -3 -2 -2 -2 -2 -2 -2 -2 -2 -2 -3 -4 -4 -4 -4 -4 -11 -10 -7 -5 -5 -4 -5 -5 -5 -4 -5 -4 -3 -4 -5 -4 -5 -6 -7 -8 -8 -10 -12 -15
-1 -2 -1 -2 -1 -3 -3 -3 -3 -3 -3 -3 -2 -3 -4 -4 -3 -2 -2 -2 -2 -2 -3 -4 -3 -3 -3 -4 -4 -6 -8 -9 -6 -5 -5 -5 -4 -4 -4 -3 -3 -3 -4 -6 -6 -7 -8 -7 -7 -8 -10 -12 -14 -16
-1 -1 -1 -2 -3 -4 -5 -3 -4 -4 -3 -3 -3 -4 -5 -5 -3 -3 -3 -3 -3 -4 -4 -4 -4 -4 -3 -4 -5 -7 -7 -4 -5 -4 -5 -4 -4 -3 -3 -3 -4 -5 -5 -6 -8 -8 -7 -6 -6 -6 -8 -10 -13 -15
-1 -1 -2 -3 -4 -5 -5 -5 -4 -4 -4 -4 -4 -4 -5 -4 -3 -3 -3 -6 -5 -5 -5 -5 -4 -3 -4 -4 -4 -6 -6 -5 -5 -4 -4 -3 -3 -3 -3 -3 -4 -6 -8 -9 -7 -7 -6 -5 -5 -6 -7 -7 -8 -10
-1 -2 -3 -4 -5 -6 -5 -5 -6 -8 -7 -8 -9 -6 -5 -4 -5 -4 -7 -6 -6 -5 -5 -5 -4 -3 -2 -2 -1 -1 -3 -3 -3 -3 -3 -3 -3 -3 -3 -3 -4 -4 -6 -7 -6 -5 -5 -4 -5 -6 -6 -6 -7 -9
-3 -5 -4 -5 -5 -7 -7 -6 -8 -8 -9 -9 -9 -9 -5 -7 -5 -5 -6 -5 -5 -5 -4 -3 -3 -2 -2 -2 -1 -1 -2 -3 -2 -3 -3 -3 -3 -3 -3 -4 -5 -5 -5 -5 -5 -4 -4 -5 -6 -7 -7 -10 -14 -15
-4 -5 -5 -5 -5 -6 -6 -7 -6 -8 -8 -7 -8 -7 -5 -3 -5 -6 -5 -5 -3 -3 -3 -3 -3 -2 -2 -2 -1 -0 -1 -2 -2 -3 -3 -2 -2 -3 -4 -5 -5 -4 -4 -3 -4 -5 -6 -7 -8 -13 -16 -15 -16 -16
-5 -6 -6 -6 -8 -6 -8 -8 -8 -6 -7 -7 -8 -6 -7 -7 -5 -6 -7 -7 -5 -4 -3 -3 -3 -2 -2 -2 -1 -1 -2 -3 -3 -3 -3 -3 -3 -3 -2 -2 -2 -3 -4 -5 -6 -7 -11 -16 -17 -16 -16 -16 -16 -16
-8 -6 -7 -9 -10 -11 -10 -8 -8 -7 -6 -7 -8 -8 -8 -6 -7 -8 -8 -9 -6 -4 -4 -4 -3 -2 -2 -1 -2 -2 -2 -2 -3 -3 -3 -3 -2 -3 -3 -4 -6 -6 -6 -8 -13 -17 -16 -16 -17 -17 -17 -16 -16 -16
-7 -6 -10 -13 -10 -9 -11 -9 -8 -7 -7 -7 -7 -7 -8 -9 -9 -9 -9 -8 -6 -5 -5 -5 -3 -3 -2 -3 -4 -4 -3 -3 -3 -3 -4 -5 -5 -5 -7 -7 -8 -11 -16 -19 -18 -16 -17 -17 -17 -17 -16 -16 -16 -16
-6 -8 -12 -13 -13 -11 -10 -9 -8 -8 -7 -7 -7 -7 -9 -9 -9 -9 -9 -8 -7 -6 -6 -6 -5 -4 -2 -3 -3 -3 -3 -3 -5 -5 -3 -4 -7 -8 -7 -12 -17 -20 -18 -16 -18 -18 -17 -17 -16 -16 -16 -16 -16 -16
-8 -11 -13 -12 -13 -10 -9 -8 -8 -8 -8 -8 -8 -8 -8 -8 -8 -9 -8 -8 -8 -7 -6 -6 -5 -5 -3 -2 -2 -2 -4 -5 -3 -2 -8 -9 -9 -10 -15 -19 -19 -16 -18 -17 -17 -17 -17 -16 -16 -16 -16 -16 -15 -15
-9 -10 -11 -12 -10 -11 -10 -9 -9 -9 -8 -8 -9 -9 -9 -8 -9 -7 -8 -8 -8 -7 -7 -6 -6 -4 -3 -2 -3 -3 -3 -2 -3 -8 -8 -9 -13 -19 -21 -17 -18 -18 -17 -17 -17 -17 -16 -16 -16 -16 -16 -15 -15 -14

GFSWCAN_850_dewp_120.txt.gz
Dewpoint
8 8 8 7 6 3 1 3 4 4 3 4 2 -2 -11 -6 -9 -6 -4 -2 -2 -1 -1 -1 -1 -3 -5 -6 -5 -5 -6 -5 -5 -3 -2 -3 -5 -5 -3 -6 -4 -4 -3 -3 -3 -2 -8 -1 -0 -3 -6 -0 -0 0
7 7 8 8 6 5 3 1 4 4 4 4 3 1 -11 -7 -5 -8 -5 -1 -1 -1 -1 -1 -1 -2 -3 -3 -5 -5 -6 -5 -6 -3 -4 -4 -2 -5 -6 -7 -6 -4 -6 -5 -5 -6 -9 -1 -4 -4 -2 -1 -0 -1
7 7 7 7 7 5 4 1 4 4 3 4 4 2 -8 -7 -4 -7 -3 2 2 1 1 1 -2 -2 -3 -2 -3 -5 -6 -6 -4 -3 -2 -3 -2 -4 -3 -4 -6 -6 -6 -4 -6 -9 -6 -5 -2 -3 -2 -2 -2 -2
6 7 6 6 6 6 5 1 3 4 4 4 4 2 -3 -7 -3 -4 0 1 2 1 0 -1 -1 -1 -2 -4 -4 -6 -6 -5 -5 -4 -5 -4 -5 -5 -5 -7 -5 -7 -5 -5 -5 -6 -6 -6 -5 -4 -2 -1 -2 -2
6 6 6 6 6 5 5 3 3 4 5 4 4 3 -1 -7 -3 -3 0 1 1 1 -1 -2 -3 -4 -4 -5 -6 -6 -6 -6 -6 -6 -3 -2 -3 -4 -5 -6 -5 -6 -5 -6 -8 -10 -10 -10 -9 -6 -2 -2 -2 -2
5 6 6 6 6 5 5 4 2 4 4 4 4 3 -2 -6 -2 -1 1 -0 1 2 0 -2 -3 -3 -4 -5 -5 -5 -6 -6 -6 -4 -3 -4 -3 -5 -4 -4 -7 -9 -9 -10 -11 -11 -10 -9 -8 -7 -3 -2 -2 -3
4 5 6 6 6 5 5 4 4 4 4 4 4 3 -3 -2 -1 -0 -0 0 1 1 0 -1 -3 -3 -4 -4 -4 -4 -4 -4 -4 -4 -3 -3 -4 -4 -5 -4 -9 -11 -11 -11 -11 -8 -6 -7 -6 -6 -4 -2 -3 -5
4 5 6 6 6 6 5 4 4 4 4 4 3 2 -2 -1 -1 -0 1 1 2 1 -0 0 -2 -3 -3 -3 -3 -3 -3 -3 -3 -4 -2 -3 -4 -4 -3 -6 -11 -11 -10 -10 -10 -10 -10 -9 -6 -5 -4 -3 -5 -6
5 5 6 6 6 6 5 5 4 4 4 4 3 -0 -1 -0 -0 -1 -0 1 1 1 -0 -0 -1 -4 -3 -4 -3 -3 -3 -3 -5 -4 -4 -3 -4 -3 -4 -6 -9 -11 -9 -10 -10 -10 -8 -7 -7 -6 -5 -5 -6 -7
4 5 5 6 6 6 5 5 4 4 4 3 0 -1 -0 -0 -1 -1 -2 -2 0 0 -1 -0 -1 -3 -4 -3 -3 -4 -3 -3 -4 -3 -4 -3 -3 -6 -9 -10 -11 -11 -10 -9 -9 -6 -6 -6 -7 -7 -7 -7 -7 -7
4 5 5 6 6 6 5 5 4 4 3 -0 -1 -1 -0 -0 -1 -1 -1 -1 -0 -1 -1 -1 -2 -3 -4 -3 -3 -4 -6 -6 -7 -5 -4 -5 -4 -4 -9 -9 -9 -9 -8 -7 -8 -9 -11 -11 -8 -7 -7 -7 -6 -6
4 4 4 5 6 5 5 4 4 3 0 -0 -0 -1 -1 -1 -1 -1 -1 -1 -2 -1 -1 -1 -2 -3 -4 -5 -4 -3 -4 -5 -3 -5 -5 -4 -6 -9 -9 -10 -11 -10 -10 -9 -7 -8 -10 -10 -9 -7 -7 -7 -6 -5
4 4 4 5 5 5 4 4 3 2 -0 -1 -1 -1 -1 -2 -1 -1 -2 -1 -1 -2 -1 -1 -2 -3 -3 -3 -4 -3 -2 -3 -5 -3 -3 -5 -8 -10 -9 -9 -8 -9 -11 -9 -7 -7 -8 -9 -8 -7 -7 -6 -5 -3
3 4 4 4 5 5 4 4 2 1 -0 -1 -1 -1 -1 -1 -2 -3 -3 -3 -2 -2 -1 -1 -4 -4 -4 -2 -3 -2 -4 -4 -4 -3 -5 -6 -8 -9 -9 -9 -9 -8 -9 -9 -7 -7 -7 -8 -7 -6 -6 -6 -4 -3
3 4 4 4 4 4 4 3 2 1 -0 -1 -1 -1 -1 -3 -4 -4 -4 -4 -3 -2 -1 -3 -3 -4 -3 -2 -3 -4 -3 -3 -4 -4 -5 -7 -9 -9 -9 -9 -9 -8 -8 -9 -7 -7 -7 -7 -5 -5 -4 -4 -3 -3
3 3 4 4 4 4 3 1 -0 -0 -1 -1 -2 -1 -3 -3 -3 -3 -3 -3 -2 -1 -2 -3 -3 -2 -2 -3 -2 -3 -4 -4 -5 -6 -8 -8 -7 -8 -8 -7 -7 -7 -7 -8 -7 -6 -6 -5 -5 -5 -4 -3 -3 -4
3 3 3 3 3 3 2 -1 -1 -1 -1 -2 -2 -2 -3 -3 -3 -2 -3 -2 -2 -1 -1 -2 -3 -3 -4 -2 -2 -4 -5 -5 -6 -7 -7 -7 -7 -8 -7 -8 -8 -8 -7 -7 -6 -6 -5 -4 -4 -4 -4 -4 -4 -3
3 3 3 3 3 0 -1 -1 -1 -1 -2 -2 -2 -2 -3 -4 -3 -3 -3 -2 -2 -2 -3 -2 -4 -5 -3 -3 -5 -5 -5 -6 -6 -6 -6 -6 -7 -6 -7 -8 -8 -7 -7 -6 -5 -5 -4 -4 -3 -4 -5 -4 -3 -3
3 3 2 3 0 -2 -2 -2 -1 -2 -3 -2 -3 -2 -3 -4 -4 -5 -5 -3 -2 -2 -3 -4 -4 -5 -4 -5 -5 -5 -5 -5 -6 -6 -6 -6 -6 -6 -6 -7 -7 -7 -6 -5 -4 -4 -4 -4 -4 -5 -5 -4 -4 -5
3 3 3 1 -0 -1 -2 -3 -2 -2 -2 -2 -2 -2 -2 -3 -5 -4 -3 -2 -2 -2 -4 -4 -3 -4 -3 -4 -5 -6 -6 -5 -4 -6 -6 -6 -7 -6 -6 -7 -7 -6 -5 -3 -3 -3 -3 -3 -4 -4 -4 -4 -5 -5
2 2 -0 -1 -1 -1 -2 -2 -1 -2 -3 -2 -2 -3 -3 -3 -3 -3 -3 -3 -2 -3 -4 -4 -5 -5 -6 -6 -6 -5 -5 -5 -5 -5 -6 -7 -8 -6 -5 -6 -6 -4 -3 -3 -3 -3 -4 -5 -5 -4 -5 -5 -7 -8
-1 -1 -3 -2 -2 -3 -3 -3 -3 -2 -3 -2 -2 -3 -3 -2 -3 -2 -3 -2 -3 -4 -4 -5 -5 -5 -5 -5 -6 -6 -6 -4 -5 -5 -6 -7 -7 -6 -5 -3 -3 -3 -2 -2 -3 -3 -4 -5 -5 -5 -7 -8 -10 -12
-2 -2 -2 -2 -3 -4 -5 -3 -4 -3 -3 -3 -2 -4 -5 -5 -3 -3 -2 -2 -3 -3 -4 -4 -4 -4 -4 -4 -4 -5 -5 -5 -5 -5 -5 -6 -4 -3 -4 -3 -2 -3 -3 -2 -3 -4 -5 -5 -6 -7 -8 -10 -12 -14
-2 -1 -2 -3 -4 -5 -4 -5 -4 -4 -3 -3 -3 -4 -6 -4 -3 -3 -4 -7 -5 -4 -3 -4 -3 -3 -4 -4 -4 -4 -4 -4 -4 -4 -4 -4 -2 -3 -3 -3 -3 -3 -2 -3 -4 -5 -6 -7 -7 -8 -9 -10 -12 -13
-1 -2 -3 -5 -5 -6 -6 -6 -6 -6 -4 -5 -6 -6 -5 -4 -3 -4 -7 -7 -6 -5 -5 -5 -4 -4 -4 -4 -4 -4 -4 -4 -4 -6 -5 -4 -3 -3 -3 -3 -3 -2 -2 -3 -5 -6 -7 -6 -6 -7 -8 -7 -8 -8
-3 -5 -4 -6 -7 -8 -7 -6 -6 -6 -4 -5 -7 -9 -7 -6 -7 -6 -8 -7 -7 -7 -7 -5 -4 -4 -4 -4 -4 -4 -4 -5 -5 -5 -4 -4 -4 -3 -3 -3 -3 -2 -3 -5 -7 -7 -6 -5 -5 -5 -6 -7 -8 -10
-4 -6 -5 -6 -7 -7 -6 -6 -7 -6 -6 -6 -6 -7 -8 -6 -6 -7 -7 -6 -6 -6 -5 -4 -4 -4 -4 -4 -3 -3 -3 -3 -2 -1 -1 -2 -3 -3 -3 -3 -3 -4 -5 -5 -6 -6 -4 -4 -4 -6 -7 -9 -14 -15
-5 -6 -6 -7 -7 -7 -6 -6 -6 -6 -8 -8 -7 -6 -6 -6 -6 -6 -5 -5 -6 -5 -4 -4 -3 -3 -3 -3 -3 -2 -2 -1 -2 -2 -3 -3 -4 -4 -3 -3 -3 -4 -6 -5 -4 -3 -3 -5 -7 -10 -15 -16 -16 -17
-7 -6 -7 -7 -8 -8 -8 -7 -6 -7 -6 -6 -6 -7 -8 -7 -6 -5 -6 -7 -8 -6 -4 -4 -3 -3 -3 -2 -2 -2 -2 -2 -3 -4 -4 -5 -4 -4 -4 -3 -5 -4 -2 -3 -3 -4 -5 -8 -15 -16 -17 -17 -17 -16
-6 -7 -9 -11 -8 -7 -10 -9 -8 -7 -7 -7 -7 -6 -6 -6 -6 -6 -8 -9 -9 -7 -5 -5 -4 -3 -3 -3 -4 -5 -5 -4 -3 -2 -4 -3 -4 -3 -3 -2 -2 -2 -3 -4 -5 -8 -13 -16 -16 -17 -17 -17 -16 -16
-7 -9 -11 -12 -11 -11 -10 -9 -8 -7 -7 -7 -7 -7 -8 -8 -7 -8 -9 -9 -9 -7 -6 -6 -5 -5 -4 -4 -4 -5 -5 -5 -4 -3 -3 -2 -2 -2 -2 -3 -4 -4 -5 -7 -15 -19 -17 -17 -17 -17 -16 -16 -16 -17
-9 -14 -12 -12 -13 -10 -9 -8 -8 -8 -8 -7 -8 -8 -7 -7 -7 -8 -8 -9 -9 -7 -6 -6 -6 -5 -5 -5 -4 -4 -4 -4 -4 -3 -2 -2 -3 -3 -4 -5 -4 -7 -15 -19 -17 -17 -17 -18 -17 -17 -17 -17 -17 -16
-10 -11 -12 -14 -11 -12 -10 -9 -9 -12 -9 -10 -9 -9 -8 -8 -9 -6 -7 -8 -9 -7 -7 -6 -6 -5 -6 -5 -4 -4 -3 -3 -3 -2 -2 -2 -3 -5 -4 -7 -16 -19 -17 -18 -18 -17 -17 -17 -17 -17 -17 -16 -16 -15

GFSWCAN_850_dewp_123.txt.gz
Dewpoint
7 7 7 7 8 8 7 6 1 1 4 4 3 3 1 -10 -8 -8 -5 -5 -4 -2 -3 -2 -3 -4 -5 -5 -5 -6 -7 -6 -6 -4 -2 -3 -5 -6 -3 -6 -5 -5 -4 -4 -3 -3 -14 -3 -1 -4 -9 -2 -2 -1
5 7 7 7 7 7 7 7 4 1 4 4 4 3 2 -2 -10 -6 -7 -5 -3 -2 -2 -2 -2 -2 -2 -5 -6 -5 -7 -5 -7 -4 -4 -4 -1 -6 -5 -8 -6 -4 -8 -7 -6 -8 -12 -2 -3 -4 -5 -3 -2 -2
5 5 6 7 7 7 7 7 6 3 2 4 4 4 3 1 -9 -5 -6 -5 -0 -0 -0 -0 -1 -2 -2 -4 -2 -6 -5 -6 -6 -4 -3 -4 -3 -4 -3 -4 -7 -7 -7 -5 -7 -10 -7 -8 -5 -3 -4 -5 -5 -4
5 5 6 6 7 7 7 6 6 5 3 4 4 4 4 2 -5 -6 -4 -5 1 1 1 -0 -1 -1 -1 -1 -1 -1 -5 -6 -5 -4 -5 -4 -3 -5 -5 -8 -6 -8 -6 -6 -5 -7 -8 -9 -9 -10 -7 -3 -2 -2
4 5 5 5 6 6 6 6 6 5 4 4 4 4 4 3 -4 -4 -3 -2 1 1 0 -1 -1 -2 -3 -2 -2 -3 -4 -5 -5 -5 -4 -3 -4 -5 -5 -6 -5 -6 -6 -7 -9 -11 -12 -13 -14 -13 -10 -7 -3 -2
4 4 4 5 5 6 6 6 6 5 5 3 4 4 4 3 -3 -1 -1 -2 -0 1 1 -1 -2 -2 -3 -4 -4 -5 -5 -5 -5 -6 -5 -6 -6 -5 -4 -4 -7 -10 -11 -12 -12 -12 -12 -12 -11 -11 -10 -9 -4 -3
3 4 4 4 5 5 6 6 6 6 5 4 4 4 4 3 -1 -2 -2 -1 -1 1 2 -0 -1 -3 -3 -3 -4 -4 -4 -4 -5 -5 -3 -3 -4 -4 -5 -5 -10 -12 -13 -12 -12 -10 -9 -9 -10 -11 -11 -9 -4 -2
1 2 4 4 3 4 5 6 6 6 5 4 4 4 4 1 -1 -1 0 1 1 1 1 0 -1 -3 -3 -3 -3 -3 -3 -4 -4 -4 -3 -3 -4 -4 -3 -6 -9 -10 -11 -11 -12 -12 -12 -11 -10 -9 -9 -7 -2 -2
-0 1 1 2 2 2 4 5 5 5 5 4 4 4 1 -1 -0 -0 -1 1 1 1 0 -0 0 -2 -3 -4 -3 -3 -3 -3 -4 -4 -4 -3 -4 -3 -5 -6 -10 -11 -11 -12 -12 -11 -10 -10 -10 -8 -8 -6 -4 -3
-3 0 0 1 2 3 3 5 5 5 4 4 3 -0 -1 -1 -0 -0 -0 -1 -0 -0 -0 -0 -0 -3 -4 -4 -3 -3 -3 -3 -4 -4 -4 -3 -3 -6 -7 -8 -9 -10 -10 -11 -10 -9 -9 -9 -9 -9 -8 -7 -7 -6
-7 -3 0 0 1 3 4 5 5 4 3 2 -0 -1 -1 -0 -0 -0 -1 -1 -1 -1 -1 -1 -1 -3 -4 -3 -2 -4 -4 -6 -7 -6 -4 -5 -4 -4 -10 -9 -9 -9 -9 -9 -9 -10 -9 -9 -9 -10 -9 -7 -7 -6
-3 -4 0 1 1 2 4 4 5 3 2 1 0 -1 -1 -1 -1 -1 -1 -1 -1 -1 -1 -1 -1 -3 -4 -4 -3 -4 -5 -6 -5 -5 -5 -4 -5 -9 -10 -10 -9 -9 -9 -9 -9 -9 -8 -8 -8 -8 -9 -8 -7 -7
-9 -3 -3 1 1 3 3 4 4 3 1 -0 -1 -1 -1 -1 -1 -1 -2 -1 -1 -2 -1 -1 -2 -3 -3 -4 -3 -3 -3 -3 -5 -3 -3 -4 -7 -9 -10 -10 -9 -10 -9 -9 -10 -9 -9 -7 -7 -8 -8 -8 -7 -6
-12 -3 -2 0 1 2 3 4 4 1 -0 -0 -2 -2 -1 -2 -1 -2 -4 -4 -3 -2 -1 -2 -2 -1 -3 -2 -2 -2 -4 -4 -4 -3 -4 -6 -9 -9 -9 -9 -9 -9 -9 -9 -8 -9 -9 -8 -7 -7 -8 -8 -7 -6
-4 -2 -1 0 1 2 3 3 3 1 0 -1 -1 -1 -1 -2 -4 -3 -5 -4 -2 -2 -1 -2 -3 -3 -2 -1 -3 -4 -3 -3 -4 -4 -4 -7 -8 -7 -8 -8 -9 -9 -8 -8 -8 -8 -8 -7 -7 -7 -8 -6 -6 -6
-3 -1 -1 -0 0 2 3 4 1 1 0 -1 -1 -1 -2 -3 -4 -4 -4 -2 -1 -1 -2 -1 -1 -1 -0 -2 -3 -4 -4 -3 -4 -4 -7 -8 -7 -6 -6 -7 -7 -7 -7 -8 -7 -7 -7 -7 -6 -7 -6 -5 -5 -5
-3 -2 -1 -0 1 2 3 2 -0 -1 -1 -2 -2 -1 -3 -3 -3 -4 -4 -2 -1 -1 -0 -1 -1 -1 -3 -1 -2 -4 -5 -5 -6 -7 -8 -6 -6 -6 -6 -6 -7 -7 -7 -8 -8 -7 -7 -6 -6 -5 -5 -4 -4 -4
-3 -4 -3 0 2 2 3 -0 -1 -1 -2 -2 -2 -2 -3 -4 -3 -4 -4 -2 -1 -1 -1 -2 -3 -2 -2 -1 -2 -4 -5 -6 -7 -6 -6 -6 -6 -6 -7 -7 -6 -6 -7 -7 -7 -7 -6 -5 -5 -4 -4 -4 -3 -3
-2 -3 -2 -0 2 1 -1 -2 -1 -2 -2 -2 -2 -2 -3 -3 -3 -4 -4 -1 -1 -1 -1 -2 -1 -3 -4 -5 -5 -5 -5 -6 -6 -6 -6 -6 -7 -8 -7 -6 -7 -7 -6 -7 -6 -6 -6 -5 -4 -4 -4 -4 -4 -4
-3 -2 -2 -0 1 -0 -2 -3 -2 -3 -3 -3 -2 -2 -3 -4 -3 -3 -2 -1 -1 -0 -0 -2 -2 -4 -5 -5 -6 -6 -6 -6 -6 -6 -6 -8 -7 -6 -7 -7 -8 -7 -6 -6 -6 -5 -4 -3 -3 -3 -3 -4 -4 -4
-3 -2 -0 0 -1 -1 -2 -2 -2 -2 -3 -3 -2 -3 -3 -3 -2 -2 -1 -1 -1 -1 -1 -1 -3 -3 -4 -5 -5 -5 -6 -6 -5 -6 -7 -7 -6 -6 -6 -7 -7 -7 -6 -6 -5 -5 -3 -3 -3 -3 -3 -4 -4 -4
-2 -0 -1 -1 -2 -2 -3 -2 -3 -2 -2 -3 -2 -3 -3 -3 -3 -2 -1 -1 -1 -2 -3 -3 -3 -3 -4 -4 -5 -5 -5 -5 -5 -5 -5 -6 -5 -5 -6 -6 -6 -6 -5 -5 -5 -4 -3 -3 -3 -3 -4 -4 -4 -4
-1 -1 -1 -2 -4 -4 -4 -3 -4 -3 -2 -2 -2 -3 -4 -3 -2 -2 -1 -2 -2 -3 -3 -3 -3 -4 -4 -5 -5 -5 -6 -6 -5 -5 -5 -5 -5 -5 -5 -6 -5 -4 -4 -4 -4 -2 -1 -2 -3 -4 -4 -4 -5 -7
-1 -1 -2 -4 -5 -5 -4 -5 -4 -4 -3 -2 -2 -4 -4 -4 -2 -2 -2 -5 -3 -3 -3 -3 -3 -4 -4 -4 -4 -5 -4 -4 -4 -4 -4 -4 -4 -4 -4 -4 -4 -3 -3 -3 -3 -2 -2 -2 -3 -4 -4 -5 -8 -11
-1 -3 -4 -5 -5 -7 -6 -6 -6 -5 -5 -4 -5 -5 -5 -4 -4 -4 -6 -7 -5 -5 -4 -4 -3 -3 -3 -4 -4 -4 -4 -4 -4 -4 -4 -4 -4 -4 -4 -4 -3 -3 -3 -3 -2 -2 -2 -3 -4 -4 -5 -7 -11 -13
-3 -5 -6 -9 -7 -7 -7 -6 -6 -6 -6 -5 -5 -6 -6 -4 -3 -4 -8 -7 -7 -7 -7 -5 -5 -4 -4 -4 -4 -4 -4 -5 -5 -4 -5 -5 -4 -4 -4 -4 -3 -3 -4 -3 -2 -2 -3 -4 -5 -5 -8 -11 -10 -7
-6 -7 -6 -6 -7 -7 -6 -6 -7 -5 -5 -6 -7 -6 -5 -4 -4 -7 -7 -7 -8 -8 -8 -7 -7 -6 -6 -6 -5 -5 -5 -5 -4 -4 -4 -5 -4 -5 -5 -3 -2 -3 -3 -3 -2 -2 -4 -5 -6 -8 -8 -5 -6 -7
-7 -6 -5 -7 -8 -7 -6 -6 -5 -5 -6 -8 -7 -6 -6 -7 -6 -7 -6 -6 -6 -5 -5 -5 -4 -4 -4 -4 -4 -4 -4 -4 -3 -3 -3 -4 -4 -3 -2 -2 -3 -3 -2 -2 -2 -4 -6 -6 -6 -4 -4 -5 -8 -14
-8 -7 -7 -8 -10 -8 -7 -6 -5 -7 -7 -6 -5 -7 -8 -7 -7 -6 -5 -5 -5 -5 -6 -5 -4 -3 -3 -3 -3 -3 -3 -3 -3 -4 -4 -4 -4 -4 -4 -4 -4 -3 -3 -4 -5 -5 -5 -3 -3 -5 -6 -11 -15 -17
-6 -7 -9 -10 -8 -7 -10 -9 -8 -7 -7 -7 -7 -7 -7 -6 -6 -6 -5 -5 -4 -5 -7 -7 -5 -4 -4 -4 -3 -3 -3 -3 -3 -3 -3 -4 -4 -4 -4 -4 -3 -3 -3 -4 -4 -4 -4 -4 -6 -8 -14 -16 -17 -17
-8 -9 -10 -10 -10 -11 -10 -9 -8 -7 -7 -7 -7 -6 -7 -6 -6 -6 -5 -5 -6 -8 -8 -7 -5 -5 -5 -4 -4 -4 -4 -4 -4 -4 -4 -3 -3 -4 -4 -3 -2 -3 -4 -3 -4 -4 -4 -6 -13 -16 -17 -17 -16 -16
-10 -11 -9 -8 -11 -10 -9 -8 -8 -8 -8 -7 -7 -7 -7 -7 -6 -6 -7 -7 -8 -9 -9 -6 -5 -6 -5 -5 -5 -5 -5 -4 -5 -5 -4 -3 -3 -3 -3 -3 -3 -3 -3 -3 -3 -4 -9 -16 -17 -17 -17 -17 -17 -16
-11 -12 -13 -12 -11 -11 -10 -9 -10 -13 -10 -13 -10 -9 -8 -8 -7 -5 -6 -6 -8 -9 -7 -6 -6 -6 -5 -5 -5 -6 -5 -4 -4 -4 -4 -3 -2 -2 -2 -3 -3 -3 -3 -4 -7 -16 -16 -17 -18 -17 -17 -17 -16 -16

GFSWCAN_850_dewp_126.txt.gz
Dewpoint
3 3 3 5 6 7 7 8 8 6 5 2 2 4 3 3 -1 -9 -8 -5 -4 -3 -5 -3 -3 -4 -5 -5 -5 -6 -7 -6 -6 -4 -3 -3 -4 -7 -4 -6 -6 -8 -5 -5 -4 -3 -17 -8 -1 -6 -14 -10 -4 -2
3 3 2 3 5 6 7 7 7 7 6 5 2 4 4 4 2 -7 -7 -7 -4 -2 -3 -3 -3 -2 -5 -5 -5 -6 -7 -6 -8 -6 -4 -4 -2 -6 -5 -8 -7 -6 -8 -9 -7 -10 -15 -4 -6 -7 -7 -7 -4 -4
1 2 2 2 4 5 6 7 7 7 7 6 4 3 4 4 3 1 -8 -6 -5 -2 -4 -4 -5 -4 -3 -3 -3 -6 -5 -6 -6 -7 -5 -4 -4 -5 -4 -5 -9 -8 -7 -6 -7 -11 -8 -10 -9 -8 -6 -5 -6 -5
0 0 1 2 4 5 6 6 7 7 6 6 5 3 4 4 4 3 -3 -6 -4 0 1 -1 -2 -1 -2 -2 -2 -3 -4 -6 -5 -4 -3 -4 -4 -6 -5 -8 -7 -10 -7 -6 -6 -8 -9 -11 -10 -12 -11 -10 -6 -4
1 3 3 4 4 4 5 6 6 6 6 6 5 5 3 4 4 3 -2 -5 -3 -3 0 -0 -1 -2 -2 -2 -1 -1 -1 -1 -5 -5 -5 -4 -5 -6 -6 -6 -5 -7 -7 -7 -10 -12 -13 -14 -14 -13 -13 -13 -13 -9
1 2 2 3 4 4 4 5 5 6 6 6 5 5 4 4 4 1 -0 -1 -3 0 1 -0 -1 -2 -3 -2 -2 -1 -1 -3 -4 -5 -6 -6 -7 -5 -5 -4 -7 -10 -11 -12 -12 -12 -13 -13 -14 -12 -12 -12 -12 -10
-7 -2 1 2 3 4 4 4 5 5 5 5 5 5 4 4 3 1 -0 -1 -2 -1 1 1 -1 -2 -3 -3 -3 -4 -4 -4 -5 -5 -3 -4 -4 -5 -6 -5 -9 -10 -10 -11 -12 -11 -11 -12 -12 -12 -11 -11 -11 -10
-10 -11 -7 -2 1 3 3 4 4 4 5 5 5 5 4 4 3 0 0 0 -0 -0 1 1 -1 -3 -3 -3 -3 -3 -4 -4 -4 -4 -4 -4 -4 -4 -3 -6 -8 -8 -8 -9 -9 -11 -12 -12 -12 -11 -11 -10 -9 -9
-9 -11 -13 -9 -3 -0 1 3 4 3 4 4 4 4 3 1 -0 -1 -0 0 0 1 0 -0 0 -2 -3 -3 -3 -3 -3 -3 -4 -4 -4 -3 -4 -3 -5 -6 -8 -9 -9 -9 -9 -9 -10 -11 -11 -11 -11 -10 -9 -9
-9 -11 -13 -14 -10 -4 -2 0 1 2 3 4 4 1 -0 -0 -1 -1 -0 0 0 -0 0 -1 -0 -3 -3 -3 -3 -3 -3 -3 -3 -4 -4 -3 -3 -6 -7 -8 -9 -8 -8 -9 -9 -10 -10 -11 -11 -12 -11 -10 -10 -9
-9 -12 -14 -15 -11 -8 -6 -2 -0 1 3 3 1 -0 -0 -1 -0 -0 -1 -1 -1 -1 -1 -1 -1 -3 -4 -3 -2 -3 -3 -5 -5 -5 -4 -5 -4 -4 -9 -9 -9 -8 -7 -7 -8 -8 -9 -9 -9 -10 -10 -10 -10 -9
-7 -10 -13 -16 -12 -7 -6 -3 -0 1 3 2 1 -1 -1 -1 -1 -2 -1 -1 -1 -0 -1 -1 -1 -3 -4 -4 -2 -3 -2 -5 -3 -5 -4 -3 -5 -8 -9 -10 -9 -9 -9 -8 -8 -9 -9 -9 -8 -8 -8 -8 -8 -8
-7 -6 -10 -14 -16 -16 -6 -7 -2 0 1 1 -0 -1 -2 -2 -1 -1 -2 -1 -2 -2 -1 -1 -1 -3 -3 -1 -1 -2 -2 -3 -5 -4 -3 -4 -6 -10 -10 -9 -9 -9 -9 -9 -9 -9 -9 -9 -8 -8 -8 -7 -7 -8
-5 -8 -11 -14 -16 -14 -6 -2 -4 1 0 -0 -2 -2 -1 -2 -1 -2 -3 -3 -3 -1 -1 -1 -2 -1 -1 -1 -1 -1 -3 -5 -4 -3 -4 -6 -8 -9 -8 -7 -8 -9 -8 -9 -9 -8 -8 -8 -8 -9 -8 -7 -7 -7
-5 -6 -6 -11 -16 -11 -3 -2 -2 0 0 -1 -1 -1 -2 -2 -2 -2 -4 -4 -3 -1 -1 -2 -1 -2 -1 -0 -1 -2 -3 -2 -4 -4 -4 -7 -8 -8 -7 -7 -7 -7 -7 -8 -8 -8 -8 -8 -8 -8 -8 -7 -7 -7
-5 -5 -6 -12 -15 -12 -3 -3 -1 1 -1 -1 -2 -1 -1 -2 -5 -4 -4 -3 -2 -1 -2 -2 -1 -0 -0 0 -2 -3 -3 -2 -3 -4 -6 -8 -7 -6 -6 -7 -7 -7 -7 -7 -8 -8 -8 -8 -8 -7 -7 -6 -7 -7
-8 -5 -8 -11 -10 -5 -4 -2 -0 0 -1 -2 -2 -1 -2 -2 -2 -4 -4 -3 -1 -2 -1 -1 -0 -0 -1 -1 -2 -3 -4 -4 -4 -6 -7 -7 -6 -6 -6 -7 -7 -7 -7 -7 -7 -7 -7 -8 -8 -7 -6 -6 -6 -5
-6 -7 -8 -9 -6 -3 -2 -2 -1 -1 -2 -2 -1 -1 -1 -2 -2 -4 -4 -1 -2 -2 -1 -1 -2 -1 -1 -1 -2 -4 -5 -6 -7 -7 -7 -7 -6 -6 -6 -7 -8 -7 -7 -7 -7 -7 -7 -7 -7 -7 -6 -6 -5 -4
-7 -7 -8 -7 -4 -1 -2 -2 -1 -2 -2 -2 -1 -1 -1 -2 -3 -3 -3 -2 -3 -3 -2 -1 -0 -0 -1 -4 -4 -4 -5 -5 -6 -7 -7 -7 -6 -7 -7 -7 -7 -8 -9 -8 -8 -7 -7 -7 -6 -6 -5 -4 -4 -4
-7 -8 -8 -5 -2 -2 -2 -2 -3 -3 -3 -2 -1 -2 -2 -3 -3 -4 -2 -2 -2 -1 -0 -1 -1 -3 -3 -3 -4 -5 -6 -6 -6 -6 -6 -6 -6 -7 -9 -7 -6 -7 -7 -8 -7 -7 -6 -6 -5 -5 -4 -4 -4 -3
-7 -7 -6 -4 -2 -2 -2 -2 -3 -2 -3 -2 -2 -2 -3 -3 -3 -3 -2 -1 -1 -0 -0 -1 -2 -2 -3 -4 -4 -4 -5 -5 -6 -6 -6 -6 -7 -7 -7 -7 -8 -7 -6 -7 -7 -6 -5 -6 -5 -4 -3 -3 -3 -3
-6 -6 -3 -2 -3 -3 -3 -2 -2 -3 -3 -3 -2 -3 -3 -2 -2 -1 -1 -1 -1 -1 -2 -2 -2 -2 -3 -3 -3 -5 -5 -5 -6 -5 -5 -5 -5 -5 -5 -6 -6 -6 -5 -6 -6 -5 -5 -5 -5 -3 -3 -3 -3 -3
-4 -3 -3 -3 -4 -4 -4 -3 -3 -3 -3 -2 -2 -3 -3 -2 -2 -1 -1 -1 -2 -2 -3 -2 -2 -2 -3 -3 -3 -3 -3 -4 -4 -5 -5 -5 -5 -6 -6 -6 -5 -5 -5 -5 -5 -4 -4 -4 -4 -3 -3 -3 -3 -3
-2 -3 -3 -3 -4 -4 -4 -4 -4 -3 -3 -2 -2 -3 -3 -3 -2 -2 -2 -6 -3 -3 -3 -3 -3 -3 -3 -3 -3 -3 -4 -4 -4 -5 -5 -5 -5 -5 -5 -5 -5 -5 -5 -5 -4 -3 -3 -3 -3 -2 -3 -3 -3 -4
-3 -3 -4 -4 -5 -5 -7 -6 -6 -5 -4 -3 -4 -4 -4 -4 -3 -4 -6 -7 -4 -4 -3 -3 -3 -3 -3 -3 -3 -4 -4 -4 -4 -4 -5 -5 -5 -4 -4 -4 -4 -4 -4 -4 -4 -3 -3 -3 -3 -3 -3 -3 -4 -4
-2 -3 -4 -6 -7 -6 -7 -6 -6 -6 -6 -6 -5 -6 -6 -5 -5 -5 -8 -6 -6 -5 -5 -4 -4 -3 -3 -3 -3 -3 -4 -4 -4 -4 -4 -5 -5 -4 -4 -4 -4 -4 -4 -3 -3 -2 -3 -4 -4 -3 -4 -4 -5 -8
-5 -6 -6 -6 -7 -7 -6 -6 -6 -5 -5 -5 -6 -6 -5 -4 -5 -7 -6 -7 -6 -6 -6 -5 -5 -5 -5 -5 -5 -5 -5 -4 -4 -5 -5 -5 -4 -4 -4 -4 -5 -5 -4 -4 -2 -3 -3 -4 -4 -4 -4 -6 -8 -11
-7 -7 -5 -6 -7 -7 -6 -5 -5 -4 -5 -7 -6 -5 -3 -4 -5 -7 -8 -8 -8 -8 -9 -9 -8 -7 -6 -6 -6 -5 -5 -5 -5 -4 -4 -4 -4 -4 -4 -4 -4 -4 -3 -2 -2 -3 -4 -3 -4 -4 -6 -9 -10 -6
-7 -7 -7 -7 -8 -8 -8 -6 -5 -7 -7 -6 -4 -5 -6 -7 -8 -7 -7 -6 -7 -5 -5 -5 -5 -4 -4 -4 -4 -4 -4 -4 -4 -4 -4 -4 -4 -4 -4 -3 -3 -2 -3 -3 -3 -3 -3 -3 -5 -7 -7 -4 -5 -6
-6 -7 -9 -11 -9 -8 -10 -10 -9 -7 -7 -7 -7 -8 -7 -7 -7 -6 -5 -5 -5 -5 -5 -6 -6 -5 -4 -3 -3 -3 -3 -4 -4 -3 -3 -3 -3 -3 -3 -4 -3 -3 -3 -4 -4 -4 -4 -5 -5 -4 -4 -5 -7 -12
-8 -9 -12 -12 -12 -12 -10 -9 -8 -7 -7 -7 -7 -6 -6 -6 -6 -6 -6 -6 -5 -5 -5 -6 -7 -6 -5 -4 -4 -4 -4 -4 -4 -4 -4 -3 -3 -3 -4 -4 -4 -4 -4 -4 -5 -5 -4 -4 -4 -5 -6 -9 -14 -17
-11 -13 -10 -10 -10 -10 -9 -8 -8 -8 -8 -7 -8 -7 -7 -6 -6 -6 -7 -6 -6 -6 -6 -8 -8 -5 -5 -5 -5 -5 -5 -5 -5 -4 -4 -4 -4 -4 -4 -4 -4 -4 -4 -4 -3 -3 -4 -4 -5 -7 -13 -16 -17 -17
-11 -12 -11 -11 -12 -12 -10 -10 -12 -13 -11 -16 -11 -9 -9 -8 -7 -6 -6 -6 -6 -7 -9 -8 -6 -5 -5 -5 -5 -5 -5 -5 -5 -5 -4 -4 -4 -4 -4 -4 -4 -4 -3 -3 -3 -3 -4 -5 -10 -16 -17 -17 -17 -17